<?xml version="1.0" encoding="UTF-8" standalone="no" ?>
<gpx xmlns="http://www.topografix.com/GPX/1/1" xmlns:xsi="http://www.w3.org/2001/XMLSchema-instance" xsi:schemaLocation="http://www.topografix.com/GPX/1/1 http://www.topografix.com/GPX/1/1/gpx.xsd" version="1.1" creator="VisuGPX - https://www.visugpx.com">
  <metadata>
    <name>ballade vtt du 22 09 2012 yssingeaux-messinhac</name>
    <desc><![CDATA[belle balade d\'Yssingeaux à Messinhac en passant par les six ponts]]></desc>
  </metadata>
  <trk>
    <name><![CDATA[Track 2012-09-22  15:37pm]]></name>
    <trkseg>
      <trkpt lat="45.14576" lon="4.12667">
        <ele>865.3</ele>
        <time>2012-09-22T15:38:37Z</time>
      </trkpt>
      <trkpt lat="45.14578" lon="4.12661">
        <ele>865</ele>
        <time>2012-09-22T15:39:01Z</time>
      </trkpt>
      <trkpt lat="45.14584" lon="4.12659">
        <ele>864.7</ele>
        <time>2012-09-22T15:39:27Z</time>
      </trkpt>
      <trkpt lat="45.14589" lon="4.12657">
        <ele>864.7</ele>
        <time>2012-09-22T15:39:29Z</time>
      </trkpt>
      <trkpt lat="45.14594" lon="4.12655">
        <ele>864.6</ele>
        <time>2012-09-22T15:39:31Z</time>
      </trkpt>
      <trkpt lat="45.146" lon="4.12656">
        <ele>864.6</ele>
        <time>2012-09-22T15:39:34Z</time>
      </trkpt>
      <trkpt lat="45.14602" lon="4.12663">
        <ele>864.9</ele>
        <time>2012-09-22T15:39:36Z</time>
      </trkpt>
      <trkpt lat="45.14601" lon="4.1267">
        <ele>865.2</ele>
        <time>2012-09-22T15:39:38Z</time>
      </trkpt>
      <trkpt lat="45.146" lon="4.12677">
        <ele>865.7</ele>
        <time>2012-09-22T15:39:40Z</time>
      </trkpt>
      <trkpt lat="45.14598" lon="4.12683">
        <ele>866.1</ele>
        <time>2012-09-22T15:39:42Z</time>
      </trkpt>
      <trkpt lat="45.14597" lon="4.12689">
        <ele>-6.1E-5</ele>
        <time>2012-09-22T15:39:44Z</time>
      </trkpt>
      <trkpt lat="45.14595" lon="4.12695">
        <ele>867</ele>
        <time>2012-09-22T15:39:46Z</time>
      </trkpt>
      <trkpt lat="45.14594" lon="4.12701">
        <ele>867.3</ele>
        <time>2012-09-22T15:39:48Z</time>
      </trkpt>
      <trkpt lat="45.14593" lon="4.12711">
        <ele>867.6</ele>
        <time>2012-09-22T15:39:51Z</time>
      </trkpt>
      <trkpt lat="45.14592" lon="4.12717">
        <ele>867.8</ele>
        <time>2012-09-22T15:39:53Z</time>
      </trkpt>
      <trkpt lat="45.14591" lon="4.12723">
        <ele>868</ele>
        <time>2012-09-22T15:39:58Z</time>
      </trkpt>
      <trkpt lat="45.14594" lon="4.1273">
        <ele>867.9</ele>
        <time>2012-09-22T15:40:09Z</time>
      </trkpt>
      <trkpt lat="45.14598" lon="4.12735">
        <ele>867.7</ele>
        <time>2012-09-22T15:40:12Z</time>
      </trkpt>
      <trkpt lat="45.14602" lon="4.1274">
        <ele>867.6</ele>
        <time>2012-09-22T15:40:14Z</time>
      </trkpt>
      <trkpt lat="45.14607" lon="4.12745">
        <ele>867.3</ele>
        <time>2012-09-22T15:40:16Z</time>
      </trkpt>
      <trkpt lat="45.14614" lon="4.12752">
        <ele>867</ele>
        <time>2012-09-22T15:40:18Z</time>
      </trkpt>
      <trkpt lat="45.14617" lon="4.12756">
        <ele>867</ele>
        <time>2012-09-22T15:40:19Z</time>
      </trkpt>
      <trkpt lat="45.14621" lon="4.1276">
        <ele>866.9</ele>
        <time>2012-09-22T15:40:20Z</time>
      </trkpt>
      <trkpt lat="45.14625" lon="4.12764">
        <ele>866.8</ele>
        <time>2012-09-22T15:40:21Z</time>
      </trkpt>
      <trkpt lat="45.14632" lon="4.12771">
        <ele>-6.1E-5</ele>
        <time>2012-09-22T15:40:23Z</time>
      </trkpt>
      <trkpt lat="45.14636" lon="4.12773">
        <ele>866.2</ele>
        <time>2012-09-22T15:40:24Z</time>
      </trkpt>
      <trkpt lat="45.14641" lon="4.12776">
        <ele>-6.1E-5</ele>
        <time>2012-09-22T15:40:25Z</time>
      </trkpt>
      <trkpt lat="45.14646" lon="4.12779">
        <ele>866</ele>
        <time>2012-09-22T15:40:26Z</time>
      </trkpt>
      <trkpt lat="45.14651" lon="4.12783">
        <ele>865.8</ele>
        <time>2012-09-22T15:40:27Z</time>
      </trkpt>
      <trkpt lat="45.14657" lon="4.12786">
        <ele>865.7</ele>
        <time>2012-09-22T15:40:28Z</time>
      </trkpt>
      <trkpt lat="45.14663" lon="4.1279">
        <ele>865.6</ele>
        <time>2012-09-22T15:40:29Z</time>
      </trkpt>
      <trkpt lat="45.1467" lon="4.12792">
        <ele>865.5</ele>
        <time>2012-09-22T15:40:30Z</time>
      </trkpt>
      <trkpt lat="45.14676" lon="4.12795">
        <ele>865.5</ele>
        <time>2012-09-22T15:40:31Z</time>
      </trkpt>
      <trkpt lat="45.14682" lon="4.12796">
        <ele>-6.1E-5</ele>
        <time>2012-09-22T15:40:32Z</time>
      </trkpt>
      <trkpt lat="45.14687" lon="4.12798">
        <ele>-6.1E-5</ele>
        <time>2012-09-22T15:40:33Z</time>
      </trkpt>
      <trkpt lat="45.14693" lon="4.12799">
        <ele>865.7</ele>
        <time>2012-09-22T15:40:34Z</time>
      </trkpt>
      <trkpt lat="45.14699" lon="4.128">
        <ele>865.8</ele>
        <time>2012-09-22T15:40:35Z</time>
      </trkpt>
      <trkpt lat="45.14704" lon="4.128">
        <ele>865.9</ele>
        <time>2012-09-22T15:40:36Z</time>
      </trkpt>
      <trkpt lat="45.14709" lon="4.12801">
        <ele>865.9</ele>
        <time>2012-09-22T15:40:37Z</time>
      </trkpt>
      <trkpt lat="45.14715" lon="4.12802">
        <ele>866</ele>
        <time>2012-09-22T15:40:38Z</time>
      </trkpt>
      <trkpt lat="45.1472" lon="4.12803">
        <ele>866</ele>
        <time>2012-09-22T15:40:39Z</time>
      </trkpt>
      <trkpt lat="45.14725" lon="4.12804">
        <ele>865.9</ele>
        <time>2012-09-22T15:40:40Z</time>
      </trkpt>
      <trkpt lat="45.1473" lon="4.12805">
        <ele>865.7</ele>
        <time>2012-09-22T15:40:41Z</time>
      </trkpt>
      <trkpt lat="45.14735" lon="4.12806">
        <ele>865.6</ele>
        <time>2012-09-22T15:40:42Z</time>
      </trkpt>
      <trkpt lat="45.1474" lon="4.12808">
        <ele>865.4</ele>
        <time>2012-09-22T15:40:43Z</time>
      </trkpt>
      <trkpt lat="45.14745" lon="4.12809">
        <ele>865.3</ele>
        <time>2012-09-22T15:40:44Z</time>
      </trkpt>
      <trkpt lat="45.1475" lon="4.1281">
        <ele>865.2</ele>
        <time>2012-09-22T15:40:45Z</time>
      </trkpt>
      <trkpt lat="45.14756" lon="4.12812">
        <ele>-6.1E-5</ele>
        <time>2012-09-22T15:40:46Z</time>
      </trkpt>
      <trkpt lat="45.14761" lon="4.12814">
        <ele>-6.1E-5</ele>
        <time>2012-09-22T15:40:47Z</time>
      </trkpt>
      <trkpt lat="45.14766" lon="4.12817">
        <ele>-6.1E-5</ele>
        <time>2012-09-22T15:40:48Z</time>
      </trkpt>
      <trkpt lat="45.14771" lon="4.1282">
        <ele>864</ele>
        <time>2012-09-22T15:40:49Z</time>
      </trkpt>
      <trkpt lat="45.14777" lon="4.12823">
        <ele>863.5</ele>
        <time>2012-09-22T15:40:50Z</time>
      </trkpt>
      <trkpt lat="45.14782" lon="4.12826">
        <ele>863</ele>
        <time>2012-09-22T15:40:51Z</time>
      </trkpt>
      <trkpt lat="45.14787" lon="4.12828">
        <ele>862.5</ele>
        <time>2012-09-22T15:40:52Z</time>
      </trkpt>
      <trkpt lat="45.14792" lon="4.12831">
        <ele>862</ele>
        <time>2012-09-22T15:40:53Z</time>
      </trkpt>
      <trkpt lat="45.14798" lon="4.12833">
        <ele>861.6</ele>
        <time>2012-09-22T15:40:54Z</time>
      </trkpt>
      <trkpt lat="45.14803" lon="4.12835">
        <ele>861.2</ele>
        <time>2012-09-22T15:40:55Z</time>
      </trkpt>
      <trkpt lat="45.14808" lon="4.12837">
        <ele>860.6</ele>
        <time>2012-09-22T15:40:56Z</time>
      </trkpt>
      <trkpt lat="45.14813" lon="4.12839">
        <ele>-6.1E-5</ele>
        <time>2012-09-22T15:40:57Z</time>
      </trkpt>
      <trkpt lat="45.14819" lon="4.12841">
        <ele>859.6</ele>
        <time>2012-09-22T15:40:58Z</time>
      </trkpt>
      <trkpt lat="45.14824" lon="4.12843">
        <ele>859.1</ele>
        <time>2012-09-22T15:40:59Z</time>
      </trkpt>
      <trkpt lat="45.14831" lon="4.12846">
        <ele>858.7</ele>
        <time>2012-09-22T15:41:00Z</time>
      </trkpt>
      <trkpt lat="45.14838" lon="4.12851">
        <ele>858.5</ele>
        <time>2012-09-22T15:41:01Z</time>
      </trkpt>
      <trkpt lat="45.14847" lon="4.12856">
        <ele>-6.1E-5</ele>
        <time>2012-09-22T15:41:02Z</time>
      </trkpt>
      <trkpt lat="45.14855" lon="4.12861">
        <ele>858.2</ele>
        <time>2012-09-22T15:41:03Z</time>
      </trkpt>
      <trkpt lat="45.14863" lon="4.12867">
        <ele>857.6</ele>
        <time>2012-09-22T15:41:04Z</time>
      </trkpt>
      <trkpt lat="45.14871" lon="4.12872">
        <ele>856.6</ele>
        <time>2012-09-22T15:41:05Z</time>
      </trkpt>
      <trkpt lat="45.14879" lon="4.12878">
        <ele>856</ele>
        <time>2012-09-22T15:41:06Z</time>
      </trkpt>
      <trkpt lat="45.14887" lon="4.12884">
        <ele>855.7</ele>
        <time>2012-09-22T15:41:07Z</time>
      </trkpt>
      <trkpt lat="45.14895" lon="4.12889">
        <ele>855.6</ele>
        <time>2012-09-22T15:41:08Z</time>
      </trkpt>
      <trkpt lat="45.14903" lon="4.12895">
        <ele>855.2</ele>
        <time>2012-09-22T15:41:09Z</time>
      </trkpt>
      <trkpt lat="45.14911" lon="4.12901">
        <ele>854.9</ele>
        <time>2012-09-22T15:41:10Z</time>
      </trkpt>
      <trkpt lat="45.14918" lon="4.12906">
        <ele>854.5</ele>
        <time>2012-09-22T15:41:11Z</time>
      </trkpt>
      <trkpt lat="45.14926" lon="4.12911">
        <ele>854.5</ele>
        <time>2012-09-22T15:41:12Z</time>
      </trkpt>
      <trkpt lat="45.14934" lon="4.12917">
        <ele>854.4</ele>
        <time>2012-09-22T15:41:13Z</time>
      </trkpt>
      <trkpt lat="45.14942" lon="4.12922">
        <ele>854.1</ele>
        <time>2012-09-22T15:41:14Z</time>
      </trkpt>
      <trkpt lat="45.14949" lon="4.12927">
        <ele>853.8</ele>
        <time>2012-09-22T15:41:15Z</time>
      </trkpt>
      <trkpt lat="45.14957" lon="4.12932">
        <ele>-6.1E-5</ele>
        <time>2012-09-22T15:41:16Z</time>
      </trkpt>
      <trkpt lat="45.14964" lon="4.12936">
        <ele>-6.1E-5</ele>
        <time>2012-09-22T15:41:17Z</time>
      </trkpt>
      <trkpt lat="45.14971" lon="4.12941">
        <ele>-6.1E-5</ele>
        <time>2012-09-22T15:41:18Z</time>
      </trkpt>
      <trkpt lat="45.14979" lon="4.12945">
        <ele>852.8</ele>
        <time>2012-09-22T15:41:19Z</time>
      </trkpt>
      <trkpt lat="45.14986" lon="4.12949">
        <ele>852.6</ele>
        <time>2012-09-22T15:41:20Z</time>
      </trkpt>
      <trkpt lat="45.14993" lon="4.12953">
        <ele>852.5</ele>
        <time>2012-09-22T15:41:21Z</time>
      </trkpt>
      <trkpt lat="45.15" lon="4.12957">
        <ele>852.5</ele>
        <time>2012-09-22T15:41:22Z</time>
      </trkpt>
      <trkpt lat="45.15007" lon="4.12961">
        <ele>852.2</ele>
        <time>2012-09-22T15:41:23Z</time>
      </trkpt>
      <trkpt lat="45.15013" lon="4.12964">
        <ele>851.9</ele>
        <time>2012-09-22T15:41:24Z</time>
      </trkpt>
      <trkpt lat="45.1502" lon="4.12968">
        <ele>851.5</ele>
        <time>2012-09-22T15:41:25Z</time>
      </trkpt>
      <trkpt lat="45.15027" lon="4.12972">
        <ele>851.1</ele>
        <time>2012-09-22T15:41:26Z</time>
      </trkpt>
      <trkpt lat="45.15033" lon="4.12976">
        <ele>-6.1E-5</ele>
        <time>2012-09-22T15:41:27Z</time>
      </trkpt>
      <trkpt lat="45.1504" lon="4.1298">
        <ele>849.8</ele>
        <time>2012-09-22T15:41:28Z</time>
      </trkpt>
      <trkpt lat="45.15047" lon="4.12985">
        <ele>849.3</ele>
        <time>2012-09-22T15:41:29Z</time>
      </trkpt>
      <trkpt lat="45.15053" lon="4.1299">
        <ele>848.8</ele>
        <time>2012-09-22T15:41:30Z</time>
      </trkpt>
      <trkpt lat="45.1506" lon="4.12994">
        <ele>848.5</ele>
        <time>2012-09-22T15:41:31Z</time>
      </trkpt>
      <trkpt lat="45.15067" lon="4.12998">
        <ele>848.5</ele>
        <time>2012-09-22T15:41:32Z</time>
      </trkpt>
      <trkpt lat="45.15074" lon="4.13003">
        <ele>848.4</ele>
        <time>2012-09-22T15:41:33Z</time>
      </trkpt>
      <trkpt lat="45.15081" lon="4.13007">
        <ele>848.3</ele>
        <time>2012-09-22T15:41:34Z</time>
      </trkpt>
      <trkpt lat="45.15088" lon="4.13011">
        <ele>847.9</ele>
        <time>2012-09-22T15:41:35Z</time>
      </trkpt>
      <trkpt lat="45.15095" lon="4.13015">
        <ele>847.5</ele>
        <time>2012-09-22T15:41:36Z</time>
      </trkpt>
      <trkpt lat="45.15102" lon="4.13019">
        <ele>-6.1E-5</ele>
        <time>2012-09-22T15:41:37Z</time>
      </trkpt>
      <trkpt lat="45.15109" lon="4.13023">
        <ele>-6.1E-5</ele>
        <time>2012-09-22T15:41:38Z</time>
      </trkpt>
      <trkpt lat="45.15116" lon="4.13028">
        <ele>846.6</ele>
        <time>2012-09-22T15:41:39Z</time>
      </trkpt>
      <trkpt lat="45.15123" lon="4.13032">
        <ele>846.5</ele>
        <time>2012-09-22T15:41:40Z</time>
      </trkpt>
      <trkpt lat="45.15131" lon="4.13036">
        <ele>846.3</ele>
        <time>2012-09-22T15:41:41Z</time>
      </trkpt>
      <trkpt lat="45.15138" lon="4.1304">
        <ele>846</ele>
        <time>2012-09-22T15:41:42Z</time>
      </trkpt>
      <trkpt lat="45.15145" lon="4.13044">
        <ele>845.5</ele>
        <time>2012-09-22T15:41:43Z</time>
      </trkpt>
      <trkpt lat="45.15152" lon="4.13049">
        <ele>-6.1E-5</ele>
        <time>2012-09-22T15:41:44Z</time>
      </trkpt>
      <trkpt lat="45.15159" lon="4.13053">
        <ele>844</ele>
        <time>2012-09-22T15:41:45Z</time>
      </trkpt>
      <trkpt lat="45.15167" lon="4.13057">
        <ele>843.3</ele>
        <time>2012-09-22T15:41:46Z</time>
      </trkpt>
      <trkpt lat="45.15174" lon="4.13062">
        <ele>-6.1E-5</ele>
        <time>2012-09-22T15:41:47Z</time>
      </trkpt>
      <trkpt lat="45.15182" lon="4.13066">
        <ele>-6.1E-5</ele>
        <time>2012-09-22T15:41:48Z</time>
      </trkpt>
      <trkpt lat="45.1519" lon="4.13072">
        <ele>-6.1E-5</ele>
        <time>2012-09-22T15:41:49Z</time>
      </trkpt>
      <trkpt lat="45.15199" lon="4.13077">
        <ele>840.1</ele>
        <time>2012-09-22T15:41:50Z</time>
      </trkpt>
      <trkpt lat="45.15207" lon="4.13083">
        <ele>839.6</ele>
        <time>2012-09-22T15:41:51Z</time>
      </trkpt>
      <trkpt lat="45.15216" lon="4.13089">
        <ele>838.7</ele>
        <time>2012-09-22T15:41:52Z</time>
      </trkpt>
      <trkpt lat="45.15225" lon="4.13096">
        <ele>837.7</ele>
        <time>2012-09-22T15:41:53Z</time>
      </trkpt>
      <trkpt lat="45.15235" lon="4.13103">
        <ele>-6.1E-5</ele>
        <time>2012-09-22T15:41:54Z</time>
      </trkpt>
      <trkpt lat="45.15244" lon="4.1311">
        <ele>835.7</ele>
        <time>2012-09-22T15:41:55Z</time>
      </trkpt>
      <trkpt lat="45.15253" lon="4.13116">
        <ele>834.4</ele>
        <time>2012-09-22T15:41:56Z</time>
      </trkpt>
      <trkpt lat="45.15262" lon="4.13122">
        <ele>833.3</ele>
        <time>2012-09-22T15:41:57Z</time>
      </trkpt>
      <trkpt lat="45.15272" lon="4.13128">
        <ele>832.7</ele>
        <time>2012-09-22T15:41:58Z</time>
      </trkpt>
      <trkpt lat="45.15281" lon="4.13135">
        <ele>832.3</ele>
        <time>2012-09-22T15:41:59Z</time>
      </trkpt>
      <trkpt lat="45.15291" lon="4.13142">
        <ele>831.6</ele>
        <time>2012-09-22T15:42:00Z</time>
      </trkpt>
      <trkpt lat="45.15301" lon="4.13148">
        <ele>830.7</ele>
        <time>2012-09-22T15:42:01Z</time>
      </trkpt>
      <trkpt lat="45.15311" lon="4.13154">
        <ele>-6.1E-5</ele>
        <time>2012-09-22T15:42:02Z</time>
      </trkpt>
      <trkpt lat="45.15321" lon="4.1316">
        <ele>828.9</ele>
        <time>2012-09-22T15:42:03Z</time>
      </trkpt>
      <trkpt lat="45.15331" lon="4.13165">
        <ele>828.1</ele>
        <time>2012-09-22T15:42:04Z</time>
      </trkpt>
      <trkpt lat="45.15341" lon="4.13171">
        <ele>827.4</ele>
        <time>2012-09-22T15:42:05Z</time>
      </trkpt>
      <trkpt lat="45.15351" lon="4.13177">
        <ele>-6.1E-5</ele>
        <time>2012-09-22T15:42:06Z</time>
      </trkpt>
      <trkpt lat="45.15361" lon="4.13183">
        <ele>-6.1E-5</ele>
        <time>2012-09-22T15:42:07Z</time>
      </trkpt>
      <trkpt lat="45.1537" lon="4.13189">
        <ele>825.9</ele>
        <time>2012-09-22T15:42:08Z</time>
      </trkpt>
      <trkpt lat="45.15379" lon="4.13194">
        <ele>826</ele>
        <time>2012-09-22T15:42:09Z</time>
      </trkpt>
      <trkpt lat="45.15388" lon="4.13199">
        <ele>826</ele>
        <time>2012-09-22T15:42:10Z</time>
      </trkpt>
      <trkpt lat="45.15395" lon="4.13204">
        <ele>-6.1E-5</ele>
        <time>2012-09-22T15:42:11Z</time>
      </trkpt>
      <trkpt lat="45.15403" lon="4.13209">
        <ele>825.5</ele>
        <time>2012-09-22T15:42:12Z</time>
      </trkpt>
      <trkpt lat="45.15409" lon="4.13215">
        <ele>825.3</ele>
        <time>2012-09-22T15:42:13Z</time>
      </trkpt>
      <trkpt lat="45.15414" lon="4.13221">
        <ele>825.1</ele>
        <time>2012-09-22T15:42:14Z</time>
      </trkpt>
      <trkpt lat="45.1542" lon="4.13226">
        <ele>-6.1E-5</ele>
        <time>2012-09-22T15:42:15Z</time>
      </trkpt>
      <trkpt lat="45.15426" lon="4.13229">
        <ele>825.2</ele>
        <time>2012-09-22T15:42:16Z</time>
      </trkpt>
      <trkpt lat="45.15432" lon="4.13225">
        <ele>824.6</ele>
        <time>2012-09-22T15:42:17Z</time>
      </trkpt>
      <trkpt lat="45.15436" lon="4.13217">
        <ele>824.3</ele>
        <time>2012-09-22T15:42:18Z</time>
      </trkpt>
      <trkpt lat="45.15439" lon="4.13209">
        <ele>-6.1E-5</ele>
        <time>2012-09-22T15:42:19Z</time>
      </trkpt>
      <trkpt lat="45.1544" lon="4.132">
        <ele>-6.1E-5</ele>
        <time>2012-09-22T15:42:20Z</time>
      </trkpt>
      <trkpt lat="45.1544" lon="4.13192">
        <ele>823.9</ele>
        <time>2012-09-22T15:42:21Z</time>
      </trkpt>
      <trkpt lat="45.15435" lon="4.13185">
        <ele>-6.1E-5</ele>
        <time>2012-09-22T15:42:22Z</time>
      </trkpt>
      <trkpt lat="45.15431" lon="4.1318">
        <ele>823.5</ele>
        <time>2012-09-22T15:42:23Z</time>
      </trkpt>
      <trkpt lat="45.15426" lon="4.13175">
        <ele>823.5</ele>
        <time>2012-09-22T15:42:24Z</time>
      </trkpt>
      <trkpt lat="45.15423" lon="4.1317">
        <ele>823.5</ele>
        <time>2012-09-22T15:42:25Z</time>
      </trkpt>
      <trkpt lat="45.15418" lon="4.13165">
        <ele>823.6</ele>
        <time>2012-09-22T15:42:26Z</time>
      </trkpt>
      <trkpt lat="45.15413" lon="4.13161">
        <ele>823.1</ele>
        <time>2012-09-22T15:42:27Z</time>
      </trkpt>
      <trkpt lat="45.15408" lon="4.13159">
        <ele>822.8</ele>
        <time>2012-09-22T15:42:28Z</time>
      </trkpt>
      <trkpt lat="45.15402" lon="4.13159">
        <ele>822.7</ele>
        <time>2012-09-22T15:42:29Z</time>
      </trkpt>
      <trkpt lat="45.15396" lon="4.1316">
        <ele>822.8</ele>
        <time>2012-09-22T15:42:30Z</time>
      </trkpt>
      <trkpt lat="45.1539" lon="4.13161">
        <ele>823.1</ele>
        <time>2012-09-22T15:42:31Z</time>
      </trkpt>
      <trkpt lat="45.15385" lon="4.13163">
        <ele>823.6</ele>
        <time>2012-09-22T15:42:32Z</time>
      </trkpt>
      <trkpt lat="45.15379" lon="4.13162">
        <ele>824</ele>
        <time>2012-09-22T15:42:33Z</time>
      </trkpt>
      <trkpt lat="45.15374" lon="4.13159">
        <ele>824</ele>
        <time>2012-09-22T15:42:34Z</time>
      </trkpt>
      <trkpt lat="45.15368" lon="4.13155">
        <ele>823.9</ele>
        <time>2012-09-22T15:42:35Z</time>
      </trkpt>
      <trkpt lat="45.15363" lon="4.13151">
        <ele>824.1</ele>
        <time>2012-09-22T15:42:36Z</time>
      </trkpt>
      <trkpt lat="45.15358" lon="4.13147">
        <ele>-6.1E-5</ele>
        <time>2012-09-22T15:42:37Z</time>
      </trkpt>
      <trkpt lat="45.15353" lon="4.13144">
        <ele>824.4</ele>
        <time>2012-09-22T15:42:38Z</time>
      </trkpt>
      <trkpt lat="45.15348" lon="4.13141">
        <ele>-6.1E-5</ele>
        <time>2012-09-22T15:42:39Z</time>
      </trkpt>
      <trkpt lat="45.15343" lon="4.13137">
        <ele>824.8</ele>
        <time>2012-09-22T15:42:40Z</time>
      </trkpt>
      <trkpt lat="45.15338" lon="4.13133">
        <ele>825.1</ele>
        <time>2012-09-22T15:42:41Z</time>
      </trkpt>
      <trkpt lat="45.15333" lon="4.13129">
        <ele>825.3</ele>
        <time>2012-09-22T15:42:42Z</time>
      </trkpt>
      <trkpt lat="45.15329" lon="4.13124">
        <ele>825.5</ele>
        <time>2012-09-22T15:42:43Z</time>
      </trkpt>
      <trkpt lat="45.15325" lon="4.13119">
        <ele>825.6</ele>
        <time>2012-09-22T15:42:44Z</time>
      </trkpt>
      <trkpt lat="45.15321" lon="4.13114">
        <ele>825.6</ele>
        <time>2012-09-22T15:42:45Z</time>
      </trkpt>
      <trkpt lat="45.15318" lon="4.13109">
        <ele>-6.1E-5</ele>
        <time>2012-09-22T15:42:46Z</time>
      </trkpt>
      <trkpt lat="45.15315" lon="4.13103">
        <ele>825.8</ele>
        <time>2012-09-22T15:42:47Z</time>
      </trkpt>
      <trkpt lat="45.15312" lon="4.13098">
        <ele>825.9</ele>
        <time>2012-09-22T15:42:48Z</time>
      </trkpt>
      <trkpt lat="45.1531" lon="4.13092">
        <ele>826</ele>
        <time>2012-09-22T15:42:49Z</time>
      </trkpt>
      <trkpt lat="45.15307" lon="4.13086">
        <ele>826</ele>
        <time>2012-09-22T15:42:50Z</time>
      </trkpt>
      <trkpt lat="45.15305" lon="4.13081">
        <ele>826.1</ele>
        <time>2012-09-22T15:42:51Z</time>
      </trkpt>
      <trkpt lat="45.15303" lon="4.13075">
        <ele>826.4</ele>
        <time>2012-09-22T15:42:52Z</time>
      </trkpt>
      <trkpt lat="45.15301" lon="4.13069">
        <ele>826.6</ele>
        <time>2012-09-22T15:42:53Z</time>
      </trkpt>
      <trkpt lat="45.15298" lon="4.13063">
        <ele>826.8</ele>
        <time>2012-09-22T15:42:54Z</time>
      </trkpt>
      <trkpt lat="45.15296" lon="4.13057">
        <ele>827.1</ele>
        <time>2012-09-22T15:42:55Z</time>
      </trkpt>
      <trkpt lat="45.15294" lon="4.13052">
        <ele>827.1</ele>
        <time>2012-09-22T15:42:56Z</time>
      </trkpt>
      <trkpt lat="45.15291" lon="4.13046">
        <ele>827</ele>
        <time>2012-09-22T15:42:57Z</time>
      </trkpt>
      <trkpt lat="45.15289" lon="4.1304">
        <ele>826.9</ele>
        <time>2012-09-22T15:42:58Z</time>
      </trkpt>
      <trkpt lat="45.15286" lon="4.13034">
        <ele>826.8</ele>
        <time>2012-09-22T15:42:59Z</time>
      </trkpt>
      <trkpt lat="45.15284" lon="4.13028">
        <ele>826.6</ele>
        <time>2012-09-22T15:43:00Z</time>
      </trkpt>
      <trkpt lat="45.15281" lon="4.13023">
        <ele>826.7</ele>
        <time>2012-09-22T15:43:01Z</time>
      </trkpt>
      <trkpt lat="45.15279" lon="4.13017">
        <ele>826.9</ele>
        <time>2012-09-22T15:43:02Z</time>
      </trkpt>
      <trkpt lat="45.15276" lon="4.13011">
        <ele>827.2</ele>
        <time>2012-09-22T15:43:03Z</time>
      </trkpt>
      <trkpt lat="45.15274" lon="4.13005">
        <ele>827.5</ele>
        <time>2012-09-22T15:43:04Z</time>
      </trkpt>
      <trkpt lat="45.15271" lon="4.12999">
        <ele>827.7</ele>
        <time>2012-09-22T15:43:05Z</time>
      </trkpt>
      <trkpt lat="45.15269" lon="4.12994">
        <ele>-6.1E-5</ele>
        <time>2012-09-22T15:43:06Z</time>
      </trkpt>
      <trkpt lat="45.15266" lon="4.12988">
        <ele>827.7</ele>
        <time>2012-09-22T15:43:07Z</time>
      </trkpt>
      <trkpt lat="45.15263" lon="4.12982">
        <ele>827.6</ele>
        <time>2012-09-22T15:43:08Z</time>
      </trkpt>
      <trkpt lat="45.15261" lon="4.12976">
        <ele>827.5</ele>
        <time>2012-09-22T15:43:09Z</time>
      </trkpt>
      <trkpt lat="45.15258" lon="4.12971">
        <ele>827.4</ele>
        <time>2012-09-22T15:43:10Z</time>
      </trkpt>
      <trkpt lat="45.15255" lon="4.12965">
        <ele>827.3</ele>
        <time>2012-09-22T15:43:11Z</time>
      </trkpt>
      <trkpt lat="45.15253" lon="4.12959">
        <ele>827.3</ele>
        <time>2012-09-22T15:43:12Z</time>
      </trkpt>
      <trkpt lat="45.15251" lon="4.12953">
        <ele>827.3</ele>
        <time>2012-09-22T15:43:13Z</time>
      </trkpt>
      <trkpt lat="45.15248" lon="4.12947">
        <ele>827.3</ele>
        <time>2012-09-22T15:43:14Z</time>
      </trkpt>
      <trkpt lat="45.15245" lon="4.12942">
        <ele>-6.1E-5</ele>
        <time>2012-09-22T15:43:15Z</time>
      </trkpt>
      <trkpt lat="45.15242" lon="4.12937">
        <ele>-6.1E-5</ele>
        <time>2012-09-22T15:43:16Z</time>
      </trkpt>
      <trkpt lat="45.1524" lon="4.12931">
        <ele>826.9</ele>
        <time>2012-09-22T15:43:17Z</time>
      </trkpt>
      <trkpt lat="45.15237" lon="4.12926">
        <ele>826.8</ele>
        <time>2012-09-22T15:43:18Z</time>
      </trkpt>
      <trkpt lat="45.15231" lon="4.12917">
        <ele>-6.1E-5</ele>
        <time>2012-09-22T15:43:20Z</time>
      </trkpt>
      <trkpt lat="45.15226" lon="4.12908">
        <ele>-6.1E-5</ele>
        <time>2012-09-22T15:43:22Z</time>
      </trkpt>
      <trkpt lat="45.1522" lon="4.129">
        <ele>-6.1E-5</ele>
        <time>2012-09-22T15:43:24Z</time>
      </trkpt>
      <trkpt lat="45.15215" lon="4.1289">
        <ele>827.8</ele>
        <time>2012-09-22T15:43:26Z</time>
      </trkpt>
      <trkpt lat="45.15212" lon="4.1288">
        <ele>828.3</ele>
        <time>2012-09-22T15:43:28Z</time>
      </trkpt>
      <trkpt lat="45.15208" lon="4.1287">
        <ele>828.9</ele>
        <time>2012-09-22T15:43:30Z</time>
      </trkpt>
      <trkpt lat="45.15205" lon="4.1286">
        <ele>829.2</ele>
        <time>2012-09-22T15:43:32Z</time>
      </trkpt>
      <trkpt lat="45.15203" lon="4.12849">
        <ele>829.4</ele>
        <time>2012-09-22T15:43:34Z</time>
      </trkpt>
      <trkpt lat="45.15201" lon="4.12837">
        <ele>829.5</ele>
        <time>2012-09-22T15:43:36Z</time>
      </trkpt>
      <trkpt lat="45.152" lon="4.12825">
        <ele>829.6</ele>
        <time>2012-09-22T15:43:38Z</time>
      </trkpt>
      <trkpt lat="45.15199" lon="4.12812">
        <ele>829.7</ele>
        <time>2012-09-22T15:43:40Z</time>
      </trkpt>
      <trkpt lat="45.15199" lon="4.12806">
        <ele>829.7</ele>
        <time>2012-09-22T15:43:41Z</time>
      </trkpt>
      <trkpt lat="45.152" lon="4.12798">
        <ele>829.8</ele>
        <time>2012-09-22T15:43:42Z</time>
      </trkpt>
      <trkpt lat="45.152" lon="4.12791">
        <ele>830</ele>
        <time>2012-09-22T15:43:43Z</time>
      </trkpt>
      <trkpt lat="45.15201" lon="4.12784">
        <ele>830.1</ele>
        <time>2012-09-22T15:43:44Z</time>
      </trkpt>
      <trkpt lat="45.15201" lon="4.12776">
        <ele>830.2</ele>
        <time>2012-09-22T15:43:45Z</time>
      </trkpt>
      <trkpt lat="45.15201" lon="4.12769">
        <ele>-6.1E-5</ele>
        <time>2012-09-22T15:43:46Z</time>
      </trkpt>
      <trkpt lat="45.15201" lon="4.12762">
        <ele>830.2</ele>
        <time>2012-09-22T15:43:47Z</time>
      </trkpt>
      <trkpt lat="45.15201" lon="4.12755">
        <ele>830.2</ele>
        <time>2012-09-22T15:43:48Z</time>
      </trkpt>
      <trkpt lat="45.152" lon="4.12748">
        <ele>830.2</ele>
        <time>2012-09-22T15:43:49Z</time>
      </trkpt>
      <trkpt lat="45.15199" lon="4.12741">
        <ele>830.2</ele>
        <time>2012-09-22T15:43:50Z</time>
      </trkpt>
      <trkpt lat="45.15198" lon="4.12734">
        <ele>830.4</ele>
        <time>2012-09-22T15:43:51Z</time>
      </trkpt>
      <trkpt lat="45.15197" lon="4.12727">
        <ele>830.6</ele>
        <time>2012-09-22T15:43:52Z</time>
      </trkpt>
      <trkpt lat="45.15195" lon="4.12721">
        <ele>830.8</ele>
        <time>2012-09-22T15:43:53Z</time>
      </trkpt>
      <trkpt lat="45.15194" lon="4.12714">
        <ele>830.8</ele>
        <time>2012-09-22T15:43:54Z</time>
      </trkpt>
      <trkpt lat="45.15192" lon="4.12708">
        <ele>830.8</ele>
        <time>2012-09-22T15:43:55Z</time>
      </trkpt>
      <trkpt lat="45.15189" lon="4.12701">
        <ele>-6.1E-5</ele>
        <time>2012-09-22T15:43:56Z</time>
      </trkpt>
      <trkpt lat="45.15187" lon="4.12695">
        <ele>830.8</ele>
        <time>2012-09-22T15:43:57Z</time>
      </trkpt>
      <trkpt lat="45.15184" lon="4.12689">
        <ele>-6.1E-5</ele>
        <time>2012-09-22T15:43:58Z</time>
      </trkpt>
      <trkpt lat="45.15182" lon="4.12684">
        <ele>830.5</ele>
        <time>2012-09-22T15:43:59Z</time>
      </trkpt>
      <trkpt lat="45.15179" lon="4.12678">
        <ele>830.5</ele>
        <time>2012-09-22T15:44:00Z</time>
      </trkpt>
      <trkpt lat="45.15176" lon="4.12673">
        <ele>830.6</ele>
        <time>2012-09-22T15:44:01Z</time>
      </trkpt>
      <trkpt lat="45.15174" lon="4.12668">
        <ele>830.8</ele>
        <time>2012-09-22T15:44:02Z</time>
      </trkpt>
      <trkpt lat="45.15171" lon="4.12663">
        <ele>831</ele>
        <time>2012-09-22T15:44:03Z</time>
      </trkpt>
      <trkpt lat="45.15168" lon="4.12658">
        <ele>831.2</ele>
        <time>2012-09-22T15:44:04Z</time>
      </trkpt>
      <trkpt lat="45.15165" lon="4.12653">
        <ele>831.2</ele>
        <time>2012-09-22T15:44:05Z</time>
      </trkpt>
      <trkpt lat="45.15162" lon="4.12648">
        <ele>831.2</ele>
        <time>2012-09-22T15:44:06Z</time>
      </trkpt>
      <trkpt lat="45.15158" lon="4.12644">
        <ele>-6.1E-5</ele>
        <time>2012-09-22T15:44:07Z</time>
      </trkpt>
      <trkpt lat="45.15155" lon="4.1264">
        <ele>831.3</ele>
        <time>2012-09-22T15:44:08Z</time>
      </trkpt>
      <trkpt lat="45.15151" lon="4.12635">
        <ele>831.4</ele>
        <time>2012-09-22T15:44:09Z</time>
      </trkpt>
      <trkpt lat="45.15144" lon="4.12628">
        <ele>-6.1E-5</ele>
        <time>2012-09-22T15:44:11Z</time>
      </trkpt>
      <trkpt lat="45.15138" lon="4.1262">
        <ele>831.8</ele>
        <time>2012-09-22T15:44:13Z</time>
      </trkpt>
      <trkpt lat="45.15131" lon="4.12613">
        <ele>832</ele>
        <time>2012-09-22T15:44:15Z</time>
      </trkpt>
      <trkpt lat="45.15124" lon="4.12606">
        <ele>832.3</ele>
        <time>2012-09-22T15:44:17Z</time>
      </trkpt>
      <trkpt lat="45.15117" lon="4.12599">
        <ele>-6.1E-5</ele>
        <time>2012-09-22T15:44:19Z</time>
      </trkpt>
      <trkpt lat="45.1511" lon="4.12591">
        <ele>832.6</ele>
        <time>2012-09-22T15:44:21Z</time>
      </trkpt>
      <trkpt lat="45.15106" lon="4.12587">
        <ele>-6.1E-5</ele>
        <time>2012-09-22T15:44:22Z</time>
      </trkpt>
      <trkpt lat="45.15099" lon="4.1258">
        <ele>832.6</ele>
        <time>2012-09-22T15:44:24Z</time>
      </trkpt>
      <trkpt lat="45.15095" lon="4.12576">
        <ele>832.6</ele>
        <time>2012-09-22T15:44:25Z</time>
      </trkpt>
      <trkpt lat="45.15088" lon="4.12568">
        <ele>-6.1E-5</ele>
        <time>2012-09-22T15:44:27Z</time>
      </trkpt>
      <trkpt lat="45.15085" lon="4.12564">
        <ele>-6.1E-5</ele>
        <time>2012-09-22T15:44:28Z</time>
      </trkpt>
      <trkpt lat="45.15077" lon="4.12557">
        <ele>832.7</ele>
        <time>2012-09-22T15:44:30Z</time>
      </trkpt>
      <trkpt lat="45.15073" lon="4.12553">
        <ele>833</ele>
        <time>2012-09-22T15:44:31Z</time>
      </trkpt>
      <trkpt lat="45.1507" lon="4.1255">
        <ele>833.2</ele>
        <time>2012-09-22T15:44:32Z</time>
      </trkpt>
      <trkpt lat="45.15065" lon="4.12547">
        <ele>-6.1E-5</ele>
        <time>2012-09-22T15:44:33Z</time>
      </trkpt>
      <trkpt lat="45.15061" lon="4.12544">
        <ele>-6.1E-5</ele>
        <time>2012-09-22T15:44:34Z</time>
      </trkpt>
      <trkpt lat="45.15057" lon="4.12541">
        <ele>833.8</ele>
        <time>2012-09-22T15:44:35Z</time>
      </trkpt>
      <trkpt lat="45.15053" lon="4.12539">
        <ele>833.9</ele>
        <time>2012-09-22T15:44:36Z</time>
      </trkpt>
      <trkpt lat="45.15049" lon="4.12536">
        <ele>833.9</ele>
        <time>2012-09-22T15:44:37Z</time>
      </trkpt>
      <trkpt lat="45.15044" lon="4.12534">
        <ele>833.9</ele>
        <time>2012-09-22T15:44:38Z</time>
      </trkpt>
      <trkpt lat="45.1504" lon="4.12531">
        <ele>833.9</ele>
        <time>2012-09-22T15:44:39Z</time>
      </trkpt>
      <trkpt lat="45.15036" lon="4.12529">
        <ele>833.8</ele>
        <time>2012-09-22T15:44:40Z</time>
      </trkpt>
      <trkpt lat="45.15032" lon="4.12526">
        <ele>833.8</ele>
        <time>2012-09-22T15:44:41Z</time>
      </trkpt>
      <trkpt lat="45.15027" lon="4.12524">
        <ele>833.9</ele>
        <time>2012-09-22T15:44:42Z</time>
      </trkpt>
      <trkpt lat="45.15023" lon="4.12522">
        <ele>-6.1E-5</ele>
        <time>2012-09-22T15:44:43Z</time>
      </trkpt>
      <trkpt lat="45.15019" lon="4.1252">
        <ele>833.9</ele>
        <time>2012-09-22T15:44:44Z</time>
      </trkpt>
      <trkpt lat="45.15014" lon="4.12519">
        <ele>834</ele>
        <time>2012-09-22T15:44:45Z</time>
      </trkpt>
      <trkpt lat="45.1501" lon="4.12517">
        <ele>834</ele>
        <time>2012-09-22T15:44:46Z</time>
      </trkpt>
      <trkpt lat="45.15005" lon="4.12516">
        <ele>834.1</ele>
        <time>2012-09-22T15:44:47Z</time>
      </trkpt>
      <trkpt lat="45.15" lon="4.12515">
        <ele>834.1</ele>
        <time>2012-09-22T15:44:48Z</time>
      </trkpt>
      <trkpt lat="45.14996" lon="4.12514">
        <ele>834</ele>
        <time>2012-09-22T15:44:49Z</time>
      </trkpt>
      <trkpt lat="45.14991" lon="4.12512">
        <ele>833.8</ele>
        <time>2012-09-22T15:44:50Z</time>
      </trkpt>
      <trkpt lat="45.14986" lon="4.1251">
        <ele>833.7</ele>
        <time>2012-09-22T15:44:51Z</time>
      </trkpt>
      <trkpt lat="45.14981" lon="4.12508">
        <ele>833.6</ele>
        <time>2012-09-22T15:44:52Z</time>
      </trkpt>
      <trkpt lat="45.14977" lon="4.12506">
        <ele>833.4</ele>
        <time>2012-09-22T15:44:53Z</time>
      </trkpt>
      <trkpt lat="45.14972" lon="4.12504">
        <ele>833.3</ele>
        <time>2012-09-22T15:44:54Z</time>
      </trkpt>
      <trkpt lat="45.14967" lon="4.12502">
        <ele>833.3</ele>
        <time>2012-09-22T15:44:55Z</time>
      </trkpt>
      <trkpt lat="45.14962" lon="4.125">
        <ele>833.4</ele>
        <time>2012-09-22T15:44:56Z</time>
      </trkpt>
      <trkpt lat="45.14958" lon="4.12499">
        <ele>833.4</ele>
        <time>2012-09-22T15:44:57Z</time>
      </trkpt>
      <trkpt lat="45.14953" lon="4.12498">
        <ele>833.5</ele>
        <time>2012-09-22T15:44:58Z</time>
      </trkpt>
      <trkpt lat="45.14948" lon="4.12496">
        <ele>833.5</ele>
        <time>2012-09-22T15:44:59Z</time>
      </trkpt>
      <trkpt lat="45.14943" lon="4.12495">
        <ele>833.5</ele>
        <time>2012-09-22T15:45:00Z</time>
      </trkpt>
      <trkpt lat="45.14938" lon="4.12492">
        <ele>-6.1E-5</ele>
        <time>2012-09-22T15:45:01Z</time>
      </trkpt>
      <trkpt lat="45.14933" lon="4.12489">
        <ele>833.6</ele>
        <time>2012-09-22T15:45:02Z</time>
      </trkpt>
      <trkpt lat="45.14928" lon="4.12485">
        <ele>833.6</ele>
        <time>2012-09-22T15:45:03Z</time>
      </trkpt>
      <trkpt lat="45.14924" lon="4.12482">
        <ele>833.5</ele>
        <time>2012-09-22T15:45:04Z</time>
      </trkpt>
      <trkpt lat="45.14919" lon="4.12477">
        <ele>833.4</ele>
        <time>2012-09-22T15:45:05Z</time>
      </trkpt>
      <trkpt lat="45.14915" lon="4.12473">
        <ele>833.2</ele>
        <time>2012-09-22T15:45:06Z</time>
      </trkpt>
      <trkpt lat="45.14911" lon="4.12468">
        <ele>833.3</ele>
        <time>2012-09-22T15:45:07Z</time>
      </trkpt>
      <trkpt lat="45.14908" lon="4.12463">
        <ele>833.4</ele>
        <time>2012-09-22T15:45:08Z</time>
      </trkpt>
      <trkpt lat="45.14904" lon="4.12458">
        <ele>833.5</ele>
        <time>2012-09-22T15:45:09Z</time>
      </trkpt>
      <trkpt lat="45.14901" lon="4.12452">
        <ele>833.6</ele>
        <time>2012-09-22T15:45:10Z</time>
      </trkpt>
      <trkpt lat="45.14898" lon="4.12446">
        <ele>833.7</ele>
        <time>2012-09-22T15:45:11Z</time>
      </trkpt>
      <trkpt lat="45.14896" lon="4.12439">
        <ele>-6.1E-5</ele>
        <time>2012-09-22T15:45:12Z</time>
      </trkpt>
      <trkpt lat="45.14893" lon="4.12433">
        <ele>834.1</ele>
        <time>2012-09-22T15:45:13Z</time>
      </trkpt>
      <trkpt lat="45.14891" lon="4.12427">
        <ele>834.2</ele>
        <time>2012-09-22T15:45:14Z</time>
      </trkpt>
      <trkpt lat="45.14888" lon="4.1242">
        <ele>834.2</ele>
        <time>2012-09-22T15:45:15Z</time>
      </trkpt>
      <trkpt lat="45.14886" lon="4.12414">
        <ele>834.5</ele>
        <time>2012-09-22T15:45:16Z</time>
      </trkpt>
      <trkpt lat="45.14884" lon="4.12408">
        <ele>834.9</ele>
        <time>2012-09-22T15:45:17Z</time>
      </trkpt>
      <trkpt lat="45.14881" lon="4.12402">
        <ele>835.3</ele>
        <time>2012-09-22T15:45:18Z</time>
      </trkpt>
      <trkpt lat="45.14879" lon="4.12396">
        <ele>835.6</ele>
        <time>2012-09-22T15:45:19Z</time>
      </trkpt>
      <trkpt lat="45.14877" lon="4.1239">
        <ele>835.9</ele>
        <time>2012-09-22T15:45:20Z</time>
      </trkpt>
      <trkpt lat="45.14875" lon="4.12384">
        <ele>835.7</ele>
        <time>2012-09-22T15:45:21Z</time>
      </trkpt>
      <trkpt lat="45.14872" lon="4.12378">
        <ele>835.4</ele>
        <time>2012-09-22T15:45:22Z</time>
      </trkpt>
      <trkpt lat="45.1487" lon="4.12372">
        <ele>835.2</ele>
        <time>2012-09-22T15:45:23Z</time>
      </trkpt>
      <trkpt lat="45.14867" lon="4.12367">
        <ele>834.9</ele>
        <time>2012-09-22T15:45:24Z</time>
      </trkpt>
      <trkpt lat="45.14865" lon="4.12361">
        <ele>834.7</ele>
        <time>2012-09-22T15:45:25Z</time>
      </trkpt>
      <trkpt lat="45.14863" lon="4.12355">
        <ele>-6.1E-5</ele>
        <time>2012-09-22T15:45:26Z</time>
      </trkpt>
      <trkpt lat="45.1486" lon="4.12349">
        <ele>834.6</ele>
        <time>2012-09-22T15:45:27Z</time>
      </trkpt>
      <trkpt lat="45.14858" lon="4.12343">
        <ele>834.7</ele>
        <time>2012-09-22T15:45:28Z</time>
      </trkpt>
      <trkpt lat="45.14855" lon="4.12337">
        <ele>834.8</ele>
        <time>2012-09-22T15:45:29Z</time>
      </trkpt>
      <trkpt lat="45.14853" lon="4.12331">
        <ele>-6.1E-5</ele>
        <time>2012-09-22T15:45:30Z</time>
      </trkpt>
      <trkpt lat="45.1485" lon="4.12326">
        <ele>834.7</ele>
        <time>2012-09-22T15:45:31Z</time>
      </trkpt>
      <trkpt lat="45.14847" lon="4.12321">
        <ele>834.6</ele>
        <time>2012-09-22T15:45:32Z</time>
      </trkpt>
      <trkpt lat="45.14844" lon="4.12315">
        <ele>834.5</ele>
        <time>2012-09-22T15:45:33Z</time>
      </trkpt>
      <trkpt lat="45.14841" lon="4.1231">
        <ele>834.5</ele>
        <time>2012-09-22T15:45:34Z</time>
      </trkpt>
      <trkpt lat="45.14838" lon="4.12305">
        <ele>834.4</ele>
        <time>2012-09-22T15:45:35Z</time>
      </trkpt>
      <trkpt lat="45.14835" lon="4.12301">
        <ele>834.4</ele>
        <time>2012-09-22T15:45:36Z</time>
      </trkpt>
      <trkpt lat="45.14832" lon="4.12296">
        <ele>834.5</ele>
        <time>2012-09-22T15:45:37Z</time>
      </trkpt>
      <trkpt lat="45.14828" lon="4.12292">
        <ele>834.5</ele>
        <time>2012-09-22T15:45:38Z</time>
      </trkpt>
      <trkpt lat="45.14825" lon="4.12287">
        <ele>834.6</ele>
        <time>2012-09-22T15:45:39Z</time>
      </trkpt>
      <trkpt lat="45.14821" lon="4.12283">
        <ele>834.7</ele>
        <time>2012-09-22T15:45:40Z</time>
      </trkpt>
      <trkpt lat="45.14817" lon="4.12278">
        <ele>834.8</ele>
        <time>2012-09-22T15:45:41Z</time>
      </trkpt>
      <trkpt lat="45.14814" lon="4.12274">
        <ele>-6.1E-5</ele>
        <time>2012-09-22T15:45:42Z</time>
      </trkpt>
      <trkpt lat="45.1481" lon="4.1227">
        <ele>-6.1E-5</ele>
        <time>2012-09-22T15:45:43Z</time>
      </trkpt>
      <trkpt lat="45.14806" lon="4.12266">
        <ele>835.1</ele>
        <time>2012-09-22T15:45:44Z</time>
      </trkpt>
      <trkpt lat="45.14802" lon="4.12262">
        <ele>835.2</ele>
        <time>2012-09-22T15:45:45Z</time>
      </trkpt>
      <trkpt lat="45.14797" lon="4.12259">
        <ele>835.2</ele>
        <time>2012-09-22T15:45:46Z</time>
      </trkpt>
      <trkpt lat="45.14793" lon="4.12255">
        <ele>835.3</ele>
        <time>2012-09-22T15:45:47Z</time>
      </trkpt>
      <trkpt lat="45.14789" lon="4.12252">
        <ele>835.3</ele>
        <time>2012-09-22T15:45:48Z</time>
      </trkpt>
      <trkpt lat="45.14785" lon="4.12248">
        <ele>835.3</ele>
        <time>2012-09-22T15:45:49Z</time>
      </trkpt>
      <trkpt lat="45.14781" lon="4.12245">
        <ele>835.3</ele>
        <time>2012-09-22T15:45:50Z</time>
      </trkpt>
      <trkpt lat="45.14776" lon="4.12242">
        <ele>-6.1E-5</ele>
        <time>2012-09-22T15:45:51Z</time>
      </trkpt>
      <trkpt lat="45.14772" lon="4.12239">
        <ele>834.9</ele>
        <time>2012-09-22T15:45:52Z</time>
      </trkpt>
      <trkpt lat="45.14767" lon="4.12237">
        <ele>-6.1E-5</ele>
        <time>2012-09-22T15:45:53Z</time>
      </trkpt>
      <trkpt lat="45.14762" lon="4.12235">
        <ele>834.4</ele>
        <time>2012-09-22T15:45:54Z</time>
      </trkpt>
      <trkpt lat="45.14758" lon="4.12233">
        <ele>834.2</ele>
        <time>2012-09-22T15:45:55Z</time>
      </trkpt>
      <trkpt lat="45.14753" lon="4.12232">
        <ele>834</ele>
        <time>2012-09-22T15:45:56Z</time>
      </trkpt>
      <trkpt lat="45.14748" lon="4.12231">
        <ele>834</ele>
        <time>2012-09-22T15:45:57Z</time>
      </trkpt>
      <trkpt lat="45.14744" lon="4.1223">
        <ele>834</ele>
        <time>2012-09-22T15:45:58Z</time>
      </trkpt>
      <trkpt lat="45.14739" lon="4.12229">
        <ele>833.9</ele>
        <time>2012-09-22T15:45:59Z</time>
      </trkpt>
      <trkpt lat="45.14735" lon="4.12228">
        <ele>-6.1E-5</ele>
        <time>2012-09-22T15:46:00Z</time>
      </trkpt>
      <trkpt lat="45.1473" lon="4.12227">
        <ele>-6.1E-5</ele>
        <time>2012-09-22T15:46:01Z</time>
      </trkpt>
      <trkpt lat="45.14726" lon="4.12225">
        <ele>-6.1E-5</ele>
        <time>2012-09-22T15:46:02Z</time>
      </trkpt>
      <trkpt lat="45.14721" lon="4.12223">
        <ele>834.1</ele>
        <time>2012-09-22T15:46:03Z</time>
      </trkpt>
      <trkpt lat="45.14717" lon="4.12222">
        <ele>834.1</ele>
        <time>2012-09-22T15:46:04Z</time>
      </trkpt>
      <trkpt lat="45.14712" lon="4.12221">
        <ele>834.1</ele>
        <time>2012-09-22T15:46:05Z</time>
      </trkpt>
      <trkpt lat="45.14708" lon="4.12219">
        <ele>834.1</ele>
        <time>2012-09-22T15:46:06Z</time>
      </trkpt>
      <trkpt lat="45.14703" lon="4.12218">
        <ele>834</ele>
        <time>2012-09-22T15:46:07Z</time>
      </trkpt>
      <trkpt lat="45.14698" lon="4.12217">
        <ele>833.9</ele>
        <time>2012-09-22T15:46:08Z</time>
      </trkpt>
      <trkpt lat="45.14694" lon="4.12215">
        <ele>833.8</ele>
        <time>2012-09-22T15:46:09Z</time>
      </trkpt>
      <trkpt lat="45.14689" lon="4.12214">
        <ele>-6.1E-5</ele>
        <time>2012-09-22T15:46:10Z</time>
      </trkpt>
      <trkpt lat="45.14684" lon="4.12212">
        <ele>833.7</ele>
        <time>2012-09-22T15:46:11Z</time>
      </trkpt>
      <trkpt lat="45.1468" lon="4.1221">
        <ele>833.7</ele>
        <time>2012-09-22T15:46:12Z</time>
      </trkpt>
      <trkpt lat="45.14675" lon="4.12208">
        <ele>833.9</ele>
        <time>2012-09-22T15:46:13Z</time>
      </trkpt>
      <trkpt lat="45.1467" lon="4.12206">
        <ele>834.1</ele>
        <time>2012-09-22T15:46:14Z</time>
      </trkpt>
      <trkpt lat="45.14666" lon="4.12205">
        <ele>834.5</ele>
        <time>2012-09-22T15:46:15Z</time>
      </trkpt>
      <trkpt lat="45.14661" lon="4.12204">
        <ele>834.7</ele>
        <time>2012-09-22T15:46:16Z</time>
      </trkpt>
      <trkpt lat="45.14656" lon="4.12202">
        <ele>834.9</ele>
        <time>2012-09-22T15:46:17Z</time>
      </trkpt>
      <trkpt lat="45.14651" lon="4.12201">
        <ele>-6.1E-5</ele>
        <time>2012-09-22T15:46:18Z</time>
      </trkpt>
      <trkpt lat="45.14647" lon="4.12199">
        <ele>835.2</ele>
        <time>2012-09-22T15:46:19Z</time>
      </trkpt>
      <trkpt lat="45.14642" lon="4.12198">
        <ele>-6.1E-5</ele>
        <time>2012-09-22T15:46:20Z</time>
      </trkpt>
      <trkpt lat="45.14637" lon="4.12197">
        <ele>835.3</ele>
        <time>2012-09-22T15:46:21Z</time>
      </trkpt>
      <trkpt lat="45.14632" lon="4.12196">
        <ele>835.4</ele>
        <time>2012-09-22T15:46:22Z</time>
      </trkpt>
      <trkpt lat="45.14628" lon="4.12194">
        <ele>835.4</ele>
        <time>2012-09-22T15:46:23Z</time>
      </trkpt>
      <trkpt lat="45.14623" lon="4.12193">
        <ele>-6.1E-5</ele>
        <time>2012-09-22T15:46:24Z</time>
      </trkpt>
      <trkpt lat="45.14618" lon="4.12191">
        <ele>835.5</ele>
        <time>2012-09-22T15:46:25Z</time>
      </trkpt>
      <trkpt lat="45.14614" lon="4.1219">
        <ele>835.4</ele>
        <time>2012-09-22T15:46:26Z</time>
      </trkpt>
      <trkpt lat="45.14609" lon="4.12188">
        <ele>-6.1E-5</ele>
        <time>2012-09-22T15:46:27Z</time>
      </trkpt>
      <trkpt lat="45.14604" lon="4.12186">
        <ele>-6.1E-5</ele>
        <time>2012-09-22T15:46:28Z</time>
      </trkpt>
      <trkpt lat="45.146" lon="4.12185">
        <ele>835.3</ele>
        <time>2012-09-22T15:46:29Z</time>
      </trkpt>
      <trkpt lat="45.14595" lon="4.12183">
        <ele>835.3</ele>
        <time>2012-09-22T15:46:30Z</time>
      </trkpt>
      <trkpt lat="45.1459" lon="4.12181">
        <ele>835.3</ele>
        <time>2012-09-22T15:46:31Z</time>
      </trkpt>
      <trkpt lat="45.14586" lon="4.1218">
        <ele>835.3</ele>
        <time>2012-09-22T15:46:32Z</time>
      </trkpt>
      <trkpt lat="45.14581" lon="4.12178">
        <ele>835.3</ele>
        <time>2012-09-22T15:46:33Z</time>
      </trkpt>
      <trkpt lat="45.14577" lon="4.12177">
        <ele>835.4</ele>
        <time>2012-09-22T15:46:34Z</time>
      </trkpt>
      <trkpt lat="45.14572" lon="4.12175">
        <ele>835.5</ele>
        <time>2012-09-22T15:46:35Z</time>
      </trkpt>
      <trkpt lat="45.14567" lon="4.12173">
        <ele>835.6</ele>
        <time>2012-09-22T15:46:36Z</time>
      </trkpt>
      <trkpt lat="45.14562" lon="4.1217">
        <ele>-6.1E-5</ele>
        <time>2012-09-22T15:46:37Z</time>
      </trkpt>
      <trkpt lat="45.14558" lon="4.12167">
        <ele>835.8</ele>
        <time>2012-09-22T15:46:38Z</time>
      </trkpt>
      <trkpt lat="45.14554" lon="4.12164">
        <ele>835.6</ele>
        <time>2012-09-22T15:46:39Z</time>
      </trkpt>
      <trkpt lat="45.14549" lon="4.12161">
        <ele>835.2</ele>
        <time>2012-09-22T15:46:40Z</time>
      </trkpt>
      <trkpt lat="45.14545" lon="4.12158">
        <ele>835</ele>
        <time>2012-09-22T15:46:41Z</time>
      </trkpt>
      <trkpt lat="45.14541" lon="4.12154">
        <ele>835</ele>
        <time>2012-09-22T15:46:42Z</time>
      </trkpt>
      <trkpt lat="45.14537" lon="4.12151">
        <ele>835.1</ele>
        <time>2012-09-22T15:46:43Z</time>
      </trkpt>
      <trkpt lat="45.1453" lon="4.12143">
        <ele>835.7</ele>
        <time>2012-09-22T15:46:45Z</time>
      </trkpt>
      <trkpt lat="45.14524" lon="4.12135">
        <ele>836.4</ele>
        <time>2012-09-22T15:46:47Z</time>
      </trkpt>
      <trkpt lat="45.1452" lon="4.12127">
        <ele>836.8</ele>
        <time>2012-09-22T15:46:49Z</time>
      </trkpt>
      <trkpt lat="45.14516" lon="4.12117">
        <ele>-6.1E-5</ele>
        <time>2012-09-22T15:46:51Z</time>
      </trkpt>
      <trkpt lat="45.14511" lon="4.12108">
        <ele>837.2</ele>
        <time>2012-09-22T15:46:53Z</time>
      </trkpt>
      <trkpt lat="45.14506" lon="4.121">
        <ele>837.6</ele>
        <time>2012-09-22T15:46:55Z</time>
      </trkpt>
      <trkpt lat="45.14501" lon="4.12091">
        <ele>837.9</ele>
        <time>2012-09-22T15:46:57Z</time>
      </trkpt>
      <trkpt lat="45.14496" lon="4.12083">
        <ele>838.7</ele>
        <time>2012-09-22T15:46:59Z</time>
      </trkpt>
      <trkpt lat="45.14492" lon="4.12074">
        <ele>839.3</ele>
        <time>2012-09-22T15:47:01Z</time>
      </trkpt>
      <trkpt lat="45.14488" lon="4.12065">
        <ele>-6.1E-5</ele>
        <time>2012-09-22T15:47:03Z</time>
      </trkpt>
      <trkpt lat="45.14484" lon="4.12056">
        <ele>839.8</ele>
        <time>2012-09-22T15:47:05Z</time>
      </trkpt>
      <trkpt lat="45.1448" lon="4.12047">
        <ele>-6.1E-5</ele>
        <time>2012-09-22T15:47:07Z</time>
      </trkpt>
      <trkpt lat="45.14477" lon="4.12038">
        <ele>840</ele>
        <time>2012-09-22T15:47:09Z</time>
      </trkpt>
      <trkpt lat="45.14473" lon="4.12029">
        <ele>840</ele>
        <time>2012-09-22T15:47:11Z</time>
      </trkpt>
      <trkpt lat="45.14469" lon="4.1202">
        <ele>840.8</ele>
        <time>2012-09-22T15:47:13Z</time>
      </trkpt>
      <trkpt lat="45.14466" lon="4.12011">
        <ele>841.4</ele>
        <time>2012-09-22T15:47:15Z</time>
      </trkpt>
      <trkpt lat="45.14463" lon="4.12004">
        <ele>841.6</ele>
        <time>2012-09-22T15:47:17Z</time>
      </trkpt>
      <trkpt lat="45.14459" lon="4.11998">
        <ele>841.5</ele>
        <time>2012-09-22T15:47:19Z</time>
      </trkpt>
      <trkpt lat="45.14455" lon="4.11991">
        <ele>841.3</ele>
        <time>2012-09-22T15:47:21Z</time>
      </trkpt>
      <trkpt lat="45.1445" lon="4.11983">
        <ele>840.9</ele>
        <time>2012-09-22T15:47:23Z</time>
      </trkpt>
      <trkpt lat="45.14447" lon="4.11975">
        <ele>-6.1E-5</ele>
        <time>2012-09-22T15:47:25Z</time>
      </trkpt>
      <trkpt lat="45.14443" lon="4.11967">
        <ele>840.3</ele>
        <time>2012-09-22T15:47:27Z</time>
      </trkpt>
      <trkpt lat="45.14439" lon="4.11958">
        <ele>840.8</ele>
        <time>2012-09-22T15:47:29Z</time>
      </trkpt>
      <trkpt lat="45.14435" lon="4.11949">
        <ele>841</ele>
        <time>2012-09-22T15:47:31Z</time>
      </trkpt>
      <trkpt lat="45.1443" lon="4.1194">
        <ele>-6.1E-5</ele>
        <time>2012-09-22T15:47:33Z</time>
      </trkpt>
      <trkpt lat="45.14425" lon="4.11928">
        <ele>839.6</ele>
        <time>2012-09-22T15:47:35Z</time>
      </trkpt>
      <trkpt lat="45.14422" lon="4.1192">
        <ele>839.1</ele>
        <time>2012-09-22T15:47:36Z</time>
      </trkpt>
      <trkpt lat="45.14419" lon="4.11912">
        <ele>838.7</ele>
        <time>2012-09-22T15:47:37Z</time>
      </trkpt>
      <trkpt lat="45.14416" lon="4.11905">
        <ele>838.6</ele>
        <time>2012-09-22T15:47:38Z</time>
      </trkpt>
      <trkpt lat="45.14413" lon="4.11898">
        <ele>838.5</ele>
        <time>2012-09-22T15:47:39Z</time>
      </trkpt>
      <trkpt lat="45.1441" lon="4.11892">
        <ele>838.3</ele>
        <time>2012-09-22T15:47:40Z</time>
      </trkpt>
      <trkpt lat="45.14407" lon="4.11885">
        <ele>838</ele>
        <time>2012-09-22T15:47:41Z</time>
      </trkpt>
      <trkpt lat="45.14403" lon="4.11879">
        <ele>837.6</ele>
        <time>2012-09-22T15:47:42Z</time>
      </trkpt>
      <trkpt lat="45.144" lon="4.11873">
        <ele>-6.1E-5</ele>
        <time>2012-09-22T15:47:43Z</time>
      </trkpt>
      <trkpt lat="45.14397" lon="4.11866">
        <ele>837.3</ele>
        <time>2012-09-22T15:47:44Z</time>
      </trkpt>
      <trkpt lat="45.14394" lon="4.1186">
        <ele>-6.1E-5</ele>
        <time>2012-09-22T15:47:45Z</time>
      </trkpt>
      <trkpt lat="45.14391" lon="4.11855">
        <ele>837.5</ele>
        <time>2012-09-22T15:47:46Z</time>
      </trkpt>
      <trkpt lat="45.14387" lon="4.1185">
        <ele>837.6</ele>
        <time>2012-09-22T15:47:47Z</time>
      </trkpt>
      <trkpt lat="45.1438" lon="4.11844">
        <ele>837.5</ele>
        <time>2012-09-22T15:47:49Z</time>
      </trkpt>
      <trkpt lat="45.14373" lon="4.11839">
        <ele>837.5</ele>
        <time>2012-09-22T15:47:51Z</time>
      </trkpt>
      <trkpt lat="45.14369" lon="4.1183">
        <ele>837.7</ele>
        <time>2012-09-22T15:47:53Z</time>
      </trkpt>
      <trkpt lat="45.14364" lon="4.11822">
        <ele>837.8</ele>
        <time>2012-09-22T15:47:55Z</time>
      </trkpt>
      <trkpt lat="45.1436" lon="4.11813">
        <ele>838.1</ele>
        <time>2012-09-22T15:47:57Z</time>
      </trkpt>
      <trkpt lat="45.14355" lon="4.11804">
        <ele>838.3</ele>
        <time>2012-09-22T15:47:59Z</time>
      </trkpt>
      <trkpt lat="45.14351" lon="4.11794">
        <ele>838.6</ele>
        <time>2012-09-22T15:48:01Z</time>
      </trkpt>
      <trkpt lat="45.14346" lon="4.11785">
        <ele>838.9</ele>
        <time>2012-09-22T15:48:03Z</time>
      </trkpt>
      <trkpt lat="45.14342" lon="4.11777">
        <ele>839</ele>
        <time>2012-09-22T15:48:05Z</time>
      </trkpt>
      <trkpt lat="45.14338" lon="4.11768">
        <ele>-6.1E-5</ele>
        <time>2012-09-22T15:48:07Z</time>
      </trkpt>
      <trkpt lat="45.14334" lon="4.1176">
        <ele>839.6</ele>
        <time>2012-09-22T15:48:09Z</time>
      </trkpt>
      <trkpt lat="45.1433" lon="4.11751">
        <ele>840.2</ele>
        <time>2012-09-22T15:48:11Z</time>
      </trkpt>
      <trkpt lat="45.14326" lon="4.11743">
        <ele>840.9</ele>
        <time>2012-09-22T15:48:13Z</time>
      </trkpt>
      <trkpt lat="45.14321" lon="4.11735">
        <ele>841.5</ele>
        <time>2012-09-22T15:48:15Z</time>
      </trkpt>
      <trkpt lat="45.14317" lon="4.11727">
        <ele>841.9</ele>
        <time>2012-09-22T15:48:17Z</time>
      </trkpt>
      <trkpt lat="45.14312" lon="4.11718">
        <ele>-6.1E-5</ele>
        <time>2012-09-22T15:48:19Z</time>
      </trkpt>
      <trkpt lat="45.14308" lon="4.11709">
        <ele>842</ele>
        <time>2012-09-22T15:48:21Z</time>
      </trkpt>
      <trkpt lat="45.14304" lon="4.11698">
        <ele>842.1</ele>
        <time>2012-09-22T15:48:23Z</time>
      </trkpt>
      <trkpt lat="45.14299" lon="4.11688">
        <ele>-6.1E-5</ele>
        <time>2012-09-22T15:48:25Z</time>
      </trkpt>
      <trkpt lat="45.14295" lon="4.11677">
        <ele>842.5</ele>
        <time>2012-09-22T15:48:27Z</time>
      </trkpt>
      <trkpt lat="45.1429" lon="4.11667">
        <ele>842.6</ele>
        <time>2012-09-22T15:48:29Z</time>
      </trkpt>
      <trkpt lat="45.14288" lon="4.11662">
        <ele>842.5</ele>
        <time>2012-09-22T15:48:30Z</time>
      </trkpt>
      <trkpt lat="45.14285" lon="4.11656">
        <ele>842.5</ele>
        <time>2012-09-22T15:48:31Z</time>
      </trkpt>
      <trkpt lat="45.14283" lon="4.11651">
        <ele>842.4</ele>
        <time>2012-09-22T15:48:32Z</time>
      </trkpt>
      <trkpt lat="45.1428" lon="4.11645">
        <ele>-6.1E-5</ele>
        <time>2012-09-22T15:48:33Z</time>
      </trkpt>
      <trkpt lat="45.14277" lon="4.1164">
        <ele>842.1</ele>
        <time>2012-09-22T15:48:34Z</time>
      </trkpt>
      <trkpt lat="45.14274" lon="4.11634">
        <ele>-6.1E-5</ele>
        <time>2012-09-22T15:48:35Z</time>
      </trkpt>
      <trkpt lat="45.14272" lon="4.11628">
        <ele>842.7</ele>
        <time>2012-09-22T15:48:36Z</time>
      </trkpt>
      <trkpt lat="45.14269" lon="4.11622">
        <ele>-6.1E-5</ele>
        <time>2012-09-22T15:48:37Z</time>
      </trkpt>
      <trkpt lat="45.14266" lon="4.11616">
        <ele>-6.1E-5</ele>
        <time>2012-09-22T15:48:38Z</time>
      </trkpt>
      <trkpt lat="45.14263" lon="4.1161">
        <ele>843</ele>
        <time>2012-09-22T15:48:39Z</time>
      </trkpt>
      <trkpt lat="45.1426" lon="4.11603">
        <ele>-6.1E-5</ele>
        <time>2012-09-22T15:48:40Z</time>
      </trkpt>
      <trkpt lat="45.14257" lon="4.11597">
        <ele>842.7</ele>
        <time>2012-09-22T15:48:41Z</time>
      </trkpt>
      <trkpt lat="45.14255" lon="4.1159">
        <ele>842.4</ele>
        <time>2012-09-22T15:48:42Z</time>
      </trkpt>
      <trkpt lat="45.14252" lon="4.11584">
        <ele>842</ele>
        <time>2012-09-22T15:48:43Z</time>
      </trkpt>
      <trkpt lat="45.1425" lon="4.11577">
        <ele>842</ele>
        <time>2012-09-22T15:48:44Z</time>
      </trkpt>
      <trkpt lat="45.14248" lon="4.1157">
        <ele>842.2</ele>
        <time>2012-09-22T15:48:45Z</time>
      </trkpt>
      <trkpt lat="45.14246" lon="4.11563">
        <ele>842.4</ele>
        <time>2012-09-22T15:48:46Z</time>
      </trkpt>
      <trkpt lat="45.14244" lon="4.11556">
        <ele>842.5</ele>
        <time>2012-09-22T15:48:47Z</time>
      </trkpt>
      <trkpt lat="45.14242" lon="4.11549">
        <ele>842.5</ele>
        <time>2012-09-22T15:48:48Z</time>
      </trkpt>
      <trkpt lat="45.1424" lon="4.11542">
        <ele>842.4</ele>
        <time>2012-09-22T15:48:49Z</time>
      </trkpt>
      <trkpt lat="45.14238" lon="4.11535">
        <ele>842.2</ele>
        <time>2012-09-22T15:48:50Z</time>
      </trkpt>
      <trkpt lat="45.14235" lon="4.11528">
        <ele>842</ele>
        <time>2012-09-22T15:48:51Z</time>
      </trkpt>
      <trkpt lat="45.14233" lon="4.11521">
        <ele>841.9</ele>
        <time>2012-09-22T15:48:52Z</time>
      </trkpt>
      <trkpt lat="45.14231" lon="4.11514">
        <ele>-6.1E-5</ele>
        <time>2012-09-22T15:48:53Z</time>
      </trkpt>
      <trkpt lat="45.14228" lon="4.11507">
        <ele>841.4</ele>
        <time>2012-09-22T15:48:54Z</time>
      </trkpt>
      <trkpt lat="45.14225" lon="4.11499">
        <ele>841.1</ele>
        <time>2012-09-22T15:48:55Z</time>
      </trkpt>
      <trkpt lat="45.14223" lon="4.1149">
        <ele>840.7</ele>
        <time>2012-09-22T15:48:56Z</time>
      </trkpt>
      <trkpt lat="45.14221" lon="4.11482">
        <ele>840.3</ele>
        <time>2012-09-22T15:48:57Z</time>
      </trkpt>
      <trkpt lat="45.14219" lon="4.11473">
        <ele>840</ele>
        <time>2012-09-22T15:48:58Z</time>
      </trkpt>
      <trkpt lat="45.14217" lon="4.11464">
        <ele>839.9</ele>
        <time>2012-09-22T15:48:59Z</time>
      </trkpt>
      <trkpt lat="45.14217" lon="4.11455">
        <ele>839.9</ele>
        <time>2012-09-22T15:49:00Z</time>
      </trkpt>
      <trkpt lat="45.14217" lon="4.11447">
        <ele>839.8</ele>
        <time>2012-09-22T15:49:01Z</time>
      </trkpt>
      <trkpt lat="45.14217" lon="4.11438">
        <ele>840</ele>
        <time>2012-09-22T15:49:02Z</time>
      </trkpt>
      <trkpt lat="45.14217" lon="4.1143">
        <ele>840.3</ele>
        <time>2012-09-22T15:49:03Z</time>
      </trkpt>
      <trkpt lat="45.14218" lon="4.11422">
        <ele>840.6</ele>
        <time>2012-09-22T15:49:04Z</time>
      </trkpt>
      <trkpt lat="45.14218" lon="4.11415">
        <ele>840.9</ele>
        <time>2012-09-22T15:49:05Z</time>
      </trkpt>
      <trkpt lat="45.14219" lon="4.11409">
        <ele>841.3</ele>
        <time>2012-09-22T15:49:06Z</time>
      </trkpt>
      <trkpt lat="45.1422" lon="4.11397">
        <ele>841.8</ele>
        <time>2012-09-22T15:49:08Z</time>
      </trkpt>
      <trkpt lat="45.14222" lon="4.11387">
        <ele>842.1</ele>
        <time>2012-09-22T15:49:10Z</time>
      </trkpt>
      <trkpt lat="45.14223" lon="4.11378">
        <ele>842.4</ele>
        <time>2012-09-22T15:49:12Z</time>
      </trkpt>
      <trkpt lat="45.14224" lon="4.1137">
        <ele>842.6</ele>
        <time>2012-09-22T15:49:14Z</time>
      </trkpt>
      <trkpt lat="45.14225" lon="4.11361">
        <ele>-6.1E-5</ele>
        <time>2012-09-22T15:49:16Z</time>
      </trkpt>
      <trkpt lat="45.14226" lon="4.11352">
        <ele>-6.1E-5</ele>
        <time>2012-09-22T15:49:18Z</time>
      </trkpt>
      <trkpt lat="45.14227" lon="4.11343">
        <ele>843.5</ele>
        <time>2012-09-22T15:49:20Z</time>
      </trkpt>
      <trkpt lat="45.14228" lon="4.11335">
        <ele>843.7</ele>
        <time>2012-09-22T15:49:22Z</time>
      </trkpt>
      <trkpt lat="45.14229" lon="4.11326">
        <ele>-6.1E-5</ele>
        <time>2012-09-22T15:49:24Z</time>
      </trkpt>
      <trkpt lat="45.14229" lon="4.11318">
        <ele>-6.1E-5</ele>
        <time>2012-09-22T15:49:26Z</time>
      </trkpt>
      <trkpt lat="45.1423" lon="4.11309">
        <ele>-6.1E-5</ele>
        <time>2012-09-22T15:49:28Z</time>
      </trkpt>
      <trkpt lat="45.1423" lon="4.113">
        <ele>-6.1E-5</ele>
        <time>2012-09-22T15:49:30Z</time>
      </trkpt>
      <trkpt lat="45.14232" lon="4.11292">
        <ele>-6.1E-5</ele>
        <time>2012-09-22T15:49:32Z</time>
      </trkpt>
      <trkpt lat="45.14233" lon="4.11283">
        <ele>-6.1E-5</ele>
        <time>2012-09-22T15:49:34Z</time>
      </trkpt>
      <trkpt lat="45.14235" lon="4.11274">
        <ele>-6.1E-5</ele>
        <time>2012-09-22T15:49:36Z</time>
      </trkpt>
      <trkpt lat="45.14236" lon="4.11264">
        <ele>846</ele>
        <time>2012-09-22T15:49:38Z</time>
      </trkpt>
      <trkpt lat="45.14237" lon="4.11254">
        <ele>846.3</ele>
        <time>2012-09-22T15:49:40Z</time>
      </trkpt>
      <trkpt lat="45.14238" lon="4.11245">
        <ele>846.6</ele>
        <time>2012-09-22T15:49:42Z</time>
      </trkpt>
      <trkpt lat="45.1424" lon="4.11235">
        <ele>846.9</ele>
        <time>2012-09-22T15:49:44Z</time>
      </trkpt>
      <trkpt lat="45.14241" lon="4.11226">
        <ele>847.2</ele>
        <time>2012-09-22T15:49:46Z</time>
      </trkpt>
      <trkpt lat="45.14242" lon="4.11217">
        <ele>847.5</ele>
        <time>2012-09-22T15:49:48Z</time>
      </trkpt>
      <trkpt lat="45.14243" lon="4.11208">
        <ele>847.9</ele>
        <time>2012-09-22T15:49:50Z</time>
      </trkpt>
      <trkpt lat="45.14244" lon="4.11199">
        <ele>848.2</ele>
        <time>2012-09-22T15:49:52Z</time>
      </trkpt>
      <trkpt lat="45.14245" lon="4.11191">
        <ele>848.5</ele>
        <time>2012-09-22T15:49:54Z</time>
      </trkpt>
      <trkpt lat="45.14246" lon="4.11182">
        <ele>-6.1E-5</ele>
        <time>2012-09-22T15:49:56Z</time>
      </trkpt>
      <trkpt lat="45.14247" lon="4.11174">
        <ele>849</ele>
        <time>2012-09-22T15:49:58Z</time>
      </trkpt>
      <trkpt lat="45.14247" lon="4.11166">
        <ele>849.2</ele>
        <time>2012-09-22T15:50:00Z</time>
      </trkpt>
      <trkpt lat="45.14248" lon="4.11157">
        <ele>849.5</ele>
        <time>2012-09-22T15:50:02Z</time>
      </trkpt>
      <trkpt lat="45.14249" lon="4.11149">
        <ele>849.7</ele>
        <time>2012-09-22T15:50:04Z</time>
      </trkpt>
      <trkpt lat="45.1425" lon="4.11141">
        <ele>850</ele>
        <time>2012-09-22T15:50:06Z</time>
      </trkpt>
      <trkpt lat="45.1425" lon="4.11133">
        <ele>850.5</ele>
        <time>2012-09-22T15:50:08Z</time>
      </trkpt>
      <trkpt lat="45.14249" lon="4.11124">
        <ele>851.1</ele>
        <time>2012-09-22T15:50:10Z</time>
      </trkpt>
      <trkpt lat="45.14249" lon="4.11116">
        <ele>851.7</ele>
        <time>2012-09-22T15:50:12Z</time>
      </trkpt>
      <trkpt lat="45.14248" lon="4.11108">
        <ele>-6.1E-5</ele>
        <time>2012-09-22T15:50:14Z</time>
      </trkpt>
      <trkpt lat="45.14247" lon="4.11099">
        <ele>852.7</ele>
        <time>2012-09-22T15:50:16Z</time>
      </trkpt>
      <trkpt lat="45.14245" lon="4.11091">
        <ele>853.2</ele>
        <time>2012-09-22T15:50:18Z</time>
      </trkpt>
      <trkpt lat="45.14244" lon="4.11082">
        <ele>853.7</ele>
        <time>2012-09-22T15:50:20Z</time>
      </trkpt>
      <trkpt lat="45.14243" lon="4.11074">
        <ele>853.8</ele>
        <time>2012-09-22T15:50:22Z</time>
      </trkpt>
      <trkpt lat="45.14241" lon="4.11065">
        <ele>854</ele>
        <time>2012-09-22T15:50:24Z</time>
      </trkpt>
      <trkpt lat="45.1424" lon="4.11056">
        <ele>854.1</ele>
        <time>2012-09-22T15:50:26Z</time>
      </trkpt>
      <trkpt lat="45.14238" lon="4.11046">
        <ele>854.1</ele>
        <time>2012-09-22T15:50:28Z</time>
      </trkpt>
      <trkpt lat="45.14237" lon="4.11036">
        <ele>854.1</ele>
        <time>2012-09-22T15:50:30Z</time>
      </trkpt>
      <trkpt lat="45.14236" lon="4.11026">
        <ele>854</ele>
        <time>2012-09-22T15:50:32Z</time>
      </trkpt>
      <trkpt lat="45.14235" lon="4.11017">
        <ele>853.9</ele>
        <time>2012-09-22T15:50:34Z</time>
      </trkpt>
      <trkpt lat="45.14235" lon="4.11007">
        <ele>853.8</ele>
        <time>2012-09-22T15:50:36Z</time>
      </trkpt>
      <trkpt lat="45.14234" lon="4.10997">
        <ele>853.7</ele>
        <time>2012-09-22T15:50:38Z</time>
      </trkpt>
      <trkpt lat="45.14234" lon="4.10991">
        <ele>853.7</ele>
        <time>2012-09-22T15:50:39Z</time>
      </trkpt>
      <trkpt lat="45.14234" lon="4.10982">
        <ele>853.7</ele>
        <time>2012-09-22T15:50:40Z</time>
      </trkpt>
      <trkpt lat="45.14235" lon="4.10974">
        <ele>-6.1E-5</ele>
        <time>2012-09-22T15:50:41Z</time>
      </trkpt>
      <trkpt lat="45.14235" lon="4.10966">
        <ele>-6.1E-5</ele>
        <time>2012-09-22T15:50:42Z</time>
      </trkpt>
      <trkpt lat="45.14235" lon="4.10957">
        <ele>-6.1E-5</ele>
        <time>2012-09-22T15:50:43Z</time>
      </trkpt>
      <trkpt lat="45.14235" lon="4.10949">
        <ele>853.6</ele>
        <time>2012-09-22T15:50:44Z</time>
      </trkpt>
      <trkpt lat="45.14235" lon="4.10941">
        <ele>-6.1E-5</ele>
        <time>2012-09-22T15:50:45Z</time>
      </trkpt>
      <trkpt lat="45.14235" lon="4.10932">
        <ele>853.4</ele>
        <time>2012-09-22T15:50:46Z</time>
      </trkpt>
      <trkpt lat="45.14235" lon="4.10924">
        <ele>-6.1E-5</ele>
        <time>2012-09-22T15:50:47Z</time>
      </trkpt>
      <trkpt lat="45.14235" lon="4.10916">
        <ele>853.1</ele>
        <time>2012-09-22T15:50:48Z</time>
      </trkpt>
      <trkpt lat="45.14235" lon="4.10908">
        <ele>-6.1E-5</ele>
        <time>2012-09-22T15:50:49Z</time>
      </trkpt>
      <trkpt lat="45.14236" lon="4.109">
        <ele>-6.1E-5</ele>
        <time>2012-09-22T15:50:50Z</time>
      </trkpt>
      <trkpt lat="45.14236" lon="4.10892">
        <ele>853.1</ele>
        <time>2012-09-22T15:50:51Z</time>
      </trkpt>
      <trkpt lat="45.14236" lon="4.10884">
        <ele>853</ele>
        <time>2012-09-22T15:50:52Z</time>
      </trkpt>
      <trkpt lat="45.14236" lon="4.10876">
        <ele>853</ele>
        <time>2012-09-22T15:50:53Z</time>
      </trkpt>
      <trkpt lat="45.14237" lon="4.10868">
        <ele>852.9</ele>
        <time>2012-09-22T15:50:54Z</time>
      </trkpt>
      <trkpt lat="45.14237" lon="4.10861">
        <ele>852.9</ele>
        <time>2012-09-22T15:50:55Z</time>
      </trkpt>
      <trkpt lat="45.14238" lon="4.10853">
        <ele>-6.1E-5</ele>
        <time>2012-09-22T15:50:56Z</time>
      </trkpt>
      <trkpt lat="45.14238" lon="4.10845">
        <ele>853.3</ele>
        <time>2012-09-22T15:50:57Z</time>
      </trkpt>
      <trkpt lat="45.14238" lon="4.10838">
        <ele>853.5</ele>
        <time>2012-09-22T15:50:58Z</time>
      </trkpt>
      <trkpt lat="45.14239" lon="4.1083">
        <ele>853.6</ele>
        <time>2012-09-22T15:50:59Z</time>
      </trkpt>
      <trkpt lat="45.14239" lon="4.10822">
        <ele>853.6</ele>
        <time>2012-09-22T15:51:00Z</time>
      </trkpt>
      <trkpt lat="45.14239" lon="4.10815">
        <ele>-6.1E-5</ele>
        <time>2012-09-22T15:51:01Z</time>
      </trkpt>
      <trkpt lat="45.14239" lon="4.10807">
        <ele>853.5</ele>
        <time>2012-09-22T15:51:02Z</time>
      </trkpt>
      <trkpt lat="45.14239" lon="4.10799">
        <ele>853.4</ele>
        <time>2012-09-22T15:51:03Z</time>
      </trkpt>
      <trkpt lat="45.14238" lon="4.10792">
        <ele>853.4</ele>
        <time>2012-09-22T15:51:04Z</time>
      </trkpt>
      <trkpt lat="45.14237" lon="4.10784">
        <ele>853.4</ele>
        <time>2012-09-22T15:51:05Z</time>
      </trkpt>
      <trkpt lat="45.14235" lon="4.10777">
        <ele>853.6</ele>
        <time>2012-09-22T15:51:06Z</time>
      </trkpt>
      <trkpt lat="45.14233" lon="4.10771">
        <ele>853.7</ele>
        <time>2012-09-22T15:51:07Z</time>
      </trkpt>
      <trkpt lat="45.1423" lon="4.10765">
        <ele>-6.1E-5</ele>
        <time>2012-09-22T15:51:08Z</time>
      </trkpt>
      <trkpt lat="45.14227" lon="4.1076">
        <ele>-6.1E-5</ele>
        <time>2012-09-22T15:51:09Z</time>
      </trkpt>
      <trkpt lat="45.14225" lon="4.10754">
        <ele>-6.1E-5</ele>
        <time>2012-09-22T15:51:10Z</time>
      </trkpt>
      <trkpt lat="45.14219" lon="4.10745">
        <ele>854.6</ele>
        <time>2012-09-22T15:51:12Z</time>
      </trkpt>
      <trkpt lat="45.14213" lon="4.10736">
        <ele>854.2</ele>
        <time>2012-09-22T15:51:14Z</time>
      </trkpt>
      <trkpt lat="45.14207" lon="4.10728">
        <ele>-6.1E-5</ele>
        <time>2012-09-22T15:51:16Z</time>
      </trkpt>
      <trkpt lat="45.14203" lon="4.10723">
        <ele>854.5</ele>
        <time>2012-09-22T15:51:17Z</time>
      </trkpt>
      <trkpt lat="45.142" lon="4.10719">
        <ele>854.8</ele>
        <time>2012-09-22T15:51:18Z</time>
      </trkpt>
      <trkpt lat="45.14197" lon="4.10714">
        <ele>855</ele>
        <time>2012-09-22T15:51:19Z</time>
      </trkpt>
      <trkpt lat="45.14194" lon="4.1071">
        <ele>855.2</ele>
        <time>2012-09-22T15:51:20Z</time>
      </trkpt>
      <trkpt lat="45.1419" lon="4.10705">
        <ele>-6.1E-5</ele>
        <time>2012-09-22T15:51:21Z</time>
      </trkpt>
      <trkpt lat="45.14187" lon="4.107">
        <ele>855.2</ele>
        <time>2012-09-22T15:51:22Z</time>
      </trkpt>
      <trkpt lat="45.14184" lon="4.10695">
        <ele>-6.1E-5</ele>
        <time>2012-09-22T15:51:23Z</time>
      </trkpt>
      <trkpt lat="45.1418" lon="4.1069">
        <ele>855.1</ele>
        <time>2012-09-22T15:51:24Z</time>
      </trkpt>
      <trkpt lat="45.14177" lon="4.10685">
        <ele>-6.1E-5</ele>
        <time>2012-09-22T15:51:25Z</time>
      </trkpt>
      <trkpt lat="45.14173" lon="4.1068">
        <ele>855.1</ele>
        <time>2012-09-22T15:51:26Z</time>
      </trkpt>
      <trkpt lat="45.1417" lon="4.10674">
        <ele>855.1</ele>
        <time>2012-09-22T15:51:27Z</time>
      </trkpt>
      <trkpt lat="45.14166" lon="4.10669">
        <ele>855.2</ele>
        <time>2012-09-22T15:51:28Z</time>
      </trkpt>
      <trkpt lat="45.14163" lon="4.10664">
        <ele>855.1</ele>
        <time>2012-09-22T15:51:29Z</time>
      </trkpt>
      <trkpt lat="45.14159" lon="4.10658">
        <ele>855</ele>
        <time>2012-09-22T15:51:30Z</time>
      </trkpt>
      <trkpt lat="45.14156" lon="4.10653">
        <ele>855</ele>
        <time>2012-09-22T15:51:31Z</time>
      </trkpt>
      <trkpt lat="45.14153" lon="4.10648">
        <ele>855</ele>
        <time>2012-09-22T15:51:32Z</time>
      </trkpt>
      <trkpt lat="45.14149" lon="4.10642">
        <ele>855</ele>
        <time>2012-09-22T15:51:33Z</time>
      </trkpt>
      <trkpt lat="45.14146" lon="4.10637">
        <ele>855.2</ele>
        <time>2012-09-22T15:51:34Z</time>
      </trkpt>
      <trkpt lat="45.14142" lon="4.10632">
        <ele>855.3</ele>
        <time>2012-09-22T15:51:35Z</time>
      </trkpt>
      <trkpt lat="45.14139" lon="4.10627">
        <ele>855.5</ele>
        <time>2012-09-22T15:51:36Z</time>
      </trkpt>
      <trkpt lat="45.14133" lon="4.10618">
        <ele>855.9</ele>
        <time>2012-09-22T15:51:38Z</time>
      </trkpt>
      <trkpt lat="45.14129" lon="4.10613">
        <ele>856.1</ele>
        <time>2012-09-22T15:51:39Z</time>
      </trkpt>
      <trkpt lat="45.14126" lon="4.10609">
        <ele>856.2</ele>
        <time>2012-09-22T15:51:40Z</time>
      </trkpt>
      <trkpt lat="45.14122" lon="4.10604">
        <ele>856.3</ele>
        <time>2012-09-22T15:51:41Z</time>
      </trkpt>
      <trkpt lat="45.14119" lon="4.10599">
        <ele>-6.1E-5</ele>
        <time>2012-09-22T15:51:42Z</time>
      </trkpt>
      <trkpt lat="45.14116" lon="4.10595">
        <ele>856.3</ele>
        <time>2012-09-22T15:51:43Z</time>
      </trkpt>
      <trkpt lat="45.14113" lon="4.1059">
        <ele>856.3</ele>
        <time>2012-09-22T15:51:44Z</time>
      </trkpt>
      <trkpt lat="45.14107" lon="4.10581">
        <ele>-6.1E-5</ele>
        <time>2012-09-22T15:51:46Z</time>
      </trkpt>
      <trkpt lat="45.14101" lon="4.10573">
        <ele>857.1</ele>
        <time>2012-09-22T15:51:48Z</time>
      </trkpt>
      <trkpt lat="45.14095" lon="4.10565">
        <ele>857.6</ele>
        <time>2012-09-22T15:51:50Z</time>
      </trkpt>
      <trkpt lat="45.1409" lon="4.10556">
        <ele>858.1</ele>
        <time>2012-09-22T15:51:52Z</time>
      </trkpt>
      <trkpt lat="45.14085" lon="4.10546">
        <ele>858</ele>
        <time>2012-09-22T15:51:54Z</time>
      </trkpt>
      <trkpt lat="45.14082" lon="4.10535">
        <ele>857.6</ele>
        <time>2012-09-22T15:51:56Z</time>
      </trkpt>
      <trkpt lat="45.14078" lon="4.10524">
        <ele>-6.1E-5</ele>
        <time>2012-09-22T15:51:58Z</time>
      </trkpt>
      <trkpt lat="45.14074" lon="4.10513">
        <ele>856.8</ele>
        <time>2012-09-22T15:52:00Z</time>
      </trkpt>
      <trkpt lat="45.14071" lon="4.10507">
        <ele>856.7</ele>
        <time>2012-09-22T15:52:01Z</time>
      </trkpt>
      <trkpt lat="45.14068" lon="4.10501">
        <ele>856.7</ele>
        <time>2012-09-22T15:52:02Z</time>
      </trkpt>
      <trkpt lat="45.14065" lon="4.10495">
        <ele>-6.1E-5</ele>
        <time>2012-09-22T15:52:03Z</time>
      </trkpt>
      <trkpt lat="45.14062" lon="4.10488">
        <ele>856.4</ele>
        <time>2012-09-22T15:52:04Z</time>
      </trkpt>
      <trkpt lat="45.14058" lon="4.10481">
        <ele>-6.1E-5</ele>
        <time>2012-09-22T15:52:05Z</time>
      </trkpt>
      <trkpt lat="45.14054" lon="4.10473">
        <ele>856.2</ele>
        <time>2012-09-22T15:52:06Z</time>
      </trkpt>
      <trkpt lat="45.14051" lon="4.10466">
        <ele>855.7</ele>
        <time>2012-09-22T15:52:07Z</time>
      </trkpt>
      <trkpt lat="45.14047" lon="4.10458">
        <ele>855.3</ele>
        <time>2012-09-22T15:52:08Z</time>
      </trkpt>
      <trkpt lat="45.14043" lon="4.10451">
        <ele>854.9</ele>
        <time>2012-09-22T15:52:09Z</time>
      </trkpt>
      <trkpt lat="45.1404" lon="4.10443">
        <ele>854.6</ele>
        <time>2012-09-22T15:52:10Z</time>
      </trkpt>
      <trkpt lat="45.14036" lon="4.10435">
        <ele>-6.1E-5</ele>
        <time>2012-09-22T15:52:11Z</time>
      </trkpt>
      <trkpt lat="45.14032" lon="4.10425">
        <ele>854.2</ele>
        <time>2012-09-22T15:52:12Z</time>
      </trkpt>
      <trkpt lat="45.14028" lon="4.10415">
        <ele>853.9</ele>
        <time>2012-09-22T15:52:13Z</time>
      </trkpt>
      <trkpt lat="45.14024" lon="4.10405">
        <ele>853.6</ele>
        <time>2012-09-22T15:52:14Z</time>
      </trkpt>
      <trkpt lat="45.14019" lon="4.10395">
        <ele>-6.1E-5</ele>
        <time>2012-09-22T15:52:15Z</time>
      </trkpt>
      <trkpt lat="45.14015" lon="4.10385">
        <ele>-6.1E-5</ele>
        <time>2012-09-22T15:52:16Z</time>
      </trkpt>
      <trkpt lat="45.1401" lon="4.10375">
        <ele>852.5</ele>
        <time>2012-09-22T15:52:17Z</time>
      </trkpt>
      <trkpt lat="45.14005" lon="4.10366">
        <ele>851.6</ele>
        <time>2012-09-22T15:52:18Z</time>
      </trkpt>
      <trkpt lat="45.13999" lon="4.10357">
        <ele>-6.1E-5</ele>
        <time>2012-09-22T15:52:19Z</time>
      </trkpt>
      <trkpt lat="45.13992" lon="4.10348">
        <ele>851.1</ele>
        <time>2012-09-22T15:52:20Z</time>
      </trkpt>
      <trkpt lat="45.13985" lon="4.1034">
        <ele>850.7</ele>
        <time>2012-09-22T15:52:21Z</time>
      </trkpt>
      <trkpt lat="45.13977" lon="4.10332">
        <ele>-6.1E-5</ele>
        <time>2012-09-22T15:52:22Z</time>
      </trkpt>
      <trkpt lat="45.13969" lon="4.10324">
        <ele>849.8</ele>
        <time>2012-09-22T15:52:23Z</time>
      </trkpt>
      <trkpt lat="45.13961" lon="4.10317">
        <ele>849.5</ele>
        <time>2012-09-22T15:52:24Z</time>
      </trkpt>
      <trkpt lat="45.13954" lon="4.10309">
        <ele>848.7</ele>
        <time>2012-09-22T15:52:25Z</time>
      </trkpt>
      <trkpt lat="45.13948" lon="4.10299">
        <ele>847.7</ele>
        <time>2012-09-22T15:52:26Z</time>
      </trkpt>
      <trkpt lat="45.13944" lon="4.10288">
        <ele>846.8</ele>
        <time>2012-09-22T15:52:27Z</time>
      </trkpt>
      <trkpt lat="45.13944" lon="4.10277">
        <ele>846</ele>
        <time>2012-09-22T15:52:28Z</time>
      </trkpt>
      <trkpt lat="45.13945" lon="4.10268">
        <ele>-6.1E-5</ele>
        <time>2012-09-22T15:52:29Z</time>
      </trkpt>
      <trkpt lat="45.13945" lon="4.10258">
        <ele>846</ele>
        <time>2012-09-22T15:52:30Z</time>
      </trkpt>
      <trkpt lat="45.13946" lon="4.10248">
        <ele>845.8</ele>
        <time>2012-09-22T15:52:31Z</time>
      </trkpt>
      <trkpt lat="45.13947" lon="4.10239">
        <ele>845</ele>
        <time>2012-09-22T15:52:32Z</time>
      </trkpt>
      <trkpt lat="45.13953" lon="4.10237">
        <ele>844.6</ele>
        <time>2012-09-22T15:52:33Z</time>
      </trkpt>
      <trkpt lat="45.13955" lon="4.1023">
        <ele>-6.1E-5</ele>
        <time>2012-09-22T15:52:34Z</time>
      </trkpt>
      <trkpt lat="45.13957" lon="4.10224">
        <ele>843.6</ele>
        <time>2012-09-22T15:52:35Z</time>
      </trkpt>
      <trkpt lat="45.13957" lon="4.10217">
        <ele>843</ele>
        <time>2012-09-22T15:52:36Z</time>
      </trkpt>
      <trkpt lat="45.13956" lon="4.10211">
        <ele>842.5</ele>
        <time>2012-09-22T15:52:37Z</time>
      </trkpt>
      <trkpt lat="45.13954" lon="4.10205">
        <ele>842.1</ele>
        <time>2012-09-22T15:52:38Z</time>
      </trkpt>
      <trkpt lat="45.13951" lon="4.10199">
        <ele>842.1</ele>
        <time>2012-09-22T15:52:39Z</time>
      </trkpt>
      <trkpt lat="45.13948" lon="4.10194">
        <ele>842.3</ele>
        <time>2012-09-22T15:52:40Z</time>
      </trkpt>
      <trkpt lat="45.13941" lon="4.10187">
        <ele>842.1</ele>
        <time>2012-09-22T15:52:42Z</time>
      </trkpt>
      <trkpt lat="45.13937" lon="4.10183">
        <ele>842</ele>
        <time>2012-09-22T15:52:43Z</time>
      </trkpt>
      <trkpt lat="45.13933" lon="4.1018">
        <ele>841.9</ele>
        <time>2012-09-22T15:52:44Z</time>
      </trkpt>
      <trkpt lat="45.13929" lon="4.10176">
        <ele>842</ele>
        <time>2012-09-22T15:52:45Z</time>
      </trkpt>
      <trkpt lat="45.13925" lon="4.10172">
        <ele>842.2</ele>
        <time>2012-09-22T15:52:46Z</time>
      </trkpt>
      <trkpt lat="45.13921" lon="4.10169">
        <ele>842.5</ele>
        <time>2012-09-22T15:52:47Z</time>
      </trkpt>
      <trkpt lat="45.13917" lon="4.10165">
        <ele>842.8</ele>
        <time>2012-09-22T15:52:48Z</time>
      </trkpt>
      <trkpt lat="45.13913" lon="4.10162">
        <ele>842.5</ele>
        <time>2012-09-22T15:52:49Z</time>
      </trkpt>
      <trkpt lat="45.13908" lon="4.10159">
        <ele>842.3</ele>
        <time>2012-09-22T15:52:50Z</time>
      </trkpt>
      <trkpt lat="45.13903" lon="4.10156">
        <ele>842.2</ele>
        <time>2012-09-22T15:52:51Z</time>
      </trkpt>
      <trkpt lat="45.13898" lon="4.10153">
        <ele>842.2</ele>
        <time>2012-09-22T15:52:52Z</time>
      </trkpt>
      <trkpt lat="45.13893" lon="4.1015">
        <ele>-6.1E-5</ele>
        <time>2012-09-22T15:52:53Z</time>
      </trkpt>
      <trkpt lat="45.13888" lon="4.10147">
        <ele>842.3</ele>
        <time>2012-09-22T15:52:54Z</time>
      </trkpt>
      <trkpt lat="45.13883" lon="4.10144">
        <ele>842.4</ele>
        <time>2012-09-22T15:52:55Z</time>
      </trkpt>
      <trkpt lat="45.13878" lon="4.10141">
        <ele>842.5</ele>
        <time>2012-09-22T15:52:56Z</time>
      </trkpt>
      <trkpt lat="45.13872" lon="4.10138">
        <ele>842.6</ele>
        <time>2012-09-22T15:52:57Z</time>
      </trkpt>
      <trkpt lat="45.13867" lon="4.10136">
        <ele>842.5</ele>
        <time>2012-09-22T15:52:58Z</time>
      </trkpt>
      <trkpt lat="45.13862" lon="4.10133">
        <ele>842.5</ele>
        <time>2012-09-22T15:52:59Z</time>
      </trkpt>
      <trkpt lat="45.13856" lon="4.1013">
        <ele>842.3</ele>
        <time>2012-09-22T15:53:00Z</time>
      </trkpt>
      <trkpt lat="45.1385" lon="4.10127">
        <ele>-6.1E-5</ele>
        <time>2012-09-22T15:53:01Z</time>
      </trkpt>
      <trkpt lat="45.13844" lon="4.10124">
        <ele>841.9</ele>
        <time>2012-09-22T15:53:02Z</time>
      </trkpt>
      <trkpt lat="45.13839" lon="4.10122">
        <ele>841.8</ele>
        <time>2012-09-22T15:53:03Z</time>
      </trkpt>
      <trkpt lat="45.13833" lon="4.1012">
        <ele>841.7</ele>
        <time>2012-09-22T15:53:04Z</time>
      </trkpt>
      <trkpt lat="45.13827" lon="4.10118">
        <ele>841.8</ele>
        <time>2012-09-22T15:53:05Z</time>
      </trkpt>
      <trkpt lat="45.13821" lon="4.10117">
        <ele>841.8</ele>
        <time>2012-09-22T15:53:06Z</time>
      </trkpt>
      <trkpt lat="45.13815" lon="4.10115">
        <ele>-6.1E-5</ele>
        <time>2012-09-22T15:53:07Z</time>
      </trkpt>
      <trkpt lat="45.1381" lon="4.10113">
        <ele>-6.1E-5</ele>
        <time>2012-09-22T15:53:08Z</time>
      </trkpt>
      <trkpt lat="45.13804" lon="4.10111">
        <ele>841.9</ele>
        <time>2012-09-22T15:53:09Z</time>
      </trkpt>
      <trkpt lat="45.13798" lon="4.10109">
        <ele>841.5</ele>
        <time>2012-09-22T15:53:10Z</time>
      </trkpt>
      <trkpt lat="45.13792" lon="4.10108">
        <ele>-6.1E-5</ele>
        <time>2012-09-22T15:53:11Z</time>
      </trkpt>
      <trkpt lat="45.13787" lon="4.10106">
        <ele>840.8</ele>
        <time>2012-09-22T15:53:12Z</time>
      </trkpt>
      <trkpt lat="45.13781" lon="4.10104">
        <ele>840.5</ele>
        <time>2012-09-22T15:53:13Z</time>
      </trkpt>
      <trkpt lat="45.13775" lon="4.10102">
        <ele>-6.1E-5</ele>
        <time>2012-09-22T15:53:14Z</time>
      </trkpt>
      <trkpt lat="45.1377" lon="4.101">
        <ele>840.4</ele>
        <time>2012-09-22T15:53:15Z</time>
      </trkpt>
      <trkpt lat="45.13764" lon="4.10098">
        <ele>840.3</ele>
        <time>2012-09-22T15:53:16Z</time>
      </trkpt>
      <trkpt lat="45.13759" lon="4.10096">
        <ele>840.2</ele>
        <time>2012-09-22T15:53:17Z</time>
      </trkpt>
      <trkpt lat="45.13753" lon="4.10094">
        <ele>840.1</ele>
        <time>2012-09-22T15:53:18Z</time>
      </trkpt>
      <trkpt lat="45.13748" lon="4.10092">
        <ele>840.1</ele>
        <time>2012-09-22T15:53:19Z</time>
      </trkpt>
      <trkpt lat="45.13743" lon="4.1009">
        <ele>840.2</ele>
        <time>2012-09-22T15:53:20Z</time>
      </trkpt>
      <trkpt lat="45.13737" lon="4.10088">
        <ele>840.4</ele>
        <time>2012-09-22T15:53:21Z</time>
      </trkpt>
      <trkpt lat="45.13732" lon="4.10086">
        <ele>840.6</ele>
        <time>2012-09-22T15:53:22Z</time>
      </trkpt>
      <trkpt lat="45.13727" lon="4.10084">
        <ele>840.7</ele>
        <time>2012-09-22T15:53:23Z</time>
      </trkpt>
      <trkpt lat="45.13722" lon="4.10082">
        <ele>840.9</ele>
        <time>2012-09-22T15:53:24Z</time>
      </trkpt>
      <trkpt lat="45.13717" lon="4.1008">
        <ele>841.2</ele>
        <time>2012-09-22T15:53:25Z</time>
      </trkpt>
      <trkpt lat="45.13711" lon="4.10079">
        <ele>841.5</ele>
        <time>2012-09-22T15:53:26Z</time>
      </trkpt>
      <trkpt lat="45.13706" lon="4.10077">
        <ele>841.8</ele>
        <time>2012-09-22T15:53:27Z</time>
      </trkpt>
      <trkpt lat="45.13701" lon="4.10075">
        <ele>842.1</ele>
        <time>2012-09-22T15:53:28Z</time>
      </trkpt>
      <trkpt lat="45.13695" lon="4.10073">
        <ele>842.4</ele>
        <time>2012-09-22T15:53:29Z</time>
      </trkpt>
      <trkpt lat="45.1369" lon="4.10071">
        <ele>842.3</ele>
        <time>2012-09-22T15:53:30Z</time>
      </trkpt>
      <trkpt lat="45.13684" lon="4.10069">
        <ele>842.1</ele>
        <time>2012-09-22T15:53:31Z</time>
      </trkpt>
      <trkpt lat="45.13679" lon="4.10067">
        <ele>841.9</ele>
        <time>2012-09-22T15:53:32Z</time>
      </trkpt>
      <trkpt lat="45.13673" lon="4.10066">
        <ele>841.7</ele>
        <time>2012-09-22T15:53:33Z</time>
      </trkpt>
      <trkpt lat="45.13668" lon="4.10064">
        <ele>841.5</ele>
        <time>2012-09-22T15:53:34Z</time>
      </trkpt>
      <trkpt lat="45.13662" lon="4.10062">
        <ele>-6.1E-5</ele>
        <time>2012-09-22T15:53:35Z</time>
      </trkpt>
      <trkpt lat="45.13657" lon="4.1006">
        <ele>840.4</ele>
        <time>2012-09-22T15:53:36Z</time>
      </trkpt>
      <trkpt lat="45.13652" lon="4.10058">
        <ele>-6.1E-5</ele>
        <time>2012-09-22T15:53:37Z</time>
      </trkpt>
      <trkpt lat="45.13646" lon="4.10057">
        <ele>839.4</ele>
        <time>2012-09-22T15:53:38Z</time>
      </trkpt>
      <trkpt lat="45.1364" lon="4.10055">
        <ele>839</ele>
        <time>2012-09-22T15:53:39Z</time>
      </trkpt>
      <trkpt lat="45.13635" lon="4.10053">
        <ele>838.5</ele>
        <time>2012-09-22T15:53:40Z</time>
      </trkpt>
      <trkpt lat="45.13629" lon="4.10052">
        <ele>838.1</ele>
        <time>2012-09-22T15:53:41Z</time>
      </trkpt>
      <trkpt lat="45.13623" lon="4.1005">
        <ele>837.7</ele>
        <time>2012-09-22T15:53:42Z</time>
      </trkpt>
      <trkpt lat="45.13618" lon="4.10049">
        <ele>837.3</ele>
        <time>2012-09-22T15:53:43Z</time>
      </trkpt>
      <trkpt lat="45.13612" lon="4.10047">
        <ele>836.8</ele>
        <time>2012-09-22T15:53:44Z</time>
      </trkpt>
      <trkpt lat="45.13607" lon="4.10046">
        <ele>836.8</ele>
        <time>2012-09-22T15:53:45Z</time>
      </trkpt>
      <trkpt lat="45.13601" lon="4.10044">
        <ele>836.9</ele>
        <time>2012-09-22T15:53:46Z</time>
      </trkpt>
      <trkpt lat="45.13595" lon="4.10042">
        <ele>837.2</ele>
        <time>2012-09-22T15:53:47Z</time>
      </trkpt>
      <trkpt lat="45.13589" lon="4.1004">
        <ele>837.5</ele>
        <time>2012-09-22T15:53:48Z</time>
      </trkpt>
      <trkpt lat="45.13584" lon="4.10038">
        <ele>838</ele>
        <time>2012-09-22T15:53:49Z</time>
      </trkpt>
      <trkpt lat="45.13578" lon="4.10036">
        <ele>838.2</ele>
        <time>2012-09-22T15:53:50Z</time>
      </trkpt>
      <trkpt lat="45.13572" lon="4.10034">
        <ele>838.4</ele>
        <time>2012-09-22T15:53:51Z</time>
      </trkpt>
      <trkpt lat="45.13567" lon="4.10033">
        <ele>838.4</ele>
        <time>2012-09-22T15:53:52Z</time>
      </trkpt>
      <trkpt lat="45.13561" lon="4.10031">
        <ele>-6.1E-5</ele>
        <time>2012-09-22T15:53:53Z</time>
      </trkpt>
      <trkpt lat="45.13555" lon="4.10029">
        <ele>838.2</ele>
        <time>2012-09-22T15:53:54Z</time>
      </trkpt>
      <trkpt lat="45.13549" lon="4.10027">
        <ele>838.4</ele>
        <time>2012-09-22T15:53:55Z</time>
      </trkpt>
      <trkpt lat="45.13543" lon="4.10026">
        <ele>-6.1E-5</ele>
        <time>2012-09-22T15:53:56Z</time>
      </trkpt>
      <trkpt lat="45.13538" lon="4.10025">
        <ele>838.9</ele>
        <time>2012-09-22T15:53:57Z</time>
      </trkpt>
      <trkpt lat="45.13532" lon="4.10023">
        <ele>839.1</ele>
        <time>2012-09-22T15:53:58Z</time>
      </trkpt>
      <trkpt lat="45.13526" lon="4.10021">
        <ele>839</ele>
        <time>2012-09-22T15:53:59Z</time>
      </trkpt>
      <trkpt lat="45.1352" lon="4.10019">
        <ele>-6.1E-5</ele>
        <time>2012-09-22T15:54:00Z</time>
      </trkpt>
      <trkpt lat="45.13514" lon="4.10018">
        <ele>-6.1E-5</ele>
        <time>2012-09-22T15:54:01Z</time>
      </trkpt>
      <trkpt lat="45.13509" lon="4.10016">
        <ele>838.2</ele>
        <time>2012-09-22T15:54:02Z</time>
      </trkpt>
      <trkpt lat="45.13503" lon="4.10014">
        <ele>838</ele>
        <time>2012-09-22T15:54:03Z</time>
      </trkpt>
      <trkpt lat="45.13497" lon="4.10012">
        <ele>837.8</ele>
        <time>2012-09-22T15:54:04Z</time>
      </trkpt>
      <trkpt lat="45.13491" lon="4.1001">
        <ele>837.7</ele>
        <time>2012-09-22T15:54:05Z</time>
      </trkpt>
      <trkpt lat="45.13486" lon="4.10008">
        <ele>837.6</ele>
        <time>2012-09-22T15:54:06Z</time>
      </trkpt>
      <trkpt lat="45.1348" lon="4.10006">
        <ele>837.6</ele>
        <time>2012-09-22T15:54:07Z</time>
      </trkpt>
      <trkpt lat="45.13474" lon="4.10004">
        <ele>837.5</ele>
        <time>2012-09-22T15:54:08Z</time>
      </trkpt>
      <trkpt lat="45.13468" lon="4.10002">
        <ele>837.3</ele>
        <time>2012-09-22T15:54:09Z</time>
      </trkpt>
      <trkpt lat="45.13462" lon="4.1">
        <ele>837.1</ele>
        <time>2012-09-22T15:54:10Z</time>
      </trkpt>
      <trkpt lat="45.13456" lon="4.09998">
        <ele>836.8</ele>
        <time>2012-09-22T15:54:11Z</time>
      </trkpt>
      <trkpt lat="45.1345" lon="4.09996">
        <ele>836.6</ele>
        <time>2012-09-22T15:54:12Z</time>
      </trkpt>
      <trkpt lat="45.13444" lon="4.09994">
        <ele>836.4</ele>
        <time>2012-09-22T15:54:13Z</time>
      </trkpt>
      <trkpt lat="45.13438" lon="4.09992">
        <ele>836.6</ele>
        <time>2012-09-22T15:54:14Z</time>
      </trkpt>
      <trkpt lat="45.13432" lon="4.0999">
        <ele>836.7</ele>
        <time>2012-09-22T15:54:15Z</time>
      </trkpt>
      <trkpt lat="45.13427" lon="4.09987">
        <ele>836.9</ele>
        <time>2012-09-22T15:54:16Z</time>
      </trkpt>
      <trkpt lat="45.13421" lon="4.09984">
        <ele>-6.1E-5</ele>
        <time>2012-09-22T15:54:17Z</time>
      </trkpt>
      <trkpt lat="45.13415" lon="4.09982">
        <ele>-6.1E-5</ele>
        <time>2012-09-22T15:54:18Z</time>
      </trkpt>
      <trkpt lat="45.13409" lon="4.09978">
        <ele>837.2</ele>
        <time>2012-09-22T15:54:19Z</time>
      </trkpt>
      <trkpt lat="45.13403" lon="4.09974">
        <ele>837.2</ele>
        <time>2012-09-22T15:54:20Z</time>
      </trkpt>
      <trkpt lat="45.13397" lon="4.0997">
        <ele>-6.1E-5</ele>
        <time>2012-09-22T15:54:21Z</time>
      </trkpt>
      <trkpt lat="45.13391" lon="4.09966">
        <ele>837.2</ele>
        <time>2012-09-22T15:54:22Z</time>
      </trkpt>
      <trkpt lat="45.13385" lon="4.09961">
        <ele>836.9</ele>
        <time>2012-09-22T15:54:23Z</time>
      </trkpt>
      <trkpt lat="45.13379" lon="4.09956">
        <ele>836.6</ele>
        <time>2012-09-22T15:54:24Z</time>
      </trkpt>
      <trkpt lat="45.13374" lon="4.09951">
        <ele>836.3</ele>
        <time>2012-09-22T15:54:25Z</time>
      </trkpt>
      <trkpt lat="45.13368" lon="4.09946">
        <ele>836</ele>
        <time>2012-09-22T15:54:26Z</time>
      </trkpt>
      <trkpt lat="45.13362" lon="4.09942">
        <ele>-6.1E-5</ele>
        <time>2012-09-22T15:54:27Z</time>
      </trkpt>
      <trkpt lat="45.13356" lon="4.09937">
        <ele>835.9</ele>
        <time>2012-09-22T15:54:28Z</time>
      </trkpt>
      <trkpt lat="45.13351" lon="4.09933">
        <ele>835.8</ele>
        <time>2012-09-22T15:54:29Z</time>
      </trkpt>
      <trkpt lat="45.13345" lon="4.09928">
        <ele>835.6</ele>
        <time>2012-09-22T15:54:30Z</time>
      </trkpt>
      <trkpt lat="45.13339" lon="4.09923">
        <ele>835.4</ele>
        <time>2012-09-22T15:54:31Z</time>
      </trkpt>
      <trkpt lat="45.13333" lon="4.09919">
        <ele>835.1</ele>
        <time>2012-09-22T15:54:32Z</time>
      </trkpt>
      <trkpt lat="45.13327" lon="4.09914">
        <ele>834.7</ele>
        <time>2012-09-22T15:54:33Z</time>
      </trkpt>
      <trkpt lat="45.13322" lon="4.09909">
        <ele>834.3</ele>
        <time>2012-09-22T15:54:34Z</time>
      </trkpt>
      <trkpt lat="45.13316" lon="4.09904">
        <ele>-6.1E-5</ele>
        <time>2012-09-22T15:54:35Z</time>
      </trkpt>
      <trkpt lat="45.13311" lon="4.09899">
        <ele>-6.1E-5</ele>
        <time>2012-09-22T15:54:36Z</time>
      </trkpt>
      <trkpt lat="45.13305" lon="4.09893">
        <ele>834.2</ele>
        <time>2012-09-22T15:54:37Z</time>
      </trkpt>
      <trkpt lat="45.133" lon="4.09888">
        <ele>833.8</ele>
        <time>2012-09-22T15:54:38Z</time>
      </trkpt>
      <trkpt lat="45.13295" lon="4.09882">
        <ele>833.3</ele>
        <time>2012-09-22T15:54:39Z</time>
      </trkpt>
      <trkpt lat="45.1329" lon="4.09876">
        <ele>833.2</ele>
        <time>2012-09-22T15:54:40Z</time>
      </trkpt>
      <trkpt lat="45.13286" lon="4.09869">
        <ele>833.5</ele>
        <time>2012-09-22T15:54:41Z</time>
      </trkpt>
      <trkpt lat="45.13281" lon="4.09863">
        <ele>834.3</ele>
        <time>2012-09-22T15:54:42Z</time>
      </trkpt>
      <trkpt lat="45.13277" lon="4.09856">
        <ele>834.9</ele>
        <time>2012-09-22T15:54:43Z</time>
      </trkpt>
      <trkpt lat="45.13273" lon="4.09849">
        <ele>835.1</ele>
        <time>2012-09-22T15:54:44Z</time>
      </trkpt>
      <trkpt lat="45.13269" lon="4.09842">
        <ele>835.2</ele>
        <time>2012-09-22T15:54:45Z</time>
      </trkpt>
      <trkpt lat="45.13266" lon="4.09834">
        <ele>835.4</ele>
        <time>2012-09-22T15:54:46Z</time>
      </trkpt>
      <trkpt lat="45.13262" lon="4.09827">
        <ele>835.3</ele>
        <time>2012-09-22T15:54:47Z</time>
      </trkpt>
      <trkpt lat="45.13259" lon="4.0982">
        <ele>835.1</ele>
        <time>2012-09-22T15:54:48Z</time>
      </trkpt>
      <trkpt lat="45.13255" lon="4.09813">
        <ele>-6.1E-5</ele>
        <time>2012-09-22T15:54:49Z</time>
      </trkpt>
      <trkpt lat="45.13252" lon="4.09805">
        <ele>834.8</ele>
        <time>2012-09-22T15:54:50Z</time>
      </trkpt>
      <trkpt lat="45.13248" lon="4.09798">
        <ele>834.9</ele>
        <time>2012-09-22T15:54:51Z</time>
      </trkpt>
      <trkpt lat="45.13245" lon="4.0979">
        <ele>834.9</ele>
        <time>2012-09-22T15:54:52Z</time>
      </trkpt>
      <trkpt lat="45.13241" lon="4.09783">
        <ele>834.9</ele>
        <time>2012-09-22T15:54:53Z</time>
      </trkpt>
      <trkpt lat="45.13237" lon="4.09776">
        <ele>834.9</ele>
        <time>2012-09-22T15:54:54Z</time>
      </trkpt>
      <trkpt lat="45.13234" lon="4.0977">
        <ele>-6.1E-5</ele>
        <time>2012-09-22T15:54:55Z</time>
      </trkpt>
      <trkpt lat="45.1323" lon="4.09763">
        <ele>834.9</ele>
        <time>2012-09-22T15:54:56Z</time>
      </trkpt>
      <trkpt lat="45.13226" lon="4.09757">
        <ele>835</ele>
        <time>2012-09-22T15:54:57Z</time>
      </trkpt>
      <trkpt lat="45.13221" lon="4.09752">
        <ele>835.1</ele>
        <time>2012-09-22T15:54:58Z</time>
      </trkpt>
      <trkpt lat="45.13217" lon="4.09747">
        <ele>835</ele>
        <time>2012-09-22T15:54:59Z</time>
      </trkpt>
      <trkpt lat="45.13212" lon="4.09742">
        <ele>835</ele>
        <time>2012-09-22T15:55:00Z</time>
      </trkpt>
      <trkpt lat="45.13207" lon="4.09738">
        <ele>834.9</ele>
        <time>2012-09-22T15:55:01Z</time>
      </trkpt>
      <trkpt lat="45.13203" lon="4.09734">
        <ele>834.7</ele>
        <time>2012-09-22T15:55:02Z</time>
      </trkpt>
      <trkpt lat="45.13198" lon="4.0973">
        <ele>-6.1E-5</ele>
        <time>2012-09-22T15:55:03Z</time>
      </trkpt>
      <trkpt lat="45.13193" lon="4.09727">
        <ele>834.4</ele>
        <time>2012-09-22T15:55:04Z</time>
      </trkpt>
      <trkpt lat="45.13188" lon="4.09724">
        <ele>834.3</ele>
        <time>2012-09-22T15:55:05Z</time>
      </trkpt>
      <trkpt lat="45.13183" lon="4.09721">
        <ele>834.3</ele>
        <time>2012-09-22T15:55:06Z</time>
      </trkpt>
      <trkpt lat="45.13178" lon="4.09719">
        <ele>834.1</ele>
        <time>2012-09-22T15:55:07Z</time>
      </trkpt>
      <trkpt lat="45.13173" lon="4.09716">
        <ele>834</ele>
        <time>2012-09-22T15:55:08Z</time>
      </trkpt>
      <trkpt lat="45.13167" lon="4.09714">
        <ele>833.8</ele>
        <time>2012-09-22T15:55:09Z</time>
      </trkpt>
      <trkpt lat="45.13162" lon="4.09712">
        <ele>833.5</ele>
        <time>2012-09-22T15:55:10Z</time>
      </trkpt>
      <trkpt lat="45.13157" lon="4.0971">
        <ele>833.2</ele>
        <time>2012-09-22T15:55:11Z</time>
      </trkpt>
      <trkpt lat="45.13152" lon="4.09708">
        <ele>-6.1E-5</ele>
        <time>2012-09-22T15:55:12Z</time>
      </trkpt>
      <trkpt lat="45.13147" lon="4.09705">
        <ele>-6.1E-5</ele>
        <time>2012-09-22T15:55:13Z</time>
      </trkpt>
      <trkpt lat="45.13141" lon="4.09702">
        <ele>-6.1E-5</ele>
        <time>2012-09-22T15:55:14Z</time>
      </trkpt>
      <trkpt lat="45.13136" lon="4.09699">
        <ele>832.8</ele>
        <time>2012-09-22T15:55:15Z</time>
      </trkpt>
      <trkpt lat="45.13131" lon="4.09696">
        <ele>833.3</ele>
        <time>2012-09-22T15:55:16Z</time>
      </trkpt>
      <trkpt lat="45.13125" lon="4.09692">
        <ele>833.7</ele>
        <time>2012-09-22T15:55:17Z</time>
      </trkpt>
      <trkpt lat="45.1312" lon="4.09688">
        <ele>-6.1E-5</ele>
        <time>2012-09-22T15:55:18Z</time>
      </trkpt>
      <trkpt lat="45.13115" lon="4.09684">
        <ele>-6.1E-5</ele>
        <time>2012-09-22T15:55:19Z</time>
      </trkpt>
      <trkpt lat="45.1311" lon="4.0968">
        <ele>834</ele>
        <time>2012-09-22T15:55:20Z</time>
      </trkpt>
      <trkpt lat="45.13106" lon="4.09675">
        <ele>834.6</ele>
        <time>2012-09-22T15:55:21Z</time>
      </trkpt>
      <trkpt lat="45.13101" lon="4.0967">
        <ele>835.2</ele>
        <time>2012-09-22T15:55:22Z</time>
      </trkpt>
      <trkpt lat="45.13097" lon="4.09664">
        <ele>835.8</ele>
        <time>2012-09-22T15:55:23Z</time>
      </trkpt>
      <trkpt lat="45.13093" lon="4.09659">
        <ele>836.1</ele>
        <time>2012-09-22T15:55:24Z</time>
      </trkpt>
      <trkpt lat="45.1309" lon="4.09653">
        <ele>836.2</ele>
        <time>2012-09-22T15:55:25Z</time>
      </trkpt>
      <trkpt lat="45.13086" lon="4.09647">
        <ele>836</ele>
        <time>2012-09-22T15:55:26Z</time>
      </trkpt>
      <trkpt lat="45.13083" lon="4.09641">
        <ele>835.5</ele>
        <time>2012-09-22T15:55:27Z</time>
      </trkpt>
      <trkpt lat="45.13079" lon="4.09635">
        <ele>835.6</ele>
        <time>2012-09-22T15:55:28Z</time>
      </trkpt>
      <trkpt lat="45.13076" lon="4.09629">
        <ele>835.8</ele>
        <time>2012-09-22T15:55:29Z</time>
      </trkpt>
      <trkpt lat="45.13073" lon="4.09622">
        <ele>836</ele>
        <time>2012-09-22T15:55:30Z</time>
      </trkpt>
      <trkpt lat="45.1307" lon="4.09616">
        <ele>836.2</ele>
        <time>2012-09-22T15:55:31Z</time>
      </trkpt>
      <trkpt lat="45.13068" lon="4.0961">
        <ele>836.4</ele>
        <time>2012-09-22T15:55:32Z</time>
      </trkpt>
      <trkpt lat="45.13065" lon="4.09603">
        <ele>836.3</ele>
        <time>2012-09-22T15:55:33Z</time>
      </trkpt>
      <trkpt lat="45.13063" lon="4.09597">
        <ele>-6.1E-5</ele>
        <time>2012-09-22T15:55:34Z</time>
      </trkpt>
      <trkpt lat="45.13061" lon="4.0959">
        <ele>835.4</ele>
        <time>2012-09-22T15:55:35Z</time>
      </trkpt>
      <trkpt lat="45.13059" lon="4.09583">
        <ele>-6.1E-5</ele>
        <time>2012-09-22T15:55:36Z</time>
      </trkpt>
      <trkpt lat="45.13057" lon="4.09576">
        <ele>834.3</ele>
        <time>2012-09-22T15:55:37Z</time>
      </trkpt>
      <trkpt lat="45.13055" lon="4.09569">
        <ele>834.2</ele>
        <time>2012-09-22T15:55:38Z</time>
      </trkpt>
      <trkpt lat="45.13053" lon="4.09562">
        <ele>834.2</ele>
        <time>2012-09-22T15:55:39Z</time>
      </trkpt>
      <trkpt lat="45.13051" lon="4.09556">
        <ele>834.3</ele>
        <time>2012-09-22T15:55:40Z</time>
      </trkpt>
      <trkpt lat="45.13049" lon="4.09549">
        <ele>834.2</ele>
        <time>2012-09-22T15:55:41Z</time>
      </trkpt>
      <trkpt lat="45.13047" lon="4.09542">
        <ele>834</ele>
        <time>2012-09-22T15:55:42Z</time>
      </trkpt>
      <trkpt lat="45.13044" lon="4.09535">
        <ele>833.6</ele>
        <time>2012-09-22T15:55:43Z</time>
      </trkpt>
      <trkpt lat="45.13041" lon="4.09528">
        <ele>833.1</ele>
        <time>2012-09-22T15:55:44Z</time>
      </trkpt>
      <trkpt lat="45.13039" lon="4.09521">
        <ele>833.4</ele>
        <time>2012-09-22T15:55:45Z</time>
      </trkpt>
      <trkpt lat="45.13037" lon="4.09514">
        <ele>833.6</ele>
        <time>2012-09-22T15:55:46Z</time>
      </trkpt>
      <trkpt lat="45.13036" lon="4.09506">
        <ele>833.9</ele>
        <time>2012-09-22T15:55:47Z</time>
      </trkpt>
      <trkpt lat="45.13034" lon="4.09499">
        <ele>834.2</ele>
        <time>2012-09-22T15:55:48Z</time>
      </trkpt>
      <trkpt lat="45.13032" lon="4.09491">
        <ele>834.6</ele>
        <time>2012-09-22T15:55:49Z</time>
      </trkpt>
      <trkpt lat="45.1303" lon="4.09484">
        <ele>834.9</ele>
        <time>2012-09-22T15:55:50Z</time>
      </trkpt>
      <trkpt lat="45.13028" lon="4.09476">
        <ele>-6.1E-5</ele>
        <time>2012-09-22T15:55:51Z</time>
      </trkpt>
      <trkpt lat="45.13025" lon="4.09469">
        <ele>835.6</ele>
        <time>2012-09-22T15:55:52Z</time>
      </trkpt>
      <trkpt lat="45.13023" lon="4.09462">
        <ele>836.4</ele>
        <time>2012-09-22T15:55:53Z</time>
      </trkpt>
      <trkpt lat="45.13021" lon="4.09454">
        <ele>-6.1E-5</ele>
        <time>2012-09-22T15:55:54Z</time>
      </trkpt>
      <trkpt lat="45.13018" lon="4.09447">
        <ele>837.6</ele>
        <time>2012-09-22T15:55:55Z</time>
      </trkpt>
      <trkpt lat="45.13016" lon="4.0944">
        <ele>837.8</ele>
        <time>2012-09-22T15:55:56Z</time>
      </trkpt>
      <trkpt lat="45.13014" lon="4.09433">
        <ele>837.8</ele>
        <time>2012-09-22T15:55:57Z</time>
      </trkpt>
      <trkpt lat="45.13012" lon="4.09427">
        <ele>837.7</ele>
        <time>2012-09-22T15:55:58Z</time>
      </trkpt>
      <trkpt lat="45.1301" lon="4.09421">
        <ele>837.5</ele>
        <time>2012-09-22T15:55:59Z</time>
      </trkpt>
      <trkpt lat="45.13008" lon="4.09415">
        <ele>837.1</ele>
        <time>2012-09-22T15:56:00Z</time>
      </trkpt>
      <trkpt lat="45.13004" lon="4.09405">
        <ele>836</ele>
        <time>2012-09-22T15:56:02Z</time>
      </trkpt>
      <trkpt lat="45.13003" lon="4.09398">
        <ele>835.2</ele>
        <time>2012-09-22T15:56:03Z</time>
      </trkpt>
      <trkpt lat="45.13002" lon="4.09391">
        <ele>-6.1E-5</ele>
        <time>2012-09-22T15:56:04Z</time>
      </trkpt>
      <trkpt lat="45.13001" lon="4.09383">
        <ele>833.9</ele>
        <time>2012-09-22T15:56:05Z</time>
      </trkpt>
      <trkpt lat="45.13" lon="4.09375">
        <ele>833.5</ele>
        <time>2012-09-22T15:56:06Z</time>
      </trkpt>
      <trkpt lat="45.13" lon="4.09366">
        <ele>833.2</ele>
        <time>2012-09-22T15:56:07Z</time>
      </trkpt>
      <trkpt lat="45.13001" lon="4.09357">
        <ele>-6.1E-5</ele>
        <time>2012-09-22T15:56:08Z</time>
      </trkpt>
      <trkpt lat="45.13001" lon="4.09349">
        <ele>-6.1E-5</ele>
        <time>2012-09-22T15:56:09Z</time>
      </trkpt>
      <trkpt lat="45.13002" lon="4.0934">
        <ele>832.4</ele>
        <time>2012-09-22T15:56:10Z</time>
      </trkpt>
      <trkpt lat="45.13003" lon="4.09331">
        <ele>832.2</ele>
        <time>2012-09-22T15:56:11Z</time>
      </trkpt>
      <trkpt lat="45.13004" lon="4.09322">
        <ele>832.2</ele>
        <time>2012-09-22T15:56:12Z</time>
      </trkpt>
      <trkpt lat="45.13005" lon="4.09313">
        <ele>832.1</ele>
        <time>2012-09-22T15:56:13Z</time>
      </trkpt>
      <trkpt lat="45.13007" lon="4.09304">
        <ele>832</ele>
        <time>2012-09-22T15:56:14Z</time>
      </trkpt>
      <trkpt lat="45.13009" lon="4.09296">
        <ele>832.1</ele>
        <time>2012-09-22T15:56:15Z</time>
      </trkpt>
      <trkpt lat="45.13011" lon="4.09287">
        <ele>832.2</ele>
        <time>2012-09-22T15:56:16Z</time>
      </trkpt>
      <trkpt lat="45.13013" lon="4.09279">
        <ele>832.1</ele>
        <time>2012-09-22T15:56:17Z</time>
      </trkpt>
      <trkpt lat="45.13015" lon="4.0927">
        <ele>831.7</ele>
        <time>2012-09-22T15:56:18Z</time>
      </trkpt>
      <trkpt lat="45.13018" lon="4.09262">
        <ele>831.3</ele>
        <time>2012-09-22T15:56:19Z</time>
      </trkpt>
      <trkpt lat="45.13021" lon="4.09254">
        <ele>830.8</ele>
        <time>2012-09-22T15:56:20Z</time>
      </trkpt>
      <trkpt lat="45.13024" lon="4.09245">
        <ele>-6.1E-5</ele>
        <time>2012-09-22T15:56:21Z</time>
      </trkpt>
      <trkpt lat="45.13027" lon="4.09236">
        <ele>829.5</ele>
        <time>2012-09-22T15:56:22Z</time>
      </trkpt>
      <trkpt lat="45.13031" lon="4.09227">
        <ele>-6.1E-5</ele>
        <time>2012-09-22T15:56:23Z</time>
      </trkpt>
      <trkpt lat="45.13034" lon="4.09218">
        <ele>828.9</ele>
        <time>2012-09-22T15:56:24Z</time>
      </trkpt>
      <trkpt lat="45.13037" lon="4.09209">
        <ele>829</ele>
        <time>2012-09-22T15:56:25Z</time>
      </trkpt>
      <trkpt lat="45.13041" lon="4.092">
        <ele>829</ele>
        <time>2012-09-22T15:56:26Z</time>
      </trkpt>
      <trkpt lat="45.13044" lon="4.0919">
        <ele>-6.1E-5</ele>
        <time>2012-09-22T15:56:27Z</time>
      </trkpt>
      <trkpt lat="45.13047" lon="4.09181">
        <ele>828.5</ele>
        <time>2012-09-22T15:56:28Z</time>
      </trkpt>
      <trkpt lat="45.13051" lon="4.09172">
        <ele>828.2</ele>
        <time>2012-09-22T15:56:29Z</time>
      </trkpt>
      <trkpt lat="45.13054" lon="4.09162">
        <ele>827.9</ele>
        <time>2012-09-22T15:56:30Z</time>
      </trkpt>
      <trkpt lat="45.13057" lon="4.09153">
        <ele>827.4</ele>
        <time>2012-09-22T15:56:31Z</time>
      </trkpt>
      <trkpt lat="45.13061" lon="4.09144">
        <ele>826.7</ele>
        <time>2012-09-22T15:56:32Z</time>
      </trkpt>
      <trkpt lat="45.13064" lon="4.09135">
        <ele>826.1</ele>
        <time>2012-09-22T15:56:33Z</time>
      </trkpt>
      <trkpt lat="45.13067" lon="4.09126">
        <ele>-6.1E-5</ele>
        <time>2012-09-22T15:56:34Z</time>
      </trkpt>
      <trkpt lat="45.1307" lon="4.09117">
        <ele>825</ele>
        <time>2012-09-22T15:56:35Z</time>
      </trkpt>
      <trkpt lat="45.13073" lon="4.09108">
        <ele>824.5</ele>
        <time>2012-09-22T15:56:36Z</time>
      </trkpt>
      <trkpt lat="45.13076" lon="4.09098">
        <ele>-6.1E-5</ele>
        <time>2012-09-22T15:56:37Z</time>
      </trkpt>
      <trkpt lat="45.13079" lon="4.09089">
        <ele>824.3</ele>
        <time>2012-09-22T15:56:38Z</time>
      </trkpt>
      <trkpt lat="45.13081" lon="4.09079">
        <ele>824.2</ele>
        <time>2012-09-22T15:56:39Z</time>
      </trkpt>
      <trkpt lat="45.13084" lon="4.0907">
        <ele>824</ele>
        <time>2012-09-22T15:56:40Z</time>
      </trkpt>
      <trkpt lat="45.13086" lon="4.0906">
        <ele>823.7</ele>
        <time>2012-09-22T15:56:41Z</time>
      </trkpt>
      <trkpt lat="45.13087" lon="4.0905">
        <ele>823.6</ele>
        <time>2012-09-22T15:56:42Z</time>
      </trkpt>
      <trkpt lat="45.13088" lon="4.09041">
        <ele>823.7</ele>
        <time>2012-09-22T15:56:43Z</time>
      </trkpt>
      <trkpt lat="45.1309" lon="4.09031">
        <ele>823.8</ele>
        <time>2012-09-22T15:56:44Z</time>
      </trkpt>
      <trkpt lat="45.1309" lon="4.09022">
        <ele>823.6</ele>
        <time>2012-09-22T15:56:45Z</time>
      </trkpt>
      <trkpt lat="45.1309" lon="4.09012">
        <ele>823.3</ele>
        <time>2012-09-22T15:56:46Z</time>
      </trkpt>
      <trkpt lat="45.13089" lon="4.09002">
        <ele>823.2</ele>
        <time>2012-09-22T15:56:47Z</time>
      </trkpt>
      <trkpt lat="45.13088" lon="4.08992">
        <ele>823.1</ele>
        <time>2012-09-22T15:56:48Z</time>
      </trkpt>
      <trkpt lat="45.13086" lon="4.08982">
        <ele>823</ele>
        <time>2012-09-22T15:56:49Z</time>
      </trkpt>
      <trkpt lat="45.13084" lon="4.08973">
        <ele>822.9</ele>
        <time>2012-09-22T15:56:50Z</time>
      </trkpt>
      <trkpt lat="45.13082" lon="4.08963">
        <ele>822.8</ele>
        <time>2012-09-22T15:56:51Z</time>
      </trkpt>
      <trkpt lat="45.1308" lon="4.08953">
        <ele>822.7</ele>
        <time>2012-09-22T15:56:52Z</time>
      </trkpt>
      <trkpt lat="45.13077" lon="4.08944">
        <ele>822.6</ele>
        <time>2012-09-22T15:56:53Z</time>
      </trkpt>
      <trkpt lat="45.13075" lon="4.08934">
        <ele>822.6</ele>
        <time>2012-09-22T15:56:54Z</time>
      </trkpt>
      <trkpt lat="45.13072" lon="4.08925">
        <ele>822.6</ele>
        <time>2012-09-22T15:56:55Z</time>
      </trkpt>
      <trkpt lat="45.13069" lon="4.08916">
        <ele>822.5</ele>
        <time>2012-09-22T15:56:56Z</time>
      </trkpt>
      <trkpt lat="45.13065" lon="4.08907">
        <ele>-6.1E-5</ele>
        <time>2012-09-22T15:56:57Z</time>
      </trkpt>
      <trkpt lat="45.13061" lon="4.08898">
        <ele>822</ele>
        <time>2012-09-22T15:56:58Z</time>
      </trkpt>
      <trkpt lat="45.13057" lon="4.0889">
        <ele>821.9</ele>
        <time>2012-09-22T15:56:59Z</time>
      </trkpt>
      <trkpt lat="45.13054" lon="4.08882">
        <ele>821.9</ele>
        <time>2012-09-22T15:57:00Z</time>
      </trkpt>
      <trkpt lat="45.1305" lon="4.08874">
        <ele>822.1</ele>
        <time>2012-09-22T15:57:01Z</time>
      </trkpt>
      <trkpt lat="45.13045" lon="4.08867">
        <ele>822.3</ele>
        <time>2012-09-22T15:57:02Z</time>
      </trkpt>
      <trkpt lat="45.13041" lon="4.0886">
        <ele>822.4</ele>
        <time>2012-09-22T15:57:03Z</time>
      </trkpt>
      <trkpt lat="45.13037" lon="4.08853">
        <ele>-6.1E-5</ele>
        <time>2012-09-22T15:57:04Z</time>
      </trkpt>
      <trkpt lat="45.13032" lon="4.08847">
        <ele>821.7</ele>
        <time>2012-09-22T15:57:05Z</time>
      </trkpt>
      <trkpt lat="45.13027" lon="4.08841">
        <ele>821.7</ele>
        <time>2012-09-22T15:57:06Z</time>
      </trkpt>
      <trkpt lat="45.13022" lon="4.08836">
        <ele>822.7</ele>
        <time>2012-09-22T15:57:07Z</time>
      </trkpt>
      <trkpt lat="45.13017" lon="4.0883">
        <ele>823.2</ele>
        <time>2012-09-22T15:57:08Z</time>
      </trkpt>
      <trkpt lat="45.13012" lon="4.08824">
        <ele>823.1</ele>
        <time>2012-09-22T15:57:09Z</time>
      </trkpt>
      <trkpt lat="45.13008" lon="4.08818">
        <ele>-6.1E-5</ele>
        <time>2012-09-22T15:57:10Z</time>
      </trkpt>
      <trkpt lat="45.13004" lon="4.08812">
        <ele>821.3</ele>
        <time>2012-09-22T15:57:11Z</time>
      </trkpt>
      <trkpt lat="45.13001" lon="4.08804">
        <ele>818.9</ele>
        <time>2012-09-22T15:57:12Z</time>
      </trkpt>
      <trkpt lat="45.12998" lon="4.08796">
        <ele>815.4</ele>
        <time>2012-09-22T15:57:13Z</time>
      </trkpt>
      <trkpt lat="45.12995" lon="4.08787">
        <ele>811.7</ele>
        <time>2012-09-22T15:57:14Z</time>
      </trkpt>
      <trkpt lat="45.12993" lon="4.08779">
        <ele>807.8</ele>
        <time>2012-09-22T15:57:15Z</time>
      </trkpt>
      <trkpt lat="45.12991" lon="4.08771">
        <ele>-6.1E-5</ele>
        <time>2012-09-22T15:57:16Z</time>
      </trkpt>
      <trkpt lat="45.1299" lon="4.08763">
        <ele>803.4</ele>
        <time>2012-09-22T15:57:17Z</time>
      </trkpt>
      <trkpt lat="45.12989" lon="4.08754">
        <ele>801.1</ele>
        <time>2012-09-22T15:57:18Z</time>
      </trkpt>
      <trkpt lat="45.12988" lon="4.08746">
        <ele>800</ele>
        <time>2012-09-22T15:57:19Z</time>
      </trkpt>
      <trkpt lat="45.12988" lon="4.08738">
        <ele>800.4</ele>
        <time>2012-09-22T15:57:20Z</time>
      </trkpt>
      <trkpt lat="45.12988" lon="4.0873">
        <ele>800.7</ele>
        <time>2012-09-22T15:57:21Z</time>
      </trkpt>
      <trkpt lat="45.12988" lon="4.08722">
        <ele>801.1</ele>
        <time>2012-09-22T15:57:22Z</time>
      </trkpt>
      <trkpt lat="45.12989" lon="4.08714">
        <ele>802.3</ele>
        <time>2012-09-22T15:57:23Z</time>
      </trkpt>
      <trkpt lat="45.1299" lon="4.08706">
        <ele>803.5</ele>
        <time>2012-09-22T15:57:24Z</time>
      </trkpt>
      <trkpt lat="45.12992" lon="4.08698">
        <ele>804.8</ele>
        <time>2012-09-22T15:57:25Z</time>
      </trkpt>
      <trkpt lat="45.12994" lon="4.08691">
        <ele>807</ele>
        <time>2012-09-22T15:57:26Z</time>
      </trkpt>
      <trkpt lat="45.12996" lon="4.08684">
        <ele>810.1</ele>
        <time>2012-09-22T15:57:27Z</time>
      </trkpt>
      <trkpt lat="45.12998" lon="4.08677">
        <ele>813.3</ele>
        <time>2012-09-22T15:57:28Z</time>
      </trkpt>
      <trkpt lat="45.13001" lon="4.0867">
        <ele>816.3</ele>
        <time>2012-09-22T15:57:29Z</time>
      </trkpt>
      <trkpt lat="45.13003" lon="4.08664">
        <ele>817.2</ele>
        <time>2012-09-22T15:57:30Z</time>
      </trkpt>
      <trkpt lat="45.13006" lon="4.08659">
        <ele>817</ele>
        <time>2012-09-22T15:57:31Z</time>
      </trkpt>
      <trkpt lat="45.13012" lon="4.08649">
        <ele>-6.1E-5</ele>
        <time>2012-09-22T15:57:33Z</time>
      </trkpt>
      <trkpt lat="45.13017" lon="4.08641">
        <ele>817.9</ele>
        <time>2012-09-22T15:57:35Z</time>
      </trkpt>
      <trkpt lat="45.13023" lon="4.08635">
        <ele>818.7</ele>
        <time>2012-09-22T15:57:37Z</time>
      </trkpt>
      <trkpt lat="45.13029" lon="4.08631">
        <ele>819.1</ele>
        <time>2012-09-22T15:57:39Z</time>
      </trkpt>
      <trkpt lat="45.13035" lon="4.08626">
        <ele>819.5</ele>
        <time>2012-09-22T15:57:41Z</time>
      </trkpt>
      <trkpt lat="45.1304" lon="4.08622">
        <ele>819.8</ele>
        <time>2012-09-22T15:57:43Z</time>
      </trkpt>
      <trkpt lat="45.13046" lon="4.08618">
        <ele>820.2</ele>
        <time>2012-09-22T15:57:45Z</time>
      </trkpt>
      <trkpt lat="45.13051" lon="4.08615">
        <ele>820.5</ele>
        <time>2012-09-22T15:57:47Z</time>
      </trkpt>
      <trkpt lat="45.13057" lon="4.08611">
        <ele>-6.1E-5</ele>
        <time>2012-09-22T15:57:49Z</time>
      </trkpt>
      <trkpt lat="45.13064" lon="4.08609">
        <ele>-6.1E-5</ele>
        <time>2012-09-22T15:57:51Z</time>
      </trkpt>
      <trkpt lat="45.1307" lon="4.08607">
        <ele>822.2</ele>
        <time>2012-09-22T15:57:53Z</time>
      </trkpt>
      <trkpt lat="45.13076" lon="4.08604">
        <ele>-6.1E-5</ele>
        <time>2012-09-22T15:57:55Z</time>
      </trkpt>
      <trkpt lat="45.13082" lon="4.08602">
        <ele>-6.1E-5</ele>
        <time>2012-09-22T15:57:57Z</time>
      </trkpt>
      <trkpt lat="45.13088" lon="4.08598">
        <ele>-6.1E-5</ele>
        <time>2012-09-22T15:57:59Z</time>
      </trkpt>
      <trkpt lat="45.13094" lon="4.08594">
        <ele>823.8</ele>
        <time>2012-09-22T15:58:01Z</time>
      </trkpt>
      <trkpt lat="45.131" lon="4.0859">
        <ele>824</ele>
        <time>2012-09-22T15:58:03Z</time>
      </trkpt>
      <trkpt lat="45.13106" lon="4.08586">
        <ele>824.2</ele>
        <time>2012-09-22T15:58:05Z</time>
      </trkpt>
      <trkpt lat="45.13112" lon="4.08582">
        <ele>824.7</ele>
        <time>2012-09-22T15:58:07Z</time>
      </trkpt>
      <trkpt lat="45.13118" lon="4.08577">
        <ele>826.1</ele>
        <time>2012-09-22T15:58:09Z</time>
      </trkpt>
      <trkpt lat="45.13125" lon="4.08572">
        <ele>827</ele>
        <time>2012-09-22T15:58:11Z</time>
      </trkpt>
      <trkpt lat="45.13132" lon="4.08568">
        <ele>827</ele>
        <time>2012-09-22T15:58:13Z</time>
      </trkpt>
      <trkpt lat="45.13139" lon="4.08562">
        <ele>826.6</ele>
        <time>2012-09-22T15:58:15Z</time>
      </trkpt>
      <trkpt lat="45.13145" lon="4.08557">
        <ele>826.8</ele>
        <time>2012-09-22T15:58:17Z</time>
      </trkpt>
      <trkpt lat="45.13152" lon="4.08552">
        <ele>827.3</ele>
        <time>2012-09-22T15:58:19Z</time>
      </trkpt>
      <trkpt lat="45.13158" lon="4.08546">
        <ele>827.6</ele>
        <time>2012-09-22T15:58:21Z</time>
      </trkpt>
      <trkpt lat="45.13165" lon="4.0854">
        <ele>827.3</ele>
        <time>2012-09-22T15:58:23Z</time>
      </trkpt>
      <trkpt lat="45.13171" lon="4.08535">
        <ele>827.1</ele>
        <time>2012-09-22T15:58:25Z</time>
      </trkpt>
      <trkpt lat="45.13177" lon="4.08529">
        <ele>827</ele>
        <time>2012-09-22T15:58:27Z</time>
      </trkpt>
      <trkpt lat="45.13183" lon="4.08522">
        <ele>827.4</ele>
        <time>2012-09-22T15:58:29Z</time>
      </trkpt>
      <trkpt lat="45.13188" lon="4.08515">
        <ele>827.4</ele>
        <time>2012-09-22T15:58:31Z</time>
      </trkpt>
      <trkpt lat="45.13194" lon="4.08509">
        <ele>826.9</ele>
        <time>2012-09-22T15:58:33Z</time>
      </trkpt>
      <trkpt lat="45.13199" lon="4.08503">
        <ele>826.8</ele>
        <time>2012-09-22T15:58:35Z</time>
      </trkpt>
      <trkpt lat="45.13204" lon="4.08497">
        <ele>826.6</ele>
        <time>2012-09-22T15:58:37Z</time>
      </trkpt>
      <trkpt lat="45.13209" lon="4.0849">
        <ele>826.3</ele>
        <time>2012-09-22T15:58:39Z</time>
      </trkpt>
      <trkpt lat="45.13213" lon="4.08482">
        <ele>-6.1E-5</ele>
        <time>2012-09-22T15:58:41Z</time>
      </trkpt>
      <trkpt lat="45.13217" lon="4.08476">
        <ele>824.9</ele>
        <time>2012-09-22T15:58:43Z</time>
      </trkpt>
      <trkpt lat="45.1322" lon="4.08469">
        <ele>824</ele>
        <time>2012-09-22T15:58:45Z</time>
      </trkpt>
      <trkpt lat="45.13223" lon="4.08462">
        <ele>823.7</ele>
        <time>2012-09-22T15:58:47Z</time>
      </trkpt>
      <trkpt lat="45.13225" lon="4.08455">
        <ele>-6.1E-5</ele>
        <time>2012-09-22T15:58:49Z</time>
      </trkpt>
      <trkpt lat="45.13228" lon="4.08448">
        <ele>824.3</ele>
        <time>2012-09-22T15:58:51Z</time>
      </trkpt>
      <trkpt lat="45.13231" lon="4.0844">
        <ele>825.4</ele>
        <time>2012-09-22T15:58:53Z</time>
      </trkpt>
      <trkpt lat="45.13234" lon="4.08432">
        <ele>826.8</ele>
        <time>2012-09-22T15:58:55Z</time>
      </trkpt>
      <trkpt lat="45.13236" lon="4.08424">
        <ele>828</ele>
        <time>2012-09-22T15:58:57Z</time>
      </trkpt>
      <trkpt lat="45.13239" lon="4.08416">
        <ele>829.1</ele>
        <time>2012-09-22T15:58:59Z</time>
      </trkpt>
      <trkpt lat="45.13242" lon="4.08408">
        <ele>829.9</ele>
        <time>2012-09-22T15:59:01Z</time>
      </trkpt>
      <trkpt lat="45.13244" lon="4.084">
        <ele>830.5</ele>
        <time>2012-09-22T15:59:03Z</time>
      </trkpt>
      <trkpt lat="45.13247" lon="4.08392">
        <ele>-6.1E-5</ele>
        <time>2012-09-22T15:59:05Z</time>
      </trkpt>
      <trkpt lat="45.13249" lon="4.08384">
        <ele>830.7</ele>
        <time>2012-09-22T15:59:07Z</time>
      </trkpt>
      <trkpt lat="45.13251" lon="4.08376">
        <ele>830.5</ele>
        <time>2012-09-22T15:59:09Z</time>
      </trkpt>
      <trkpt lat="45.13253" lon="4.08368">
        <ele>830.6</ele>
        <time>2012-09-22T15:59:11Z</time>
      </trkpt>
      <trkpt lat="45.13255" lon="4.0836">
        <ele>830.8</ele>
        <time>2012-09-22T15:59:13Z</time>
      </trkpt>
      <trkpt lat="45.13256" lon="4.08352">
        <ele>831.4</ele>
        <time>2012-09-22T15:59:15Z</time>
      </trkpt>
      <trkpt lat="45.13257" lon="4.08345">
        <ele>832</ele>
        <time>2012-09-22T15:59:17Z</time>
      </trkpt>
      <trkpt lat="45.13259" lon="4.08337">
        <ele>832.4</ele>
        <time>2012-09-22T15:59:19Z</time>
      </trkpt>
      <trkpt lat="45.1326" lon="4.08329">
        <ele>832.9</ele>
        <time>2012-09-22T15:59:21Z</time>
      </trkpt>
      <trkpt lat="45.13262" lon="4.0832">
        <ele>833.4</ele>
        <time>2012-09-22T15:59:23Z</time>
      </trkpt>
      <trkpt lat="45.13264" lon="4.08311">
        <ele>-6.1E-5</ele>
        <time>2012-09-22T15:59:25Z</time>
      </trkpt>
      <trkpt lat="45.13267" lon="4.08301">
        <ele>833.5</ele>
        <time>2012-09-22T15:59:27Z</time>
      </trkpt>
      <trkpt lat="45.13269" lon="4.08292">
        <ele>-6.1E-5</ele>
        <time>2012-09-22T15:59:29Z</time>
      </trkpt>
      <trkpt lat="45.13271" lon="4.08283">
        <ele>831.5</ele>
        <time>2012-09-22T15:59:31Z</time>
      </trkpt>
      <trkpt lat="45.13273" lon="4.08274">
        <ele>-6.1E-5</ele>
        <time>2012-09-22T15:59:33Z</time>
      </trkpt>
      <trkpt lat="45.13275" lon="4.08265">
        <ele>-6.1E-5</ele>
        <time>2012-09-22T15:59:35Z</time>
      </trkpt>
      <trkpt lat="45.13276" lon="4.08256">
        <ele>832.7</ele>
        <time>2012-09-22T15:59:37Z</time>
      </trkpt>
      <trkpt lat="45.13277" lon="4.08246">
        <ele>833.6</ele>
        <time>2012-09-22T15:59:39Z</time>
      </trkpt>
      <trkpt lat="45.13277" lon="4.08237">
        <ele>833.7</ele>
        <time>2012-09-22T15:59:41Z</time>
      </trkpt>
      <trkpt lat="45.13277" lon="4.08229">
        <ele>-6.1E-5</ele>
        <time>2012-09-22T15:59:43Z</time>
      </trkpt>
      <trkpt lat="45.13276" lon="4.0822">
        <ele>-6.1E-5</ele>
        <time>2012-09-22T15:59:45Z</time>
      </trkpt>
      <trkpt lat="45.13276" lon="4.08214">
        <ele>-6.1E-5</ele>
        <time>2012-09-22T15:59:47Z</time>
      </trkpt>
      <trkpt lat="45.13272" lon="4.08201">
        <ele>834.5</ele>
        <time>2012-09-22T15:59:52Z</time>
      </trkpt>
      <trkpt lat="45.13269" lon="4.08194">
        <ele>834.8</ele>
        <time>2012-09-22T15:59:54Z</time>
      </trkpt>
      <trkpt lat="45.13263" lon="4.08177">
        <ele>835.7</ele>
        <time>2012-09-22T15:59:58Z</time>
      </trkpt>
      <trkpt lat="45.1326" lon="4.08169">
        <ele>836.4</ele>
        <time>2012-09-22T16:00:00Z</time>
      </trkpt>
      <trkpt lat="45.13255" lon="4.08161">
        <ele>837.3</ele>
        <time>2012-09-22T16:00:02Z</time>
      </trkpt>
      <trkpt lat="45.13251" lon="4.08153">
        <ele>838.1</ele>
        <time>2012-09-22T16:00:04Z</time>
      </trkpt>
      <trkpt lat="45.13246" lon="4.08145">
        <ele>837.8</ele>
        <time>2012-09-22T16:00:06Z</time>
      </trkpt>
      <trkpt lat="45.13241" lon="4.08138">
        <ele>837.5</ele>
        <time>2012-09-22T16:00:08Z</time>
      </trkpt>
      <trkpt lat="45.13236" lon="4.08132">
        <ele>837.7</ele>
        <time>2012-09-22T16:00:10Z</time>
      </trkpt>
      <trkpt lat="45.1323" lon="4.08127">
        <ele>837.9</ele>
        <time>2012-09-22T16:00:12Z</time>
      </trkpt>
      <trkpt lat="45.13224" lon="4.08122">
        <ele>838.2</ele>
        <time>2012-09-22T16:00:14Z</time>
      </trkpt>
      <trkpt lat="45.13218" lon="4.08116">
        <ele>838.1</ele>
        <time>2012-09-22T16:00:16Z</time>
      </trkpt>
      <trkpt lat="45.13212" lon="4.0811">
        <ele>837.9</ele>
        <time>2012-09-22T16:00:18Z</time>
      </trkpt>
      <trkpt lat="45.13206" lon="4.08105">
        <ele>837.6</ele>
        <time>2012-09-22T16:00:20Z</time>
      </trkpt>
      <trkpt lat="45.132" lon="4.08101">
        <ele>837.5</ele>
        <time>2012-09-22T16:00:22Z</time>
      </trkpt>
      <trkpt lat="45.13194" lon="4.08097">
        <ele>837.5</ele>
        <time>2012-09-22T16:00:24Z</time>
      </trkpt>
      <trkpt lat="45.13187" lon="4.08093">
        <ele>-6.1E-5</ele>
        <time>2012-09-22T16:00:26Z</time>
      </trkpt>
      <trkpt lat="45.13181" lon="4.08089">
        <ele>837.8</ele>
        <time>2012-09-22T16:00:28Z</time>
      </trkpt>
      <trkpt lat="45.13175" lon="4.08085">
        <ele>838.1</ele>
        <time>2012-09-22T16:00:30Z</time>
      </trkpt>
      <trkpt lat="45.13169" lon="4.08081">
        <ele>838.5</ele>
        <time>2012-09-22T16:00:32Z</time>
      </trkpt>
      <trkpt lat="45.13163" lon="4.08077">
        <ele>838.8</ele>
        <time>2012-09-22T16:00:34Z</time>
      </trkpt>
      <trkpt lat="45.13158" lon="4.08072">
        <ele>839</ele>
        <time>2012-09-22T16:00:36Z</time>
      </trkpt>
      <trkpt lat="45.13152" lon="4.08067">
        <ele>-6.1E-5</ele>
        <time>2012-09-22T16:00:38Z</time>
      </trkpt>
      <trkpt lat="45.13146" lon="4.08061">
        <ele>-6.1E-5</ele>
        <time>2012-09-22T16:00:40Z</time>
      </trkpt>
      <trkpt lat="45.1314" lon="4.08055">
        <ele>839.8</ele>
        <time>2012-09-22T16:00:42Z</time>
      </trkpt>
      <trkpt lat="45.13135" lon="4.08049">
        <ele>839.6</ele>
        <time>2012-09-22T16:00:44Z</time>
      </trkpt>
      <trkpt lat="45.1313" lon="4.08043">
        <ele>839.3</ele>
        <time>2012-09-22T16:00:46Z</time>
      </trkpt>
      <trkpt lat="45.13125" lon="4.08037">
        <ele>839.3</ele>
        <time>2012-09-22T16:00:48Z</time>
      </trkpt>
      <trkpt lat="45.1312" lon="4.08031">
        <ele>839.6</ele>
        <time>2012-09-22T16:00:50Z</time>
      </trkpt>
      <trkpt lat="45.13114" lon="4.08026">
        <ele>840</ele>
        <time>2012-09-22T16:00:52Z</time>
      </trkpt>
      <trkpt lat="45.13108" lon="4.0802">
        <ele>-6.1E-5</ele>
        <time>2012-09-22T16:00:54Z</time>
      </trkpt>
      <trkpt lat="45.13103" lon="4.08013">
        <ele>840.4</ele>
        <time>2012-09-22T16:00:56Z</time>
      </trkpt>
      <trkpt lat="45.13098" lon="4.08007">
        <ele>-6.1E-5</ele>
        <time>2012-09-22T16:00:58Z</time>
      </trkpt>
      <trkpt lat="45.13094" lon="4.08002">
        <ele>840.9</ele>
        <time>2012-09-22T16:01:00Z</time>
      </trkpt>
      <trkpt lat="45.1309" lon="4.07997">
        <ele>841.1</ele>
        <time>2012-09-22T16:01:02Z</time>
      </trkpt>
      <trkpt lat="45.13085" lon="4.07992">
        <ele>841.3</ele>
        <time>2012-09-22T16:01:04Z</time>
      </trkpt>
      <trkpt lat="45.1308" lon="4.07987">
        <ele>841.9</ele>
        <time>2012-09-22T16:01:06Z</time>
      </trkpt>
      <trkpt lat="45.13075" lon="4.07981">
        <ele>842.5</ele>
        <time>2012-09-22T16:01:08Z</time>
      </trkpt>
      <trkpt lat="45.13069" lon="4.07975">
        <ele>843</ele>
        <time>2012-09-22T16:01:10Z</time>
      </trkpt>
      <trkpt lat="45.13064" lon="4.07969">
        <ele>843.6</ele>
        <time>2012-09-22T16:01:12Z</time>
      </trkpt>
      <trkpt lat="45.13058" lon="4.07963">
        <ele>-6.1E-5</ele>
        <time>2012-09-22T16:01:14Z</time>
      </trkpt>
      <trkpt lat="45.13052" lon="4.07957">
        <ele>844.7</ele>
        <time>2012-09-22T16:01:16Z</time>
      </trkpt>
      <trkpt lat="45.13047" lon="4.07951">
        <ele>844.7</ele>
        <time>2012-09-22T16:01:18Z</time>
      </trkpt>
      <trkpt lat="45.13041" lon="4.07945">
        <ele>844.5</ele>
        <time>2012-09-22T16:01:20Z</time>
      </trkpt>
      <trkpt lat="45.13035" lon="4.0794">
        <ele>-6.1E-5</ele>
        <time>2012-09-22T16:01:22Z</time>
      </trkpt>
      <trkpt lat="45.1303" lon="4.07936">
        <ele>-6.1E-5</ele>
        <time>2012-09-22T16:01:24Z</time>
      </trkpt>
      <trkpt lat="45.13024" lon="4.07933">
        <ele>-6.1E-5</ele>
        <time>2012-09-22T16:01:26Z</time>
      </trkpt>
      <trkpt lat="45.13018" lon="4.0793">
        <ele>844.2</ele>
        <time>2012-09-22T16:01:28Z</time>
      </trkpt>
      <trkpt lat="45.13011" lon="4.07927">
        <ele>844.4</ele>
        <time>2012-09-22T16:01:30Z</time>
      </trkpt>
      <trkpt lat="45.13005" lon="4.07924">
        <ele>844.5</ele>
        <time>2012-09-22T16:01:32Z</time>
      </trkpt>
      <trkpt lat="45.12999" lon="4.07921">
        <ele>844.5</ele>
        <time>2012-09-22T16:01:34Z</time>
      </trkpt>
      <trkpt lat="45.12994" lon="4.07919">
        <ele>844.6</ele>
        <time>2012-09-22T16:01:36Z</time>
      </trkpt>
      <trkpt lat="45.12988" lon="4.07917">
        <ele>844.5</ele>
        <time>2012-09-22T16:01:38Z</time>
      </trkpt>
      <trkpt lat="45.12981" lon="4.07915">
        <ele>844.5</ele>
        <time>2012-09-22T16:01:40Z</time>
      </trkpt>
      <trkpt lat="45.12975" lon="4.07912">
        <ele>-6.1E-5</ele>
        <time>2012-09-22T16:01:42Z</time>
      </trkpt>
      <trkpt lat="45.12969" lon="4.0791">
        <ele>844.9</ele>
        <time>2012-09-22T16:01:44Z</time>
      </trkpt>
      <trkpt lat="45.12962" lon="4.07907">
        <ele>845.4</ele>
        <time>2012-09-22T16:01:46Z</time>
      </trkpt>
      <trkpt lat="45.12956" lon="4.07903">
        <ele>845.8</ele>
        <time>2012-09-22T16:01:48Z</time>
      </trkpt>
      <trkpt lat="45.12949" lon="4.079">
        <ele>846.3</ele>
        <time>2012-09-22T16:01:50Z</time>
      </trkpt>
      <trkpt lat="45.12943" lon="4.07896">
        <ele>846.6</ele>
        <time>2012-09-22T16:01:52Z</time>
      </trkpt>
      <trkpt lat="45.12936" lon="4.07893">
        <ele>-6.1E-5</ele>
        <time>2012-09-22T16:01:54Z</time>
      </trkpt>
      <trkpt lat="45.12929" lon="4.0789">
        <ele>846.7</ele>
        <time>2012-09-22T16:01:56Z</time>
      </trkpt>
      <trkpt lat="45.12923" lon="4.07887">
        <ele>846.5</ele>
        <time>2012-09-22T16:01:58Z</time>
      </trkpt>
      <trkpt lat="45.12917" lon="4.07883">
        <ele>846.3</ele>
        <time>2012-09-22T16:02:00Z</time>
      </trkpt>
      <trkpt lat="45.1291" lon="4.07878">
        <ele>846.4</ele>
        <time>2012-09-22T16:02:02Z</time>
      </trkpt>
      <trkpt lat="45.12904" lon="4.07875">
        <ele>846.6</ele>
        <time>2012-09-22T16:02:04Z</time>
      </trkpt>
      <trkpt lat="45.12898" lon="4.07871">
        <ele>-6.1E-5</ele>
        <time>2012-09-22T16:02:06Z</time>
      </trkpt>
      <trkpt lat="45.12892" lon="4.07867">
        <ele>847.1</ele>
        <time>2012-09-22T16:02:08Z</time>
      </trkpt>
      <trkpt lat="45.12886" lon="4.07863">
        <ele>847.5</ele>
        <time>2012-09-22T16:02:10Z</time>
      </trkpt>
      <trkpt lat="45.12879" lon="4.07861">
        <ele>848</ele>
        <time>2012-09-22T16:02:12Z</time>
      </trkpt>
      <trkpt lat="45.12873" lon="4.07857">
        <ele>848.4</ele>
        <time>2012-09-22T16:02:14Z</time>
      </trkpt>
      <trkpt lat="45.12867" lon="4.07854">
        <ele>848.8</ele>
        <time>2012-09-22T16:02:16Z</time>
      </trkpt>
      <trkpt lat="45.12861" lon="4.0785">
        <ele>-6.1E-5</ele>
        <time>2012-09-22T16:02:18Z</time>
      </trkpt>
      <trkpt lat="45.12855" lon="4.07847">
        <ele>849.6</ele>
        <time>2012-09-22T16:02:20Z</time>
      </trkpt>
      <trkpt lat="45.1285" lon="4.07843">
        <ele>849.9</ele>
        <time>2012-09-22T16:02:22Z</time>
      </trkpt>
      <trkpt lat="45.12845" lon="4.07841">
        <ele>850.2</ele>
        <time>2012-09-22T16:02:24Z</time>
      </trkpt>
      <trkpt lat="45.12839" lon="4.07837">
        <ele>850.6</ele>
        <time>2012-09-22T16:02:27Z</time>
      </trkpt>
      <trkpt lat="45.12833" lon="4.07833">
        <ele>851</ele>
        <time>2012-09-22T16:02:30Z</time>
      </trkpt>
      <trkpt lat="45.12828" lon="4.0783">
        <ele>851.3</ele>
        <time>2012-09-22T16:02:33Z</time>
      </trkpt>
      <trkpt lat="45.12823" lon="4.07828">
        <ele>851.6</ele>
        <time>2012-09-22T16:02:36Z</time>
      </trkpt>
      <trkpt lat="45.12818" lon="4.07825">
        <ele>851.7</ele>
        <time>2012-09-22T16:02:41Z</time>
      </trkpt>
      <trkpt lat="45.12811" lon="4.07823">
        <ele>852</ele>
        <time>2012-09-22T16:02:44Z</time>
      </trkpt>
      <trkpt lat="45.12805" lon="4.07822">
        <ele>852.4</ele>
        <time>2012-09-22T16:02:46Z</time>
      </trkpt>
      <trkpt lat="45.12796" lon="4.07821">
        <ele>852.7</ele>
        <time>2012-09-22T16:02:48Z</time>
      </trkpt>
      <trkpt lat="45.12779" lon="4.07819">
        <ele>853.4</ele>
        <time>2012-09-22T16:02:52Z</time>
      </trkpt>
      <trkpt lat="45.12771" lon="4.07819">
        <ele>-6.1E-5</ele>
        <time>2012-09-22T16:02:54Z</time>
      </trkpt>
      <trkpt lat="45.12762" lon="4.07819">
        <ele>853.4</ele>
        <time>2012-09-22T16:02:56Z</time>
      </trkpt>
      <trkpt lat="45.12758" lon="4.07819">
        <ele>-6.1E-5</ele>
        <time>2012-09-22T16:02:57Z</time>
      </trkpt>
      <trkpt lat="45.12753" lon="4.07819">
        <ele>-6.1E-5</ele>
        <time>2012-09-22T16:02:58Z</time>
      </trkpt>
      <trkpt lat="45.12747" lon="4.07819">
        <ele>853.5</ele>
        <time>2012-09-22T16:02:59Z</time>
      </trkpt>
      <trkpt lat="45.12742" lon="4.07819">
        <ele>853.5</ele>
        <time>2012-09-22T16:03:00Z</time>
      </trkpt>
      <trkpt lat="45.12737" lon="4.07819">
        <ele>853.5</ele>
        <time>2012-09-22T16:03:01Z</time>
      </trkpt>
      <trkpt lat="45.12733" lon="4.07819">
        <ele>853.5</ele>
        <time>2012-09-22T16:03:02Z</time>
      </trkpt>
      <trkpt lat="45.12728" lon="4.07819">
        <ele>853.5</ele>
        <time>2012-09-22T16:03:03Z</time>
      </trkpt>
      <trkpt lat="45.12724" lon="4.0782">
        <ele>853.5</ele>
        <time>2012-09-22T16:03:04Z</time>
      </trkpt>
      <trkpt lat="45.12715" lon="4.0782">
        <ele>854</ele>
        <time>2012-09-22T16:03:06Z</time>
      </trkpt>
      <trkpt lat="45.12707" lon="4.07821">
        <ele>854.5</ele>
        <time>2012-09-22T16:03:08Z</time>
      </trkpt>
      <trkpt lat="45.12699" lon="4.07822">
        <ele>855.1</ele>
        <time>2012-09-22T16:03:10Z</time>
      </trkpt>
      <trkpt lat="45.12692" lon="4.07822">
        <ele>855.5</ele>
        <time>2012-09-22T16:03:12Z</time>
      </trkpt>
      <trkpt lat="45.12684" lon="4.07823">
        <ele>855.9</ele>
        <time>2012-09-22T16:03:14Z</time>
      </trkpt>
      <trkpt lat="45.12677" lon="4.07823">
        <ele>856.2</ele>
        <time>2012-09-22T16:03:16Z</time>
      </trkpt>
      <trkpt lat="45.1267" lon="4.07824">
        <ele>856.5</ele>
        <time>2012-09-22T16:03:18Z</time>
      </trkpt>
      <trkpt lat="45.12662" lon="4.07824">
        <ele>856.8</ele>
        <time>2012-09-22T16:03:20Z</time>
      </trkpt>
      <trkpt lat="45.12655" lon="4.07825">
        <ele>856.9</ele>
        <time>2012-09-22T16:03:22Z</time>
      </trkpt>
      <trkpt lat="45.12648" lon="4.07826">
        <ele>857.1</ele>
        <time>2012-09-22T16:03:24Z</time>
      </trkpt>
      <trkpt lat="45.12641" lon="4.07826">
        <ele>857.2</ele>
        <time>2012-09-22T16:03:26Z</time>
      </trkpt>
      <trkpt lat="45.12633" lon="4.07827">
        <ele>857.3</ele>
        <time>2012-09-22T16:03:28Z</time>
      </trkpt>
      <trkpt lat="45.12626" lon="4.07828">
        <ele>857.4</ele>
        <time>2012-09-22T16:03:30Z</time>
      </trkpt>
      <trkpt lat="45.12619" lon="4.07827">
        <ele>857.3</ele>
        <time>2012-09-22T16:03:32Z</time>
      </trkpt>
      <trkpt lat="45.12612" lon="4.07827">
        <ele>857.3</ele>
        <time>2012-09-22T16:03:34Z</time>
      </trkpt>
      <trkpt lat="45.12605" lon="4.07826">
        <ele>857.5</ele>
        <time>2012-09-22T16:03:36Z</time>
      </trkpt>
      <trkpt lat="45.12598" lon="4.07824">
        <ele>857.7</ele>
        <time>2012-09-22T16:03:38Z</time>
      </trkpt>
      <trkpt lat="45.12591" lon="4.07822">
        <ele>857.8</ele>
        <time>2012-09-22T16:03:40Z</time>
      </trkpt>
      <trkpt lat="45.12585" lon="4.0782">
        <ele>858</ele>
        <time>2012-09-22T16:03:42Z</time>
      </trkpt>
      <trkpt lat="45.12578" lon="4.07817">
        <ele>858</ele>
        <time>2012-09-22T16:03:44Z</time>
      </trkpt>
      <trkpt lat="45.12572" lon="4.07814">
        <ele>-6.1E-5</ele>
        <time>2012-09-22T16:03:46Z</time>
      </trkpt>
      <trkpt lat="45.12566" lon="4.0781">
        <ele>-6.1E-5</ele>
        <time>2012-09-22T16:03:48Z</time>
      </trkpt>
      <trkpt lat="45.12561" lon="4.07805">
        <ele>858.6</ele>
        <time>2012-09-22T16:03:50Z</time>
      </trkpt>
      <trkpt lat="45.12556" lon="4.078">
        <ele>858.2</ele>
        <time>2012-09-22T16:03:52Z</time>
      </trkpt>
      <trkpt lat="45.12551" lon="4.07795">
        <ele>858</ele>
        <time>2012-09-22T16:03:54Z</time>
      </trkpt>
      <trkpt lat="45.12545" lon="4.07792">
        <ele>858.3</ele>
        <time>2012-09-22T16:03:57Z</time>
      </trkpt>
      <trkpt lat="45.12541" lon="4.07788">
        <ele>858.5</ele>
        <time>2012-09-22T16:03:59Z</time>
      </trkpt>
      <trkpt lat="45.12536" lon="4.07783">
        <ele>858.8</ele>
        <time>2012-09-22T16:04:01Z</time>
      </trkpt>
      <trkpt lat="45.12532" lon="4.07778">
        <ele>859.3</ele>
        <time>2012-09-22T16:04:03Z</time>
      </trkpt>
      <trkpt lat="45.12527" lon="4.07772">
        <ele>-6.1E-5</ele>
        <time>2012-09-22T16:04:05Z</time>
      </trkpt>
      <trkpt lat="45.12521" lon="4.07766">
        <ele>-6.1E-5</ele>
        <time>2012-09-22T16:04:07Z</time>
      </trkpt>
      <trkpt lat="45.12516" lon="4.07761">
        <ele>-6.1E-5</ele>
        <time>2012-09-22T16:04:09Z</time>
      </trkpt>
      <trkpt lat="45.1251" lon="4.07756">
        <ele>860.3</ele>
        <time>2012-09-22T16:04:11Z</time>
      </trkpt>
      <trkpt lat="45.12505" lon="4.07751">
        <ele>860.5</ele>
        <time>2012-09-22T16:04:13Z</time>
      </trkpt>
      <trkpt lat="45.12499" lon="4.07747">
        <ele>860.7</ele>
        <time>2012-09-22T16:04:15Z</time>
      </trkpt>
      <trkpt lat="45.12494" lon="4.07744">
        <ele>861</ele>
        <time>2012-09-22T16:04:17Z</time>
      </trkpt>
      <trkpt lat="45.12489" lon="4.0774">
        <ele>861.2</ele>
        <time>2012-09-22T16:04:19Z</time>
      </trkpt>
      <trkpt lat="45.12484" lon="4.07737">
        <ele>861.4</ele>
        <time>2012-09-22T16:04:21Z</time>
      </trkpt>
      <trkpt lat="45.12479" lon="4.07734">
        <ele>861.7</ele>
        <time>2012-09-22T16:04:23Z</time>
      </trkpt>
      <trkpt lat="45.12474" lon="4.07731">
        <ele>-6.1E-5</ele>
        <time>2012-09-22T16:04:25Z</time>
      </trkpt>
      <trkpt lat="45.12469" lon="4.07728">
        <ele>862.3</ele>
        <time>2012-09-22T16:04:27Z</time>
      </trkpt>
      <trkpt lat="45.12463" lon="4.07726">
        <ele>862.6</ele>
        <time>2012-09-22T16:04:29Z</time>
      </trkpt>
      <trkpt lat="45.12457" lon="4.07725">
        <ele>863</ele>
        <time>2012-09-22T16:04:31Z</time>
      </trkpt>
      <trkpt lat="45.12451" lon="4.07723">
        <ele>863.5</ele>
        <time>2012-09-22T16:04:33Z</time>
      </trkpt>
      <trkpt lat="45.12445" lon="4.07722">
        <ele>864</ele>
        <time>2012-09-22T16:04:35Z</time>
      </trkpt>
      <trkpt lat="45.12439" lon="4.07722">
        <ele>864.1</ele>
        <time>2012-09-22T16:04:37Z</time>
      </trkpt>
      <trkpt lat="45.12433" lon="4.07722">
        <ele>864.4</ele>
        <time>2012-09-22T16:04:39Z</time>
      </trkpt>
      <trkpt lat="45.12427" lon="4.07723">
        <ele>864.7</ele>
        <time>2012-09-22T16:04:41Z</time>
      </trkpt>
      <trkpt lat="45.12421" lon="4.07724">
        <ele>-6.1E-5</ele>
        <time>2012-09-22T16:04:43Z</time>
      </trkpt>
      <trkpt lat="45.12414" lon="4.07725">
        <ele>-6.1E-5</ele>
        <time>2012-09-22T16:04:45Z</time>
      </trkpt>
      <trkpt lat="45.12408" lon="4.07726">
        <ele>865.4</ele>
        <time>2012-09-22T16:04:47Z</time>
      </trkpt>
      <trkpt lat="45.12402" lon="4.07727">
        <ele>865.5</ele>
        <time>2012-09-22T16:04:49Z</time>
      </trkpt>
      <trkpt lat="45.12396" lon="4.07728">
        <ele>-6.1E-5</ele>
        <time>2012-09-22T16:04:51Z</time>
      </trkpt>
      <trkpt lat="45.12389" lon="4.07729">
        <ele>865.5</ele>
        <time>2012-09-22T16:04:53Z</time>
      </trkpt>
      <trkpt lat="45.12384" lon="4.0773">
        <ele>865.6</ele>
        <time>2012-09-22T16:04:55Z</time>
      </trkpt>
      <trkpt lat="45.12379" lon="4.07732">
        <ele>865.7</ele>
        <time>2012-09-22T16:04:57Z</time>
      </trkpt>
      <trkpt lat="45.12374" lon="4.07733">
        <ele>865.8</ele>
        <time>2012-09-22T16:04:59Z</time>
      </trkpt>
      <trkpt lat="45.12369" lon="4.07734">
        <ele>-6.1E-5</ele>
        <time>2012-09-22T16:05:01Z</time>
      </trkpt>
      <trkpt lat="45.12364" lon="4.07734">
        <ele>865.9</ele>
        <time>2012-09-22T16:05:03Z</time>
      </trkpt>
      <trkpt lat="45.12357" lon="4.07735">
        <ele>-6.1E-5</ele>
        <time>2012-09-22T16:05:05Z</time>
      </trkpt>
      <trkpt lat="45.1235" lon="4.07735">
        <ele>-6.1E-5</ele>
        <time>2012-09-22T16:05:07Z</time>
      </trkpt>
      <trkpt lat="45.12343" lon="4.07735">
        <ele>866.6</ele>
        <time>2012-09-22T16:05:09Z</time>
      </trkpt>
      <trkpt lat="45.12336" lon="4.07734">
        <ele>866.8</ele>
        <time>2012-09-22T16:05:11Z</time>
      </trkpt>
      <trkpt lat="45.12328" lon="4.07734">
        <ele>867</ele>
        <time>2012-09-22T16:05:13Z</time>
      </trkpt>
      <trkpt lat="45.12322" lon="4.07735">
        <ele>867.3</ele>
        <time>2012-09-22T16:05:15Z</time>
      </trkpt>
      <trkpt lat="45.12316" lon="4.07735">
        <ele>867.6</ele>
        <time>2012-09-22T16:05:17Z</time>
      </trkpt>
      <trkpt lat="45.1231" lon="4.07735">
        <ele>867.7</ele>
        <time>2012-09-22T16:05:19Z</time>
      </trkpt>
      <trkpt lat="45.12305" lon="4.07735">
        <ele>867.9</ele>
        <time>2012-09-22T16:05:21Z</time>
      </trkpt>
      <trkpt lat="45.123" lon="4.07734">
        <ele>-6.1E-5</ele>
        <time>2012-09-22T16:05:23Z</time>
      </trkpt>
      <trkpt lat="45.12295" lon="4.07734">
        <ele>868.2</ele>
        <time>2012-09-22T16:05:25Z</time>
      </trkpt>
      <trkpt lat="45.1229" lon="4.07733">
        <ele>-6.1E-5</ele>
        <time>2012-09-22T16:05:27Z</time>
      </trkpt>
      <trkpt lat="45.12285" lon="4.07733">
        <ele>868.5</ele>
        <time>2012-09-22T16:05:29Z</time>
      </trkpt>
      <trkpt lat="45.1228" lon="4.07732">
        <ele>868.6</ele>
        <time>2012-09-22T16:05:31Z</time>
      </trkpt>
      <trkpt lat="45.12276" lon="4.07731">
        <ele>-6.1E-5</ele>
        <time>2012-09-22T16:05:33Z</time>
      </trkpt>
      <trkpt lat="45.12271" lon="4.0773">
        <ele>869</ele>
        <time>2012-09-22T16:05:35Z</time>
      </trkpt>
      <trkpt lat="45.12265" lon="4.07728">
        <ele>-6.1E-5</ele>
        <time>2012-09-22T16:05:38Z</time>
      </trkpt>
      <trkpt lat="45.12258" lon="4.07728">
        <ele>869.5</ele>
        <time>2012-09-22T16:05:41Z</time>
      </trkpt>
      <trkpt lat="45.12252" lon="4.07727">
        <ele>-6.1E-5</ele>
        <time>2012-09-22T16:05:44Z</time>
      </trkpt>
      <trkpt lat="45.12246" lon="4.07727">
        <ele>870</ele>
        <time>2012-09-22T16:05:47Z</time>
      </trkpt>
      <trkpt lat="45.12239" lon="4.07726">
        <ele>-6.1E-5</ele>
        <time>2012-09-22T16:05:50Z</time>
      </trkpt>
      <trkpt lat="45.12234" lon="4.07726">
        <ele>-6.1E-5</ele>
        <time>2012-09-22T16:05:52Z</time>
      </trkpt>
      <trkpt lat="45.1223" lon="4.07726">
        <ele>870.6</ele>
        <time>2012-09-22T16:05:54Z</time>
      </trkpt>
      <trkpt lat="45.12225" lon="4.07725">
        <ele>-6.1E-5</ele>
        <time>2012-09-22T16:05:56Z</time>
      </trkpt>
      <trkpt lat="45.1222" lon="4.07725">
        <ele>-6.1E-5</ele>
        <time>2012-09-22T16:05:58Z</time>
      </trkpt>
      <trkpt lat="45.12215" lon="4.07723">
        <ele>870.8</ele>
        <time>2012-09-22T16:06:00Z</time>
      </trkpt>
      <trkpt lat="45.1221" lon="4.07722">
        <ele>870.8</ele>
        <time>2012-09-22T16:06:02Z</time>
      </trkpt>
      <trkpt lat="45.12205" lon="4.07719">
        <ele>870.9</ele>
        <time>2012-09-22T16:06:04Z</time>
      </trkpt>
      <trkpt lat="45.12199" lon="4.07715">
        <ele>870.9</ele>
        <time>2012-09-22T16:06:06Z</time>
      </trkpt>
      <trkpt lat="45.12194" lon="4.07712">
        <ele>870.9</ele>
        <time>2012-09-22T16:06:08Z</time>
      </trkpt>
      <trkpt lat="45.12189" lon="4.07708">
        <ele>871.3</ele>
        <time>2012-09-22T16:06:10Z</time>
      </trkpt>
      <trkpt lat="45.12184" lon="4.07704">
        <ele>-6.1E-5</ele>
        <time>2012-09-22T16:06:12Z</time>
      </trkpt>
      <trkpt lat="45.1218" lon="4.077">
        <ele>871.4</ele>
        <time>2012-09-22T16:06:14Z</time>
      </trkpt>
      <trkpt lat="45.12175" lon="4.07695">
        <ele>871.1</ele>
        <time>2012-09-22T16:06:16Z</time>
      </trkpt>
      <trkpt lat="45.1217" lon="4.07688">
        <ele>-6.1E-5</ele>
        <time>2012-09-22T16:06:18Z</time>
      </trkpt>
      <trkpt lat="45.12163" lon="4.07676">
        <ele>870.3</ele>
        <time>2012-09-22T16:06:21Z</time>
      </trkpt>
      <trkpt lat="45.12158" lon="4.07669">
        <ele>870</ele>
        <time>2012-09-22T16:06:23Z</time>
      </trkpt>
      <trkpt lat="45.12153" lon="4.07662">
        <ele>869.7</ele>
        <time>2012-09-22T16:06:25Z</time>
      </trkpt>
      <trkpt lat="45.12149" lon="4.07656">
        <ele>869.3</ele>
        <time>2012-09-22T16:06:27Z</time>
      </trkpt>
      <trkpt lat="45.12146" lon="4.07649">
        <ele>868.8</ele>
        <time>2012-09-22T16:06:29Z</time>
      </trkpt>
      <trkpt lat="45.12143" lon="4.07643">
        <ele>868.1</ele>
        <time>2012-09-22T16:06:31Z</time>
      </trkpt>
      <trkpt lat="45.1214" lon="4.07635">
        <ele>867.4</ele>
        <time>2012-09-22T16:06:33Z</time>
      </trkpt>
      <trkpt lat="45.12138" lon="4.07627">
        <ele>866.7</ele>
        <time>2012-09-22T16:06:35Z</time>
      </trkpt>
      <trkpt lat="45.12137" lon="4.07618">
        <ele>865.9</ele>
        <time>2012-09-22T16:06:37Z</time>
      </trkpt>
      <trkpt lat="45.12136" lon="4.07609">
        <ele>-6.1E-5</ele>
        <time>2012-09-22T16:06:39Z</time>
      </trkpt>
      <trkpt lat="45.12136" lon="4.076">
        <ele>-6.1E-5</ele>
        <time>2012-09-22T16:06:41Z</time>
      </trkpt>
      <trkpt lat="45.12136" lon="4.0759">
        <ele>862.2</ele>
        <time>2012-09-22T16:06:43Z</time>
      </trkpt>
      <trkpt lat="45.12137" lon="4.07581">
        <ele>861.4</ele>
        <time>2012-09-22T16:06:45Z</time>
      </trkpt>
      <trkpt lat="45.12138" lon="4.07572">
        <ele>862.3</ele>
        <time>2012-09-22T16:06:47Z</time>
      </trkpt>
      <trkpt lat="45.12141" lon="4.07563">
        <ele>-6.1E-5</ele>
        <time>2012-09-22T16:06:49Z</time>
      </trkpt>
      <trkpt lat="45.12144" lon="4.07555">
        <ele>-6.1E-5</ele>
        <time>2012-09-22T16:06:51Z</time>
      </trkpt>
      <trkpt lat="45.12147" lon="4.07547">
        <ele>-6.1E-5</ele>
        <time>2012-09-22T16:06:53Z</time>
      </trkpt>
      <trkpt lat="45.1215" lon="4.0754">
        <ele>866</ele>
        <time>2012-09-22T16:06:55Z</time>
      </trkpt>
      <trkpt lat="45.12152" lon="4.07533">
        <ele>-6.1E-5</ele>
        <time>2012-09-22T16:06:57Z</time>
      </trkpt>
      <trkpt lat="45.12156" lon="4.07527">
        <ele>868</ele>
        <time>2012-09-22T16:06:59Z</time>
      </trkpt>
      <trkpt lat="45.1216" lon="4.07522">
        <ele>869.5</ele>
        <time>2012-09-22T16:07:01Z</time>
      </trkpt>
      <trkpt lat="45.12164" lon="4.07516">
        <ele>-6.1E-5</ele>
        <time>2012-09-22T16:07:03Z</time>
      </trkpt>
      <trkpt lat="45.12168" lon="4.07512">
        <ele>872.5</ele>
        <time>2012-09-22T16:07:05Z</time>
      </trkpt>
      <trkpt lat="45.12173" lon="4.07508">
        <ele>873.4</ele>
        <time>2012-09-22T16:07:07Z</time>
      </trkpt>
      <trkpt lat="45.12178" lon="4.07504">
        <ele>874.2</ele>
        <time>2012-09-22T16:07:09Z</time>
      </trkpt>
      <trkpt lat="45.12183" lon="4.07501">
        <ele>874.9</ele>
        <time>2012-09-22T16:07:11Z</time>
      </trkpt>
      <trkpt lat="45.12189" lon="4.07497">
        <ele>875.4</ele>
        <time>2012-09-22T16:07:13Z</time>
      </trkpt>
      <trkpt lat="45.12194" lon="4.07494">
        <ele>875.9</ele>
        <time>2012-09-22T16:07:15Z</time>
      </trkpt>
      <trkpt lat="45.12199" lon="4.0749">
        <ele>876.2</ele>
        <time>2012-09-22T16:07:17Z</time>
      </trkpt>
      <trkpt lat="45.12204" lon="4.07486">
        <ele>876.5</ele>
        <time>2012-09-22T16:07:19Z</time>
      </trkpt>
      <trkpt lat="45.12209" lon="4.07483">
        <ele>-6.1E-5</ele>
        <time>2012-09-22T16:07:21Z</time>
      </trkpt>
      <trkpt lat="45.12214" lon="4.07479">
        <ele>-6.1E-5</ele>
        <time>2012-09-22T16:07:23Z</time>
      </trkpt>
      <trkpt lat="45.12219" lon="4.07476">
        <ele>877.5</ele>
        <time>2012-09-22T16:07:25Z</time>
      </trkpt>
      <trkpt lat="45.12224" lon="4.07472">
        <ele>877.8</ele>
        <time>2012-09-22T16:07:27Z</time>
      </trkpt>
      <trkpt lat="45.12229" lon="4.07468">
        <ele>877.9</ele>
        <time>2012-09-22T16:07:29Z</time>
      </trkpt>
      <trkpt lat="45.12234" lon="4.07464">
        <ele>878.1</ele>
        <time>2012-09-22T16:07:31Z</time>
      </trkpt>
      <trkpt lat="45.12239" lon="4.0746">
        <ele>878.2</ele>
        <time>2012-09-22T16:07:33Z</time>
      </trkpt>
      <trkpt lat="45.12244" lon="4.07455">
        <ele>878.3</ele>
        <time>2012-09-22T16:07:35Z</time>
      </trkpt>
      <trkpt lat="45.12249" lon="4.0745">
        <ele>878.3</ele>
        <time>2012-09-22T16:07:37Z</time>
      </trkpt>
      <trkpt lat="45.12254" lon="4.07446">
        <ele>878.4</ele>
        <time>2012-09-22T16:07:39Z</time>
      </trkpt>
      <trkpt lat="45.12259" lon="4.07441">
        <ele>878.6</ele>
        <time>2012-09-22T16:07:41Z</time>
      </trkpt>
      <trkpt lat="45.12264" lon="4.07437">
        <ele>-6.1E-5</ele>
        <time>2012-09-22T16:07:43Z</time>
      </trkpt>
      <trkpt lat="45.12268" lon="4.07432">
        <ele>879.2</ele>
        <time>2012-09-22T16:07:45Z</time>
      </trkpt>
      <trkpt lat="45.12272" lon="4.07427">
        <ele>879.7</ele>
        <time>2012-09-22T16:07:47Z</time>
      </trkpt>
      <trkpt lat="45.12276" lon="4.07422">
        <ele>-6.1E-5</ele>
        <time>2012-09-22T16:07:49Z</time>
      </trkpt>
      <trkpt lat="45.1228" lon="4.07416">
        <ele>880.8</ele>
        <time>2012-09-22T16:07:51Z</time>
      </trkpt>
      <trkpt lat="45.12284" lon="4.0741">
        <ele>881</ele>
        <time>2012-09-22T16:07:53Z</time>
      </trkpt>
      <trkpt lat="45.12287" lon="4.07404">
        <ele>881.4</ele>
        <time>2012-09-22T16:07:55Z</time>
      </trkpt>
      <trkpt lat="45.1229" lon="4.07398">
        <ele>881.8</ele>
        <time>2012-09-22T16:07:57Z</time>
      </trkpt>
      <trkpt lat="45.12293" lon="4.07391">
        <ele>882.2</ele>
        <time>2012-09-22T16:07:59Z</time>
      </trkpt>
      <trkpt lat="45.12295" lon="4.07384">
        <ele>882.6</ele>
        <time>2012-09-22T16:08:01Z</time>
      </trkpt>
      <trkpt lat="45.12298" lon="4.07377">
        <ele>882.6</ele>
        <time>2012-09-22T16:08:03Z</time>
      </trkpt>
      <trkpt lat="45.12301" lon="4.0737">
        <ele>882.3</ele>
        <time>2012-09-22T16:08:05Z</time>
      </trkpt>
      <trkpt lat="45.12303" lon="4.07363">
        <ele>881.7</ele>
        <time>2012-09-22T16:08:07Z</time>
      </trkpt>
      <trkpt lat="45.12306" lon="4.07355">
        <ele>882.1</ele>
        <time>2012-09-22T16:08:09Z</time>
      </trkpt>
      <trkpt lat="45.12309" lon="4.07347">
        <ele>883</ele>
        <time>2012-09-22T16:08:11Z</time>
      </trkpt>
      <trkpt lat="45.12311" lon="4.07339">
        <ele>-6.1E-5</ele>
        <time>2012-09-22T16:08:13Z</time>
      </trkpt>
      <trkpt lat="45.12313" lon="4.07332">
        <ele>-6.1E-5</ele>
        <time>2012-09-22T16:08:15Z</time>
      </trkpt>
      <trkpt lat="45.12316" lon="4.07325">
        <ele>884.5</ele>
        <time>2012-09-22T16:08:17Z</time>
      </trkpt>
      <trkpt lat="45.12318" lon="4.07318">
        <ele>-6.1E-5</ele>
        <time>2012-09-22T16:08:19Z</time>
      </trkpt>
      <trkpt lat="45.1232" lon="4.07312">
        <ele>885.2</ele>
        <time>2012-09-22T16:08:21Z</time>
      </trkpt>
      <trkpt lat="45.12322" lon="4.07303">
        <ele>885.6</ele>
        <time>2012-09-22T16:08:24Z</time>
      </trkpt>
      <trkpt lat="45.12324" lon="4.07296">
        <ele>885.7</ele>
        <time>2012-09-22T16:08:26Z</time>
      </trkpt>
      <trkpt lat="45.12326" lon="4.07289">
        <ele>885.7</ele>
        <time>2012-09-22T16:08:28Z</time>
      </trkpt>
      <trkpt lat="45.12327" lon="4.07283">
        <ele>885.6</ele>
        <time>2012-09-22T16:08:30Z</time>
      </trkpt>
      <trkpt lat="45.1233" lon="4.07276">
        <ele>885.3</ele>
        <time>2012-09-22T16:08:32Z</time>
      </trkpt>
      <trkpt lat="45.12332" lon="4.0727">
        <ele>884.9</ele>
        <time>2012-09-22T16:08:34Z</time>
      </trkpt>
      <trkpt lat="45.12335" lon="4.07263">
        <ele>884.8</ele>
        <time>2012-09-22T16:08:36Z</time>
      </trkpt>
      <trkpt lat="45.12338" lon="4.07256">
        <ele>884.6</ele>
        <time>2012-09-22T16:08:38Z</time>
      </trkpt>
      <trkpt lat="45.1234" lon="4.07249">
        <ele>884.4</ele>
        <time>2012-09-22T16:08:40Z</time>
      </trkpt>
      <trkpt lat="45.12343" lon="4.07241">
        <ele>884.5</ele>
        <time>2012-09-22T16:08:42Z</time>
      </trkpt>
      <trkpt lat="45.12346" lon="4.07233">
        <ele>-6.1E-5</ele>
        <time>2012-09-22T16:08:44Z</time>
      </trkpt>
      <trkpt lat="45.12349" lon="4.07225">
        <ele>885.3</ele>
        <time>2012-09-22T16:08:46Z</time>
      </trkpt>
      <trkpt lat="45.12352" lon="4.07216">
        <ele>885.5</ele>
        <time>2012-09-22T16:08:48Z</time>
      </trkpt>
      <trkpt lat="45.12355" lon="4.07208">
        <ele>885.7</ele>
        <time>2012-09-22T16:08:50Z</time>
      </trkpt>
      <trkpt lat="45.12357" lon="4.072">
        <ele>886</ele>
        <time>2012-09-22T16:08:52Z</time>
      </trkpt>
      <trkpt lat="45.1236" lon="4.07192">
        <ele>886.3</ele>
        <time>2012-09-22T16:08:54Z</time>
      </trkpt>
      <trkpt lat="45.12362" lon="4.07185">
        <ele>886.6</ele>
        <time>2012-09-22T16:08:56Z</time>
      </trkpt>
      <trkpt lat="45.12365" lon="4.07177">
        <ele>886.8</ele>
        <time>2012-09-22T16:08:58Z</time>
      </trkpt>
      <trkpt lat="45.12367" lon="4.07169">
        <ele>887.1</ele>
        <time>2012-09-22T16:09:00Z</time>
      </trkpt>
      <trkpt lat="45.1237" lon="4.07162">
        <ele>887.3</ele>
        <time>2012-09-22T16:09:02Z</time>
      </trkpt>
      <trkpt lat="45.12372" lon="4.07155">
        <ele>887.4</ele>
        <time>2012-09-22T16:09:04Z</time>
      </trkpt>
      <trkpt lat="45.12375" lon="4.07147">
        <ele>-6.1E-5</ele>
        <time>2012-09-22T16:09:06Z</time>
      </trkpt>
      <trkpt lat="45.12377" lon="4.0714">
        <ele>887.8</ele>
        <time>2012-09-22T16:09:08Z</time>
      </trkpt>
      <trkpt lat="45.1238" lon="4.07132">
        <ele>888.2</ele>
        <time>2012-09-22T16:09:10Z</time>
      </trkpt>
      <trkpt lat="45.12382" lon="4.07124">
        <ele>888.7</ele>
        <time>2012-09-22T16:09:12Z</time>
      </trkpt>
      <trkpt lat="45.12385" lon="4.07117">
        <ele>889</ele>
        <time>2012-09-22T16:09:14Z</time>
      </trkpt>
      <trkpt lat="45.12388" lon="4.07109">
        <ele>-6.1E-5</ele>
        <time>2012-09-22T16:09:16Z</time>
      </trkpt>
      <trkpt lat="45.1239" lon="4.07101">
        <ele>889.9</ele>
        <time>2012-09-22T16:09:18Z</time>
      </trkpt>
      <trkpt lat="45.12392" lon="4.07093">
        <ele>890.7</ele>
        <time>2012-09-22T16:09:20Z</time>
      </trkpt>
      <trkpt lat="45.12395" lon="4.07085">
        <ele>-6.1E-5</ele>
        <time>2012-09-22T16:09:22Z</time>
      </trkpt>
      <trkpt lat="45.12397" lon="4.07078">
        <ele>-6.1E-5</ele>
        <time>2012-09-22T16:09:24Z</time>
      </trkpt>
      <trkpt lat="45.124" lon="4.07071">
        <ele>893.8</ele>
        <time>2012-09-22T16:09:26Z</time>
      </trkpt>
      <trkpt lat="45.12402" lon="4.07065">
        <ele>-6.1E-5</ele>
        <time>2012-09-22T16:09:28Z</time>
      </trkpt>
      <trkpt lat="45.12405" lon="4.07058">
        <ele>895.3</ele>
        <time>2012-09-22T16:09:31Z</time>
      </trkpt>
      <trkpt lat="45.12408" lon="4.07051">
        <ele>895.4</ele>
        <time>2012-09-22T16:09:34Z</time>
      </trkpt>
      <trkpt lat="45.12411" lon="4.07044">
        <ele>894.7</ele>
        <time>2012-09-22T16:09:37Z</time>
      </trkpt>
      <trkpt lat="45.12414" lon="4.07037">
        <ele>893.5</ele>
        <time>2012-09-22T16:09:40Z</time>
      </trkpt>
      <trkpt lat="45.12418" lon="4.07029">
        <ele>892.5</ele>
        <time>2012-09-22T16:09:43Z</time>
      </trkpt>
      <trkpt lat="45.12422" lon="4.07022">
        <ele>893.5</ele>
        <time>2012-09-22T16:09:46Z</time>
      </trkpt>
      <trkpt lat="45.12425" lon="4.07017">
        <ele>-6.1E-5</ele>
        <time>2012-09-22T16:09:48Z</time>
      </trkpt>
      <trkpt lat="45.12429" lon="4.07012">
        <ele>894.9</ele>
        <time>2012-09-22T16:09:50Z</time>
      </trkpt>
      <trkpt lat="45.12432" lon="4.07007">
        <ele>895.3</ele>
        <time>2012-09-22T16:09:52Z</time>
      </trkpt>
      <trkpt lat="45.12435" lon="4.07002">
        <ele>-6.1E-5</ele>
        <time>2012-09-22T16:09:54Z</time>
      </trkpt>
      <trkpt lat="45.12439" lon="4.06997">
        <ele>-6.1E-5</ele>
        <time>2012-09-22T16:09:56Z</time>
      </trkpt>
      <trkpt lat="45.12442" lon="4.06992">
        <ele>895.4</ele>
        <time>2012-09-22T16:09:58Z</time>
      </trkpt>
      <trkpt lat="45.12446" lon="4.06987">
        <ele>895.1</ele>
        <time>2012-09-22T16:10:00Z</time>
      </trkpt>
      <trkpt lat="45.1245" lon="4.06981">
        <ele>-6.1E-5</ele>
        <time>2012-09-22T16:10:02Z</time>
      </trkpt>
      <trkpt lat="45.12455" lon="4.06976">
        <ele>-6.1E-5</ele>
        <time>2012-09-22T16:10:04Z</time>
      </trkpt>
      <trkpt lat="45.1246" lon="4.06971">
        <ele>895.1</ele>
        <time>2012-09-22T16:10:06Z</time>
      </trkpt>
      <trkpt lat="45.12465" lon="4.06966">
        <ele>895.2</ele>
        <time>2012-09-22T16:10:08Z</time>
      </trkpt>
      <trkpt lat="45.1247" lon="4.06961">
        <ele>895.1</ele>
        <time>2012-09-22T16:10:10Z</time>
      </trkpt>
      <trkpt lat="45.12475" lon="4.06956">
        <ele>-6.1E-5</ele>
        <time>2012-09-22T16:10:12Z</time>
      </trkpt>
      <trkpt lat="45.12481" lon="4.06951">
        <ele>894.8</ele>
        <time>2012-09-22T16:10:14Z</time>
      </trkpt>
      <trkpt lat="45.12487" lon="4.06946">
        <ele>894.7</ele>
        <time>2012-09-22T16:10:16Z</time>
      </trkpt>
      <trkpt lat="45.12494" lon="4.06941">
        <ele>894.7</ele>
        <time>2012-09-22T16:10:18Z</time>
      </trkpt>
      <trkpt lat="45.125" lon="4.06936">
        <ele>894.7</ele>
        <time>2012-09-22T16:10:20Z</time>
      </trkpt>
      <trkpt lat="45.12507" lon="4.06931">
        <ele>895</ele>
        <time>2012-09-22T16:10:22Z</time>
      </trkpt>
      <trkpt lat="45.12514" lon="4.06926">
        <ele>895</ele>
        <time>2012-09-22T16:10:24Z</time>
      </trkpt>
      <trkpt lat="45.12521" lon="4.06922">
        <ele>-6.1E-5</ele>
        <time>2012-09-22T16:10:26Z</time>
      </trkpt>
      <trkpt lat="45.12528" lon="4.06917">
        <ele>894</ele>
        <time>2012-09-22T16:10:28Z</time>
      </trkpt>
      <trkpt lat="45.12535" lon="4.06912">
        <ele>893.8</ele>
        <time>2012-09-22T16:10:30Z</time>
      </trkpt>
      <trkpt lat="45.12542" lon="4.06907">
        <ele>893.6</ele>
        <time>2012-09-22T16:10:32Z</time>
      </trkpt>
      <trkpt lat="45.12549" lon="4.06902">
        <ele>893.5</ele>
        <time>2012-09-22T16:10:34Z</time>
      </trkpt>
      <trkpt lat="45.12555" lon="4.06898">
        <ele>893.3</ele>
        <time>2012-09-22T16:10:36Z</time>
      </trkpt>
      <trkpt lat="45.12562" lon="4.06893">
        <ele>-6.1E-5</ele>
        <time>2012-09-22T16:10:38Z</time>
      </trkpt>
      <trkpt lat="45.12568" lon="4.06889">
        <ele>893.4</ele>
        <time>2012-09-22T16:10:40Z</time>
      </trkpt>
      <trkpt lat="45.12574" lon="4.06885">
        <ele>893.5</ele>
        <time>2012-09-22T16:10:42Z</time>
      </trkpt>
      <trkpt lat="45.1258" lon="4.0688">
        <ele>893.6</ele>
        <time>2012-09-22T16:10:44Z</time>
      </trkpt>
      <trkpt lat="45.12586" lon="4.06875">
        <ele>893.6</ele>
        <time>2012-09-22T16:10:46Z</time>
      </trkpt>
      <trkpt lat="45.12592" lon="4.06871">
        <ele>893.5</ele>
        <time>2012-09-22T16:10:48Z</time>
      </trkpt>
      <trkpt lat="45.12598" lon="4.06866">
        <ele>-6.1E-5</ele>
        <time>2012-09-22T16:10:50Z</time>
      </trkpt>
      <trkpt lat="45.12604" lon="4.06861">
        <ele>-6.1E-5</ele>
        <time>2012-09-22T16:10:52Z</time>
      </trkpt>
      <trkpt lat="45.1261" lon="4.06857">
        <ele>-6.1E-5</ele>
        <time>2012-09-22T16:10:54Z</time>
      </trkpt>
      <trkpt lat="45.12616" lon="4.06853">
        <ele>893.2</ele>
        <time>2012-09-22T16:10:56Z</time>
      </trkpt>
      <trkpt lat="45.12621" lon="4.06852">
        <ele>893.4</ele>
        <time>2012-09-22T16:10:58Z</time>
      </trkpt>
      <trkpt lat="45.12626" lon="4.06853">
        <ele>-6.1E-5</ele>
        <time>2012-09-22T16:11:00Z</time>
      </trkpt>
      <trkpt lat="45.1263" lon="4.06857">
        <ele>-6.1E-5</ele>
        <time>2012-09-22T16:11:02Z</time>
      </trkpt>
      <trkpt lat="45.12634" lon="4.06861">
        <ele>893.8</ele>
        <time>2012-09-22T16:11:04Z</time>
      </trkpt>
      <trkpt lat="45.12638" lon="4.06865">
        <ele>894.1</ele>
        <time>2012-09-22T16:11:06Z</time>
      </trkpt>
      <trkpt lat="45.12642" lon="4.06871">
        <ele>894.4</ele>
        <time>2012-09-22T16:11:08Z</time>
      </trkpt>
      <trkpt lat="45.12645" lon="4.06876">
        <ele>894.8</ele>
        <time>2012-09-22T16:11:10Z</time>
      </trkpt>
      <trkpt lat="45.12648" lon="4.06883">
        <ele>895.1</ele>
        <time>2012-09-22T16:11:12Z</time>
      </trkpt>
      <trkpt lat="45.12651" lon="4.06889">
        <ele>895.4</ele>
        <time>2012-09-22T16:11:14Z</time>
      </trkpt>
      <trkpt lat="45.12653" lon="4.06896">
        <ele>895.8</ele>
        <time>2012-09-22T16:11:16Z</time>
      </trkpt>
      <trkpt lat="45.12655" lon="4.06902">
        <ele>896.1</ele>
        <time>2012-09-22T16:11:18Z</time>
      </trkpt>
      <trkpt lat="45.12658" lon="4.06908">
        <ele>896.4</ele>
        <time>2012-09-22T16:11:20Z</time>
      </trkpt>
      <trkpt lat="45.1266" lon="4.06914">
        <ele>896.7</ele>
        <time>2012-09-22T16:11:22Z</time>
      </trkpt>
      <trkpt lat="45.12663" lon="4.06919">
        <ele>897</ele>
        <time>2012-09-22T16:11:24Z</time>
      </trkpt>
      <trkpt lat="45.12666" lon="4.06924">
        <ele>897.3</ele>
        <time>2012-09-22T16:11:26Z</time>
      </trkpt>
      <trkpt lat="45.12669" lon="4.0693">
        <ele>897.7</ele>
        <time>2012-09-22T16:11:28Z</time>
      </trkpt>
      <trkpt lat="45.12674" lon="4.06936">
        <ele>898.3</ele>
        <time>2012-09-22T16:11:31Z</time>
      </trkpt>
      <trkpt lat="45.12679" lon="4.06943">
        <ele>898.8</ele>
        <time>2012-09-22T16:11:34Z</time>
      </trkpt>
      <trkpt lat="45.12683" lon="4.06948">
        <ele>899.4</ele>
        <time>2012-09-22T16:11:37Z</time>
      </trkpt>
      <trkpt lat="45.12688" lon="4.06954">
        <ele>-6.1E-5</ele>
        <time>2012-09-22T16:11:40Z</time>
      </trkpt>
      <trkpt lat="45.12693" lon="4.06958">
        <ele>900.4</ele>
        <time>2012-09-22T16:11:43Z</time>
      </trkpt>
      <trkpt lat="45.12697" lon="4.06963">
        <ele>900.7</ele>
        <time>2012-09-22T16:11:46Z</time>
      </trkpt>
      <trkpt lat="45.12702" lon="4.06967">
        <ele>900.9</ele>
        <time>2012-09-22T16:11:49Z</time>
      </trkpt>
      <trkpt lat="45.12707" lon="4.06971">
        <ele>901</ele>
        <time>2012-09-22T16:11:52Z</time>
      </trkpt>
      <trkpt lat="45.12712" lon="4.06976">
        <ele>901.2</ele>
        <time>2012-09-22T16:11:55Z</time>
      </trkpt>
      <trkpt lat="45.12718" lon="4.06982">
        <ele>901.3</ele>
        <time>2012-09-22T16:11:58Z</time>
      </trkpt>
      <trkpt lat="45.12722" lon="4.06985">
        <ele>-6.1E-5</ele>
        <time>2012-09-22T16:12:00Z</time>
      </trkpt>
      <trkpt lat="45.12726" lon="4.0699">
        <ele>901.7</ele>
        <time>2012-09-22T16:12:02Z</time>
      </trkpt>
      <trkpt lat="45.1273" lon="4.06994">
        <ele>-6.1E-5</ele>
        <time>2012-09-22T16:12:04Z</time>
      </trkpt>
      <trkpt lat="45.12734" lon="4.06999">
        <ele>-6.1E-5</ele>
        <time>2012-09-22T16:12:06Z</time>
      </trkpt>
      <trkpt lat="45.12739" lon="4.07004">
        <ele>901.9</ele>
        <time>2012-09-22T16:12:08Z</time>
      </trkpt>
      <trkpt lat="45.12743" lon="4.07009">
        <ele>901.9</ele>
        <time>2012-09-22T16:12:10Z</time>
      </trkpt>
      <trkpt lat="45.12748" lon="4.07015">
        <ele>-6.1E-5</ele>
        <time>2012-09-22T16:12:12Z</time>
      </trkpt>
      <trkpt lat="45.12753" lon="4.0702">
        <ele>-6.1E-5</ele>
        <time>2012-09-22T16:12:14Z</time>
      </trkpt>
      <trkpt lat="45.12759" lon="4.07025">
        <ele>902.3</ele>
        <time>2012-09-22T16:12:16Z</time>
      </trkpt>
      <trkpt lat="45.12764" lon="4.07031">
        <ele>902.3</ele>
        <time>2012-09-22T16:12:18Z</time>
      </trkpt>
      <trkpt lat="45.12769" lon="4.07037">
        <ele>902</ele>
        <time>2012-09-22T16:12:20Z</time>
      </trkpt>
      <trkpt lat="45.12775" lon="4.07043">
        <ele>901.8</ele>
        <time>2012-09-22T16:12:22Z</time>
      </trkpt>
      <trkpt lat="45.12783" lon="4.0705">
        <ele>901.5</ele>
        <time>2012-09-22T16:12:24Z</time>
      </trkpt>
      <trkpt lat="45.12787" lon="4.07053">
        <ele>901.2</ele>
        <time>2012-09-22T16:12:25Z</time>
      </trkpt>
      <trkpt lat="45.12791" lon="4.07055">
        <ele>901</ele>
        <time>2012-09-22T16:12:26Z</time>
      </trkpt>
      <trkpt lat="45.12795" lon="4.07058">
        <ele>900.9</ele>
        <time>2012-09-22T16:12:27Z</time>
      </trkpt>
      <trkpt lat="45.12804" lon="4.0706">
        <ele>901</ele>
        <time>2012-09-22T16:12:29Z</time>
      </trkpt>
      <trkpt lat="45.12812" lon="4.0706">
        <ele>900.7</ele>
        <time>2012-09-22T16:12:31Z</time>
      </trkpt>
      <trkpt lat="45.12821" lon="4.0706">
        <ele>900.3</ele>
        <time>2012-09-22T16:12:33Z</time>
      </trkpt>
      <trkpt lat="45.12828" lon="4.07057">
        <ele>900.1</ele>
        <time>2012-09-22T16:12:35Z</time>
      </trkpt>
      <trkpt lat="45.12836" lon="4.07054">
        <ele>899.9</ele>
        <time>2012-09-22T16:12:37Z</time>
      </trkpt>
      <trkpt lat="45.12844" lon="4.0705">
        <ele>899.6</ele>
        <time>2012-09-22T16:12:39Z</time>
      </trkpt>
      <trkpt lat="45.12852" lon="4.07046">
        <ele>899.4</ele>
        <time>2012-09-22T16:12:41Z</time>
      </trkpt>
      <trkpt lat="45.1286" lon="4.07041">
        <ele>-6.1E-5</ele>
        <time>2012-09-22T16:12:43Z</time>
      </trkpt>
      <trkpt lat="45.12867" lon="4.07035">
        <ele>899.1</ele>
        <time>2012-09-22T16:12:45Z</time>
      </trkpt>
      <trkpt lat="45.12874" lon="4.0703">
        <ele>899.3</ele>
        <time>2012-09-22T16:12:47Z</time>
      </trkpt>
      <trkpt lat="45.12881" lon="4.07025">
        <ele>-6.1E-5</ele>
        <time>2012-09-22T16:12:49Z</time>
      </trkpt>
      <trkpt lat="45.12888" lon="4.07021">
        <ele>-6.1E-5</ele>
        <time>2012-09-22T16:12:51Z</time>
      </trkpt>
      <trkpt lat="45.12895" lon="4.07016">
        <ele>-6.1E-5</ele>
        <time>2012-09-22T16:12:53Z</time>
      </trkpt>
      <trkpt lat="45.12902" lon="4.07012">
        <ele>-6.1E-5</ele>
        <time>2012-09-22T16:12:55Z</time>
      </trkpt>
      <trkpt lat="45.12909" lon="4.0701">
        <ele>898.8</ele>
        <time>2012-09-22T16:12:57Z</time>
      </trkpt>
      <trkpt lat="45.12916" lon="4.07008">
        <ele>898.5</ele>
        <time>2012-09-22T16:12:59Z</time>
      </trkpt>
      <trkpt lat="45.12924" lon="4.07007">
        <ele>899</ele>
        <time>2012-09-22T16:13:01Z</time>
      </trkpt>
      <trkpt lat="45.12932" lon="4.07006">
        <ele>899.4</ele>
        <time>2012-09-22T16:13:03Z</time>
      </trkpt>
      <trkpt lat="45.12939" lon="4.07007">
        <ele>899.6</ele>
        <time>2012-09-22T16:13:05Z</time>
      </trkpt>
      <trkpt lat="45.12947" lon="4.07007">
        <ele>899.8</ele>
        <time>2012-09-22T16:13:07Z</time>
      </trkpt>
      <trkpt lat="45.12955" lon="4.07006">
        <ele>900</ele>
        <time>2012-09-22T16:13:09Z</time>
      </trkpt>
      <trkpt lat="45.12963" lon="4.07006">
        <ele>900.1</ele>
        <time>2012-09-22T16:13:11Z</time>
      </trkpt>
      <trkpt lat="45.12971" lon="4.07007">
        <ele>900</ele>
        <time>2012-09-22T16:13:13Z</time>
      </trkpt>
      <trkpt lat="45.12979" lon="4.07008">
        <ele>899.6</ele>
        <time>2012-09-22T16:13:15Z</time>
      </trkpt>
      <trkpt lat="45.12986" lon="4.07008">
        <ele>899.2</ele>
        <time>2012-09-22T16:13:17Z</time>
      </trkpt>
      <trkpt lat="45.12994" lon="4.07007">
        <ele>899</ele>
        <time>2012-09-22T16:13:19Z</time>
      </trkpt>
      <trkpt lat="45.13001" lon="4.07007">
        <ele>898.7</ele>
        <time>2012-09-22T16:13:21Z</time>
      </trkpt>
      <trkpt lat="45.13008" lon="4.07008">
        <ele>898.5</ele>
        <time>2012-09-22T16:13:23Z</time>
      </trkpt>
      <trkpt lat="45.13016" lon="4.07008">
        <ele>898.4</ele>
        <time>2012-09-22T16:13:25Z</time>
      </trkpt>
      <trkpt lat="45.13023" lon="4.07008">
        <ele>898.4</ele>
        <time>2012-09-22T16:13:27Z</time>
      </trkpt>
      <trkpt lat="45.1303" lon="4.07007">
        <ele>898.4</ele>
        <time>2012-09-22T16:13:29Z</time>
      </trkpt>
      <trkpt lat="45.13037" lon="4.07006">
        <ele>898.2</ele>
        <time>2012-09-22T16:13:31Z</time>
      </trkpt>
      <trkpt lat="45.13044" lon="4.07004">
        <ele>898.1</ele>
        <time>2012-09-22T16:13:33Z</time>
      </trkpt>
      <trkpt lat="45.13051" lon="4.07001">
        <ele>898.2</ele>
        <time>2012-09-22T16:13:35Z</time>
      </trkpt>
      <trkpt lat="45.13058" lon="4.06998">
        <ele>897.9</ele>
        <time>2012-09-22T16:13:37Z</time>
      </trkpt>
      <trkpt lat="45.13066" lon="4.06994">
        <ele>-6.1E-5</ele>
        <time>2012-09-22T16:13:39Z</time>
      </trkpt>
      <trkpt lat="45.13073" lon="4.0699">
        <ele>896.8</ele>
        <time>2012-09-22T16:13:41Z</time>
      </trkpt>
      <trkpt lat="45.13081" lon="4.06984">
        <ele>896.6</ele>
        <time>2012-09-22T16:13:43Z</time>
      </trkpt>
      <trkpt lat="45.13088" lon="4.06978">
        <ele>896.4</ele>
        <time>2012-09-22T16:13:45Z</time>
      </trkpt>
      <trkpt lat="45.13096" lon="4.06973">
        <ele>896.2</ele>
        <time>2012-09-22T16:13:47Z</time>
      </trkpt>
      <trkpt lat="45.13102" lon="4.06968">
        <ele>896.1</ele>
        <time>2012-09-22T16:13:49Z</time>
      </trkpt>
      <trkpt lat="45.13109" lon="4.06965">
        <ele>895.9</ele>
        <time>2012-09-22T16:14:00Z</time>
      </trkpt>
      <trkpt lat="45.13115" lon="4.0696">
        <ele>896.2</ele>
        <time>2012-09-22T16:14:02Z</time>
      </trkpt>
      <trkpt lat="45.13122" lon="4.06955">
        <ele>896.3</ele>
        <time>2012-09-22T16:14:04Z</time>
      </trkpt>
      <trkpt lat="45.13128" lon="4.0695">
        <ele>896.3</ele>
        <time>2012-09-22T16:14:06Z</time>
      </trkpt>
      <trkpt lat="45.13135" lon="4.06946">
        <ele>896.3</ele>
        <time>2012-09-22T16:14:08Z</time>
      </trkpt>
      <trkpt lat="45.13142" lon="4.06942">
        <ele>896.6</ele>
        <time>2012-09-22T16:14:10Z</time>
      </trkpt>
      <trkpt lat="45.13151" lon="4.06939">
        <ele>896.7</ele>
        <time>2012-09-22T16:14:12Z</time>
      </trkpt>
      <trkpt lat="45.13157" lon="4.06938">
        <ele>896.7</ele>
        <time>2012-09-22T16:14:13Z</time>
      </trkpt>
      <trkpt lat="45.13162" lon="4.06936">
        <ele>896.5</ele>
        <time>2012-09-22T16:14:14Z</time>
      </trkpt>
      <trkpt lat="45.13168" lon="4.06935">
        <ele>896.3</ele>
        <time>2012-09-22T16:14:15Z</time>
      </trkpt>
      <trkpt lat="45.13173" lon="4.06933">
        <ele>896.2</ele>
        <time>2012-09-22T16:14:16Z</time>
      </trkpt>
      <trkpt lat="45.13178" lon="4.06932">
        <ele>896</ele>
        <time>2012-09-22T16:14:17Z</time>
      </trkpt>
      <trkpt lat="45.13183" lon="4.06931">
        <ele>895.8</ele>
        <time>2012-09-22T16:14:18Z</time>
      </trkpt>
      <trkpt lat="45.13188" lon="4.06929">
        <ele>-6.1E-5</ele>
        <time>2012-09-22T16:14:19Z</time>
      </trkpt>
      <trkpt lat="45.13192" lon="4.06928">
        <ele>-6.1E-5</ele>
        <time>2012-09-22T16:14:20Z</time>
      </trkpt>
      <trkpt lat="45.13197" lon="4.06926">
        <ele>895.4</ele>
        <time>2012-09-22T16:14:21Z</time>
      </trkpt>
      <trkpt lat="45.13202" lon="4.06925">
        <ele>895.4</ele>
        <time>2012-09-22T16:14:22Z</time>
      </trkpt>
      <trkpt lat="45.13207" lon="4.06923">
        <ele>895.4</ele>
        <time>2012-09-22T16:14:23Z</time>
      </trkpt>
      <trkpt lat="45.13212" lon="4.06922">
        <ele>895.4</ele>
        <time>2012-09-22T16:14:24Z</time>
      </trkpt>
      <trkpt lat="45.13217" lon="4.0692">
        <ele>895.6</ele>
        <time>2012-09-22T16:14:25Z</time>
      </trkpt>
      <trkpt lat="45.13221" lon="4.06919">
        <ele>895.6</ele>
        <time>2012-09-22T16:14:26Z</time>
      </trkpt>
      <trkpt lat="45.13226" lon="4.06917">
        <ele>895.6</ele>
        <time>2012-09-22T16:14:27Z</time>
      </trkpt>
      <trkpt lat="45.13231" lon="4.06916">
        <ele>-6.1E-5</ele>
        <time>2012-09-22T16:14:28Z</time>
      </trkpt>
      <trkpt lat="45.13236" lon="4.06914">
        <ele>895.3</ele>
        <time>2012-09-22T16:14:29Z</time>
      </trkpt>
      <trkpt lat="45.13241" lon="4.06913">
        <ele>895.2</ele>
        <time>2012-09-22T16:14:30Z</time>
      </trkpt>
      <trkpt lat="45.13246" lon="4.06912">
        <ele>895</ele>
        <time>2012-09-22T16:14:31Z</time>
      </trkpt>
      <trkpt lat="45.13251" lon="4.06911">
        <ele>894.8</ele>
        <time>2012-09-22T16:14:32Z</time>
      </trkpt>
      <trkpt lat="45.13257" lon="4.0691">
        <ele>894.7</ele>
        <time>2012-09-22T16:14:33Z</time>
      </trkpt>
      <trkpt lat="45.13262" lon="4.0691">
        <ele>894.5</ele>
        <time>2012-09-22T16:14:34Z</time>
      </trkpt>
      <trkpt lat="45.13268" lon="4.0691">
        <ele>894.3</ele>
        <time>2012-09-22T16:14:35Z</time>
      </trkpt>
      <trkpt lat="45.13274" lon="4.0691">
        <ele>894.1</ele>
        <time>2012-09-22T16:14:36Z</time>
      </trkpt>
      <trkpt lat="45.1328" lon="4.06911">
        <ele>893.9</ele>
        <time>2012-09-22T16:14:37Z</time>
      </trkpt>
      <trkpt lat="45.13285" lon="4.06911">
        <ele>893.8</ele>
        <time>2012-09-22T16:14:38Z</time>
      </trkpt>
      <trkpt lat="45.13291" lon="4.06911">
        <ele>893.7</ele>
        <time>2012-09-22T16:14:39Z</time>
      </trkpt>
      <trkpt lat="45.13297" lon="4.06912">
        <ele>893.6</ele>
        <time>2012-09-22T16:14:40Z</time>
      </trkpt>
      <trkpt lat="45.13302" lon="4.06913">
        <ele>893.4</ele>
        <time>2012-09-22T16:14:41Z</time>
      </trkpt>
      <trkpt lat="45.13308" lon="4.06914">
        <ele>-6.1E-5</ele>
        <time>2012-09-22T16:14:42Z</time>
      </trkpt>
      <trkpt lat="45.13314" lon="4.06915">
        <ele>893.5</ele>
        <time>2012-09-22T16:14:43Z</time>
      </trkpt>
      <trkpt lat="45.13319" lon="4.06915">
        <ele>-6.1E-5</ele>
        <time>2012-09-22T16:14:44Z</time>
      </trkpt>
      <trkpt lat="45.13324" lon="4.06916">
        <ele>893.8</ele>
        <time>2012-09-22T16:14:45Z</time>
      </trkpt>
      <trkpt lat="45.1333" lon="4.06917">
        <ele>893.9</ele>
        <time>2012-09-22T16:14:46Z</time>
      </trkpt>
      <trkpt lat="45.13335" lon="4.06917">
        <ele>893.9</ele>
        <time>2012-09-22T16:14:47Z</time>
      </trkpt>
      <trkpt lat="45.13341" lon="4.06918">
        <ele>893.8</ele>
        <time>2012-09-22T16:14:48Z</time>
      </trkpt>
      <trkpt lat="45.13346" lon="4.06918">
        <ele>893.8</ele>
        <time>2012-09-22T16:14:49Z</time>
      </trkpt>
      <trkpt lat="45.13351" lon="4.06919">
        <ele>893.6</ele>
        <time>2012-09-22T16:14:50Z</time>
      </trkpt>
      <trkpt lat="45.13357" lon="4.0692">
        <ele>893.5</ele>
        <time>2012-09-22T16:14:51Z</time>
      </trkpt>
      <trkpt lat="45.13362" lon="4.06921">
        <ele>893.4</ele>
        <time>2012-09-22T16:14:52Z</time>
      </trkpt>
      <trkpt lat="45.13368" lon="4.06921">
        <ele>893.3</ele>
        <time>2012-09-22T16:14:53Z</time>
      </trkpt>
      <trkpt lat="45.13373" lon="4.06922">
        <ele>893.2</ele>
        <time>2012-09-22T16:14:54Z</time>
      </trkpt>
      <trkpt lat="45.13379" lon="4.06923">
        <ele>893.1</ele>
        <time>2012-09-22T16:14:55Z</time>
      </trkpt>
      <trkpt lat="45.13385" lon="4.06924">
        <ele>892.9</ele>
        <time>2012-09-22T16:14:56Z</time>
      </trkpt>
      <trkpt lat="45.1339" lon="4.06925">
        <ele>892.8</ele>
        <time>2012-09-22T16:14:57Z</time>
      </trkpt>
      <trkpt lat="45.13396" lon="4.06926">
        <ele>-6.1E-5</ele>
        <time>2012-09-22T16:14:58Z</time>
      </trkpt>
      <trkpt lat="45.13401" lon="4.06927">
        <ele>892.9</ele>
        <time>2012-09-22T16:14:59Z</time>
      </trkpt>
      <trkpt lat="45.13407" lon="4.06927">
        <ele>893</ele>
        <time>2012-09-22T16:15:00Z</time>
      </trkpt>
      <trkpt lat="45.13412" lon="4.06928">
        <ele>893.1</ele>
        <time>2012-09-22T16:15:01Z</time>
      </trkpt>
      <trkpt lat="45.13418" lon="4.06929">
        <ele>893.1</ele>
        <time>2012-09-22T16:15:02Z</time>
      </trkpt>
      <trkpt lat="45.13423" lon="4.06929">
        <ele>893</ele>
        <time>2012-09-22T16:15:03Z</time>
      </trkpt>
      <trkpt lat="45.13428" lon="4.0693">
        <ele>892.9</ele>
        <time>2012-09-22T16:15:04Z</time>
      </trkpt>
      <trkpt lat="45.13434" lon="4.06929">
        <ele>892.8</ele>
        <time>2012-09-22T16:15:05Z</time>
      </trkpt>
      <trkpt lat="45.13439" lon="4.06929">
        <ele>-6.1E-5</ele>
        <time>2012-09-22T16:15:06Z</time>
      </trkpt>
      <trkpt lat="45.13445" lon="4.06928">
        <ele>892.8</ele>
        <time>2012-09-22T16:15:07Z</time>
      </trkpt>
      <trkpt lat="45.1345" lon="4.06927">
        <ele>892.6</ele>
        <time>2012-09-22T16:15:08Z</time>
      </trkpt>
      <trkpt lat="45.13456" lon="4.06926">
        <ele>892.4</ele>
        <time>2012-09-22T16:15:09Z</time>
      </trkpt>
      <trkpt lat="45.13462" lon="4.06926">
        <ele>892.2</ele>
        <time>2012-09-22T16:15:10Z</time>
      </trkpt>
      <trkpt lat="45.13467" lon="4.06925">
        <ele>892</ele>
        <time>2012-09-22T16:15:11Z</time>
      </trkpt>
      <trkpt lat="45.13473" lon="4.06924">
        <ele>891.9</ele>
        <time>2012-09-22T16:15:12Z</time>
      </trkpt>
      <trkpt lat="45.13478" lon="4.06923">
        <ele>891.7</ele>
        <time>2012-09-22T16:15:13Z</time>
      </trkpt>
      <trkpt lat="45.13484" lon="4.06922">
        <ele>-6.1E-5</ele>
        <time>2012-09-22T16:15:14Z</time>
      </trkpt>
      <trkpt lat="45.13489" lon="4.0692">
        <ele>891.4</ele>
        <time>2012-09-22T16:15:15Z</time>
      </trkpt>
      <trkpt lat="45.13495" lon="4.06919">
        <ele>891.1</ele>
        <time>2012-09-22T16:15:16Z</time>
      </trkpt>
      <trkpt lat="45.13501" lon="4.06918">
        <ele>890.9</ele>
        <time>2012-09-22T16:15:17Z</time>
      </trkpt>
      <trkpt lat="45.13507" lon="4.06917">
        <ele>891</ele>
        <time>2012-09-22T16:15:18Z</time>
      </trkpt>
      <trkpt lat="45.13513" lon="4.06916">
        <ele>891.1</ele>
        <time>2012-09-22T16:15:19Z</time>
      </trkpt>
      <trkpt lat="45.13519" lon="4.06915">
        <ele>-6.1E-5</ele>
        <time>2012-09-22T16:15:20Z</time>
      </trkpt>
      <trkpt lat="45.13525" lon="4.06914">
        <ele>-6.1E-5</ele>
        <time>2012-09-22T16:15:21Z</time>
      </trkpt>
      <trkpt lat="45.1353" lon="4.06912">
        <ele>891.5</ele>
        <time>2012-09-22T16:15:22Z</time>
      </trkpt>
      <trkpt lat="45.13536" lon="4.0691">
        <ele>891.5</ele>
        <time>2012-09-22T16:15:23Z</time>
      </trkpt>
      <trkpt lat="45.13541" lon="4.06909">
        <ele>891.5</ele>
        <time>2012-09-22T16:15:24Z</time>
      </trkpt>
      <trkpt lat="45.13547" lon="4.06907">
        <ele>891.5</ele>
        <time>2012-09-22T16:15:25Z</time>
      </trkpt>
      <trkpt lat="45.13552" lon="4.06904">
        <ele>891.5</ele>
        <time>2012-09-22T16:15:26Z</time>
      </trkpt>
      <trkpt lat="45.13558" lon="4.06902">
        <ele>-6.1E-5</ele>
        <time>2012-09-22T16:15:27Z</time>
      </trkpt>
      <trkpt lat="45.13563" lon="4.069">
        <ele>891.3</ele>
        <time>2012-09-22T16:15:28Z</time>
      </trkpt>
      <trkpt lat="45.13569" lon="4.06897">
        <ele>891.2</ele>
        <time>2012-09-22T16:15:29Z</time>
      </trkpt>
      <trkpt lat="45.13574" lon="4.06894">
        <ele>891.1</ele>
        <time>2012-09-22T16:15:30Z</time>
      </trkpt>
      <trkpt lat="45.1358" lon="4.06891">
        <ele>-6.1E-5</ele>
        <time>2012-09-22T16:15:31Z</time>
      </trkpt>
      <trkpt lat="45.13585" lon="4.06888">
        <ele>890.9</ele>
        <time>2012-09-22T16:15:32Z</time>
      </trkpt>
      <trkpt lat="45.13591" lon="4.06885">
        <ele>890.6</ele>
        <time>2012-09-22T16:15:33Z</time>
      </trkpt>
      <trkpt lat="45.13597" lon="4.06882">
        <ele>890.4</ele>
        <time>2012-09-22T16:15:34Z</time>
      </trkpt>
      <trkpt lat="45.13603" lon="4.06878">
        <ele>890.2</ele>
        <time>2012-09-22T16:15:35Z</time>
      </trkpt>
      <trkpt lat="45.1361" lon="4.06875">
        <ele>890.1</ele>
        <time>2012-09-22T16:15:36Z</time>
      </trkpt>
      <trkpt lat="45.13616" lon="4.06871">
        <ele>889.9</ele>
        <time>2012-09-22T16:15:37Z</time>
      </trkpt>
      <trkpt lat="45.13622" lon="4.06868">
        <ele>889.7</ele>
        <time>2012-09-22T16:15:38Z</time>
      </trkpt>
      <trkpt lat="45.13629" lon="4.06866">
        <ele>889.4</ele>
        <time>2012-09-22T16:15:39Z</time>
      </trkpt>
      <trkpt lat="45.13635" lon="4.06863">
        <ele>889.1</ele>
        <time>2012-09-22T16:15:40Z</time>
      </trkpt>
      <trkpt lat="45.13642" lon="4.06861">
        <ele>-6.1E-5</ele>
        <time>2012-09-22T16:15:41Z</time>
      </trkpt>
      <trkpt lat="45.13648" lon="4.06859">
        <ele>889</ele>
        <time>2012-09-22T16:15:42Z</time>
      </trkpt>
      <trkpt lat="45.13655" lon="4.06857">
        <ele>-6.1E-5</ele>
        <time>2012-09-22T16:15:43Z</time>
      </trkpt>
      <trkpt lat="45.13661" lon="4.06854">
        <ele>889.2</ele>
        <time>2012-09-22T16:15:44Z</time>
      </trkpt>
      <trkpt lat="45.13667" lon="4.06852">
        <ele>889.3</ele>
        <time>2012-09-22T16:15:45Z</time>
      </trkpt>
      <trkpt lat="45.13673" lon="4.0685">
        <ele>-6.1E-5</ele>
        <time>2012-09-22T16:15:46Z</time>
      </trkpt>
      <trkpt lat="45.13679" lon="4.06848">
        <ele>889</ele>
        <time>2012-09-22T16:15:47Z</time>
      </trkpt>
      <trkpt lat="45.13685" lon="4.06845">
        <ele>888.9</ele>
        <time>2012-09-22T16:15:48Z</time>
      </trkpt>
      <trkpt lat="45.13692" lon="4.06843">
        <ele>888.8</ele>
        <time>2012-09-22T16:15:49Z</time>
      </trkpt>
      <trkpt lat="45.13698" lon="4.06841">
        <ele>888.6</ele>
        <time>2012-09-22T16:15:50Z</time>
      </trkpt>
      <trkpt lat="45.13704" lon="4.0684">
        <ele>888.4</ele>
        <time>2012-09-22T16:15:51Z</time>
      </trkpt>
      <trkpt lat="45.13711" lon="4.06838">
        <ele>888.2</ele>
        <time>2012-09-22T16:15:52Z</time>
      </trkpt>
      <trkpt lat="45.13717" lon="4.06836">
        <ele>888</ele>
        <time>2012-09-22T16:15:53Z</time>
      </trkpt>
      <trkpt lat="45.13724" lon="4.06834">
        <ele>887.8</ele>
        <time>2012-09-22T16:15:54Z</time>
      </trkpt>
      <trkpt lat="45.1373" lon="4.06833">
        <ele>887.9</ele>
        <time>2012-09-22T16:15:55Z</time>
      </trkpt>
      <trkpt lat="45.13737" lon="4.06831">
        <ele>887.9</ele>
        <time>2012-09-22T16:15:56Z</time>
      </trkpt>
      <trkpt lat="45.13744" lon="4.06829">
        <ele>888</ele>
        <time>2012-09-22T16:15:57Z</time>
      </trkpt>
      <trkpt lat="45.13751" lon="4.06828">
        <ele>887.9</ele>
        <time>2012-09-22T16:15:58Z</time>
      </trkpt>
      <trkpt lat="45.13758" lon="4.06827">
        <ele>887.7</ele>
        <time>2012-09-22T16:15:59Z</time>
      </trkpt>
      <trkpt lat="45.13764" lon="4.06827">
        <ele>887.4</ele>
        <time>2012-09-22T16:16:00Z</time>
      </trkpt>
      <trkpt lat="45.13771" lon="4.06827">
        <ele>-6.1E-5</ele>
        <time>2012-09-22T16:16:01Z</time>
      </trkpt>
      <trkpt lat="45.13778" lon="4.06827">
        <ele>886.6</ele>
        <time>2012-09-22T16:16:02Z</time>
      </trkpt>
      <trkpt lat="45.13785" lon="4.06828">
        <ele>886.3</ele>
        <time>2012-09-22T16:16:03Z</time>
      </trkpt>
      <trkpt lat="45.13792" lon="4.0683">
        <ele>885.9</ele>
        <time>2012-09-22T16:16:04Z</time>
      </trkpt>
      <trkpt lat="45.13799" lon="4.06832">
        <ele>885.4</ele>
        <time>2012-09-22T16:16:05Z</time>
      </trkpt>
      <trkpt lat="45.13806" lon="4.06835">
        <ele>884.8</ele>
        <time>2012-09-22T16:16:06Z</time>
      </trkpt>
      <trkpt lat="45.13813" lon="4.06838">
        <ele>884.7</ele>
        <time>2012-09-22T16:16:07Z</time>
      </trkpt>
      <trkpt lat="45.13819" lon="4.06842">
        <ele>-6.1E-5</ele>
        <time>2012-09-22T16:16:08Z</time>
      </trkpt>
      <trkpt lat="45.13826" lon="4.06847">
        <ele>884.8</ele>
        <time>2012-09-22T16:16:09Z</time>
      </trkpt>
      <trkpt lat="45.13832" lon="4.06851">
        <ele>885.2</ele>
        <time>2012-09-22T16:16:10Z</time>
      </trkpt>
      <trkpt lat="45.13838" lon="4.06856">
        <ele>885.8</ele>
        <time>2012-09-22T16:16:11Z</time>
      </trkpt>
      <trkpt lat="45.13844" lon="4.06861">
        <ele>886.2</ele>
        <time>2012-09-22T16:16:12Z</time>
      </trkpt>
      <trkpt lat="45.1385" lon="4.06866">
        <ele>886.4</ele>
        <time>2012-09-22T16:16:13Z</time>
      </trkpt>
      <trkpt lat="45.13855" lon="4.06871">
        <ele>886.6</ele>
        <time>2012-09-22T16:16:14Z</time>
      </trkpt>
      <trkpt lat="45.1386" lon="4.06877">
        <ele>886.7</ele>
        <time>2012-09-22T16:16:15Z</time>
      </trkpt>
      <trkpt lat="45.13864" lon="4.06884">
        <ele>886.9</ele>
        <time>2012-09-22T16:16:16Z</time>
      </trkpt>
      <trkpt lat="45.13868" lon="4.06891">
        <ele>-6.1E-5</ele>
        <time>2012-09-22T16:16:17Z</time>
      </trkpt>
      <trkpt lat="45.13871" lon="4.06898">
        <ele>-6.1E-5</ele>
        <time>2012-09-22T16:16:18Z</time>
      </trkpt>
      <trkpt lat="45.13874" lon="4.06905">
        <ele>886.9</ele>
        <time>2012-09-22T16:16:19Z</time>
      </trkpt>
      <trkpt lat="45.13876" lon="4.06912">
        <ele>886.6</ele>
        <time>2012-09-22T16:16:20Z</time>
      </trkpt>
      <trkpt lat="45.13877" lon="4.0692">
        <ele>886.5</ele>
        <time>2012-09-22T16:16:21Z</time>
      </trkpt>
      <trkpt lat="45.13879" lon="4.06927">
        <ele>886.5</ele>
        <time>2012-09-22T16:16:22Z</time>
      </trkpt>
      <trkpt lat="45.13881" lon="4.06935">
        <ele>886.5</ele>
        <time>2012-09-22T16:16:23Z</time>
      </trkpt>
      <trkpt lat="45.13882" lon="4.06942">
        <ele>-6.1E-5</ele>
        <time>2012-09-22T16:16:24Z</time>
      </trkpt>
      <trkpt lat="45.13884" lon="4.06949">
        <ele>886.4</ele>
        <time>2012-09-22T16:16:25Z</time>
      </trkpt>
      <trkpt lat="45.13886" lon="4.06956">
        <ele>886.1</ele>
        <time>2012-09-22T16:16:26Z</time>
      </trkpt>
      <trkpt lat="45.13888" lon="4.06963">
        <ele>885.8</ele>
        <time>2012-09-22T16:16:27Z</time>
      </trkpt>
      <trkpt lat="45.1389" lon="4.06971">
        <ele>885.6</ele>
        <time>2012-09-22T16:16:28Z</time>
      </trkpt>
      <trkpt lat="45.13892" lon="4.06978">
        <ele>885.9</ele>
        <time>2012-09-22T16:16:29Z</time>
      </trkpt>
      <trkpt lat="45.13894" lon="4.06985">
        <ele>886.2</ele>
        <time>2012-09-22T16:16:30Z</time>
      </trkpt>
      <trkpt lat="45.13896" lon="4.06992">
        <ele>886.4</ele>
        <time>2012-09-22T16:16:31Z</time>
      </trkpt>
      <trkpt lat="45.13898" lon="4.06999">
        <ele>886.5</ele>
        <time>2012-09-22T16:16:32Z</time>
      </trkpt>
      <trkpt lat="45.13899" lon="4.07006">
        <ele>886.5</ele>
        <time>2012-09-22T16:16:33Z</time>
      </trkpt>
      <trkpt lat="45.13901" lon="4.07014">
        <ele>886.4</ele>
        <time>2012-09-22T16:16:34Z</time>
      </trkpt>
      <trkpt lat="45.13902" lon="4.07021">
        <ele>886.3</ele>
        <time>2012-09-22T16:16:35Z</time>
      </trkpt>
      <trkpt lat="45.13903" lon="4.07028">
        <ele>886.1</ele>
        <time>2012-09-22T16:16:36Z</time>
      </trkpt>
      <trkpt lat="45.13905" lon="4.07035">
        <ele>885.8</ele>
        <time>2012-09-22T16:16:37Z</time>
      </trkpt>
      <trkpt lat="45.13907" lon="4.07042">
        <ele>885.5</ele>
        <time>2012-09-22T16:16:38Z</time>
      </trkpt>
      <trkpt lat="45.13909" lon="4.07049">
        <ele>885.3</ele>
        <time>2012-09-22T16:16:39Z</time>
      </trkpt>
      <trkpt lat="45.13912" lon="4.07055">
        <ele>885.2</ele>
        <time>2012-09-22T16:16:40Z</time>
      </trkpt>
      <trkpt lat="45.13916" lon="4.07062">
        <ele>-6.1E-5</ele>
        <time>2012-09-22T16:16:41Z</time>
      </trkpt>
      <trkpt lat="45.13919" lon="4.07068">
        <ele>-6.1E-5</ele>
        <time>2012-09-22T16:16:42Z</time>
      </trkpt>
      <trkpt lat="45.13922" lon="4.07073">
        <ele>884.7</ele>
        <time>2012-09-22T16:16:43Z</time>
      </trkpt>
      <trkpt lat="45.13926" lon="4.07079">
        <ele>884.7</ele>
        <time>2012-09-22T16:16:44Z</time>
      </trkpt>
      <trkpt lat="45.1393" lon="4.07084">
        <ele>884.8</ele>
        <time>2012-09-22T16:16:45Z</time>
      </trkpt>
      <trkpt lat="45.13934" lon="4.0709">
        <ele>885</ele>
        <time>2012-09-22T16:16:46Z</time>
      </trkpt>
      <trkpt lat="45.13938" lon="4.07095">
        <ele>-6.1E-5</ele>
        <time>2012-09-22T16:16:47Z</time>
      </trkpt>
      <trkpt lat="45.13942" lon="4.071">
        <ele>-6.1E-5</ele>
        <time>2012-09-22T16:16:48Z</time>
      </trkpt>
      <trkpt lat="45.13946" lon="4.07105">
        <ele>885.2</ele>
        <time>2012-09-22T16:16:49Z</time>
      </trkpt>
      <trkpt lat="45.1395" lon="4.0711">
        <ele>885.1</ele>
        <time>2012-09-22T16:16:50Z</time>
      </trkpt>
      <trkpt lat="45.13955" lon="4.07115">
        <ele>885</ele>
        <time>2012-09-22T16:16:51Z</time>
      </trkpt>
      <trkpt lat="45.13959" lon="4.0712">
        <ele>884.8</ele>
        <time>2012-09-22T16:16:52Z</time>
      </trkpt>
      <trkpt lat="45.13963" lon="4.07125">
        <ele>884.7</ele>
        <time>2012-09-22T16:16:53Z</time>
      </trkpt>
      <trkpt lat="45.13968" lon="4.0713">
        <ele>884.6</ele>
        <time>2012-09-22T16:16:54Z</time>
      </trkpt>
      <trkpt lat="45.13972" lon="4.07135">
        <ele>884.6</ele>
        <time>2012-09-22T16:16:55Z</time>
      </trkpt>
      <trkpt lat="45.13977" lon="4.0714">
        <ele>884.4</ele>
        <time>2012-09-22T16:16:56Z</time>
      </trkpt>
      <trkpt lat="45.13982" lon="4.07145">
        <ele>-6.1E-5</ele>
        <time>2012-09-22T16:16:57Z</time>
      </trkpt>
      <trkpt lat="45.13986" lon="4.0715">
        <ele>884.3</ele>
        <time>2012-09-22T16:16:58Z</time>
      </trkpt>
      <trkpt lat="45.1399" lon="4.07155">
        <ele>884.2</ele>
        <time>2012-09-22T16:16:59Z</time>
      </trkpt>
      <trkpt lat="45.13993" lon="4.0716">
        <ele>883.9</ele>
        <time>2012-09-22T16:17:00Z</time>
      </trkpt>
      <trkpt lat="45.13996" lon="4.07166">
        <ele>883.6</ele>
        <time>2012-09-22T16:17:01Z</time>
      </trkpt>
      <trkpt lat="45.13998" lon="4.07172">
        <ele>883</ele>
        <time>2012-09-22T16:17:02Z</time>
      </trkpt>
      <trkpt lat="45.14001" lon="4.07179">
        <ele>882.3</ele>
        <time>2012-09-22T16:17:03Z</time>
      </trkpt>
      <trkpt lat="45.14003" lon="4.07186">
        <ele>881.6</ele>
        <time>2012-09-22T16:17:04Z</time>
      </trkpt>
      <trkpt lat="45.14007" lon="4.07194">
        <ele>880.8</ele>
        <time>2012-09-22T16:17:05Z</time>
      </trkpt>
      <trkpt lat="45.1401" lon="4.07203">
        <ele>880.4</ele>
        <time>2012-09-22T16:17:06Z</time>
      </trkpt>
      <trkpt lat="45.14013" lon="4.07212">
        <ele>879.8</ele>
        <time>2012-09-22T16:17:07Z</time>
      </trkpt>
      <trkpt lat="45.14014" lon="4.07222">
        <ele>879.1</ele>
        <time>2012-09-22T16:17:08Z</time>
      </trkpt>
      <trkpt lat="45.14015" lon="4.07232">
        <ele>-6.1E-5</ele>
        <time>2012-09-22T16:17:09Z</time>
      </trkpt>
      <trkpt lat="45.14015" lon="4.07243">
        <ele>877.6</ele>
        <time>2012-09-22T16:17:10Z</time>
      </trkpt>
      <trkpt lat="45.14014" lon="4.07253">
        <ele>877</ele>
        <time>2012-09-22T16:17:11Z</time>
      </trkpt>
      <trkpt lat="45.14013" lon="4.07264">
        <ele>876.9</ele>
        <time>2012-09-22T16:17:12Z</time>
      </trkpt>
      <trkpt lat="45.14012" lon="4.07275">
        <ele>-6.1E-5</ele>
        <time>2012-09-22T16:17:13Z</time>
      </trkpt>
      <trkpt lat="45.1401" lon="4.07286">
        <ele>876.5</ele>
        <time>2012-09-22T16:17:14Z</time>
      </trkpt>
      <trkpt lat="45.14009" lon="4.07296">
        <ele>876.3</ele>
        <time>2012-09-22T16:17:15Z</time>
      </trkpt>
      <trkpt lat="45.14008" lon="4.07305">
        <ele>876.1</ele>
        <time>2012-09-22T16:17:16Z</time>
      </trkpt>
      <trkpt lat="45.14007" lon="4.07312">
        <ele>-6.1E-5</ele>
        <time>2012-09-22T16:17:17Z</time>
      </trkpt>
      <trkpt lat="45.14007" lon="4.07319">
        <ele>876.8</ele>
        <time>2012-09-22T16:17:18Z</time>
      </trkpt>
      <trkpt lat="45.14008" lon="4.07329">
        <ele>877.6</ele>
        <time>2012-09-22T16:17:20Z</time>
      </trkpt>
      <trkpt lat="45.14009" lon="4.07335">
        <ele>878</ele>
        <time>2012-09-22T16:17:23Z</time>
      </trkpt>
      <trkpt lat="45.14004" lon="4.07341">
        <ele>877.5</ele>
        <time>2012-09-22T16:17:26Z</time>
      </trkpt>
      <trkpt lat="45.14" lon="4.07346">
        <ele>877</ele>
        <time>2012-09-22T16:17:28Z</time>
      </trkpt>
      <trkpt lat="45.13996" lon="4.07352">
        <ele>876.7</ele>
        <time>2012-09-22T16:17:30Z</time>
      </trkpt>
      <trkpt lat="45.13991" lon="4.07358">
        <ele>876.4</ele>
        <time>2012-09-22T16:17:32Z</time>
      </trkpt>
      <trkpt lat="45.13986" lon="4.07364">
        <ele>876</ele>
        <time>2012-09-22T16:17:34Z</time>
      </trkpt>
      <trkpt lat="45.13982" lon="4.07371">
        <ele>-6.1E-5</ele>
        <time>2012-09-22T16:17:36Z</time>
      </trkpt>
      <trkpt lat="45.13977" lon="4.07375">
        <ele>874.9</ele>
        <time>2012-09-22T16:17:38Z</time>
      </trkpt>
      <trkpt lat="45.13972" lon="4.07375">
        <ele>874.4</ele>
        <time>2012-09-22T16:17:40Z</time>
      </trkpt>
      <trkpt lat="45.13964" lon="4.07373">
        <ele>873.9</ele>
        <time>2012-09-22T16:17:42Z</time>
      </trkpt>
      <trkpt lat="45.1396" lon="4.07371">
        <ele>873.5</ele>
        <time>2012-09-22T16:17:43Z</time>
      </trkpt>
      <trkpt lat="45.13955" lon="4.0737">
        <ele>873</ele>
        <time>2012-09-22T16:17:44Z</time>
      </trkpt>
      <trkpt lat="45.13951" lon="4.07368">
        <ele>872.6</ele>
        <time>2012-09-22T16:17:45Z</time>
      </trkpt>
      <trkpt lat="45.13946" lon="4.07367">
        <ele>872.2</ele>
        <time>2012-09-22T16:17:46Z</time>
      </trkpt>
      <trkpt lat="45.13942" lon="4.07365">
        <ele>-6.1E-5</ele>
        <time>2012-09-22T16:17:47Z</time>
      </trkpt>
      <trkpt lat="45.13937" lon="4.07363">
        <ele>871.2</ele>
        <time>2012-09-22T16:17:48Z</time>
      </trkpt>
      <trkpt lat="45.13932" lon="4.0736">
        <ele>870.7</ele>
        <time>2012-09-22T16:17:49Z</time>
      </trkpt>
      <trkpt lat="45.13928" lon="4.07357">
        <ele>-6.1E-5</ele>
        <time>2012-09-22T16:17:50Z</time>
      </trkpt>
      <trkpt lat="45.13924" lon="4.07354">
        <ele>869.9</ele>
        <time>2012-09-22T16:17:51Z</time>
      </trkpt>
      <trkpt lat="45.1392" lon="4.0735">
        <ele>869.7</ele>
        <time>2012-09-22T16:17:52Z</time>
      </trkpt>
      <trkpt lat="45.13916" lon="4.07346">
        <ele>869.5</ele>
        <time>2012-09-22T16:17:53Z</time>
      </trkpt>
      <trkpt lat="45.13913" lon="4.07341">
        <ele>869.2</ele>
        <time>2012-09-22T16:17:54Z</time>
      </trkpt>
      <trkpt lat="45.13909" lon="4.07336">
        <ele>868.8</ele>
        <time>2012-09-22T16:17:55Z</time>
      </trkpt>
      <trkpt lat="45.13905" lon="4.0733">
        <ele>868.2</ele>
        <time>2012-09-22T16:17:56Z</time>
      </trkpt>
      <trkpt lat="45.13901" lon="4.07325">
        <ele>867.5</ele>
        <time>2012-09-22T16:17:57Z</time>
      </trkpt>
      <trkpt lat="45.13896" lon="4.0732">
        <ele>866.9</ele>
        <time>2012-09-22T16:17:58Z</time>
      </trkpt>
      <trkpt lat="45.13891" lon="4.07314">
        <ele>-6.1E-5</ele>
        <time>2012-09-22T16:17:59Z</time>
      </trkpt>
      <trkpt lat="45.13886" lon="4.07309">
        <ele>-6.1E-5</ele>
        <time>2012-09-22T16:18:00Z</time>
      </trkpt>
      <trkpt lat="45.1388" lon="4.07302">
        <ele>864.9</ele>
        <time>2012-09-22T16:18:01Z</time>
      </trkpt>
      <trkpt lat="45.13873" lon="4.07295">
        <ele>864.1</ele>
        <time>2012-09-22T16:18:02Z</time>
      </trkpt>
      <trkpt lat="45.13867" lon="4.07287">
        <ele>863.5</ele>
        <time>2012-09-22T16:18:03Z</time>
      </trkpt>
      <trkpt lat="45.13861" lon="4.07279">
        <ele>863</ele>
        <time>2012-09-22T16:18:04Z</time>
      </trkpt>
      <trkpt lat="45.13857" lon="4.0727">
        <ele>-6.1E-5</ele>
        <time>2012-09-22T16:18:05Z</time>
      </trkpt>
      <trkpt lat="45.13853" lon="4.0726">
        <ele>862.4</ele>
        <time>2012-09-22T16:18:06Z</time>
      </trkpt>
      <trkpt lat="45.1385" lon="4.07249">
        <ele>862.2</ele>
        <time>2012-09-22T16:18:07Z</time>
      </trkpt>
      <trkpt lat="45.13849" lon="4.07239">
        <ele>-6.1E-5</ele>
        <time>2012-09-22T16:18:08Z</time>
      </trkpt>
      <trkpt lat="45.13849" lon="4.07229">
        <ele>-6.1E-5</ele>
        <time>2012-09-22T16:18:09Z</time>
      </trkpt>
      <trkpt lat="45.13848" lon="4.0722">
        <ele>862.6</ele>
        <time>2012-09-22T16:18:10Z</time>
      </trkpt>
      <trkpt lat="45.13847" lon="4.07211">
        <ele>862.5</ele>
        <time>2012-09-22T16:18:11Z</time>
      </trkpt>
      <trkpt lat="45.13846" lon="4.07203">
        <ele>862.4</ele>
        <time>2012-09-22T16:18:12Z</time>
      </trkpt>
      <trkpt lat="45.13844" lon="4.07196">
        <ele>862.1</ele>
        <time>2012-09-22T16:18:13Z</time>
      </trkpt>
      <trkpt lat="45.13841" lon="4.0719">
        <ele>862.1</ele>
        <time>2012-09-22T16:18:14Z</time>
      </trkpt>
      <trkpt lat="45.13837" lon="4.07185">
        <ele>862.1</ele>
        <time>2012-09-22T16:18:15Z</time>
      </trkpt>
      <trkpt lat="45.13832" lon="4.07179">
        <ele>862</ele>
        <time>2012-09-22T16:18:16Z</time>
      </trkpt>
      <trkpt lat="45.13828" lon="4.07175">
        <ele>861.9</ele>
        <time>2012-09-22T16:18:17Z</time>
      </trkpt>
      <trkpt lat="45.13823" lon="4.0717">
        <ele>861.6</ele>
        <time>2012-09-22T16:18:18Z</time>
      </trkpt>
      <trkpt lat="45.13818" lon="4.07167">
        <ele>861.3</ele>
        <time>2012-09-22T16:18:19Z</time>
      </trkpt>
      <trkpt lat="45.13813" lon="4.07164">
        <ele>-6.1E-5</ele>
        <time>2012-09-22T16:18:20Z</time>
      </trkpt>
      <trkpt lat="45.13808" lon="4.0716">
        <ele>860.9</ele>
        <time>2012-09-22T16:18:21Z</time>
      </trkpt>
      <trkpt lat="45.13803" lon="4.07157">
        <ele>860.9</ele>
        <time>2012-09-22T16:18:22Z</time>
      </trkpt>
      <trkpt lat="45.13797" lon="4.07154">
        <ele>860.9</ele>
        <time>2012-09-22T16:18:23Z</time>
      </trkpt>
      <trkpt lat="45.13792" lon="4.07151">
        <ele>-6.1E-5</ele>
        <time>2012-09-22T16:18:24Z</time>
      </trkpt>
      <trkpt lat="45.13787" lon="4.07148">
        <ele>860.9</ele>
        <time>2012-09-22T16:18:25Z</time>
      </trkpt>
      <trkpt lat="45.13782" lon="4.07145">
        <ele>860.8</ele>
        <time>2012-09-22T16:18:26Z</time>
      </trkpt>
      <trkpt lat="45.13778" lon="4.07142">
        <ele>860.8</ele>
        <time>2012-09-22T16:18:27Z</time>
      </trkpt>
      <trkpt lat="45.13773" lon="4.07139">
        <ele>-6.1E-5</ele>
        <time>2012-09-22T16:18:28Z</time>
      </trkpt>
      <trkpt lat="45.13768" lon="4.07137">
        <ele>860.8</ele>
        <time>2012-09-22T16:18:29Z</time>
      </trkpt>
      <trkpt lat="45.13764" lon="4.07134">
        <ele>860.7</ele>
        <time>2012-09-22T16:18:30Z</time>
      </trkpt>
      <trkpt lat="45.13759" lon="4.07132">
        <ele>860.7</ele>
        <time>2012-09-22T16:18:31Z</time>
      </trkpt>
      <trkpt lat="45.13754" lon="4.07129">
        <ele>860.6</ele>
        <time>2012-09-22T16:18:32Z</time>
      </trkpt>
      <trkpt lat="45.13749" lon="4.07126">
        <ele>860.4</ele>
        <time>2012-09-22T16:18:33Z</time>
      </trkpt>
      <trkpt lat="45.13745" lon="4.07124">
        <ele>860.4</ele>
        <time>2012-09-22T16:18:34Z</time>
      </trkpt>
      <trkpt lat="45.1374" lon="4.07121">
        <ele>860.3</ele>
        <time>2012-09-22T16:18:35Z</time>
      </trkpt>
      <trkpt lat="45.13735" lon="4.0712">
        <ele>860.1</ele>
        <time>2012-09-22T16:18:36Z</time>
      </trkpt>
      <trkpt lat="45.1373" lon="4.07119">
        <ele>-6.1E-5</ele>
        <time>2012-09-22T16:18:37Z</time>
      </trkpt>
      <trkpt lat="45.13725" lon="4.07119">
        <ele>-6.1E-5</ele>
        <time>2012-09-22T16:18:38Z</time>
      </trkpt>
      <trkpt lat="45.13719" lon="4.07119">
        <ele>859.9</ele>
        <time>2012-09-22T16:18:39Z</time>
      </trkpt>
      <trkpt lat="45.13714" lon="4.07119">
        <ele>860.3</ele>
        <time>2012-09-22T16:18:40Z</time>
      </trkpt>
      <trkpt lat="45.1371" lon="4.07119">
        <ele>860.6</ele>
        <time>2012-09-22T16:18:41Z</time>
      </trkpt>
      <trkpt lat="45.13702" lon="4.07119">
        <ele>861.2</ele>
        <time>2012-09-22T16:18:43Z</time>
      </trkpt>
      <trkpt lat="45.13695" lon="4.07118">
        <ele>861.7</ele>
        <time>2012-09-22T16:18:45Z</time>
      </trkpt>
      <trkpt lat="45.1369" lon="4.07118">
        <ele>862.1</ele>
        <time>2012-09-22T16:18:47Z</time>
      </trkpt>
      <trkpt lat="45.13685" lon="4.07117">
        <ele>862.5</ele>
        <time>2012-09-22T16:18:49Z</time>
      </trkpt>
      <trkpt lat="45.13679" lon="4.07116">
        <ele>862.9</ele>
        <time>2012-09-22T16:18:51Z</time>
      </trkpt>
      <trkpt lat="45.13674" lon="4.07114">
        <ele>863.4</ele>
        <time>2012-09-22T16:18:53Z</time>
      </trkpt>
      <trkpt lat="45.13669" lon="4.07112">
        <ele>863.8</ele>
        <time>2012-09-22T16:18:55Z</time>
      </trkpt>
      <trkpt lat="45.13663" lon="4.07109">
        <ele>864.3</ele>
        <time>2012-09-22T16:18:57Z</time>
      </trkpt>
      <trkpt lat="45.13658" lon="4.07108">
        <ele>864.8</ele>
        <time>2012-09-22T16:18:59Z</time>
      </trkpt>
      <trkpt lat="45.13652" lon="4.07107">
        <ele>-6.1E-5</ele>
        <time>2012-09-22T16:19:01Z</time>
      </trkpt>
      <trkpt lat="45.13647" lon="4.07107">
        <ele>-6.1E-5</ele>
        <time>2012-09-22T16:19:03Z</time>
      </trkpt>
      <trkpt lat="45.13642" lon="4.07108">
        <ele>865.9</ele>
        <time>2012-09-22T16:19:05Z</time>
      </trkpt>
      <trkpt lat="45.13637" lon="4.0711">
        <ele>866.2</ele>
        <time>2012-09-22T16:19:07Z</time>
      </trkpt>
      <trkpt lat="45.13632" lon="4.07111">
        <ele>866.5</ele>
        <time>2012-09-22T16:19:09Z</time>
      </trkpt>
      <trkpt lat="45.13627" lon="4.07113">
        <ele>866.8</ele>
        <time>2012-09-22T16:19:11Z</time>
      </trkpt>
      <trkpt lat="45.13622" lon="4.07115">
        <ele>867.1</ele>
        <time>2012-09-22T16:19:13Z</time>
      </trkpt>
      <trkpt lat="45.13617" lon="4.07117">
        <ele>867.4</ele>
        <time>2012-09-22T16:19:15Z</time>
      </trkpt>
      <trkpt lat="45.13612" lon="4.0712">
        <ele>867.6</ele>
        <time>2012-09-22T16:19:17Z</time>
      </trkpt>
      <trkpt lat="45.13607" lon="4.07122">
        <ele>867.6</ele>
        <time>2012-09-22T16:19:19Z</time>
      </trkpt>
      <trkpt lat="45.13601" lon="4.07124">
        <ele>867.5</ele>
        <time>2012-09-22T16:19:21Z</time>
      </trkpt>
      <trkpt lat="45.13596" lon="4.07126">
        <ele>867.4</ele>
        <time>2012-09-22T16:19:23Z</time>
      </trkpt>
      <trkpt lat="45.13591" lon="4.07128">
        <ele>867.4</ele>
        <time>2012-09-22T16:19:25Z</time>
      </trkpt>
      <trkpt lat="45.13586" lon="4.0713">
        <ele>867.3</ele>
        <time>2012-09-22T16:19:27Z</time>
      </trkpt>
      <trkpt lat="45.13581" lon="4.07132">
        <ele>867.3</ele>
        <time>2012-09-22T16:19:29Z</time>
      </trkpt>
      <trkpt lat="45.13576" lon="4.07133">
        <ele>867.5</ele>
        <time>2012-09-22T16:19:31Z</time>
      </trkpt>
      <trkpt lat="45.13571" lon="4.07134">
        <ele>867.6</ele>
        <time>2012-09-22T16:19:33Z</time>
      </trkpt>
      <trkpt lat="45.13566" lon="4.07136">
        <ele>867.8</ele>
        <time>2012-09-22T16:19:35Z</time>
      </trkpt>
      <trkpt lat="45.1356" lon="4.07137">
        <ele>867.9</ele>
        <time>2012-09-22T16:19:37Z</time>
      </trkpt>
      <trkpt lat="45.13555" lon="4.07138">
        <ele>868.1</ele>
        <time>2012-09-22T16:19:39Z</time>
      </trkpt>
      <trkpt lat="45.13549" lon="4.07138">
        <ele>868</ele>
        <time>2012-09-22T16:19:41Z</time>
      </trkpt>
      <trkpt lat="45.13543" lon="4.07138">
        <ele>868</ele>
        <time>2012-09-22T16:19:43Z</time>
      </trkpt>
      <trkpt lat="45.13537" lon="4.07139">
        <ele>868</ele>
        <time>2012-09-22T16:19:45Z</time>
      </trkpt>
      <trkpt lat="45.1353" lon="4.07139">
        <ele>868</ele>
        <time>2012-09-22T16:19:47Z</time>
      </trkpt>
      <trkpt lat="45.13523" lon="4.07137">
        <ele>868</ele>
        <time>2012-09-22T16:19:49Z</time>
      </trkpt>
      <trkpt lat="45.13516" lon="4.07135">
        <ele>868.1</ele>
        <time>2012-09-22T16:19:51Z</time>
      </trkpt>
      <trkpt lat="45.13509" lon="4.07135">
        <ele>868</ele>
        <time>2012-09-22T16:19:53Z</time>
      </trkpt>
      <trkpt lat="45.13502" lon="4.07137">
        <ele>868</ele>
        <time>2012-09-22T16:19:55Z</time>
      </trkpt>
      <trkpt lat="45.13495" lon="4.07139">
        <ele>868</ele>
        <time>2012-09-22T16:19:57Z</time>
      </trkpt>
      <trkpt lat="45.13488" lon="4.07141">
        <ele>-6.1E-5</ele>
        <time>2012-09-22T16:19:59Z</time>
      </trkpt>
      <trkpt lat="45.13481" lon="4.07143">
        <ele>-6.1E-5</ele>
        <time>2012-09-22T16:20:01Z</time>
      </trkpt>
      <trkpt lat="45.13473" lon="4.07145">
        <ele>867.8</ele>
        <time>2012-09-22T16:20:03Z</time>
      </trkpt>
      <trkpt lat="45.13465" lon="4.07147">
        <ele>868</ele>
        <time>2012-09-22T16:20:05Z</time>
      </trkpt>
      <trkpt lat="45.13458" lon="4.07149">
        <ele>868.2</ele>
        <time>2012-09-22T16:20:07Z</time>
      </trkpt>
      <trkpt lat="45.13451" lon="4.07152">
        <ele>868.3</ele>
        <time>2012-09-22T16:20:09Z</time>
      </trkpt>
      <trkpt lat="45.13444" lon="4.07154">
        <ele>868.5</ele>
        <time>2012-09-22T16:20:11Z</time>
      </trkpt>
      <trkpt lat="45.13437" lon="4.07157">
        <ele>868.6</ele>
        <time>2012-09-22T16:20:13Z</time>
      </trkpt>
      <trkpt lat="45.13431" lon="4.07161">
        <ele>868.7</ele>
        <time>2012-09-22T16:20:15Z</time>
      </trkpt>
      <trkpt lat="45.13425" lon="4.07164">
        <ele>868.8</ele>
        <time>2012-09-22T16:20:17Z</time>
      </trkpt>
      <trkpt lat="45.13419" lon="4.07166">
        <ele>869</ele>
        <time>2012-09-22T16:20:19Z</time>
      </trkpt>
      <trkpt lat="45.13412" lon="4.07167">
        <ele>869</ele>
        <time>2012-09-22T16:20:21Z</time>
      </trkpt>
      <trkpt lat="45.13404" lon="4.07168">
        <ele>868.9</ele>
        <time>2012-09-22T16:20:23Z</time>
      </trkpt>
      <trkpt lat="45.13397" lon="4.07169">
        <ele>868.9</ele>
        <time>2012-09-22T16:20:25Z</time>
      </trkpt>
      <trkpt lat="45.1339" lon="4.07169">
        <ele>868.8</ele>
        <time>2012-09-22T16:20:27Z</time>
      </trkpt>
      <trkpt lat="45.13382" lon="4.0717">
        <ele>868.8</ele>
        <time>2012-09-22T16:20:29Z</time>
      </trkpt>
      <trkpt lat="45.13375" lon="4.07169">
        <ele>868.8</ele>
        <time>2012-09-22T16:20:31Z</time>
      </trkpt>
      <trkpt lat="45.13367" lon="4.07168">
        <ele>868.9</ele>
        <time>2012-09-22T16:20:33Z</time>
      </trkpt>
      <trkpt lat="45.1336" lon="4.07167">
        <ele>868.9</ele>
        <time>2012-09-22T16:20:35Z</time>
      </trkpt>
      <trkpt lat="45.13353" lon="4.07166">
        <ele>-6.1E-5</ele>
        <time>2012-09-22T16:20:37Z</time>
      </trkpt>
      <trkpt lat="45.13345" lon="4.07165">
        <ele>868.5</ele>
        <time>2012-09-22T16:20:39Z</time>
      </trkpt>
      <trkpt lat="45.13337" lon="4.07165">
        <ele>868.3</ele>
        <time>2012-09-22T16:20:41Z</time>
      </trkpt>
      <trkpt lat="45.13329" lon="4.07164">
        <ele>868.2</ele>
        <time>2012-09-22T16:20:43Z</time>
      </trkpt>
      <trkpt lat="45.13321" lon="4.07163">
        <ele>868.2</ele>
        <time>2012-09-22T16:20:45Z</time>
      </trkpt>
      <trkpt lat="45.13313" lon="4.07162">
        <ele>-6.1E-5</ele>
        <time>2012-09-22T16:20:47Z</time>
      </trkpt>
      <trkpt lat="45.13305" lon="4.07161">
        <ele>868.2</ele>
        <time>2012-09-22T16:20:49Z</time>
      </trkpt>
      <trkpt lat="45.13298" lon="4.0716">
        <ele>868.2</ele>
        <time>2012-09-22T16:20:51Z</time>
      </trkpt>
      <trkpt lat="45.1329" lon="4.07159">
        <ele>868.3</ele>
        <time>2012-09-22T16:20:53Z</time>
      </trkpt>
      <trkpt lat="45.13282" lon="4.07159">
        <ele>868.3</ele>
        <time>2012-09-22T16:20:55Z</time>
      </trkpt>
      <trkpt lat="45.13275" lon="4.07158">
        <ele>-6.1E-5</ele>
        <time>2012-09-22T16:20:57Z</time>
      </trkpt>
      <trkpt lat="45.13268" lon="4.07158">
        <ele>-6.1E-5</ele>
        <time>2012-09-22T16:20:59Z</time>
      </trkpt>
      <trkpt lat="45.13261" lon="4.07158">
        <ele>868.3</ele>
        <time>2012-09-22T16:21:01Z</time>
      </trkpt>
      <trkpt lat="45.13254" lon="4.07158">
        <ele>868.3</ele>
        <time>2012-09-22T16:21:03Z</time>
      </trkpt>
      <trkpt lat="45.13247" lon="4.07159">
        <ele>868.4</ele>
        <time>2012-09-22T16:21:05Z</time>
      </trkpt>
      <trkpt lat="45.1324" lon="4.07159">
        <ele>868.6</ele>
        <time>2012-09-22T16:21:07Z</time>
      </trkpt>
      <trkpt lat="45.13233" lon="4.07159">
        <ele>868.9</ele>
        <time>2012-09-22T16:21:09Z</time>
      </trkpt>
      <trkpt lat="45.13227" lon="4.07159">
        <ele>869.1</ele>
        <time>2012-09-22T16:21:11Z</time>
      </trkpt>
      <trkpt lat="45.1322" lon="4.07159">
        <ele>869.3</ele>
        <time>2012-09-22T16:21:13Z</time>
      </trkpt>
      <trkpt lat="45.13214" lon="4.07158">
        <ele>869.5</ele>
        <time>2012-09-22T16:21:15Z</time>
      </trkpt>
      <trkpt lat="45.13208" lon="4.07158">
        <ele>869.7</ele>
        <time>2012-09-22T16:21:17Z</time>
      </trkpt>
      <trkpt lat="45.13202" lon="4.07158">
        <ele>869.8</ele>
        <time>2012-09-22T16:21:19Z</time>
      </trkpt>
      <trkpt lat="45.13196" lon="4.07159">
        <ele>870</ele>
        <time>2012-09-22T16:21:21Z</time>
      </trkpt>
      <trkpt lat="45.13191" lon="4.07159">
        <ele>870</ele>
        <time>2012-09-22T16:21:23Z</time>
      </trkpt>
      <trkpt lat="45.13186" lon="4.07159">
        <ele>-6.1E-5</ele>
        <time>2012-09-22T16:21:25Z</time>
      </trkpt>
      <trkpt lat="45.1318" lon="4.07159">
        <ele>870</ele>
        <time>2012-09-22T16:21:27Z</time>
      </trkpt>
      <trkpt lat="45.13175" lon="4.07159">
        <ele>870</ele>
        <time>2012-09-22T16:21:29Z</time>
      </trkpt>
      <trkpt lat="45.13169" lon="4.0716">
        <ele>870</ele>
        <time>2012-09-22T16:21:31Z</time>
      </trkpt>
      <trkpt lat="45.13163" lon="4.0716">
        <ele>869.9</ele>
        <time>2012-09-22T16:21:33Z</time>
      </trkpt>
      <trkpt lat="45.13157" lon="4.07161">
        <ele>869.8</ele>
        <time>2012-09-22T16:21:35Z</time>
      </trkpt>
      <trkpt lat="45.13152" lon="4.07162">
        <ele>-6.1E-5</ele>
        <time>2012-09-22T16:21:37Z</time>
      </trkpt>
      <trkpt lat="45.13146" lon="4.07163">
        <ele>-6.1E-5</ele>
        <time>2012-09-22T16:21:39Z</time>
      </trkpt>
      <trkpt lat="45.13139" lon="4.07164">
        <ele>869.2</ele>
        <time>2012-09-22T16:21:41Z</time>
      </trkpt>
      <trkpt lat="45.13132" lon="4.07164">
        <ele>869.1</ele>
        <time>2012-09-22T16:21:43Z</time>
      </trkpt>
      <trkpt lat="45.13125" lon="4.07166">
        <ele>869.1</ele>
        <time>2012-09-22T16:21:45Z</time>
      </trkpt>
      <trkpt lat="45.13117" lon="4.07167">
        <ele>869</ele>
        <time>2012-09-22T16:21:47Z</time>
      </trkpt>
      <trkpt lat="45.13109" lon="4.07168">
        <ele>868.9</ele>
        <time>2012-09-22T16:21:49Z</time>
      </trkpt>
      <trkpt lat="45.13102" lon="4.07168">
        <ele>868.9</ele>
        <time>2012-09-22T16:21:51Z</time>
      </trkpt>
      <trkpt lat="45.13095" lon="4.07167">
        <ele>869</ele>
        <time>2012-09-22T16:21:53Z</time>
      </trkpt>
      <trkpt lat="45.13089" lon="4.07166">
        <ele>869</ele>
        <time>2012-09-22T16:21:55Z</time>
      </trkpt>
      <trkpt lat="45.13084" lon="4.07167">
        <ele>869</ele>
        <time>2012-09-22T16:21:57Z</time>
      </trkpt>
      <trkpt lat="45.13079" lon="4.07168">
        <ele>869</ele>
        <time>2012-09-22T16:21:59Z</time>
      </trkpt>
      <trkpt lat="45.13074" lon="4.0717">
        <ele>869</ele>
        <time>2012-09-22T16:22:01Z</time>
      </trkpt>
      <trkpt lat="45.13069" lon="4.07172">
        <ele>869</ele>
        <time>2012-09-22T16:22:03Z</time>
      </trkpt>
      <trkpt lat="45.13064" lon="4.07174">
        <ele>869.1</ele>
        <time>2012-09-22T16:22:05Z</time>
      </trkpt>
      <trkpt lat="45.1306" lon="4.07177">
        <ele>-6.1E-5</ele>
        <time>2012-09-22T16:22:07Z</time>
      </trkpt>
      <trkpt lat="45.13054" lon="4.0718">
        <ele>869.1</ele>
        <time>2012-09-22T16:22:10Z</time>
      </trkpt>
      <trkpt lat="45.13049" lon="4.07182">
        <ele>869.2</ele>
        <time>2012-09-22T16:22:13Z</time>
      </trkpt>
      <trkpt lat="45.13044" lon="4.07184">
        <ele>869.4</ele>
        <time>2012-09-22T16:22:16Z</time>
      </trkpt>
      <trkpt lat="45.13039" lon="4.07185">
        <ele>-6.1E-5</ele>
        <time>2012-09-22T16:22:19Z</time>
      </trkpt>
      <trkpt lat="45.13032" lon="4.07185">
        <ele>870.1</ele>
        <time>2012-09-22T16:22:22Z</time>
      </trkpt>
      <trkpt lat="45.13026" lon="4.07186">
        <ele>-6.1E-5</ele>
        <time>2012-09-22T16:22:25Z</time>
      </trkpt>
      <trkpt lat="45.13019" lon="4.07186">
        <ele>-6.1E-5</ele>
        <time>2012-09-22T16:22:28Z</time>
      </trkpt>
      <trkpt lat="45.13013" lon="4.07187">
        <ele>870.8</ele>
        <time>2012-09-22T16:22:31Z</time>
      </trkpt>
      <trkpt lat="45.13008" lon="4.07188">
        <ele>-6.1E-5</ele>
        <time>2012-09-22T16:22:33Z</time>
      </trkpt>
      <trkpt lat="45.13003" lon="4.07189">
        <ele>871.1</ele>
        <time>2012-09-22T16:22:35Z</time>
      </trkpt>
      <trkpt lat="45.12999" lon="4.0719">
        <ele>-6.1E-5</ele>
        <time>2012-09-22T16:22:37Z</time>
      </trkpt>
      <trkpt lat="45.12994" lon="4.07191">
        <ele>871.5</ele>
        <time>2012-09-22T16:22:39Z</time>
      </trkpt>
      <trkpt lat="45.12988" lon="4.07193">
        <ele>871.9</ele>
        <time>2012-09-22T16:22:42Z</time>
      </trkpt>
      <trkpt lat="45.12982" lon="4.07195">
        <ele>872.3</ele>
        <time>2012-09-22T16:22:45Z</time>
      </trkpt>
      <trkpt lat="45.12976" lon="4.07196">
        <ele>-6.1E-5</ele>
        <time>2012-09-22T16:22:49Z</time>
      </trkpt>
      <trkpt lat="45.12971" lon="4.07197">
        <ele>872.8</ele>
        <time>2012-09-22T16:22:52Z</time>
      </trkpt>
      <trkpt lat="45.12966" lon="4.07199">
        <ele>873</ele>
        <time>2012-09-22T16:22:55Z</time>
      </trkpt>
      <trkpt lat="45.1296" lon="4.072">
        <ele>873.1</ele>
        <time>2012-09-22T16:22:58Z</time>
      </trkpt>
      <trkpt lat="45.12954" lon="4.072">
        <ele>873.4</ele>
        <time>2012-09-22T16:23:01Z</time>
      </trkpt>
      <trkpt lat="45.12948" lon="4.072">
        <ele>873.7</ele>
        <time>2012-09-22T16:23:04Z</time>
      </trkpt>
      <trkpt lat="45.12942" lon="4.07199">
        <ele>-6.1E-5</ele>
        <time>2012-09-22T16:23:07Z</time>
      </trkpt>
      <trkpt lat="45.12937" lon="4.07198">
        <ele>874.2</ele>
        <time>2012-09-22T16:23:09Z</time>
      </trkpt>
      <trkpt lat="45.12931" lon="4.07198">
        <ele>874.5</ele>
        <time>2012-09-22T16:23:12Z</time>
      </trkpt>
      <trkpt lat="45.12924" lon="4.07197">
        <ele>874.8</ele>
        <time>2012-09-22T16:23:15Z</time>
      </trkpt>
      <trkpt lat="45.12918" lon="4.07196">
        <ele>875</ele>
        <time>2012-09-22T16:23:18Z</time>
      </trkpt>
      <trkpt lat="45.12913" lon="4.07195">
        <ele>875.3</ele>
        <time>2012-09-22T16:23:21Z</time>
      </trkpt>
      <trkpt lat="45.12907" lon="4.07194">
        <ele>875.7</ele>
        <time>2012-09-22T16:23:24Z</time>
      </trkpt>
      <trkpt lat="45.129" lon="4.07194">
        <ele>876.2</ele>
        <time>2012-09-22T16:23:27Z</time>
      </trkpt>
      <trkpt lat="45.12894" lon="4.07193">
        <ele>-6.1E-5</ele>
        <time>2012-09-22T16:23:30Z</time>
      </trkpt>
      <trkpt lat="45.12888" lon="4.07191">
        <ele>-6.1E-5</ele>
        <time>2012-09-22T16:23:33Z</time>
      </trkpt>
      <trkpt lat="45.12881" lon="4.07189">
        <ele>878.1</ele>
        <time>2012-09-22T16:23:36Z</time>
      </trkpt>
      <trkpt lat="45.12876" lon="4.07184">
        <ele>878.7</ele>
        <time>2012-09-22T16:23:39Z</time>
      </trkpt>
      <trkpt lat="45.12872" lon="4.0718">
        <ele>879.2</ele>
        <time>2012-09-22T16:23:42Z</time>
      </trkpt>
      <trkpt lat="45.1287" lon="4.07173">
        <ele>879.2</ele>
        <time>2012-09-22T16:23:46Z</time>
      </trkpt>
      <trkpt lat="45.12871" lon="4.07165">
        <ele>879.3</ele>
        <time>2012-09-22T16:23:50Z</time>
      </trkpt>
      <trkpt lat="45.12873" lon="4.07159">
        <ele>880.2</ele>
        <time>2012-09-22T16:23:54Z</time>
      </trkpt>
      <trkpt lat="45.12874" lon="4.07151">
        <ele>881.4</ele>
        <time>2012-09-22T16:23:59Z</time>
      </trkpt>
      <trkpt lat="45.12872" lon="4.07145">
        <ele>882.8</ele>
        <time>2012-09-22T16:24:03Z</time>
      </trkpt>
      <trkpt lat="45.12868" lon="4.0714">
        <ele>884.2</ele>
        <time>2012-09-22T16:24:08Z</time>
      </trkpt>
      <trkpt lat="45.12861" lon="4.07143">
        <ele>-6.1E-5</ele>
        <time>2012-09-22T16:24:24Z</time>
      </trkpt>
      <trkpt lat="45.12857" lon="4.07145">
        <ele>-6.1E-5</ele>
        <time>2012-09-22T16:25:06Z</time>
      </trkpt>
      <trkpt lat="45.12852" lon="4.07148">
        <ele>884.6</ele>
        <time>2012-09-22T16:25:48Z</time>
      </trkpt>
      <trkpt lat="45.12847" lon="4.07148">
        <ele>-6.1E-5</ele>
        <time>2012-09-22T16:25:52Z</time>
      </trkpt>
      <trkpt lat="45.12842" lon="4.07149">
        <ele>885.5</ele>
        <time>2012-09-22T16:25:55Z</time>
      </trkpt>
      <trkpt lat="45.12837" lon="4.07149">
        <ele>-6.1E-5</ele>
        <time>2012-09-22T16:25:58Z</time>
      </trkpt>
      <trkpt lat="45.12831" lon="4.07149">
        <ele>886.8</ele>
        <time>2012-09-22T16:26:02Z</time>
      </trkpt>
      <trkpt lat="45.12826" lon="4.07148">
        <ele>-6.1E-5</ele>
        <time>2012-09-22T16:26:06Z</time>
      </trkpt>
      <trkpt lat="45.12821" lon="4.07149">
        <ele>888</ele>
        <time>2012-09-22T16:26:10Z</time>
      </trkpt>
      <trkpt lat="45.12808" lon="4.07149">
        <ele>-6.1E-5</ele>
        <time>2012-09-22T16:26:24Z</time>
      </trkpt>
      <trkpt lat="45.12802" lon="4.07148">
        <ele>890</ele>
        <time>2012-09-22T16:26:27Z</time>
      </trkpt>
      <trkpt lat="45.12798" lon="4.07147">
        <ele>-6.1E-5</ele>
        <time>2012-09-22T16:26:29Z</time>
      </trkpt>
      <trkpt lat="45.12792" lon="4.07144">
        <ele>891.4</ele>
        <time>2012-09-22T16:26:32Z</time>
      </trkpt>
      <trkpt lat="45.12786" lon="4.07141">
        <ele>-6.1E-5</ele>
        <time>2012-09-22T16:26:35Z</time>
      </trkpt>
      <trkpt lat="45.12782" lon="4.07137">
        <ele>893</ele>
        <time>2012-09-22T16:26:38Z</time>
      </trkpt>
      <trkpt lat="45.12777" lon="4.07134">
        <ele>893.8</ele>
        <time>2012-09-22T16:26:41Z</time>
      </trkpt>
      <trkpt lat="45.12774" lon="4.0713">
        <ele>-6.1E-5</ele>
        <time>2012-09-22T16:26:44Z</time>
      </trkpt>
      <trkpt lat="45.1277" lon="4.07125">
        <ele>895.3</ele>
        <time>2012-09-22T16:26:47Z</time>
      </trkpt>
      <trkpt lat="45.12766" lon="4.07121">
        <ele>895.9</ele>
        <time>2012-09-22T16:26:50Z</time>
      </trkpt>
      <trkpt lat="45.12762" lon="4.07115">
        <ele>896.6</ele>
        <time>2012-09-22T16:26:54Z</time>
      </trkpt>
      <trkpt lat="45.12759" lon="4.0711">
        <ele>897.1</ele>
        <time>2012-09-22T16:26:57Z</time>
      </trkpt>
      <trkpt lat="45.12756" lon="4.07105">
        <ele>-6.1E-5</ele>
        <time>2012-09-22T16:27:00Z</time>
      </trkpt>
      <trkpt lat="45.12753" lon="4.07097">
        <ele>898</ele>
        <time>2012-09-22T16:27:04Z</time>
      </trkpt>
      <trkpt lat="45.1275" lon="4.0709">
        <ele>898.5</ele>
        <time>2012-09-22T16:27:08Z</time>
      </trkpt>
      <trkpt lat="45.12747" lon="4.07082">
        <ele>899.3</ele>
        <time>2012-09-22T16:27:13Z</time>
      </trkpt>
      <trkpt lat="45.12745" lon="4.07075">
        <ele>899.6</ele>
        <time>2012-09-22T16:27:17Z</time>
      </trkpt>
      <trkpt lat="45.12742" lon="4.0707">
        <ele>899.9</ele>
        <time>2012-09-22T16:27:21Z</time>
      </trkpt>
      <trkpt lat="45.12736" lon="4.07058">
        <ele>-6.1E-5</ele>
        <time>2012-09-22T16:27:34Z</time>
      </trkpt>
      <trkpt lat="45.12733" lon="4.07045">
        <ele>-6.1E-5</ele>
        <time>2012-09-22T16:27:43Z</time>
      </trkpt>
      <trkpt lat="45.12731" lon="4.07037">
        <ele>901.1</ele>
        <time>2012-09-22T16:27:48Z</time>
      </trkpt>
      <trkpt lat="45.12729" lon="4.07029">
        <ele>901.2</ele>
        <time>2012-09-22T16:27:52Z</time>
      </trkpt>
      <trkpt lat="45.12727" lon="4.07022">
        <ele>901.3</ele>
        <time>2012-09-22T16:27:55Z</time>
      </trkpt>
      <trkpt lat="45.12725" lon="4.07015">
        <ele>-6.1E-5</ele>
        <time>2012-09-22T16:27:58Z</time>
      </trkpt>
      <trkpt lat="45.12722" lon="4.07008">
        <ele>901.7</ele>
        <time>2012-09-22T16:28:01Z</time>
      </trkpt>
      <trkpt lat="45.12718" lon="4.07001">
        <ele>902</ele>
        <time>2012-09-22T16:28:04Z</time>
      </trkpt>
      <trkpt lat="45.12715" lon="4.06996">
        <ele>901.9</ele>
        <time>2012-09-22T16:28:06Z</time>
      </trkpt>
      <trkpt lat="45.1271" lon="4.06991">
        <ele>901.7</ele>
        <time>2012-09-22T16:28:08Z</time>
      </trkpt>
      <trkpt lat="45.12704" lon="4.06985">
        <ele>-6.1E-5</ele>
        <time>2012-09-22T16:28:10Z</time>
      </trkpt>
      <trkpt lat="45.12697" lon="4.06978">
        <ele>-6.1E-5</ele>
        <time>2012-09-22T16:28:12Z</time>
      </trkpt>
      <trkpt lat="45.1269" lon="4.0697">
        <ele>900.8</ele>
        <time>2012-09-22T16:28:14Z</time>
      </trkpt>
      <trkpt lat="45.12686" lon="4.06966">
        <ele>-6.1E-5</ele>
        <time>2012-09-22T16:28:15Z</time>
      </trkpt>
      <trkpt lat="45.12681" lon="4.0696">
        <ele>899.9</ele>
        <time>2012-09-22T16:28:16Z</time>
      </trkpt>
      <trkpt lat="45.12675" lon="4.06952">
        <ele>899</ele>
        <time>2012-09-22T16:28:17Z</time>
      </trkpt>
      <trkpt lat="45.1267" lon="4.06943">
        <ele>-6.1E-5</ele>
        <time>2012-09-22T16:28:18Z</time>
      </trkpt>
      <trkpt lat="45.12664" lon="4.06933">
        <ele>897.6</ele>
        <time>2012-09-22T16:28:19Z</time>
      </trkpt>
      <trkpt lat="45.1266" lon="4.06924">
        <ele>897.1</ele>
        <time>2012-09-22T16:28:20Z</time>
      </trkpt>
      <trkpt lat="45.12655" lon="4.06915">
        <ele>896.5</ele>
        <time>2012-09-22T16:28:21Z</time>
      </trkpt>
      <trkpt lat="45.12651" lon="4.06907">
        <ele>896.1</ele>
        <time>2012-09-22T16:28:22Z</time>
      </trkpt>
      <trkpt lat="45.12647" lon="4.06899">
        <ele>-6.1E-5</ele>
        <time>2012-09-22T16:28:23Z</time>
      </trkpt>
      <trkpt lat="45.12643" lon="4.06893">
        <ele>895.3</ele>
        <time>2012-09-22T16:28:24Z</time>
      </trkpt>
      <trkpt lat="45.12639" lon="4.06887">
        <ele>894.9</ele>
        <time>2012-09-22T16:28:25Z</time>
      </trkpt>
      <trkpt lat="45.12636" lon="4.06882">
        <ele>894.7</ele>
        <time>2012-09-22T16:28:26Z</time>
      </trkpt>
      <trkpt lat="45.12632" lon="4.06877">
        <ele>894.5</ele>
        <time>2012-09-22T16:28:27Z</time>
      </trkpt>
      <trkpt lat="45.12627" lon="4.0687">
        <ele>894</ele>
        <time>2012-09-22T16:28:29Z</time>
      </trkpt>
      <trkpt lat="45.12621" lon="4.06864">
        <ele>893.5</ele>
        <time>2012-09-22T16:28:31Z</time>
      </trkpt>
      <trkpt lat="45.12617" lon="4.0686">
        <ele>893.2</ele>
        <time>2012-09-22T16:28:33Z</time>
      </trkpt>
      <trkpt lat="45.12612" lon="4.0686">
        <ele>893</ele>
        <time>2012-09-22T16:28:35Z</time>
      </trkpt>
      <trkpt lat="45.12607" lon="4.06862">
        <ele>893</ele>
        <time>2012-09-22T16:28:37Z</time>
      </trkpt>
      <trkpt lat="45.12602" lon="4.06865">
        <ele>893.2</ele>
        <time>2012-09-22T16:28:39Z</time>
      </trkpt>
      <trkpt lat="45.12597" lon="4.06869">
        <ele>893.4</ele>
        <time>2012-09-22T16:28:41Z</time>
      </trkpt>
      <trkpt lat="45.12592" lon="4.06873">
        <ele>893.5</ele>
        <time>2012-09-22T16:28:43Z</time>
      </trkpt>
      <trkpt lat="45.12587" lon="4.06877">
        <ele>893.6</ele>
        <time>2012-09-22T16:28:45Z</time>
      </trkpt>
      <trkpt lat="45.12582" lon="4.06881">
        <ele>893.7</ele>
        <time>2012-09-22T16:28:47Z</time>
      </trkpt>
      <trkpt lat="45.12577" lon="4.06885">
        <ele>893.6</ele>
        <time>2012-09-22T16:28:49Z</time>
      </trkpt>
      <trkpt lat="45.12571" lon="4.06888">
        <ele>893.5</ele>
        <time>2012-09-22T16:28:51Z</time>
      </trkpt>
      <trkpt lat="45.12566" lon="4.06892">
        <ele>893.4</ele>
        <time>2012-09-22T16:28:53Z</time>
      </trkpt>
      <trkpt lat="45.1256" lon="4.06895">
        <ele>893.4</ele>
        <time>2012-09-22T16:28:55Z</time>
      </trkpt>
      <trkpt lat="45.12554" lon="4.06899">
        <ele>893.4</ele>
        <time>2012-09-22T16:28:57Z</time>
      </trkpt>
      <trkpt lat="45.12548" lon="4.06903">
        <ele>893.5</ele>
        <time>2012-09-22T16:28:59Z</time>
      </trkpt>
      <trkpt lat="45.12542" lon="4.06907">
        <ele>893.6</ele>
        <time>2012-09-22T16:29:01Z</time>
      </trkpt>
      <trkpt lat="45.12536" lon="4.06911">
        <ele>893.8</ele>
        <time>2012-09-22T16:29:03Z</time>
      </trkpt>
      <trkpt lat="45.1253" lon="4.06915">
        <ele>893.9</ele>
        <time>2012-09-22T16:29:05Z</time>
      </trkpt>
      <trkpt lat="45.12523" lon="4.06918">
        <ele>894.3</ele>
        <time>2012-09-22T16:29:07Z</time>
      </trkpt>
      <trkpt lat="45.12517" lon="4.06922">
        <ele>894.7</ele>
        <time>2012-09-22T16:29:09Z</time>
      </trkpt>
      <trkpt lat="45.1251" lon="4.06926">
        <ele>894.8</ele>
        <time>2012-09-22T16:29:11Z</time>
      </trkpt>
      <trkpt lat="45.12504" lon="4.0693">
        <ele>894.8</ele>
        <time>2012-09-22T16:29:13Z</time>
      </trkpt>
      <trkpt lat="45.12498" lon="4.06935">
        <ele>-6.1E-5</ele>
        <time>2012-09-22T16:29:15Z</time>
      </trkpt>
      <trkpt lat="45.12492" lon="4.06939">
        <ele>894.6</ele>
        <time>2012-09-22T16:29:17Z</time>
      </trkpt>
      <trkpt lat="45.12486" lon="4.06943">
        <ele>894.5</ele>
        <time>2012-09-22T16:29:19Z</time>
      </trkpt>
      <trkpt lat="45.1248" lon="4.06948">
        <ele>-6.1E-5</ele>
        <time>2012-09-22T16:29:21Z</time>
      </trkpt>
      <trkpt lat="45.12474" lon="4.06952">
        <ele>894.6</ele>
        <time>2012-09-22T16:29:23Z</time>
      </trkpt>
      <trkpt lat="45.12468" lon="4.06957">
        <ele>894.9</ele>
        <time>2012-09-22T16:29:25Z</time>
      </trkpt>
      <trkpt lat="45.12463" lon="4.06962">
        <ele>895</ele>
        <time>2012-09-22T16:29:27Z</time>
      </trkpt>
      <trkpt lat="45.12458" lon="4.06967">
        <ele>894.9</ele>
        <time>2012-09-22T16:29:29Z</time>
      </trkpt>
      <trkpt lat="45.12453" lon="4.06972">
        <ele>894.6</ele>
        <time>2012-09-22T16:29:31Z</time>
      </trkpt>
      <trkpt lat="45.12447" lon="4.06978">
        <ele>-6.1E-5</ele>
        <time>2012-09-22T16:29:33Z</time>
      </trkpt>
      <trkpt lat="45.12442" lon="4.06984">
        <ele>-6.1E-5</ele>
        <time>2012-09-22T16:29:35Z</time>
      </trkpt>
      <trkpt lat="45.12437" lon="4.06991">
        <ele>895.3</ele>
        <time>2012-09-22T16:29:37Z</time>
      </trkpt>
      <trkpt lat="45.12433" lon="4.06999">
        <ele>895.5</ele>
        <time>2012-09-22T16:29:39Z</time>
      </trkpt>
      <trkpt lat="45.12429" lon="4.07006">
        <ele>895.2</ele>
        <time>2012-09-22T16:29:41Z</time>
      </trkpt>
      <trkpt lat="45.12426" lon="4.07014">
        <ele>894.4</ele>
        <time>2012-09-22T16:29:43Z</time>
      </trkpt>
      <trkpt lat="45.12422" lon="4.07022">
        <ele>893.4</ele>
        <time>2012-09-22T16:29:45Z</time>
      </trkpt>
      <trkpt lat="45.1242" lon="4.07031">
        <ele>892.9</ele>
        <time>2012-09-22T16:29:47Z</time>
      </trkpt>
      <trkpt lat="45.12417" lon="4.0704">
        <ele>893.7</ele>
        <time>2012-09-22T16:29:49Z</time>
      </trkpt>
      <trkpt lat="45.12414" lon="4.07048">
        <ele>895</ele>
        <time>2012-09-22T16:29:51Z</time>
      </trkpt>
      <trkpt lat="45.12411" lon="4.07056">
        <ele>895.8</ele>
        <time>2012-09-22T16:29:53Z</time>
      </trkpt>
      <trkpt lat="45.1241" lon="4.07065">
        <ele>895.2</ele>
        <time>2012-09-22T16:29:55Z</time>
      </trkpt>
      <trkpt lat="45.12411" lon="4.07076">
        <ele>894.6</ele>
        <time>2012-09-22T16:29:57Z</time>
      </trkpt>
      <trkpt lat="45.12411" lon="4.07088">
        <ele>893.7</ele>
        <time>2012-09-22T16:29:59Z</time>
      </trkpt>
      <trkpt lat="45.1241" lon="4.071">
        <ele>892</ele>
        <time>2012-09-22T16:30:01Z</time>
      </trkpt>
      <trkpt lat="45.12408" lon="4.07111">
        <ele>890.4</ele>
        <time>2012-09-22T16:30:03Z</time>
      </trkpt>
      <trkpt lat="45.12404" lon="4.07121">
        <ele>889.2</ele>
        <time>2012-09-22T16:30:05Z</time>
      </trkpt>
      <trkpt lat="45.12401" lon="4.07127">
        <ele>888.5</ele>
        <time>2012-09-22T16:30:06Z</time>
      </trkpt>
      <trkpt lat="45.12398" lon="4.07132">
        <ele>887.9</ele>
        <time>2012-09-22T16:30:07Z</time>
      </trkpt>
      <trkpt lat="45.12394" lon="4.07138">
        <ele>887.3</ele>
        <time>2012-09-22T16:30:08Z</time>
      </trkpt>
      <trkpt lat="45.1239" lon="4.07144">
        <ele>-6.1E-5</ele>
        <time>2012-09-22T16:30:09Z</time>
      </trkpt>
      <trkpt lat="45.12387" lon="4.0715">
        <ele>886.4</ele>
        <time>2012-09-22T16:30:10Z</time>
      </trkpt>
      <trkpt lat="45.12383" lon="4.07157">
        <ele>886.3</ele>
        <time>2012-09-22T16:30:11Z</time>
      </trkpt>
      <trkpt lat="45.1238" lon="4.07163">
        <ele>886.2</ele>
        <time>2012-09-22T16:30:12Z</time>
      </trkpt>
      <trkpt lat="45.12376" lon="4.0717">
        <ele>886.1</ele>
        <time>2012-09-22T16:30:13Z</time>
      </trkpt>
      <trkpt lat="45.12374" lon="4.07177">
        <ele>885.9</ele>
        <time>2012-09-22T16:30:14Z</time>
      </trkpt>
      <trkpt lat="45.12371" lon="4.07185">
        <ele>885.7</ele>
        <time>2012-09-22T16:30:15Z</time>
      </trkpt>
      <trkpt lat="45.12368" lon="4.07192">
        <ele>885.5</ele>
        <time>2012-09-22T16:30:16Z</time>
      </trkpt>
      <trkpt lat="45.12365" lon="4.072">
        <ele>885</ele>
        <time>2012-09-22T16:30:17Z</time>
      </trkpt>
      <trkpt lat="45.12362" lon="4.07208">
        <ele>884.5</ele>
        <time>2012-09-22T16:30:18Z</time>
      </trkpt>
      <trkpt lat="45.12359" lon="4.07215">
        <ele>884.3</ele>
        <time>2012-09-22T16:30:19Z</time>
      </trkpt>
      <trkpt lat="45.12356" lon="4.07223">
        <ele>884.1</ele>
        <time>2012-09-22T16:30:20Z</time>
      </trkpt>
      <trkpt lat="45.12353" lon="4.0723">
        <ele>-6.1E-5</ele>
        <time>2012-09-22T16:30:21Z</time>
      </trkpt>
      <trkpt lat="45.12351" lon="4.07238">
        <ele>883.2</ele>
        <time>2012-09-22T16:30:22Z</time>
      </trkpt>
      <trkpt lat="45.12349" lon="4.07245">
        <ele>882.7</ele>
        <time>2012-09-22T16:30:23Z</time>
      </trkpt>
      <trkpt lat="45.12348" lon="4.07253">
        <ele>882.2</ele>
        <time>2012-09-22T16:30:24Z</time>
      </trkpt>
      <trkpt lat="45.12348" lon="4.0726">
        <ele>882</ele>
        <time>2012-09-22T16:30:25Z</time>
      </trkpt>
      <trkpt lat="45.12348" lon="4.07268">
        <ele>-6.1E-5</ele>
        <time>2012-09-22T16:30:26Z</time>
      </trkpt>
      <trkpt lat="45.12348" lon="4.07275">
        <ele>881.4</ele>
        <time>2012-09-22T16:30:27Z</time>
      </trkpt>
      <trkpt lat="45.12349" lon="4.07282">
        <ele>-6.1E-5</ele>
        <time>2012-09-22T16:30:28Z</time>
      </trkpt>
      <trkpt lat="45.12349" lon="4.07289">
        <ele>881</ele>
        <time>2012-09-22T16:30:29Z</time>
      </trkpt>
      <trkpt lat="45.1235" lon="4.07296">
        <ele>-6.1E-5</ele>
        <time>2012-09-22T16:30:30Z</time>
      </trkpt>
      <trkpt lat="45.12352" lon="4.07308">
        <ele>-6.1E-5</ele>
        <time>2012-09-22T16:30:32Z</time>
      </trkpt>
      <trkpt lat="45.12351" lon="4.07314">
        <ele>-6.1E-5</ele>
        <time>2012-09-22T16:30:33Z</time>
      </trkpt>
      <trkpt lat="45.12351" lon="4.07321">
        <ele>879</ele>
        <time>2012-09-22T16:30:34Z</time>
      </trkpt>
      <trkpt lat="45.1235" lon="4.07328">
        <ele>878.4</ele>
        <time>2012-09-22T16:30:35Z</time>
      </trkpt>
      <trkpt lat="45.12349" lon="4.07335">
        <ele>-6.1E-5</ele>
        <time>2012-09-22T16:30:36Z</time>
      </trkpt>
      <trkpt lat="45.12348" lon="4.07341">
        <ele>877.3</ele>
        <time>2012-09-22T16:30:37Z</time>
      </trkpt>
      <trkpt lat="45.12346" lon="4.07348">
        <ele>876.8</ele>
        <time>2012-09-22T16:30:38Z</time>
      </trkpt>
      <trkpt lat="45.12345" lon="4.07355">
        <ele>876.3</ele>
        <time>2012-09-22T16:30:39Z</time>
      </trkpt>
      <trkpt lat="45.12343" lon="4.07362">
        <ele>875.9</ele>
        <time>2012-09-22T16:30:40Z</time>
      </trkpt>
      <trkpt lat="45.12342" lon="4.0737">
        <ele>875.7</ele>
        <time>2012-09-22T16:30:41Z</time>
      </trkpt>
      <trkpt lat="45.12339" lon="4.07378">
        <ele>875.7</ele>
        <time>2012-09-22T16:30:42Z</time>
      </trkpt>
      <trkpt lat="45.12336" lon="4.07385">
        <ele>875.7</ele>
        <time>2012-09-22T16:30:43Z</time>
      </trkpt>
      <trkpt lat="45.12333" lon="4.07393">
        <ele>875.8</ele>
        <time>2012-09-22T16:30:44Z</time>
      </trkpt>
      <trkpt lat="45.1233" lon="4.07401">
        <ele>-6.1E-5</ele>
        <time>2012-09-22T16:30:45Z</time>
      </trkpt>
      <trkpt lat="45.12325" lon="4.07408">
        <ele>876</ele>
        <time>2012-09-22T16:30:46Z</time>
      </trkpt>
      <trkpt lat="45.1232" lon="4.07414">
        <ele>876.2</ele>
        <time>2012-09-22T16:30:47Z</time>
      </trkpt>
      <trkpt lat="45.12314" lon="4.0742">
        <ele>876.4</ele>
        <time>2012-09-22T16:30:48Z</time>
      </trkpt>
      <trkpt lat="45.12307" lon="4.07426">
        <ele>876.5</ele>
        <time>2012-09-22T16:30:49Z</time>
      </trkpt>
      <trkpt lat="45.123" lon="4.07431">
        <ele>876.5</ele>
        <time>2012-09-22T16:30:50Z</time>
      </trkpt>
      <trkpt lat="45.12292" lon="4.07435">
        <ele>-6.1E-5</ele>
        <time>2012-09-22T16:30:51Z</time>
      </trkpt>
      <trkpt lat="45.12285" lon="4.0744">
        <ele>-6.1E-5</ele>
        <time>2012-09-22T16:30:52Z</time>
      </trkpt>
      <trkpt lat="45.12277" lon="4.07444">
        <ele>876.2</ele>
        <time>2012-09-22T16:30:53Z</time>
      </trkpt>
      <trkpt lat="45.1227" lon="4.07449">
        <ele>-6.1E-5</ele>
        <time>2012-09-22T16:30:54Z</time>
      </trkpt>
      <trkpt lat="45.12262" lon="4.07453">
        <ele>876.6</ele>
        <time>2012-09-22T16:30:55Z</time>
      </trkpt>
      <trkpt lat="45.12255" lon="4.07458">
        <ele>876.6</ele>
        <time>2012-09-22T16:30:56Z</time>
      </trkpt>
      <trkpt lat="45.12248" lon="4.07462">
        <ele>876.6</ele>
        <time>2012-09-22T16:30:57Z</time>
      </trkpt>
      <trkpt lat="45.12241" lon="4.07467">
        <ele>876.8</ele>
        <time>2012-09-22T16:30:58Z</time>
      </trkpt>
      <trkpt lat="45.12234" lon="4.07471">
        <ele>876.9</ele>
        <time>2012-09-22T16:30:59Z</time>
      </trkpt>
      <trkpt lat="45.12228" lon="4.07475">
        <ele>876.9</ele>
        <time>2012-09-22T16:31:00Z</time>
      </trkpt>
      <trkpt lat="45.12221" lon="4.07479">
        <ele>-6.1E-5</ele>
        <time>2012-09-22T16:31:01Z</time>
      </trkpt>
      <trkpt lat="45.12214" lon="4.07483">
        <ele>-6.1E-5</ele>
        <time>2012-09-22T16:31:02Z</time>
      </trkpt>
      <trkpt lat="45.12208" lon="4.07488">
        <ele>876.1</ele>
        <time>2012-09-22T16:31:03Z</time>
      </trkpt>
      <trkpt lat="45.12201" lon="4.07492">
        <ele>875.8</ele>
        <time>2012-09-22T16:31:04Z</time>
      </trkpt>
      <trkpt lat="45.12194" lon="4.07497">
        <ele>875.5</ele>
        <time>2012-09-22T16:31:05Z</time>
      </trkpt>
      <trkpt lat="45.12187" lon="4.07502">
        <ele>-6.1E-5</ele>
        <time>2012-09-22T16:31:06Z</time>
      </trkpt>
      <trkpt lat="45.12181" lon="4.07506">
        <ele>-6.1E-5</ele>
        <time>2012-09-22T16:31:07Z</time>
      </trkpt>
      <trkpt lat="45.12175" lon="4.07512">
        <ele>872.6</ele>
        <time>2012-09-22T16:31:08Z</time>
      </trkpt>
      <trkpt lat="45.1217" lon="4.07517">
        <ele>871.3</ele>
        <time>2012-09-22T16:31:09Z</time>
      </trkpt>
      <trkpt lat="45.12164" lon="4.07523">
        <ele>-6.1E-5</ele>
        <time>2012-09-22T16:31:10Z</time>
      </trkpt>
      <trkpt lat="45.1216" lon="4.07528">
        <ele>868.2</ele>
        <time>2012-09-22T16:31:11Z</time>
      </trkpt>
      <trkpt lat="45.1216" lon="4.07535">
        <ele>867.3</ele>
        <time>2012-09-22T16:31:12Z</time>
      </trkpt>
      <trkpt lat="45.12158" lon="4.07541">
        <ele>866.4</ele>
        <time>2012-09-22T16:31:13Z</time>
      </trkpt>
      <trkpt lat="45.12156" lon="4.07547">
        <ele>865.6</ele>
        <time>2012-09-22T16:31:14Z</time>
      </trkpt>
      <trkpt lat="45.12155" lon="4.07554">
        <ele>864.8</ele>
        <time>2012-09-22T16:31:15Z</time>
      </trkpt>
      <trkpt lat="45.12154" lon="4.0756">
        <ele>863.9</ele>
        <time>2012-09-22T16:31:16Z</time>
      </trkpt>
      <trkpt lat="45.12153" lon="4.07567">
        <ele>-6.1E-5</ele>
        <time>2012-09-22T16:31:17Z</time>
      </trkpt>
      <trkpt lat="45.12151" lon="4.07573">
        <ele>862.3</ele>
        <time>2012-09-22T16:31:18Z</time>
      </trkpt>
      <trkpt lat="45.1215" lon="4.0758">
        <ele>-6.1E-5</ele>
        <time>2012-09-22T16:31:19Z</time>
      </trkpt>
      <trkpt lat="45.1215" lon="4.07587">
        <ele>-6.1E-5</ele>
        <time>2012-09-22T16:31:20Z</time>
      </trkpt>
      <trkpt lat="45.1215" lon="4.07594">
        <ele>861.9</ele>
        <time>2012-09-22T16:31:21Z</time>
      </trkpt>
      <trkpt lat="45.1215" lon="4.07601">
        <ele>-6.1E-5</ele>
        <time>2012-09-22T16:31:22Z</time>
      </trkpt>
      <trkpt lat="45.1215" lon="4.07608">
        <ele>863.1</ele>
        <time>2012-09-22T16:31:23Z</time>
      </trkpt>
      <trkpt lat="45.1215" lon="4.0762">
        <ele>864.4</ele>
        <time>2012-09-22T16:31:25Z</time>
      </trkpt>
      <trkpt lat="45.1215" lon="4.07631">
        <ele>-6.1E-5</ele>
        <time>2012-09-22T16:31:27Z</time>
      </trkpt>
      <trkpt lat="45.12152" lon="4.07642">
        <ele>866.7</ele>
        <time>2012-09-22T16:31:29Z</time>
      </trkpt>
      <trkpt lat="45.12154" lon="4.07651">
        <ele>867.8</ele>
        <time>2012-09-22T16:31:31Z</time>
      </trkpt>
      <trkpt lat="45.12157" lon="4.0766">
        <ele>868.8</ele>
        <time>2012-09-22T16:31:33Z</time>
      </trkpt>
      <trkpt lat="45.12162" lon="4.0767">
        <ele>869.4</ele>
        <time>2012-09-22T16:31:35Z</time>
      </trkpt>
      <trkpt lat="45.12166" lon="4.07678">
        <ele>869.7</ele>
        <time>2012-09-22T16:31:37Z</time>
      </trkpt>
      <trkpt lat="45.12171" lon="4.07684">
        <ele>870</ele>
        <time>2012-09-22T16:31:39Z</time>
      </trkpt>
      <trkpt lat="45.12177" lon="4.07688">
        <ele>-6.1E-5</ele>
        <time>2012-09-22T16:31:41Z</time>
      </trkpt>
      <trkpt lat="45.12183" lon="4.07687">
        <ele>869.2</ele>
        <time>2012-09-22T16:31:43Z</time>
      </trkpt>
      <trkpt lat="45.12189" lon="4.07688">
        <ele>-6.1E-5</ele>
        <time>2012-09-22T16:31:45Z</time>
      </trkpt>
      <trkpt lat="45.12195" lon="4.07689">
        <ele>-6.1E-5</ele>
        <time>2012-09-22T16:31:47Z</time>
      </trkpt>
      <trkpt lat="45.12202" lon="4.0769">
        <ele>-6.1E-5</ele>
        <time>2012-09-22T16:31:49Z</time>
      </trkpt>
      <trkpt lat="45.12208" lon="4.07692">
        <ele>-6.1E-5</ele>
        <time>2012-09-22T16:31:51Z</time>
      </trkpt>
      <trkpt lat="45.12215" lon="4.07694">
        <ele>867.4</ele>
        <time>2012-09-22T16:31:53Z</time>
      </trkpt>
      <trkpt lat="45.12222" lon="4.07695">
        <ele>867.1</ele>
        <time>2012-09-22T16:31:55Z</time>
      </trkpt>
      <trkpt lat="45.12231" lon="4.07696">
        <ele>-6.1E-5</ele>
        <time>2012-09-22T16:31:57Z</time>
      </trkpt>
      <trkpt lat="45.1224" lon="4.07697">
        <ele>867.2</ele>
        <time>2012-09-22T16:31:59Z</time>
      </trkpt>
      <trkpt lat="45.12245" lon="4.07698">
        <ele>867.3</ele>
        <time>2012-09-22T16:32:00Z</time>
      </trkpt>
      <trkpt lat="45.1225" lon="4.077">
        <ele>867.4</ele>
        <time>2012-09-22T16:32:01Z</time>
      </trkpt>
      <trkpt lat="45.12255" lon="4.07701">
        <ele>867.3</ele>
        <time>2012-09-22T16:32:02Z</time>
      </trkpt>
      <trkpt lat="45.1226" lon="4.07702">
        <ele>867.2</ele>
        <time>2012-09-22T16:32:03Z</time>
      </trkpt>
      <trkpt lat="45.12264" lon="4.07703">
        <ele>867.1</ele>
        <time>2012-09-22T16:32:04Z</time>
      </trkpt>
      <trkpt lat="45.12269" lon="4.07704">
        <ele>867</ele>
        <time>2012-09-22T16:32:05Z</time>
      </trkpt>
      <trkpt lat="45.12274" lon="4.07705">
        <ele>866.9</ele>
        <time>2012-09-22T16:32:06Z</time>
      </trkpt>
      <trkpt lat="45.12278" lon="4.07707">
        <ele>866.9</ele>
        <time>2012-09-22T16:32:07Z</time>
      </trkpt>
      <trkpt lat="45.12282" lon="4.07708">
        <ele>866.8</ele>
        <time>2012-09-22T16:32:08Z</time>
      </trkpt>
      <trkpt lat="45.12287" lon="4.07711">
        <ele>866.8</ele>
        <time>2012-09-22T16:32:09Z</time>
      </trkpt>
      <trkpt lat="45.12292" lon="4.07713">
        <ele>866.8</ele>
        <time>2012-09-22T16:32:10Z</time>
      </trkpt>
      <trkpt lat="45.12297" lon="4.07716">
        <ele>866.8</ele>
        <time>2012-09-22T16:32:11Z</time>
      </trkpt>
      <trkpt lat="45.12303" lon="4.07718">
        <ele>866.8</ele>
        <time>2012-09-22T16:32:12Z</time>
      </trkpt>
      <trkpt lat="45.12308" lon="4.07719">
        <ele>-6.1E-5</ele>
        <time>2012-09-22T16:32:13Z</time>
      </trkpt>
      <trkpt lat="45.12314" lon="4.0772">
        <ele>866.5</ele>
        <time>2012-09-22T16:32:14Z</time>
      </trkpt>
      <trkpt lat="45.1232" lon="4.07721">
        <ele>866.4</ele>
        <time>2012-09-22T16:32:15Z</time>
      </trkpt>
      <trkpt lat="45.12326" lon="4.07722">
        <ele>866.2</ele>
        <time>2012-09-22T16:32:16Z</time>
      </trkpt>
      <trkpt lat="45.12333" lon="4.07722">
        <ele>866</ele>
        <time>2012-09-22T16:32:17Z</time>
      </trkpt>
      <trkpt lat="45.12339" lon="4.07722">
        <ele>865.7</ele>
        <time>2012-09-22T16:32:18Z</time>
      </trkpt>
      <trkpt lat="45.12346" lon="4.07721">
        <ele>865.5</ele>
        <time>2012-09-22T16:32:19Z</time>
      </trkpt>
      <trkpt lat="45.12352" lon="4.07721">
        <ele>865.2</ele>
        <time>2012-09-22T16:32:20Z</time>
      </trkpt>
      <trkpt lat="45.12359" lon="4.07721">
        <ele>864.9</ele>
        <time>2012-09-22T16:32:21Z</time>
      </trkpt>
      <trkpt lat="45.12365" lon="4.0772">
        <ele>864.8</ele>
        <time>2012-09-22T16:32:22Z</time>
      </trkpt>
      <trkpt lat="45.12371" lon="4.07719">
        <ele>864.7</ele>
        <time>2012-09-22T16:32:23Z</time>
      </trkpt>
      <trkpt lat="45.12378" lon="4.07719">
        <ele>864.6</ele>
        <time>2012-09-22T16:32:24Z</time>
      </trkpt>
      <trkpt lat="45.12384" lon="4.07718">
        <ele>864.5</ele>
        <time>2012-09-22T16:32:25Z</time>
      </trkpt>
      <trkpt lat="45.1239" lon="4.07717">
        <ele>864.4</ele>
        <time>2012-09-22T16:32:26Z</time>
      </trkpt>
      <trkpt lat="45.12397" lon="4.07717">
        <ele>-6.1E-5</ele>
        <time>2012-09-22T16:32:27Z</time>
      </trkpt>
      <trkpt lat="45.12403" lon="4.07716">
        <ele>864.4</ele>
        <time>2012-09-22T16:32:28Z</time>
      </trkpt>
      <trkpt lat="45.12409" lon="4.07716">
        <ele>864.3</ele>
        <time>2012-09-22T16:32:29Z</time>
      </trkpt>
      <trkpt lat="45.12415" lon="4.07716">
        <ele>864.3</ele>
        <time>2012-09-22T16:32:30Z</time>
      </trkpt>
      <trkpt lat="45.12422" lon="4.07716">
        <ele>864.1</ele>
        <time>2012-09-22T16:32:31Z</time>
      </trkpt>
      <trkpt lat="45.12428" lon="4.07716">
        <ele>863.8</ele>
        <time>2012-09-22T16:32:32Z</time>
      </trkpt>
      <trkpt lat="45.12434" lon="4.07717">
        <ele>863.7</ele>
        <time>2012-09-22T16:32:33Z</time>
      </trkpt>
      <trkpt lat="45.1244" lon="4.07718">
        <ele>863.5</ele>
        <time>2012-09-22T16:32:34Z</time>
      </trkpt>
      <trkpt lat="45.12446" lon="4.07719">
        <ele>863.3</ele>
        <time>2012-09-22T16:32:35Z</time>
      </trkpt>
      <trkpt lat="45.12452" lon="4.07719">
        <ele>862.7</ele>
        <time>2012-09-22T16:32:36Z</time>
      </trkpt>
      <trkpt lat="45.12458" lon="4.07721">
        <ele>862.3</ele>
        <time>2012-09-22T16:32:37Z</time>
      </trkpt>
      <trkpt lat="45.12464" lon="4.07722">
        <ele>861.9</ele>
        <time>2012-09-22T16:32:38Z</time>
      </trkpt>
      <trkpt lat="45.1247" lon="4.07724">
        <ele>861.5</ele>
        <time>2012-09-22T16:32:39Z</time>
      </trkpt>
      <trkpt lat="45.12476" lon="4.07727">
        <ele>-6.1E-5</ele>
        <time>2012-09-22T16:32:40Z</time>
      </trkpt>
      <trkpt lat="45.12481" lon="4.0773">
        <ele>-6.1E-5</ele>
        <time>2012-09-22T16:32:41Z</time>
      </trkpt>
      <trkpt lat="45.12487" lon="4.07733">
        <ele>860.5</ele>
        <time>2012-09-22T16:32:42Z</time>
      </trkpt>
      <trkpt lat="45.12492" lon="4.07737">
        <ele>860.2</ele>
        <time>2012-09-22T16:32:43Z</time>
      </trkpt>
      <trkpt lat="45.12497" lon="4.0774">
        <ele>859.9</ele>
        <time>2012-09-22T16:32:44Z</time>
      </trkpt>
      <trkpt lat="45.12503" lon="4.07742">
        <ele>859.5</ele>
        <time>2012-09-22T16:32:45Z</time>
      </trkpt>
      <trkpt lat="45.12508" lon="4.07745">
        <ele>859.1</ele>
        <time>2012-09-22T16:32:46Z</time>
      </trkpt>
      <trkpt lat="45.12514" lon="4.07747">
        <ele>858.7</ele>
        <time>2012-09-22T16:32:47Z</time>
      </trkpt>
      <trkpt lat="45.12519" lon="4.0775">
        <ele>858.3</ele>
        <time>2012-09-22T16:32:48Z</time>
      </trkpt>
      <trkpt lat="45.12525" lon="4.07754">
        <ele>857.9</ele>
        <time>2012-09-22T16:32:49Z</time>
      </trkpt>
      <trkpt lat="45.1253" lon="4.07758">
        <ele>857.6</ele>
        <time>2012-09-22T16:32:50Z</time>
      </trkpt>
      <trkpt lat="45.12536" lon="4.07763">
        <ele>857.3</ele>
        <time>2012-09-22T16:32:51Z</time>
      </trkpt>
      <trkpt lat="45.12541" lon="4.07768">
        <ele>-6.1E-5</ele>
        <time>2012-09-22T16:32:52Z</time>
      </trkpt>
      <trkpt lat="45.12546" lon="4.07772">
        <ele>-6.1E-5</ele>
        <time>2012-09-22T16:32:53Z</time>
      </trkpt>
      <trkpt lat="45.12552" lon="4.07776">
        <ele>855.6</ele>
        <time>2012-09-22T16:32:54Z</time>
      </trkpt>
      <trkpt lat="45.12557" lon="4.07781">
        <ele>-6.1E-5</ele>
        <time>2012-09-22T16:32:55Z</time>
      </trkpt>
      <trkpt lat="45.12562" lon="4.07789">
        <ele>-6.1E-5</ele>
        <time>2012-09-22T16:32:56Z</time>
      </trkpt>
      <trkpt lat="45.12567" lon="4.07797">
        <ele>-6.1E-5</ele>
        <time>2012-09-22T16:32:57Z</time>
      </trkpt>
      <trkpt lat="45.12572" lon="4.07803">
        <ele>857.4</ele>
        <time>2012-09-22T16:32:58Z</time>
      </trkpt>
      <trkpt lat="45.12578" lon="4.07808">
        <ele>857.6</ele>
        <time>2012-09-22T16:32:59Z</time>
      </trkpt>
      <trkpt lat="45.12584" lon="4.07813">
        <ele>857.5</ele>
        <time>2012-09-22T16:33:00Z</time>
      </trkpt>
      <trkpt lat="45.1259" lon="4.07816">
        <ele>857.4</ele>
        <time>2012-09-22T16:33:01Z</time>
      </trkpt>
      <trkpt lat="45.12597" lon="4.07819">
        <ele>857.2</ele>
        <time>2012-09-22T16:33:02Z</time>
      </trkpt>
      <trkpt lat="45.12604" lon="4.0782">
        <ele>856.9</ele>
        <time>2012-09-22T16:33:03Z</time>
      </trkpt>
      <trkpt lat="45.12611" lon="4.0782">
        <ele>856.6</ele>
        <time>2012-09-22T16:33:04Z</time>
      </trkpt>
      <trkpt lat="45.12618" lon="4.07821">
        <ele>856.6</ele>
        <time>2012-09-22T16:33:05Z</time>
      </trkpt>
      <trkpt lat="45.12625" lon="4.07821">
        <ele>856.6</ele>
        <time>2012-09-22T16:33:06Z</time>
      </trkpt>
      <trkpt lat="45.12632" lon="4.0782">
        <ele>856.6</ele>
        <time>2012-09-22T16:33:07Z</time>
      </trkpt>
      <trkpt lat="45.1264" lon="4.0782">
        <ele>856.5</ele>
        <time>2012-09-22T16:33:08Z</time>
      </trkpt>
      <trkpt lat="45.12647" lon="4.0782">
        <ele>856.4</ele>
        <time>2012-09-22T16:33:09Z</time>
      </trkpt>
      <trkpt lat="45.12654" lon="4.0782">
        <ele>856.2</ele>
        <time>2012-09-22T16:33:10Z</time>
      </trkpt>
      <trkpt lat="45.12662" lon="4.07819">
        <ele>856</ele>
        <time>2012-09-22T16:33:11Z</time>
      </trkpt>
      <trkpt lat="45.12669" lon="4.07819">
        <ele>855.8</ele>
        <time>2012-09-22T16:33:12Z</time>
      </trkpt>
      <trkpt lat="45.12677" lon="4.07818">
        <ele>855.4</ele>
        <time>2012-09-22T16:33:13Z</time>
      </trkpt>
      <trkpt lat="45.12684" lon="4.07817">
        <ele>-6.1E-5</ele>
        <time>2012-09-22T16:33:14Z</time>
      </trkpt>
      <trkpt lat="45.12691" lon="4.07817">
        <ele>-6.1E-5</ele>
        <time>2012-09-22T16:33:15Z</time>
      </trkpt>
      <trkpt lat="45.12698" lon="4.07817">
        <ele>-6.1E-5</ele>
        <time>2012-09-22T16:33:16Z</time>
      </trkpt>
      <trkpt lat="45.12706" lon="4.07816">
        <ele>854</ele>
        <time>2012-09-22T16:33:17Z</time>
      </trkpt>
      <trkpt lat="45.12713" lon="4.07816">
        <ele>853.5</ele>
        <time>2012-09-22T16:33:18Z</time>
      </trkpt>
      <trkpt lat="45.1272" lon="4.07815">
        <ele>853.1</ele>
        <time>2012-09-22T16:33:19Z</time>
      </trkpt>
      <trkpt lat="45.12727" lon="4.07814">
        <ele>-6.1E-5</ele>
        <time>2012-09-22T16:33:20Z</time>
      </trkpt>
      <trkpt lat="45.12734" lon="4.07813">
        <ele>852.8</ele>
        <time>2012-09-22T16:33:21Z</time>
      </trkpt>
      <trkpt lat="45.12741" lon="4.07812">
        <ele>852.7</ele>
        <time>2012-09-22T16:33:22Z</time>
      </trkpt>
      <trkpt lat="45.12747" lon="4.07811">
        <ele>852.6</ele>
        <time>2012-09-22T16:33:23Z</time>
      </trkpt>
      <trkpt lat="45.12754" lon="4.0781">
        <ele>-6.1E-5</ele>
        <time>2012-09-22T16:33:24Z</time>
      </trkpt>
      <trkpt lat="45.12761" lon="4.0781">
        <ele>852.4</ele>
        <time>2012-09-22T16:33:25Z</time>
      </trkpt>
      <trkpt lat="45.12767" lon="4.07809">
        <ele>-6.1E-5</ele>
        <time>2012-09-22T16:33:26Z</time>
      </trkpt>
      <trkpt lat="45.12774" lon="4.07808">
        <ele>-6.1E-5</ele>
        <time>2012-09-22T16:33:27Z</time>
      </trkpt>
      <trkpt lat="45.1278" lon="4.07807">
        <ele>-6.1E-5</ele>
        <time>2012-09-22T16:33:28Z</time>
      </trkpt>
      <trkpt lat="45.12787" lon="4.07807">
        <ele>851.5</ele>
        <time>2012-09-22T16:33:29Z</time>
      </trkpt>
      <trkpt lat="45.12793" lon="4.07807">
        <ele>851.1</ele>
        <time>2012-09-22T16:33:30Z</time>
      </trkpt>
      <trkpt lat="45.12799" lon="4.07807">
        <ele>-6.1E-5</ele>
        <time>2012-09-22T16:33:31Z</time>
      </trkpt>
      <trkpt lat="45.12804" lon="4.07808">
        <ele>-6.1E-5</ele>
        <time>2012-09-22T16:33:32Z</time>
      </trkpt>
      <trkpt lat="45.12809" lon="4.07809">
        <ele>850.3</ele>
        <time>2012-09-22T16:33:33Z</time>
      </trkpt>
      <trkpt lat="45.12817" lon="4.07809">
        <ele>-6.1E-5</ele>
        <time>2012-09-22T16:33:35Z</time>
      </trkpt>
      <trkpt lat="45.12822" lon="4.07805">
        <ele>849.4</ele>
        <time>2012-09-22T16:33:37Z</time>
      </trkpt>
      <trkpt lat="45.1283" lon="4.07804">
        <ele>848.9</ele>
        <time>2012-09-22T16:33:39Z</time>
      </trkpt>
      <trkpt lat="45.12834" lon="4.07804">
        <ele>848.8</ele>
        <time>2012-09-22T16:33:40Z</time>
      </trkpt>
      <trkpt lat="45.12839" lon="4.07807">
        <ele>848.5</ele>
        <time>2012-09-22T16:33:41Z</time>
      </trkpt>
      <trkpt lat="45.12844" lon="4.07809">
        <ele>-6.1E-5</ele>
        <time>2012-09-22T16:33:42Z</time>
      </trkpt>
      <trkpt lat="45.12849" lon="4.07813">
        <ele>-6.1E-5</ele>
        <time>2012-09-22T16:33:43Z</time>
      </trkpt>
      <trkpt lat="45.12854" lon="4.07816">
        <ele>847.5</ele>
        <time>2012-09-22T16:33:44Z</time>
      </trkpt>
      <trkpt lat="45.1286" lon="4.0782">
        <ele>847.2</ele>
        <time>2012-09-22T16:33:45Z</time>
      </trkpt>
      <trkpt lat="45.12866" lon="4.07824">
        <ele>846.9</ele>
        <time>2012-09-22T16:33:46Z</time>
      </trkpt>
      <trkpt lat="45.12872" lon="4.07828">
        <ele>846.6</ele>
        <time>2012-09-22T16:33:47Z</time>
      </trkpt>
      <trkpt lat="45.12878" lon="4.07832">
        <ele>846.2</ele>
        <time>2012-09-22T16:33:48Z</time>
      </trkpt>
      <trkpt lat="45.12883" lon="4.07836">
        <ele>845.8</ele>
        <time>2012-09-22T16:33:49Z</time>
      </trkpt>
      <trkpt lat="45.12889" lon="4.07839">
        <ele>845.4</ele>
        <time>2012-09-22T16:33:50Z</time>
      </trkpt>
      <trkpt lat="45.12894" lon="4.07842">
        <ele>844.9</ele>
        <time>2012-09-22T16:33:51Z</time>
      </trkpt>
      <trkpt lat="45.129" lon="4.07846">
        <ele>844.5</ele>
        <time>2012-09-22T16:33:52Z</time>
      </trkpt>
      <trkpt lat="45.12906" lon="4.07851">
        <ele>-6.1E-5</ele>
        <time>2012-09-22T16:33:53Z</time>
      </trkpt>
      <trkpt lat="45.12914" lon="4.07856">
        <ele>-6.1E-5</ele>
        <time>2012-09-22T16:33:54Z</time>
      </trkpt>
      <trkpt lat="45.12921" lon="4.07862">
        <ele>843.8</ele>
        <time>2012-09-22T16:33:55Z</time>
      </trkpt>
      <trkpt lat="45.12929" lon="4.07868">
        <ele>843.9</ele>
        <time>2012-09-22T16:33:56Z</time>
      </trkpt>
      <trkpt lat="45.12936" lon="4.07872">
        <ele>-6.1E-5</ele>
        <time>2012-09-22T16:33:57Z</time>
      </trkpt>
      <trkpt lat="45.12943" lon="4.07877">
        <ele>844.4</ele>
        <time>2012-09-22T16:33:58Z</time>
      </trkpt>
      <trkpt lat="45.12951" lon="4.07883">
        <ele>844.5</ele>
        <time>2012-09-22T16:33:59Z</time>
      </trkpt>
      <trkpt lat="45.12958" lon="4.07887">
        <ele>844.3</ele>
        <time>2012-09-22T16:34:00Z</time>
      </trkpt>
      <trkpt lat="45.12965" lon="4.07892">
        <ele>-6.1E-5</ele>
        <time>2012-09-22T16:34:01Z</time>
      </trkpt>
      <trkpt lat="45.12971" lon="4.07896">
        <ele>843.6</ele>
        <time>2012-09-22T16:34:02Z</time>
      </trkpt>
      <trkpt lat="45.12978" lon="4.07899">
        <ele>-6.1E-5</ele>
        <time>2012-09-22T16:34:03Z</time>
      </trkpt>
      <trkpt lat="45.12984" lon="4.07903">
        <ele>-6.1E-5</ele>
        <time>2012-09-22T16:34:04Z</time>
      </trkpt>
      <trkpt lat="45.1299" lon="4.07906">
        <ele>843.4</ele>
        <time>2012-09-22T16:34:05Z</time>
      </trkpt>
      <trkpt lat="45.12996" lon="4.0791">
        <ele>843.4</ele>
        <time>2012-09-22T16:34:06Z</time>
      </trkpt>
      <trkpt lat="45.13003" lon="4.07913">
        <ele>843.5</ele>
        <time>2012-09-22T16:34:07Z</time>
      </trkpt>
      <trkpt lat="45.13009" lon="4.07917">
        <ele>843.7</ele>
        <time>2012-09-22T16:34:08Z</time>
      </trkpt>
      <trkpt lat="45.13014" lon="4.0792">
        <ele>843.7</ele>
        <time>2012-09-22T16:34:09Z</time>
      </trkpt>
      <trkpt lat="45.1302" lon="4.07924">
        <ele>843.7</ele>
        <time>2012-09-22T16:34:10Z</time>
      </trkpt>
      <trkpt lat="45.13026" lon="4.07927">
        <ele>-6.1E-5</ele>
        <time>2012-09-22T16:34:11Z</time>
      </trkpt>
      <trkpt lat="45.13031" lon="4.07931">
        <ele>843.6</ele>
        <time>2012-09-22T16:34:12Z</time>
      </trkpt>
      <trkpt lat="45.13037" lon="4.07934">
        <ele>843.8</ele>
        <time>2012-09-22T16:34:13Z</time>
      </trkpt>
      <trkpt lat="45.13042" lon="4.07938">
        <ele>844.2</ele>
        <time>2012-09-22T16:34:14Z</time>
      </trkpt>
      <trkpt lat="45.13047" lon="4.07942">
        <ele>844.6</ele>
        <time>2012-09-22T16:34:15Z</time>
      </trkpt>
      <trkpt lat="45.13053" lon="4.07947">
        <ele>844.8</ele>
        <time>2012-09-22T16:34:16Z</time>
      </trkpt>
      <trkpt lat="45.13058" lon="4.07953">
        <ele>-6.1E-5</ele>
        <time>2012-09-22T16:34:17Z</time>
      </trkpt>
      <trkpt lat="45.13063" lon="4.07959">
        <ele>844.2</ele>
        <time>2012-09-22T16:34:18Z</time>
      </trkpt>
      <trkpt lat="45.13068" lon="4.07966">
        <ele>843.5</ele>
        <time>2012-09-22T16:34:19Z</time>
      </trkpt>
      <trkpt lat="45.13074" lon="4.07972">
        <ele>842.7</ele>
        <time>2012-09-22T16:34:20Z</time>
      </trkpt>
      <trkpt lat="45.13079" lon="4.07979">
        <ele>842.2</ele>
        <time>2012-09-22T16:34:21Z</time>
      </trkpt>
      <trkpt lat="45.13084" lon="4.07985">
        <ele>841.5</ele>
        <time>2012-09-22T16:34:22Z</time>
      </trkpt>
      <trkpt lat="45.1309" lon="4.07991">
        <ele>841.3</ele>
        <time>2012-09-22T16:34:23Z</time>
      </trkpt>
      <trkpt lat="45.13095" lon="4.07997">
        <ele>841.1</ele>
        <time>2012-09-22T16:34:24Z</time>
      </trkpt>
      <trkpt lat="45.13101" lon="4.08003">
        <ele>840.9</ele>
        <time>2012-09-22T16:34:25Z</time>
      </trkpt>
      <trkpt lat="45.13106" lon="4.08009">
        <ele>840.6</ele>
        <time>2012-09-22T16:34:26Z</time>
      </trkpt>
      <trkpt lat="45.13111" lon="4.08015">
        <ele>-6.1E-5</ele>
        <time>2012-09-22T16:34:27Z</time>
      </trkpt>
      <trkpt lat="45.13117" lon="4.0802">
        <ele>840</ele>
        <time>2012-09-22T16:34:28Z</time>
      </trkpt>
      <trkpt lat="45.13122" lon="4.08026">
        <ele>839.6</ele>
        <time>2012-09-22T16:34:29Z</time>
      </trkpt>
      <trkpt lat="45.13128" lon="4.08031">
        <ele>839.4</ele>
        <time>2012-09-22T16:34:30Z</time>
      </trkpt>
      <trkpt lat="45.13134" lon="4.08037">
        <ele>839.3</ele>
        <time>2012-09-22T16:34:31Z</time>
      </trkpt>
      <trkpt lat="45.1314" lon="4.08042">
        <ele>839.4</ele>
        <time>2012-09-22T16:34:32Z</time>
      </trkpt>
      <trkpt lat="45.13146" lon="4.08048">
        <ele>838.8</ele>
        <time>2012-09-22T16:34:33Z</time>
      </trkpt>
      <trkpt lat="45.13153" lon="4.08053">
        <ele>838.3</ele>
        <time>2012-09-22T16:34:34Z</time>
      </trkpt>
      <trkpt lat="45.13159" lon="4.08057">
        <ele>837.9</ele>
        <time>2012-09-22T16:34:35Z</time>
      </trkpt>
      <trkpt lat="45.13166" lon="4.08062">
        <ele>837.6</ele>
        <time>2012-09-22T16:34:36Z</time>
      </trkpt>
      <trkpt lat="45.13172" lon="4.08066">
        <ele>836.3</ele>
        <time>2012-09-22T16:34:37Z</time>
      </trkpt>
      <trkpt lat="45.13179" lon="4.08071">
        <ele>835.2</ele>
        <time>2012-09-22T16:34:38Z</time>
      </trkpt>
      <trkpt lat="45.13185" lon="4.08076">
        <ele>834.6</ele>
        <time>2012-09-22T16:34:39Z</time>
      </trkpt>
      <trkpt lat="45.13192" lon="4.08081">
        <ele>834.6</ele>
        <time>2012-09-22T16:34:40Z</time>
      </trkpt>
      <trkpt lat="45.13199" lon="4.08086">
        <ele>834.8</ele>
        <time>2012-09-22T16:34:41Z</time>
      </trkpt>
      <trkpt lat="45.13205" lon="4.08091">
        <ele>834.9</ele>
        <time>2012-09-22T16:34:42Z</time>
      </trkpt>
      <trkpt lat="45.13211" lon="4.08096">
        <ele>835</ele>
        <time>2012-09-22T16:34:43Z</time>
      </trkpt>
      <trkpt lat="45.13218" lon="4.08101">
        <ele>-6.1E-5</ele>
        <time>2012-09-22T16:34:44Z</time>
      </trkpt>
      <trkpt lat="45.13224" lon="4.08106">
        <ele>835.7</ele>
        <time>2012-09-22T16:34:45Z</time>
      </trkpt>
      <trkpt lat="45.13229" lon="4.08112">
        <ele>836.1</ele>
        <time>2012-09-22T16:34:46Z</time>
      </trkpt>
      <trkpt lat="45.13235" lon="4.08118">
        <ele>-6.1E-5</ele>
        <time>2012-09-22T16:34:47Z</time>
      </trkpt>
      <trkpt lat="45.1324" lon="4.08124">
        <ele>836</ele>
        <time>2012-09-22T16:34:48Z</time>
      </trkpt>
      <trkpt lat="45.13245" lon="4.08131">
        <ele>836</ele>
        <time>2012-09-22T16:34:49Z</time>
      </trkpt>
      <trkpt lat="45.13249" lon="4.08137">
        <ele>835.9</ele>
        <time>2012-09-22T16:34:50Z</time>
      </trkpt>
      <trkpt lat="45.13253" lon="4.08144">
        <ele>835.4</ele>
        <time>2012-09-22T16:34:51Z</time>
      </trkpt>
      <trkpt lat="45.13257" lon="4.08151">
        <ele>-6.1E-5</ele>
        <time>2012-09-22T16:34:52Z</time>
      </trkpt>
      <trkpt lat="45.13261" lon="4.08159">
        <ele>834.5</ele>
        <time>2012-09-22T16:34:53Z</time>
      </trkpt>
      <trkpt lat="45.13264" lon="4.08168">
        <ele>834.1</ele>
        <time>2012-09-22T16:34:54Z</time>
      </trkpt>
      <trkpt lat="45.13267" lon="4.08177">
        <ele>833.7</ele>
        <time>2012-09-22T16:34:55Z</time>
      </trkpt>
      <trkpt lat="45.1327" lon="4.08187">
        <ele>833.5</ele>
        <time>2012-09-22T16:34:56Z</time>
      </trkpt>
      <trkpt lat="45.13273" lon="4.08197">
        <ele>-6.1E-5</ele>
        <time>2012-09-22T16:34:57Z</time>
      </trkpt>
      <trkpt lat="45.13276" lon="4.08207">
        <ele>-6.1E-5</ele>
        <time>2012-09-22T16:34:58Z</time>
      </trkpt>
      <trkpt lat="45.13278" lon="4.08218">
        <ele>833.2</ele>
        <time>2012-09-22T16:34:59Z</time>
      </trkpt>
      <trkpt lat="45.1328" lon="4.08228">
        <ele>832.4</ele>
        <time>2012-09-22T16:35:00Z</time>
      </trkpt>
      <trkpt lat="45.13281" lon="4.08238">
        <ele>831</ele>
        <time>2012-09-22T16:35:01Z</time>
      </trkpt>
      <trkpt lat="45.13283" lon="4.08249">
        <ele>829.6</ele>
        <time>2012-09-22T16:35:02Z</time>
      </trkpt>
      <trkpt lat="45.13283" lon="4.0826">
        <ele>827.1</ele>
        <time>2012-09-22T16:35:03Z</time>
      </trkpt>
      <trkpt lat="45.13281" lon="4.0827">
        <ele>-6.1E-5</ele>
        <time>2012-09-22T16:35:04Z</time>
      </trkpt>
      <trkpt lat="45.1328" lon="4.08281">
        <ele>825.6</ele>
        <time>2012-09-22T16:35:05Z</time>
      </trkpt>
      <trkpt lat="45.13278" lon="4.08291">
        <ele>827.4</ele>
        <time>2012-09-22T16:35:06Z</time>
      </trkpt>
      <trkpt lat="45.13276" lon="4.08301">
        <ele>828.6</ele>
        <time>2012-09-22T16:35:07Z</time>
      </trkpt>
      <trkpt lat="45.13275" lon="4.08312">
        <ele>828.8</ele>
        <time>2012-09-22T16:35:08Z</time>
      </trkpt>
      <trkpt lat="45.13274" lon="4.08322">
        <ele>828.4</ele>
        <time>2012-09-22T16:35:09Z</time>
      </trkpt>
      <trkpt lat="45.13273" lon="4.08332">
        <ele>827.7</ele>
        <time>2012-09-22T16:35:10Z</time>
      </trkpt>
      <trkpt lat="45.13272" lon="4.08343">
        <ele>-6.1E-5</ele>
        <time>2012-09-22T16:35:11Z</time>
      </trkpt>
      <trkpt lat="45.1327" lon="4.08353">
        <ele>827.1</ele>
        <time>2012-09-22T16:35:12Z</time>
      </trkpt>
      <trkpt lat="45.13268" lon="4.08363">
        <ele>826.8</ele>
        <time>2012-09-22T16:35:13Z</time>
      </trkpt>
      <trkpt lat="45.13265" lon="4.08373">
        <ele>826.8</ele>
        <time>2012-09-22T16:35:14Z</time>
      </trkpt>
      <trkpt lat="45.13263" lon="4.08383">
        <ele>826.8</ele>
        <time>2012-09-22T16:35:15Z</time>
      </trkpt>
      <trkpt lat="45.1326" lon="4.08393">
        <ele>826.8</ele>
        <time>2012-09-22T16:35:16Z</time>
      </trkpt>
      <trkpt lat="45.13256" lon="4.08402">
        <ele>826.8</ele>
        <time>2012-09-22T16:35:17Z</time>
      </trkpt>
      <trkpt lat="45.13253" lon="4.08412">
        <ele>826.7</ele>
        <time>2012-09-22T16:35:18Z</time>
      </trkpt>
      <trkpt lat="45.1325" lon="4.08422">
        <ele>826.3</ele>
        <time>2012-09-22T16:35:19Z</time>
      </trkpt>
      <trkpt lat="45.13246" lon="4.08432">
        <ele>825.3</ele>
        <time>2012-09-22T16:35:20Z</time>
      </trkpt>
      <trkpt lat="45.13243" lon="4.08441">
        <ele>-6.1E-5</ele>
        <time>2012-09-22T16:35:21Z</time>
      </trkpt>
      <trkpt lat="45.13238" lon="4.0845">
        <ele>823.3</ele>
        <time>2012-09-22T16:35:22Z</time>
      </trkpt>
      <trkpt lat="45.13234" lon="4.08459">
        <ele>-6.1E-5</ele>
        <time>2012-09-22T16:35:23Z</time>
      </trkpt>
      <trkpt lat="45.13229" lon="4.08467">
        <ele>-6.1E-5</ele>
        <time>2012-09-22T16:35:24Z</time>
      </trkpt>
      <trkpt lat="45.13224" lon="4.08475">
        <ele>-6.1E-5</ele>
        <time>2012-09-22T16:35:25Z</time>
      </trkpt>
      <trkpt lat="45.1322" lon="4.08483">
        <ele>823.7</ele>
        <time>2012-09-22T16:35:26Z</time>
      </trkpt>
      <trkpt lat="45.13216" lon="4.08492">
        <ele>824.6</ele>
        <time>2012-09-22T16:35:27Z</time>
      </trkpt>
      <trkpt lat="45.13212" lon="4.085">
        <ele>824.8</ele>
        <time>2012-09-22T16:35:28Z</time>
      </trkpt>
      <trkpt lat="45.13209" lon="4.08508">
        <ele>824.7</ele>
        <time>2012-09-22T16:35:29Z</time>
      </trkpt>
      <trkpt lat="45.13206" lon="4.08517">
        <ele>824.3</ele>
        <time>2012-09-22T16:35:30Z</time>
      </trkpt>
      <trkpt lat="45.13204" lon="4.08526">
        <ele>823.5</ele>
        <time>2012-09-22T16:35:31Z</time>
      </trkpt>
      <trkpt lat="45.13201" lon="4.08536">
        <ele>822.7</ele>
        <time>2012-09-22T16:35:32Z</time>
      </trkpt>
      <trkpt lat="45.13197" lon="4.08544">
        <ele>822</ele>
        <time>2012-09-22T16:35:33Z</time>
      </trkpt>
      <trkpt lat="45.13193" lon="4.08553">
        <ele>821.5</ele>
        <time>2012-09-22T16:35:34Z</time>
      </trkpt>
      <trkpt lat="45.13186" lon="4.08558">
        <ele>-6.1E-5</ele>
        <time>2012-09-22T16:35:35Z</time>
      </trkpt>
      <trkpt lat="45.13179" lon="4.08564">
        <ele>821.6</ele>
        <time>2012-09-22T16:35:36Z</time>
      </trkpt>
      <trkpt lat="45.13172" lon="4.08568">
        <ele>821.7</ele>
        <time>2012-09-22T16:35:37Z</time>
      </trkpt>
      <trkpt lat="45.13166" lon="4.08573">
        <ele>821.6</ele>
        <time>2012-09-22T16:35:38Z</time>
      </trkpt>
      <trkpt lat="45.13159" lon="4.08577">
        <ele>821.6</ele>
        <time>2012-09-22T16:35:39Z</time>
      </trkpt>
      <trkpt lat="45.13153" lon="4.08581">
        <ele>821.5</ele>
        <time>2012-09-22T16:35:40Z</time>
      </trkpt>
      <trkpt lat="45.13146" lon="4.08584">
        <ele>-6.1E-5</ele>
        <time>2012-09-22T16:35:41Z</time>
      </trkpt>
      <trkpt lat="45.13139" lon="4.08586">
        <ele>821.5</ele>
        <time>2012-09-22T16:35:42Z</time>
      </trkpt>
      <trkpt lat="45.13132" lon="4.08589">
        <ele>821.5</ele>
        <time>2012-09-22T16:35:43Z</time>
      </trkpt>
      <trkpt lat="45.13125" lon="4.08591">
        <ele>821.7</ele>
        <time>2012-09-22T16:35:44Z</time>
      </trkpt>
      <trkpt lat="45.13118" lon="4.08593">
        <ele>822</ele>
        <time>2012-09-22T16:35:45Z</time>
      </trkpt>
      <trkpt lat="45.13112" lon="4.08594">
        <ele>822.4</ele>
        <time>2012-09-22T16:35:46Z</time>
      </trkpt>
      <trkpt lat="45.13105" lon="4.08596">
        <ele>-6.1E-5</ele>
        <time>2012-09-22T16:35:47Z</time>
      </trkpt>
      <trkpt lat="45.13099" lon="4.08598">
        <ele>822.7</ele>
        <time>2012-09-22T16:35:48Z</time>
      </trkpt>
      <trkpt lat="45.13092" lon="4.08601">
        <ele>822.7</ele>
        <time>2012-09-22T16:35:49Z</time>
      </trkpt>
      <trkpt lat="45.13085" lon="4.08603">
        <ele>-6.1E-5</ele>
        <time>2012-09-22T16:35:50Z</time>
      </trkpt>
      <trkpt lat="45.13078" lon="4.08605">
        <ele>822.3</ele>
        <time>2012-09-22T16:35:51Z</time>
      </trkpt>
      <trkpt lat="45.13071" lon="4.08608">
        <ele>821.8</ele>
        <time>2012-09-22T16:35:52Z</time>
      </trkpt>
      <trkpt lat="45.13064" lon="4.0861">
        <ele>-6.1E-5</ele>
        <time>2012-09-22T16:35:53Z</time>
      </trkpt>
      <trkpt lat="45.13057" lon="4.08613">
        <ele>820.7</ele>
        <time>2012-09-22T16:35:54Z</time>
      </trkpt>
      <trkpt lat="45.1305" lon="4.08616">
        <ele>820.4</ele>
        <time>2012-09-22T16:35:55Z</time>
      </trkpt>
      <trkpt lat="45.13043" lon="4.08619">
        <ele>820.1</ele>
        <time>2012-09-22T16:35:56Z</time>
      </trkpt>
      <trkpt lat="45.13037" lon="4.08623">
        <ele>819.9</ele>
        <time>2012-09-22T16:35:57Z</time>
      </trkpt>
      <trkpt lat="45.1303" lon="4.08628">
        <ele>819.5</ele>
        <time>2012-09-22T16:35:58Z</time>
      </trkpt>
      <trkpt lat="45.13024" lon="4.08632">
        <ele>819.1</ele>
        <time>2012-09-22T16:35:59Z</time>
      </trkpt>
      <trkpt lat="45.13017" lon="4.08637">
        <ele>818.6</ele>
        <time>2012-09-22T16:36:00Z</time>
      </trkpt>
      <trkpt lat="45.1301" lon="4.08643">
        <ele>818.1</ele>
        <time>2012-09-22T16:36:01Z</time>
      </trkpt>
      <trkpt lat="45.13004" lon="4.0865">
        <ele>818</ele>
        <time>2012-09-22T16:36:02Z</time>
      </trkpt>
      <trkpt lat="45.12999" lon="4.08658">
        <ele>818.1</ele>
        <time>2012-09-22T16:36:03Z</time>
      </trkpt>
      <trkpt lat="45.12993" lon="4.08665">
        <ele>816.4</ele>
        <time>2012-09-22T16:36:04Z</time>
      </trkpt>
      <trkpt lat="45.12988" lon="4.08673">
        <ele>812.7</ele>
        <time>2012-09-22T16:36:05Z</time>
      </trkpt>
      <trkpt lat="45.12983" lon="4.08681">
        <ele>-6.1E-5</ele>
        <time>2012-09-22T16:36:06Z</time>
      </trkpt>
      <trkpt lat="45.12979" lon="4.0869">
        <ele>806</ele>
        <time>2012-09-22T16:36:07Z</time>
      </trkpt>
      <trkpt lat="45.12976" lon="4.08698">
        <ele>-6.1E-5</ele>
        <time>2012-09-22T16:36:08Z</time>
      </trkpt>
      <trkpt lat="45.12973" lon="4.08707">
        <ele>802.7</ele>
        <time>2012-09-22T16:36:09Z</time>
      </trkpt>
      <trkpt lat="45.12971" lon="4.08715">
        <ele>801.7</ele>
        <time>2012-09-22T16:36:10Z</time>
      </trkpt>
      <trkpt lat="45.1297" lon="4.08724">
        <ele>-6.1E-5</ele>
        <time>2012-09-22T16:36:11Z</time>
      </trkpt>
      <trkpt lat="45.12969" lon="4.08732">
        <ele>-6.1E-5</ele>
        <time>2012-09-22T16:36:12Z</time>
      </trkpt>
      <trkpt lat="45.12969" lon="4.0874">
        <ele>801.5</ele>
        <time>2012-09-22T16:36:13Z</time>
      </trkpt>
      <trkpt lat="45.12969" lon="4.08747">
        <ele>801.7</ele>
        <time>2012-09-22T16:36:14Z</time>
      </trkpt>
      <trkpt lat="45.12969" lon="4.08755">
        <ele>803.7</ele>
        <time>2012-09-22T16:36:15Z</time>
      </trkpt>
      <trkpt lat="45.1297" lon="4.08762">
        <ele>806.9</ele>
        <time>2012-09-22T16:36:16Z</time>
      </trkpt>
      <trkpt lat="45.12971" lon="4.0877">
        <ele>809.9</ele>
        <time>2012-09-22T16:36:17Z</time>
      </trkpt>
      <trkpt lat="45.12973" lon="4.08777">
        <ele>812.5</ele>
        <time>2012-09-22T16:36:18Z</time>
      </trkpt>
      <trkpt lat="45.12975" lon="4.08784">
        <ele>816</ele>
        <time>2012-09-22T16:36:19Z</time>
      </trkpt>
      <trkpt lat="45.12981" lon="4.0879">
        <ele>-6.1E-5</ele>
        <time>2012-09-22T16:36:20Z</time>
      </trkpt>
      <trkpt lat="45.12987" lon="4.08796">
        <ele>819.6</ele>
        <time>2012-09-22T16:36:21Z</time>
      </trkpt>
      <trkpt lat="45.12992" lon="4.08802">
        <ele>820.8</ele>
        <time>2012-09-22T16:36:22Z</time>
      </trkpt>
      <trkpt lat="45.12997" lon="4.08807">
        <ele>821.7</ele>
        <time>2012-09-22T16:36:23Z</time>
      </trkpt>
      <trkpt lat="45.13001" lon="4.08812">
        <ele>822</ele>
        <time>2012-09-22T16:36:24Z</time>
      </trkpt>
      <trkpt lat="45.13005" lon="4.08816">
        <ele>822.4</ele>
        <time>2012-09-22T16:36:25Z</time>
      </trkpt>
      <trkpt lat="45.13009" lon="4.0882">
        <ele>822.7</ele>
        <time>2012-09-22T16:36:26Z</time>
      </trkpt>
      <trkpt lat="45.13016" lon="4.08827">
        <ele>822.3</ele>
        <time>2012-09-22T16:36:28Z</time>
      </trkpt>
      <trkpt lat="45.13022" lon="4.08832">
        <ele>821.6</ele>
        <time>2012-09-22T16:36:30Z</time>
      </trkpt>
      <trkpt lat="45.13028" lon="4.08836">
        <ele>820.5</ele>
        <time>2012-09-22T16:36:32Z</time>
      </trkpt>
      <trkpt lat="45.13034" lon="4.08841">
        <ele>820.2</ele>
        <time>2012-09-22T16:36:34Z</time>
      </trkpt>
      <trkpt lat="45.13039" lon="4.08846">
        <ele>820</ele>
        <time>2012-09-22T16:36:36Z</time>
      </trkpt>
      <trkpt lat="45.13045" lon="4.0885">
        <ele>819.7</ele>
        <time>2012-09-22T16:36:38Z</time>
      </trkpt>
      <trkpt lat="45.1305" lon="4.08856">
        <ele>-6.1E-5</ele>
        <time>2012-09-22T16:36:40Z</time>
      </trkpt>
      <trkpt lat="45.13055" lon="4.08864">
        <ele>820.3</ele>
        <time>2012-09-22T16:36:42Z</time>
      </trkpt>
      <trkpt lat="45.1306" lon="4.08874">
        <ele>820.3</ele>
        <time>2012-09-22T16:36:44Z</time>
      </trkpt>
      <trkpt lat="45.13064" lon="4.08884">
        <ele>-6.1E-5</ele>
        <time>2012-09-22T16:36:46Z</time>
      </trkpt>
      <trkpt lat="45.13066" lon="4.0889">
        <ele>821</ele>
        <time>2012-09-22T16:36:47Z</time>
      </trkpt>
      <trkpt lat="45.13068" lon="4.08896">
        <ele>-6.1E-5</ele>
        <time>2012-09-22T16:36:48Z</time>
      </trkpt>
      <trkpt lat="45.1307" lon="4.08902">
        <ele>-6.1E-5</ele>
        <time>2012-09-22T16:36:49Z</time>
      </trkpt>
      <trkpt lat="45.13072" lon="4.08908">
        <ele>821.6</ele>
        <time>2012-09-22T16:36:50Z</time>
      </trkpt>
      <trkpt lat="45.13073" lon="4.08914">
        <ele>821.9</ele>
        <time>2012-09-22T16:36:51Z</time>
      </trkpt>
      <trkpt lat="45.13076" lon="4.08925">
        <ele>822.1</ele>
        <time>2012-09-22T16:36:53Z</time>
      </trkpt>
      <trkpt lat="45.13079" lon="4.08937">
        <ele>-6.1E-5</ele>
        <time>2012-09-22T16:36:55Z</time>
      </trkpt>
      <trkpt lat="45.13082" lon="4.08949">
        <ele>822.3</ele>
        <time>2012-09-22T16:36:57Z</time>
      </trkpt>
      <trkpt lat="45.13083" lon="4.0896">
        <ele>822.6</ele>
        <time>2012-09-22T16:36:59Z</time>
      </trkpt>
      <trkpt lat="45.13085" lon="4.08972">
        <ele>822.8</ele>
        <time>2012-09-22T16:37:01Z</time>
      </trkpt>
      <trkpt lat="45.13086" lon="4.08984">
        <ele>823.1</ele>
        <time>2012-09-22T16:37:03Z</time>
      </trkpt>
      <trkpt lat="45.13086" lon="4.08996">
        <ele>823.5</ele>
        <time>2012-09-22T16:37:05Z</time>
      </trkpt>
      <trkpt lat="45.13086" lon="4.09007">
        <ele>823.9</ele>
        <time>2012-09-22T16:37:07Z</time>
      </trkpt>
      <trkpt lat="45.13085" lon="4.09018">
        <ele>-6.1E-5</ele>
        <time>2012-09-22T16:37:09Z</time>
      </trkpt>
      <trkpt lat="45.13085" lon="4.09027">
        <ele>824.7</ele>
        <time>2012-09-22T16:37:11Z</time>
      </trkpt>
      <trkpt lat="45.13084" lon="4.09036">
        <ele>824.7</ele>
        <time>2012-09-22T16:37:13Z</time>
      </trkpt>
      <trkpt lat="45.13082" lon="4.09044">
        <ele>824.5</ele>
        <time>2012-09-22T16:37:15Z</time>
      </trkpt>
      <trkpt lat="45.13081" lon="4.09051">
        <ele>824.4</ele>
        <time>2012-09-22T16:37:17Z</time>
      </trkpt>
      <trkpt lat="45.13079" lon="4.0906">
        <ele>-6.1E-5</ele>
        <time>2012-09-22T16:37:19Z</time>
      </trkpt>
      <trkpt lat="45.13077" lon="4.09068">
        <ele>824.7</ele>
        <time>2012-09-22T16:37:21Z</time>
      </trkpt>
      <trkpt lat="45.13075" lon="4.09077">
        <ele>824.9</ele>
        <time>2012-09-22T16:37:23Z</time>
      </trkpt>
      <trkpt lat="45.13073" lon="4.09086">
        <ele>825.1</ele>
        <time>2012-09-22T16:37:25Z</time>
      </trkpt>
      <trkpt lat="45.13071" lon="4.09094">
        <ele>825.1</ele>
        <time>2012-09-22T16:37:27Z</time>
      </trkpt>
      <trkpt lat="45.13068" lon="4.09102">
        <ele>825.3</ele>
        <time>2012-09-22T16:37:29Z</time>
      </trkpt>
      <trkpt lat="45.13065" lon="4.0911">
        <ele>825.6</ele>
        <time>2012-09-22T16:37:31Z</time>
      </trkpt>
      <trkpt lat="45.13062" lon="4.09117">
        <ele>-6.1E-5</ele>
        <time>2012-09-22T16:37:33Z</time>
      </trkpt>
      <trkpt lat="45.13059" lon="4.09126">
        <ele>-6.1E-5</ele>
        <time>2012-09-22T16:37:35Z</time>
      </trkpt>
      <trkpt lat="45.13056" lon="4.09135">
        <ele>826.9</ele>
        <time>2012-09-22T16:37:37Z</time>
      </trkpt>
      <trkpt lat="45.13053" lon="4.09144">
        <ele>-6.1E-5</ele>
        <time>2012-09-22T16:37:39Z</time>
      </trkpt>
      <trkpt lat="45.13049" lon="4.09153">
        <ele>827.8</ele>
        <time>2012-09-22T16:37:41Z</time>
      </trkpt>
      <trkpt lat="45.13045" lon="4.09162">
        <ele>828.2</ele>
        <time>2012-09-22T16:37:43Z</time>
      </trkpt>
      <trkpt lat="45.13042" lon="4.09171">
        <ele>828.6</ele>
        <time>2012-09-22T16:37:45Z</time>
      </trkpt>
      <trkpt lat="45.13038" lon="4.0918">
        <ele>828.9</ele>
        <time>2012-09-22T16:37:47Z</time>
      </trkpt>
      <trkpt lat="45.13035" lon="4.09189">
        <ele>829.3</ele>
        <time>2012-09-22T16:37:49Z</time>
      </trkpt>
      <trkpt lat="45.13032" lon="4.09198">
        <ele>829.6</ele>
        <time>2012-09-22T16:37:51Z</time>
      </trkpt>
      <trkpt lat="45.13029" lon="4.09207">
        <ele>829.5</ele>
        <time>2012-09-22T16:37:53Z</time>
      </trkpt>
      <trkpt lat="45.13026" lon="4.09215">
        <ele>829.5</ele>
        <time>2012-09-22T16:37:55Z</time>
      </trkpt>
      <trkpt lat="45.13022" lon="4.09224">
        <ele>-6.1E-5</ele>
        <time>2012-09-22T16:37:57Z</time>
      </trkpt>
      <trkpt lat="45.13018" lon="4.09232">
        <ele>830.6</ele>
        <time>2012-09-22T16:37:59Z</time>
      </trkpt>
      <trkpt lat="45.13015" lon="4.0924">
        <ele>-6.1E-5</ele>
        <time>2012-09-22T16:38:01Z</time>
      </trkpt>
      <trkpt lat="45.13013" lon="4.09248">
        <ele>831.6</ele>
        <time>2012-09-22T16:38:03Z</time>
      </trkpt>
      <trkpt lat="45.1301" lon="4.09256">
        <ele>832</ele>
        <time>2012-09-22T16:38:05Z</time>
      </trkpt>
      <trkpt lat="45.13008" lon="4.09264">
        <ele>832.3</ele>
        <time>2012-09-22T16:38:07Z</time>
      </trkpt>
      <trkpt lat="45.13007" lon="4.09272">
        <ele>832.5</ele>
        <time>2012-09-22T16:38:09Z</time>
      </trkpt>
      <trkpt lat="45.13005" lon="4.09281">
        <ele>832.5</ele>
        <time>2012-09-22T16:38:11Z</time>
      </trkpt>
      <trkpt lat="45.13005" lon="4.0929">
        <ele>832.4</ele>
        <time>2012-09-22T16:38:13Z</time>
      </trkpt>
      <trkpt lat="45.13004" lon="4.09298">
        <ele>832.2</ele>
        <time>2012-09-22T16:38:15Z</time>
      </trkpt>
      <trkpt lat="45.13004" lon="4.09306">
        <ele>832</ele>
        <time>2012-09-22T16:38:17Z</time>
      </trkpt>
      <trkpt lat="45.13004" lon="4.09315">
        <ele>832.1</ele>
        <time>2012-09-22T16:38:19Z</time>
      </trkpt>
      <trkpt lat="45.13004" lon="4.09324">
        <ele>832.2</ele>
        <time>2012-09-22T16:38:21Z</time>
      </trkpt>
      <trkpt lat="45.13005" lon="4.09333">
        <ele>832.3</ele>
        <time>2012-09-22T16:38:23Z</time>
      </trkpt>
      <trkpt lat="45.13005" lon="4.09342">
        <ele>832.7</ele>
        <time>2012-09-22T16:38:25Z</time>
      </trkpt>
      <trkpt lat="45.13005" lon="4.09351">
        <ele>833</ele>
        <time>2012-09-22T16:38:27Z</time>
      </trkpt>
      <trkpt lat="45.13005" lon="4.09362">
        <ele>833.4</ele>
        <time>2012-09-22T16:38:29Z</time>
      </trkpt>
      <trkpt lat="45.13007" lon="4.09372">
        <ele>834</ele>
        <time>2012-09-22T16:38:31Z</time>
      </trkpt>
      <trkpt lat="45.13008" lon="4.09384">
        <ele>834.6</ele>
        <time>2012-09-22T16:38:33Z</time>
      </trkpt>
      <trkpt lat="45.1301" lon="4.09394">
        <ele>835.5</ele>
        <time>2012-09-22T16:38:35Z</time>
      </trkpt>
      <trkpt lat="45.13013" lon="4.09405">
        <ele>836.5</ele>
        <time>2012-09-22T16:38:37Z</time>
      </trkpt>
      <trkpt lat="45.13015" lon="4.09415">
        <ele>837.4</ele>
        <time>2012-09-22T16:38:39Z</time>
      </trkpt>
      <trkpt lat="45.13017" lon="4.09425">
        <ele>-6.1E-5</ele>
        <time>2012-09-22T16:38:41Z</time>
      </trkpt>
      <trkpt lat="45.1302" lon="4.09435">
        <ele>837.6</ele>
        <time>2012-09-22T16:38:43Z</time>
      </trkpt>
      <trkpt lat="45.13023" lon="4.09446">
        <ele>837.3</ele>
        <time>2012-09-22T16:38:45Z</time>
      </trkpt>
      <trkpt lat="45.13025" lon="4.09456">
        <ele>836.4</ele>
        <time>2012-09-22T16:38:47Z</time>
      </trkpt>
      <trkpt lat="45.13028" lon="4.09466">
        <ele>835.5</ele>
        <time>2012-09-22T16:38:49Z</time>
      </trkpt>
      <trkpt lat="45.13031" lon="4.09476">
        <ele>834.9</ele>
        <time>2012-09-22T16:38:51Z</time>
      </trkpt>
      <trkpt lat="45.13033" lon="4.09486">
        <ele>834.6</ele>
        <time>2012-09-22T16:38:53Z</time>
      </trkpt>
      <trkpt lat="45.13037" lon="4.09497">
        <ele>833.9</ele>
        <time>2012-09-22T16:38:55Z</time>
      </trkpt>
      <trkpt lat="45.1304" lon="4.09508">
        <ele>833.3</ele>
        <time>2012-09-22T16:38:57Z</time>
      </trkpt>
      <trkpt lat="45.13043" lon="4.09519">
        <ele>832.8</ele>
        <time>2012-09-22T16:38:59Z</time>
      </trkpt>
      <trkpt lat="45.13047" lon="4.0953">
        <ele>832.6</ele>
        <time>2012-09-22T16:39:01Z</time>
      </trkpt>
      <trkpt lat="45.1305" lon="4.09541">
        <ele>833.2</ele>
        <time>2012-09-22T16:39:03Z</time>
      </trkpt>
      <trkpt lat="45.13053" lon="4.09552">
        <ele>833.4</ele>
        <time>2012-09-22T16:39:05Z</time>
      </trkpt>
      <trkpt lat="45.13056" lon="4.09562">
        <ele>833.4</ele>
        <time>2012-09-22T16:39:07Z</time>
      </trkpt>
      <trkpt lat="45.1306" lon="4.09572">
        <ele>833.8</ele>
        <time>2012-09-22T16:39:09Z</time>
      </trkpt>
      <trkpt lat="45.13063" lon="4.09582">
        <ele>834.1</ele>
        <time>2012-09-22T16:39:11Z</time>
      </trkpt>
      <trkpt lat="45.13067" lon="4.09593">
        <ele>-6.1E-5</ele>
        <time>2012-09-22T16:39:13Z</time>
      </trkpt>
      <trkpt lat="45.1307" lon="4.09603">
        <ele>835</ele>
        <time>2012-09-22T16:39:15Z</time>
      </trkpt>
      <trkpt lat="45.13075" lon="4.09613">
        <ele>834.7</ele>
        <time>2012-09-22T16:39:17Z</time>
      </trkpt>
      <trkpt lat="45.13079" lon="4.09623">
        <ele>834.5</ele>
        <time>2012-09-22T16:39:19Z</time>
      </trkpt>
      <trkpt lat="45.13084" lon="4.09634">
        <ele>834.4</ele>
        <time>2012-09-22T16:39:21Z</time>
      </trkpt>
      <trkpt lat="45.13089" lon="4.09644">
        <ele>-6.1E-5</ele>
        <time>2012-09-22T16:39:23Z</time>
      </trkpt>
      <trkpt lat="45.13092" lon="4.09649">
        <ele>-6.1E-5</ele>
        <time>2012-09-22T16:39:24Z</time>
      </trkpt>
      <trkpt lat="45.13095" lon="4.09653">
        <ele>835.1</ele>
        <time>2012-09-22T16:39:25Z</time>
      </trkpt>
      <trkpt lat="45.13098" lon="4.09658">
        <ele>-6.1E-5</ele>
        <time>2012-09-22T16:39:26Z</time>
      </trkpt>
      <trkpt lat="45.13101" lon="4.09663">
        <ele>834.5</ele>
        <time>2012-09-22T16:39:27Z</time>
      </trkpt>
      <trkpt lat="45.13105" lon="4.09667">
        <ele>833.8</ele>
        <time>2012-09-22T16:39:28Z</time>
      </trkpt>
      <trkpt lat="45.13109" lon="4.09671">
        <ele>833.3</ele>
        <time>2012-09-22T16:39:29Z</time>
      </trkpt>
      <trkpt lat="45.13112" lon="4.09675">
        <ele>833.1</ele>
        <time>2012-09-22T16:39:30Z</time>
      </trkpt>
      <trkpt lat="45.13116" lon="4.09679">
        <ele>833.2</ele>
        <time>2012-09-22T16:39:31Z</time>
      </trkpt>
      <trkpt lat="45.1312" lon="4.09682">
        <ele>-6.1E-5</ele>
        <time>2012-09-22T16:39:32Z</time>
      </trkpt>
      <trkpt lat="45.13125" lon="4.09686">
        <ele>833.1</ele>
        <time>2012-09-22T16:39:33Z</time>
      </trkpt>
      <trkpt lat="45.13129" lon="4.09689">
        <ele>-6.1E-5</ele>
        <time>2012-09-22T16:39:34Z</time>
      </trkpt>
      <trkpt lat="45.13133" lon="4.09693">
        <ele>832.7</ele>
        <time>2012-09-22T16:39:35Z</time>
      </trkpt>
      <trkpt lat="45.13138" lon="4.09696">
        <ele>832.3</ele>
        <time>2012-09-22T16:39:36Z</time>
      </trkpt>
      <trkpt lat="45.13142" lon="4.09699">
        <ele>832.2</ele>
        <time>2012-09-22T16:39:37Z</time>
      </trkpt>
      <trkpt lat="45.13147" lon="4.09702">
        <ele>-6.1E-5</ele>
        <time>2012-09-22T16:39:38Z</time>
      </trkpt>
      <trkpt lat="45.13151" lon="4.09704">
        <ele>832.6</ele>
        <time>2012-09-22T16:39:39Z</time>
      </trkpt>
      <trkpt lat="45.13156" lon="4.09707">
        <ele>832.8</ele>
        <time>2012-09-22T16:39:40Z</time>
      </trkpt>
      <trkpt lat="45.13161" lon="4.0971">
        <ele>833.2</ele>
        <time>2012-09-22T16:39:41Z</time>
      </trkpt>
      <trkpt lat="45.13166" lon="4.09712">
        <ele>833.5</ele>
        <time>2012-09-22T16:39:42Z</time>
      </trkpt>
      <trkpt lat="45.13171" lon="4.09714">
        <ele>833.7</ele>
        <time>2012-09-22T16:39:43Z</time>
      </trkpt>
      <trkpt lat="45.13175" lon="4.09717">
        <ele>834</ele>
        <time>2012-09-22T16:39:44Z</time>
      </trkpt>
      <trkpt lat="45.1318" lon="4.09719">
        <ele>834.1</ele>
        <time>2012-09-22T16:39:45Z</time>
      </trkpt>
      <trkpt lat="45.13185" lon="4.09722">
        <ele>-6.1E-5</ele>
        <time>2012-09-22T16:39:46Z</time>
      </trkpt>
      <trkpt lat="45.1319" lon="4.09725">
        <ele>834.4</ele>
        <time>2012-09-22T16:39:47Z</time>
      </trkpt>
      <trkpt lat="45.13194" lon="4.09728">
        <ele>834.4</ele>
        <time>2012-09-22T16:39:48Z</time>
      </trkpt>
      <trkpt lat="45.13199" lon="4.09731">
        <ele>834.6</ele>
        <time>2012-09-22T16:39:49Z</time>
      </trkpt>
      <trkpt lat="45.13203" lon="4.09734">
        <ele>834.7</ele>
        <time>2012-09-22T16:39:50Z</time>
      </trkpt>
      <trkpt lat="45.13208" lon="4.09738">
        <ele>834.8</ele>
        <time>2012-09-22T16:39:51Z</time>
      </trkpt>
      <trkpt lat="45.13212" lon="4.09741">
        <ele>834.9</ele>
        <time>2012-09-22T16:39:52Z</time>
      </trkpt>
      <trkpt lat="45.13216" lon="4.09745">
        <ele>835</ele>
        <time>2012-09-22T16:39:53Z</time>
      </trkpt>
      <trkpt lat="45.13221" lon="4.09749">
        <ele>835</ele>
        <time>2012-09-22T16:39:54Z</time>
      </trkpt>
      <trkpt lat="45.13225" lon="4.09754">
        <ele>835</ele>
        <time>2012-09-22T16:39:55Z</time>
      </trkpt>
      <trkpt lat="45.13228" lon="4.09759">
        <ele>834.9</ele>
        <time>2012-09-22T16:39:56Z</time>
      </trkpt>
      <trkpt lat="45.13232" lon="4.09764">
        <ele>834.8</ele>
        <time>2012-09-22T16:39:57Z</time>
      </trkpt>
      <trkpt lat="45.13236" lon="4.0977">
        <ele>-6.1E-5</ele>
        <time>2012-09-22T16:39:58Z</time>
      </trkpt>
      <trkpt lat="45.13239" lon="4.09775">
        <ele>-6.1E-5</ele>
        <time>2012-09-22T16:39:59Z</time>
      </trkpt>
      <trkpt lat="45.13243" lon="4.0978">
        <ele>834.6</ele>
        <time>2012-09-22T16:40:00Z</time>
      </trkpt>
      <trkpt lat="45.13246" lon="4.09786">
        <ele>834.6</ele>
        <time>2012-09-22T16:40:01Z</time>
      </trkpt>
      <trkpt lat="45.13249" lon="4.09792">
        <ele>834.6</ele>
        <time>2012-09-22T16:40:02Z</time>
      </trkpt>
      <trkpt lat="45.13252" lon="4.09797">
        <ele>834.5</ele>
        <time>2012-09-22T16:40:03Z</time>
      </trkpt>
      <trkpt lat="45.13255" lon="4.09803">
        <ele>834.4</ele>
        <time>2012-09-22T16:40:04Z</time>
      </trkpt>
      <trkpt lat="45.13258" lon="4.09809">
        <ele>-6.1E-5</ele>
        <time>2012-09-22T16:40:05Z</time>
      </trkpt>
      <trkpt lat="45.13261" lon="4.09815">
        <ele>-6.1E-5</ele>
        <time>2012-09-22T16:40:06Z</time>
      </trkpt>
      <trkpt lat="45.13264" lon="4.09821">
        <ele>834.6</ele>
        <time>2012-09-22T16:40:07Z</time>
      </trkpt>
      <trkpt lat="45.13267" lon="4.09827">
        <ele>834.7</ele>
        <time>2012-09-22T16:40:08Z</time>
      </trkpt>
      <trkpt lat="45.1327" lon="4.09834">
        <ele>834.9</ele>
        <time>2012-09-22T16:40:09Z</time>
      </trkpt>
      <trkpt lat="45.13273" lon="4.0984">
        <ele>-6.1E-5</ele>
        <time>2012-09-22T16:40:10Z</time>
      </trkpt>
      <trkpt lat="45.13276" lon="4.09846">
        <ele>-6.1E-5</ele>
        <time>2012-09-22T16:40:11Z</time>
      </trkpt>
      <trkpt lat="45.13278" lon="4.09851">
        <ele>834.5</ele>
        <time>2012-09-22T16:40:12Z</time>
      </trkpt>
      <trkpt lat="45.13281" lon="4.09857">
        <ele>834.1</ele>
        <time>2012-09-22T16:40:13Z</time>
      </trkpt>
      <trkpt lat="45.13285" lon="4.09863">
        <ele>833.6</ele>
        <time>2012-09-22T16:40:14Z</time>
      </trkpt>
      <trkpt lat="45.13288" lon="4.09868">
        <ele>833.1</ele>
        <time>2012-09-22T16:40:15Z</time>
      </trkpt>
      <trkpt lat="45.13291" lon="4.09874">
        <ele>833</ele>
        <time>2012-09-22T16:40:16Z</time>
      </trkpt>
      <trkpt lat="45.13295" lon="4.09879">
        <ele>833.1</ele>
        <time>2012-09-22T16:40:17Z</time>
      </trkpt>
      <trkpt lat="45.13298" lon="4.09884">
        <ele>833.4</ele>
        <time>2012-09-22T16:40:18Z</time>
      </trkpt>
      <trkpt lat="45.13302" lon="4.09889">
        <ele>834</ele>
        <time>2012-09-22T16:40:19Z</time>
      </trkpt>
      <trkpt lat="45.13305" lon="4.09893">
        <ele>834.2</ele>
        <time>2012-09-22T16:40:20Z</time>
      </trkpt>
      <trkpt lat="45.13312" lon="4.09901">
        <ele>-6.1E-5</ele>
        <time>2012-09-22T16:40:22Z</time>
      </trkpt>
      <trkpt lat="45.13316" lon="4.09905">
        <ele>-6.1E-5</ele>
        <time>2012-09-22T16:40:23Z</time>
      </trkpt>
      <trkpt lat="45.1332" lon="4.09908">
        <ele>834.2</ele>
        <time>2012-09-22T16:40:24Z</time>
      </trkpt>
      <trkpt lat="45.13323" lon="4.09912">
        <ele>834.5</ele>
        <time>2012-09-22T16:40:25Z</time>
      </trkpt>
      <trkpt lat="45.13327" lon="4.09915">
        <ele>834.8</ele>
        <time>2012-09-22T16:40:26Z</time>
      </trkpt>
      <trkpt lat="45.13331" lon="4.09919">
        <ele>835.2</ele>
        <time>2012-09-22T16:40:27Z</time>
      </trkpt>
      <trkpt lat="45.13335" lon="4.09922">
        <ele>835.4</ele>
        <time>2012-09-22T16:40:28Z</time>
      </trkpt>
      <trkpt lat="45.13339" lon="4.09925">
        <ele>835.5</ele>
        <time>2012-09-22T16:40:29Z</time>
      </trkpt>
      <trkpt lat="45.13347" lon="4.09931">
        <ele>835.8</ele>
        <time>2012-09-22T16:40:31Z</time>
      </trkpt>
      <trkpt lat="45.13355" lon="4.09937">
        <ele>-6.1E-5</ele>
        <time>2012-09-22T16:40:33Z</time>
      </trkpt>
      <trkpt lat="45.13362" lon="4.09943">
        <ele>835.9</ele>
        <time>2012-09-22T16:40:35Z</time>
      </trkpt>
      <trkpt lat="45.1337" lon="4.09948">
        <ele>836.1</ele>
        <time>2012-09-22T16:40:37Z</time>
      </trkpt>
      <trkpt lat="45.13377" lon="4.09955">
        <ele>836.5</ele>
        <time>2012-09-22T16:40:39Z</time>
      </trkpt>
      <trkpt lat="45.13385" lon="4.0996">
        <ele>836.9</ele>
        <time>2012-09-22T16:40:41Z</time>
      </trkpt>
      <trkpt lat="45.13393" lon="4.09966">
        <ele>837</ele>
        <time>2012-09-22T16:40:43Z</time>
      </trkpt>
      <trkpt lat="45.134" lon="4.09971">
        <ele>-6.1E-5</ele>
        <time>2012-09-22T16:40:45Z</time>
      </trkpt>
      <trkpt lat="45.13408" lon="4.09977">
        <ele>837.1</ele>
        <time>2012-09-22T16:40:47Z</time>
      </trkpt>
      <trkpt lat="45.13412" lon="4.0998">
        <ele>837.2</ele>
        <time>2012-09-22T16:40:48Z</time>
      </trkpt>
      <trkpt lat="45.1342" lon="4.09985">
        <ele>-6.1E-5</ele>
        <time>2012-09-22T16:40:50Z</time>
      </trkpt>
      <trkpt lat="45.13428" lon="4.0999">
        <ele>837</ele>
        <time>2012-09-22T16:40:52Z</time>
      </trkpt>
      <trkpt lat="45.13436" lon="4.09993">
        <ele>836.8</ele>
        <time>2012-09-22T16:40:54Z</time>
      </trkpt>
      <trkpt lat="45.13444" lon="4.09996">
        <ele>836.6</ele>
        <time>2012-09-22T16:40:56Z</time>
      </trkpt>
      <trkpt lat="45.13452" lon="4.09999">
        <ele>836.8</ele>
        <time>2012-09-22T16:40:58Z</time>
      </trkpt>
      <trkpt lat="45.1346" lon="4.10002">
        <ele>837.3</ele>
        <time>2012-09-22T16:41:00Z</time>
      </trkpt>
      <trkpt lat="45.13468" lon="4.10005">
        <ele>837.7</ele>
        <time>2012-09-22T16:41:02Z</time>
      </trkpt>
      <trkpt lat="45.13476" lon="4.10007">
        <ele>-6.1E-5</ele>
        <time>2012-09-22T16:41:04Z</time>
      </trkpt>
      <trkpt lat="45.13484" lon="4.1001">
        <ele>838</ele>
        <time>2012-09-22T16:41:06Z</time>
      </trkpt>
      <trkpt lat="45.13492" lon="4.10012">
        <ele>838.1</ele>
        <time>2012-09-22T16:41:08Z</time>
      </trkpt>
      <trkpt lat="45.135" lon="4.10014">
        <ele>-6.1E-5</ele>
        <time>2012-09-22T16:41:10Z</time>
      </trkpt>
      <trkpt lat="45.13508" lon="4.10016">
        <ele>838.3</ele>
        <time>2012-09-22T16:41:12Z</time>
      </trkpt>
      <trkpt lat="45.13517" lon="4.10018">
        <ele>-6.1E-5</ele>
        <time>2012-09-22T16:41:14Z</time>
      </trkpt>
      <trkpt lat="45.13525" lon="4.10021">
        <ele>-6.1E-5</ele>
        <time>2012-09-22T16:41:16Z</time>
      </trkpt>
      <trkpt lat="45.13533" lon="4.10023">
        <ele>-6.1E-5</ele>
        <time>2012-09-22T16:41:18Z</time>
      </trkpt>
      <trkpt lat="45.13541" lon="4.10027">
        <ele>838.9</ele>
        <time>2012-09-22T16:41:20Z</time>
      </trkpt>
      <trkpt lat="45.13549" lon="4.1003">
        <ele>838.8</ele>
        <time>2012-09-22T16:41:22Z</time>
      </trkpt>
      <trkpt lat="45.13557" lon="4.10032">
        <ele>-6.1E-5</ele>
        <time>2012-09-22T16:41:24Z</time>
      </trkpt>
      <trkpt lat="45.13566" lon="4.10034">
        <ele>838.6</ele>
        <time>2012-09-22T16:41:26Z</time>
      </trkpt>
      <trkpt lat="45.13574" lon="4.10036">
        <ele>838.4</ele>
        <time>2012-09-22T16:41:28Z</time>
      </trkpt>
      <trkpt lat="45.13583" lon="4.10038">
        <ele>838</ele>
        <time>2012-09-22T16:41:30Z</time>
      </trkpt>
      <trkpt lat="45.13592" lon="4.1004">
        <ele>837.3</ele>
        <time>2012-09-22T16:41:32Z</time>
      </trkpt>
      <trkpt lat="45.136" lon="4.10043">
        <ele>836.9</ele>
        <time>2012-09-22T16:41:34Z</time>
      </trkpt>
      <trkpt lat="45.13608" lon="4.10047">
        <ele>836.8</ele>
        <time>2012-09-22T16:41:36Z</time>
      </trkpt>
      <trkpt lat="45.13616" lon="4.10049">
        <ele>837.3</ele>
        <time>2012-09-22T16:41:38Z</time>
      </trkpt>
      <trkpt lat="45.13625" lon="4.10052">
        <ele>838</ele>
        <time>2012-09-22T16:41:40Z</time>
      </trkpt>
      <trkpt lat="45.13633" lon="4.10055">
        <ele>838.7</ele>
        <time>2012-09-22T16:41:42Z</time>
      </trkpt>
      <trkpt lat="45.13641" lon="4.10058">
        <ele>839.4</ele>
        <time>2012-09-22T16:41:44Z</time>
      </trkpt>
      <trkpt lat="45.1365" lon="4.10061">
        <ele>840.2</ele>
        <time>2012-09-22T16:41:46Z</time>
      </trkpt>
      <trkpt lat="45.13658" lon="4.10063">
        <ele>841</ele>
        <time>2012-09-22T16:41:48Z</time>
      </trkpt>
      <trkpt lat="45.13667" lon="4.10065">
        <ele>-6.1E-5</ele>
        <time>2012-09-22T16:41:50Z</time>
      </trkpt>
      <trkpt lat="45.13675" lon="4.10067">
        <ele>842</ele>
        <time>2012-09-22T16:41:52Z</time>
      </trkpt>
      <trkpt lat="45.13684" lon="4.1007">
        <ele>-6.1E-5</ele>
        <time>2012-09-22T16:41:54Z</time>
      </trkpt>
      <trkpt lat="45.13693" lon="4.10073">
        <ele>842.5</ele>
        <time>2012-09-22T16:41:56Z</time>
      </trkpt>
      <trkpt lat="45.13701" lon="4.10076">
        <ele>842.1</ele>
        <time>2012-09-22T16:41:58Z</time>
      </trkpt>
      <trkpt lat="45.13706" lon="4.10077">
        <ele>841.9</ele>
        <time>2012-09-22T16:41:59Z</time>
      </trkpt>
      <trkpt lat="45.1371" lon="4.10078">
        <ele>841.6</ele>
        <time>2012-09-22T16:42:00Z</time>
      </trkpt>
      <trkpt lat="45.13715" lon="4.1008">
        <ele>841.3</ele>
        <time>2012-09-22T16:42:01Z</time>
      </trkpt>
      <trkpt lat="45.13719" lon="4.10081">
        <ele>840.9</ele>
        <time>2012-09-22T16:42:02Z</time>
      </trkpt>
      <trkpt lat="45.13724" lon="4.10082">
        <ele>840.7</ele>
        <time>2012-09-22T16:42:03Z</time>
      </trkpt>
      <trkpt lat="45.13729" lon="4.10083">
        <ele>840.6</ele>
        <time>2012-09-22T16:42:04Z</time>
      </trkpt>
      <trkpt lat="45.13733" lon="4.10085">
        <ele>840.4</ele>
        <time>2012-09-22T16:42:05Z</time>
      </trkpt>
      <trkpt lat="45.13738" lon="4.10086">
        <ele>840.2</ele>
        <time>2012-09-22T16:42:06Z</time>
      </trkpt>
      <trkpt lat="45.13742" lon="4.10088">
        <ele>840</ele>
        <time>2012-09-22T16:42:07Z</time>
      </trkpt>
      <trkpt lat="45.13747" lon="4.10089">
        <ele>839.8</ele>
        <time>2012-09-22T16:42:08Z</time>
      </trkpt>
      <trkpt lat="45.13752" lon="4.1009">
        <ele>839.7</ele>
        <time>2012-09-22T16:42:09Z</time>
      </trkpt>
      <trkpt lat="45.13757" lon="4.10092">
        <ele>839.9</ele>
        <time>2012-09-22T16:42:10Z</time>
      </trkpt>
      <trkpt lat="45.13761" lon="4.10094">
        <ele>840</ele>
        <time>2012-09-22T16:42:11Z</time>
      </trkpt>
      <trkpt lat="45.13766" lon="4.10096">
        <ele>840.1</ele>
        <time>2012-09-22T16:42:12Z</time>
      </trkpt>
      <trkpt lat="45.13771" lon="4.10098">
        <ele>-6.1E-5</ele>
        <time>2012-09-22T16:42:13Z</time>
      </trkpt>
      <trkpt lat="45.13775" lon="4.10099">
        <ele>840.2</ele>
        <time>2012-09-22T16:42:14Z</time>
      </trkpt>
      <trkpt lat="45.1378" lon="4.10101">
        <ele>840.3</ele>
        <time>2012-09-22T16:42:15Z</time>
      </trkpt>
      <trkpt lat="45.13785" lon="4.10103">
        <ele>840.5</ele>
        <time>2012-09-22T16:42:16Z</time>
      </trkpt>
      <trkpt lat="45.13789" lon="4.10104">
        <ele>840.7</ele>
        <time>2012-09-22T16:42:17Z</time>
      </trkpt>
      <trkpt lat="45.13794" lon="4.10106">
        <ele>841</ele>
        <time>2012-09-22T16:42:18Z</time>
      </trkpt>
      <trkpt lat="45.13799" lon="4.10107">
        <ele>841.3</ele>
        <time>2012-09-22T16:42:19Z</time>
      </trkpt>
      <trkpt lat="45.13804" lon="4.10109">
        <ele>841.6</ele>
        <time>2012-09-22T16:42:20Z</time>
      </trkpt>
      <trkpt lat="45.13809" lon="4.1011">
        <ele>841.8</ele>
        <time>2012-09-22T16:42:21Z</time>
      </trkpt>
      <trkpt lat="45.13814" lon="4.10112">
        <ele>841.8</ele>
        <time>2012-09-22T16:42:22Z</time>
      </trkpt>
      <trkpt lat="45.13819" lon="4.10114">
        <ele>841.7</ele>
        <time>2012-09-22T16:42:23Z</time>
      </trkpt>
      <trkpt lat="45.13823" lon="4.10115">
        <ele>841.7</ele>
        <time>2012-09-22T16:42:24Z</time>
      </trkpt>
      <trkpt lat="45.13828" lon="4.10117">
        <ele>841.6</ele>
        <time>2012-09-22T16:42:25Z</time>
      </trkpt>
      <trkpt lat="45.13833" lon="4.10118">
        <ele>841.5</ele>
        <time>2012-09-22T16:42:26Z</time>
      </trkpt>
      <trkpt lat="45.13838" lon="4.1012">
        <ele>841.6</ele>
        <time>2012-09-22T16:42:27Z</time>
      </trkpt>
      <trkpt lat="45.13842" lon="4.10121">
        <ele>841.7</ele>
        <time>2012-09-22T16:42:28Z</time>
      </trkpt>
      <trkpt lat="45.13847" lon="4.10123">
        <ele>841.8</ele>
        <time>2012-09-22T16:42:29Z</time>
      </trkpt>
      <trkpt lat="45.13852" lon="4.10124">
        <ele>841.9</ele>
        <time>2012-09-22T16:42:30Z</time>
      </trkpt>
      <trkpt lat="45.13857" lon="4.10126">
        <ele>-6.1E-5</ele>
        <time>2012-09-22T16:42:31Z</time>
      </trkpt>
      <trkpt lat="45.13861" lon="4.10128">
        <ele>842.2</ele>
        <time>2012-09-22T16:42:32Z</time>
      </trkpt>
      <trkpt lat="45.13866" lon="4.1013">
        <ele>842.1</ele>
        <time>2012-09-22T16:42:33Z</time>
      </trkpt>
      <trkpt lat="45.1387" lon="4.10132">
        <ele>842.1</ele>
        <time>2012-09-22T16:42:34Z</time>
      </trkpt>
      <trkpt lat="45.13875" lon="4.10135">
        <ele>842.1</ele>
        <time>2012-09-22T16:42:35Z</time>
      </trkpt>
      <trkpt lat="45.13879" lon="4.10137">
        <ele>842.2</ele>
        <time>2012-09-22T16:42:36Z</time>
      </trkpt>
      <trkpt lat="45.13884" lon="4.1014">
        <ele>842.2</ele>
        <time>2012-09-22T16:42:37Z</time>
      </trkpt>
      <trkpt lat="45.13889" lon="4.10142">
        <ele>842.1</ele>
        <time>2012-09-22T16:42:38Z</time>
      </trkpt>
      <trkpt lat="45.13893" lon="4.10145">
        <ele>842</ele>
        <time>2012-09-22T16:42:39Z</time>
      </trkpt>
      <trkpt lat="45.13898" lon="4.10148">
        <ele>-6.1E-5</ele>
        <time>2012-09-22T16:42:40Z</time>
      </trkpt>
      <trkpt lat="45.13903" lon="4.10151">
        <ele>-6.1E-5</ele>
        <time>2012-09-22T16:42:41Z</time>
      </trkpt>
      <trkpt lat="45.13907" lon="4.10154">
        <ele>842</ele>
        <time>2012-09-22T16:42:42Z</time>
      </trkpt>
      <trkpt lat="45.13912" lon="4.10158">
        <ele>842.1</ele>
        <time>2012-09-22T16:42:43Z</time>
      </trkpt>
      <trkpt lat="45.13916" lon="4.10161">
        <ele>842.4</ele>
        <time>2012-09-22T16:42:44Z</time>
      </trkpt>
      <trkpt lat="45.13921" lon="4.10165">
        <ele>842.2</ele>
        <time>2012-09-22T16:42:45Z</time>
      </trkpt>
      <trkpt lat="45.13925" lon="4.10168">
        <ele>841.9</ele>
        <time>2012-09-22T16:42:46Z</time>
      </trkpt>
      <trkpt lat="45.13929" lon="4.10172">
        <ele>841.6</ele>
        <time>2012-09-22T16:42:47Z</time>
      </trkpt>
      <trkpt lat="45.13934" lon="4.10176">
        <ele>841.5</ele>
        <time>2012-09-22T16:42:48Z</time>
      </trkpt>
      <trkpt lat="45.13938" lon="4.1018">
        <ele>841.5</ele>
        <time>2012-09-22T16:42:49Z</time>
      </trkpt>
      <trkpt lat="45.13942" lon="4.10183">
        <ele>841.6</ele>
        <time>2012-09-22T16:42:50Z</time>
      </trkpt>
      <trkpt lat="45.13946" lon="4.10188">
        <ele>841.7</ele>
        <time>2012-09-22T16:42:51Z</time>
      </trkpt>
      <trkpt lat="45.1395" lon="4.10192">
        <ele>-6.1E-5</ele>
        <time>2012-09-22T16:42:52Z</time>
      </trkpt>
      <trkpt lat="45.13954" lon="4.10196">
        <ele>841.4</ele>
        <time>2012-09-22T16:42:53Z</time>
      </trkpt>
      <trkpt lat="45.13958" lon="4.102">
        <ele>841.2</ele>
        <time>2012-09-22T16:42:54Z</time>
      </trkpt>
      <trkpt lat="45.13962" lon="4.10205">
        <ele>841.2</ele>
        <time>2012-09-22T16:42:55Z</time>
      </trkpt>
      <trkpt lat="45.13966" lon="4.10209">
        <ele>841.3</ele>
        <time>2012-09-22T16:42:56Z</time>
      </trkpt>
      <trkpt lat="45.1397" lon="4.10214">
        <ele>841.7</ele>
        <time>2012-09-22T16:42:57Z</time>
      </trkpt>
      <trkpt lat="45.13974" lon="4.10218">
        <ele>842.1</ele>
        <time>2012-09-22T16:42:58Z</time>
      </trkpt>
      <trkpt lat="45.13977" lon="4.10223">
        <ele>-6.1E-5</ele>
        <time>2012-09-22T16:42:59Z</time>
      </trkpt>
      <trkpt lat="45.13981" lon="4.10227">
        <ele>-6.1E-5</ele>
        <time>2012-09-22T16:43:00Z</time>
      </trkpt>
      <trkpt lat="45.13985" lon="4.10232">
        <ele>841.7</ele>
        <time>2012-09-22T16:43:01Z</time>
      </trkpt>
      <trkpt lat="45.13989" lon="4.10237">
        <ele>841.9</ele>
        <time>2012-09-22T16:43:02Z</time>
      </trkpt>
      <trkpt lat="45.13993" lon="4.10242">
        <ele>842.2</ele>
        <time>2012-09-22T16:43:03Z</time>
      </trkpt>
      <trkpt lat="45.13996" lon="4.10247">
        <ele>842.7</ele>
        <time>2012-09-22T16:43:04Z</time>
      </trkpt>
      <trkpt lat="45.14" lon="4.10252">
        <ele>843.4</ele>
        <time>2012-09-22T16:43:05Z</time>
      </trkpt>
      <trkpt lat="45.14004" lon="4.10257">
        <ele>843.7</ele>
        <time>2012-09-22T16:43:06Z</time>
      </trkpt>
      <trkpt lat="45.14008" lon="4.10262">
        <ele>843.9</ele>
        <time>2012-09-22T16:43:07Z</time>
      </trkpt>
      <trkpt lat="45.14012" lon="4.10267">
        <ele>-6.1E-5</ele>
        <time>2012-09-22T16:43:08Z</time>
      </trkpt>
      <trkpt lat="45.14016" lon="4.10272">
        <ele>844.1</ele>
        <time>2012-09-22T16:43:09Z</time>
      </trkpt>
      <trkpt lat="45.1402" lon="4.10276">
        <ele>-6.1E-5</ele>
        <time>2012-09-22T16:43:10Z</time>
      </trkpt>
      <trkpt lat="45.14024" lon="4.10281">
        <ele>844.1</ele>
        <time>2012-09-22T16:43:11Z</time>
      </trkpt>
      <trkpt lat="45.14028" lon="4.10286">
        <ele>844.3</ele>
        <time>2012-09-22T16:43:12Z</time>
      </trkpt>
      <trkpt lat="45.14032" lon="4.1029">
        <ele>844.6</ele>
        <time>2012-09-22T16:43:13Z</time>
      </trkpt>
      <trkpt lat="45.14037" lon="4.10295">
        <ele>844.8</ele>
        <time>2012-09-22T16:43:14Z</time>
      </trkpt>
      <trkpt lat="45.1404" lon="4.103">
        <ele>844.9</ele>
        <time>2012-09-22T16:43:15Z</time>
      </trkpt>
      <trkpt lat="45.14044" lon="4.10305">
        <ele>844.9</ele>
        <time>2012-09-22T16:43:16Z</time>
      </trkpt>
      <trkpt lat="45.14048" lon="4.1031">
        <ele>844.8</ele>
        <time>2012-09-22T16:43:17Z</time>
      </trkpt>
      <trkpt lat="45.14052" lon="4.10315">
        <ele>-6.1E-5</ele>
        <time>2012-09-22T16:43:18Z</time>
      </trkpt>
      <trkpt lat="45.14056" lon="4.1032">
        <ele>844.5</ele>
        <time>2012-09-22T16:43:19Z</time>
      </trkpt>
      <trkpt lat="45.1406" lon="4.10324">
        <ele>844.5</ele>
        <time>2012-09-22T16:43:20Z</time>
      </trkpt>
      <trkpt lat="45.14064" lon="4.10329">
        <ele>844.4</ele>
        <time>2012-09-22T16:43:21Z</time>
      </trkpt>
      <trkpt lat="45.14068" lon="4.10334">
        <ele>844.3</ele>
        <time>2012-09-22T16:43:22Z</time>
      </trkpt>
      <trkpt lat="45.14072" lon="4.10338">
        <ele>844.3</ele>
        <time>2012-09-22T16:43:23Z</time>
      </trkpt>
      <trkpt lat="45.14075" lon="4.10343">
        <ele>844.3</ele>
        <time>2012-09-22T16:43:24Z</time>
      </trkpt>
      <trkpt lat="45.14079" lon="4.10347">
        <ele>844.2</ele>
        <time>2012-09-22T16:43:25Z</time>
      </trkpt>
      <trkpt lat="45.14083" lon="4.10352">
        <ele>844.1</ele>
        <time>2012-09-22T16:43:26Z</time>
      </trkpt>
      <trkpt lat="45.14086" lon="4.10356">
        <ele>844.1</ele>
        <time>2012-09-22T16:43:27Z</time>
      </trkpt>
      <trkpt lat="45.1409" lon="4.10361">
        <ele>844.2</ele>
        <time>2012-09-22T16:43:28Z</time>
      </trkpt>
      <trkpt lat="45.14094" lon="4.10365">
        <ele>844.3</ele>
        <time>2012-09-22T16:43:29Z</time>
      </trkpt>
      <trkpt lat="45.14097" lon="4.10369">
        <ele>844.4</ele>
        <time>2012-09-22T16:43:30Z</time>
      </trkpt>
      <trkpt lat="45.14101" lon="4.10374">
        <ele>-6.1E-5</ele>
        <time>2012-09-22T16:43:31Z</time>
      </trkpt>
      <trkpt lat="45.14104" lon="4.10378">
        <ele>-6.1E-5</ele>
        <time>2012-09-22T16:43:32Z</time>
      </trkpt>
      <trkpt lat="45.14108" lon="4.10383">
        <ele>844.1</ele>
        <time>2012-09-22T16:43:33Z</time>
      </trkpt>
      <trkpt lat="45.14111" lon="4.10387">
        <ele>843.9</ele>
        <time>2012-09-22T16:43:34Z</time>
      </trkpt>
      <trkpt lat="45.14114" lon="4.10392">
        <ele>844.2</ele>
        <time>2012-09-22T16:43:35Z</time>
      </trkpt>
      <trkpt lat="45.14118" lon="4.10396">
        <ele>844.5</ele>
        <time>2012-09-22T16:43:36Z</time>
      </trkpt>
      <trkpt lat="45.14124" lon="4.10404">
        <ele>844.9</ele>
        <time>2012-09-22T16:43:38Z</time>
      </trkpt>
      <trkpt lat="45.14131" lon="4.10412">
        <ele>845.2</ele>
        <time>2012-09-22T16:43:40Z</time>
      </trkpt>
      <trkpt lat="45.14135" lon="4.10416">
        <ele>845.3</ele>
        <time>2012-09-22T16:43:41Z</time>
      </trkpt>
      <trkpt lat="45.14138" lon="4.1042">
        <ele>845.2</ele>
        <time>2012-09-22T16:43:42Z</time>
      </trkpt>
      <trkpt lat="45.14142" lon="4.10425">
        <ele>845.1</ele>
        <time>2012-09-22T16:43:43Z</time>
      </trkpt>
      <trkpt lat="45.14145" lon="4.10429">
        <ele>845</ele>
        <time>2012-09-22T16:43:44Z</time>
      </trkpt>
      <trkpt lat="45.14149" lon="4.10433">
        <ele>-6.1E-5</ele>
        <time>2012-09-22T16:43:45Z</time>
      </trkpt>
      <trkpt lat="45.14152" lon="4.10438">
        <ele>-6.1E-5</ele>
        <time>2012-09-22T16:43:46Z</time>
      </trkpt>
      <trkpt lat="45.14155" lon="4.10442">
        <ele>844.7</ele>
        <time>2012-09-22T16:43:47Z</time>
      </trkpt>
      <trkpt lat="45.14159" lon="4.10447">
        <ele>844.7</ele>
        <time>2012-09-22T16:43:48Z</time>
      </trkpt>
      <trkpt lat="45.14163" lon="4.10451">
        <ele>844.6</ele>
        <time>2012-09-22T16:43:49Z</time>
      </trkpt>
      <trkpt lat="45.14166" lon="4.10455">
        <ele>844.4</ele>
        <time>2012-09-22T16:43:50Z</time>
      </trkpt>
      <trkpt lat="45.1417" lon="4.1046">
        <ele>844.3</ele>
        <time>2012-09-22T16:43:51Z</time>
      </trkpt>
      <trkpt lat="45.14173" lon="4.10464">
        <ele>844.3</ele>
        <time>2012-09-22T16:43:52Z</time>
      </trkpt>
      <trkpt lat="45.14177" lon="4.10468">
        <ele>844.3</ele>
        <time>2012-09-22T16:43:53Z</time>
      </trkpt>
      <trkpt lat="45.14181" lon="4.10472">
        <ele>844.5</ele>
        <time>2012-09-22T16:43:54Z</time>
      </trkpt>
      <trkpt lat="45.14184" lon="4.10476">
        <ele>844.5</ele>
        <time>2012-09-22T16:43:55Z</time>
      </trkpt>
      <trkpt lat="45.14188" lon="4.1048">
        <ele>844.5</ele>
        <time>2012-09-22T16:43:56Z</time>
      </trkpt>
      <trkpt lat="45.14191" lon="4.10485">
        <ele>-6.1E-5</ele>
        <time>2012-09-22T16:43:57Z</time>
      </trkpt>
      <trkpt lat="45.14195" lon="4.1049">
        <ele>844.6</ele>
        <time>2012-09-22T16:43:58Z</time>
      </trkpt>
      <trkpt lat="45.14198" lon="4.10494">
        <ele>844.2</ele>
        <time>2012-09-22T16:43:59Z</time>
      </trkpt>
      <trkpt lat="45.14202" lon="4.10499">
        <ele>843.9</ele>
        <time>2012-09-22T16:44:00Z</time>
      </trkpt>
      <trkpt lat="45.14205" lon="4.10503">
        <ele>843.5</ele>
        <time>2012-09-22T16:44:01Z</time>
      </trkpt>
      <trkpt lat="45.14209" lon="4.10507">
        <ele>843.2</ele>
        <time>2012-09-22T16:44:02Z</time>
      </trkpt>
      <trkpt lat="45.14212" lon="4.10511">
        <ele>843</ele>
        <time>2012-09-22T16:44:03Z</time>
      </trkpt>
      <trkpt lat="45.14219" lon="4.10519">
        <ele>842.7</ele>
        <time>2012-09-22T16:44:05Z</time>
      </trkpt>
      <trkpt lat="45.14225" lon="4.10527">
        <ele>842.8</ele>
        <time>2012-09-22T16:44:07Z</time>
      </trkpt>
      <trkpt lat="45.14232" lon="4.10535">
        <ele>-6.1E-5</ele>
        <time>2012-09-22T16:44:09Z</time>
      </trkpt>
      <trkpt lat="45.14238" lon="4.10543">
        <ele>843.8</ele>
        <time>2012-09-22T16:44:11Z</time>
      </trkpt>
      <trkpt lat="45.14245" lon="4.10552">
        <ele>844.7</ele>
        <time>2012-09-22T16:44:13Z</time>
      </trkpt>
      <trkpt lat="45.14248" lon="4.10557">
        <ele>-6.1E-5</ele>
        <time>2012-09-22T16:44:14Z</time>
      </trkpt>
      <trkpt lat="45.14251" lon="4.10563">
        <ele>845.3</ele>
        <time>2012-09-22T16:44:15Z</time>
      </trkpt>
      <trkpt lat="45.14253" lon="4.10569">
        <ele>-6.1E-5</ele>
        <time>2012-09-22T16:44:16Z</time>
      </trkpt>
      <trkpt lat="45.14257" lon="4.10574">
        <ele>845.7</ele>
        <time>2012-09-22T16:44:17Z</time>
      </trkpt>
      <trkpt lat="45.1426" lon="4.1058">
        <ele>845.9</ele>
        <time>2012-09-22T16:44:18Z</time>
      </trkpt>
      <trkpt lat="45.14262" lon="4.10586">
        <ele>846.1</ele>
        <time>2012-09-22T16:44:19Z</time>
      </trkpt>
      <trkpt lat="45.14265" lon="4.10592">
        <ele>-6.1E-5</ele>
        <time>2012-09-22T16:44:20Z</time>
      </trkpt>
      <trkpt lat="45.14268" lon="4.10598">
        <ele>-6.1E-5</ele>
        <time>2012-09-22T16:44:21Z</time>
      </trkpt>
      <trkpt lat="45.1427" lon="4.10604">
        <ele>846.9</ele>
        <time>2012-09-22T16:44:22Z</time>
      </trkpt>
      <trkpt lat="45.14273" lon="4.1061">
        <ele>-6.1E-5</ele>
        <time>2012-09-22T16:44:23Z</time>
      </trkpt>
      <trkpt lat="45.14275" lon="4.10616">
        <ele>-6.1E-5</ele>
        <time>2012-09-22T16:44:24Z</time>
      </trkpt>
      <trkpt lat="45.14277" lon="4.10623">
        <ele>847</ele>
        <time>2012-09-22T16:44:25Z</time>
      </trkpt>
      <trkpt lat="45.14279" lon="4.1063">
        <ele>847</ele>
        <time>2012-09-22T16:44:26Z</time>
      </trkpt>
      <trkpt lat="45.1428" lon="4.10637">
        <ele>847</ele>
        <time>2012-09-22T16:44:27Z</time>
      </trkpt>
      <trkpt lat="45.14282" lon="4.10644">
        <ele>-6.1E-5</ele>
        <time>2012-09-22T16:44:28Z</time>
      </trkpt>
      <trkpt lat="45.14283" lon="4.10651">
        <ele>-6.1E-5</ele>
        <time>2012-09-22T16:44:29Z</time>
      </trkpt>
      <trkpt lat="45.14285" lon="4.10657">
        <ele>848</ele>
        <time>2012-09-22T16:44:30Z</time>
      </trkpt>
      <trkpt lat="45.14287" lon="4.10664">
        <ele>848.3</ele>
        <time>2012-09-22T16:44:31Z</time>
      </trkpt>
      <trkpt lat="45.14288" lon="4.10671">
        <ele>848.2</ele>
        <time>2012-09-22T16:44:32Z</time>
      </trkpt>
      <trkpt lat="45.1429" lon="4.10678">
        <ele>848.1</ele>
        <time>2012-09-22T16:44:33Z</time>
      </trkpt>
      <trkpt lat="45.14292" lon="4.10685">
        <ele>848</ele>
        <time>2012-09-22T16:44:34Z</time>
      </trkpt>
      <trkpt lat="45.14293" lon="4.10692">
        <ele>847.9</ele>
        <time>2012-09-22T16:44:35Z</time>
      </trkpt>
      <trkpt lat="45.14295" lon="4.10699">
        <ele>847.7</ele>
        <time>2012-09-22T16:44:36Z</time>
      </trkpt>
      <trkpt lat="45.14297" lon="4.10706">
        <ele>847.6</ele>
        <time>2012-09-22T16:44:37Z</time>
      </trkpt>
      <trkpt lat="45.14299" lon="4.10712">
        <ele>847.5</ele>
        <time>2012-09-22T16:44:38Z</time>
      </trkpt>
      <trkpt lat="45.143" lon="4.10719">
        <ele>847.4</ele>
        <time>2012-09-22T16:44:39Z</time>
      </trkpt>
      <trkpt lat="45.14302" lon="4.10725">
        <ele>847.3</ele>
        <time>2012-09-22T16:44:40Z</time>
      </trkpt>
      <trkpt lat="45.14304" lon="4.10731">
        <ele>847.1</ele>
        <time>2012-09-22T16:44:41Z</time>
      </trkpt>
      <trkpt lat="45.14306" lon="4.10737">
        <ele>847</ele>
        <time>2012-09-22T16:44:42Z</time>
      </trkpt>
      <trkpt lat="45.14309" lon="4.10743">
        <ele>846.8</ele>
        <time>2012-09-22T16:44:43Z</time>
      </trkpt>
      <trkpt lat="45.14313" lon="4.10747">
        <ele>846.7</ele>
        <time>2012-09-22T16:44:44Z</time>
      </trkpt>
      <trkpt lat="45.14317" lon="4.10752">
        <ele>-6.1E-5</ele>
        <time>2012-09-22T16:44:45Z</time>
      </trkpt>
      <trkpt lat="45.14322" lon="4.10756">
        <ele>846.4</ele>
        <time>2012-09-22T16:44:46Z</time>
      </trkpt>
      <trkpt lat="45.14326" lon="4.1076">
        <ele>846.3</ele>
        <time>2012-09-22T16:44:47Z</time>
      </trkpt>
      <trkpt lat="45.14331" lon="4.10763">
        <ele>846.1</ele>
        <time>2012-09-22T16:44:48Z</time>
      </trkpt>
      <trkpt lat="45.14336" lon="4.10767">
        <ele>845.8</ele>
        <time>2012-09-22T16:44:49Z</time>
      </trkpt>
      <trkpt lat="45.14341" lon="4.1077">
        <ele>845.4</ele>
        <time>2012-09-22T16:44:50Z</time>
      </trkpt>
      <trkpt lat="45.14346" lon="4.10774">
        <ele>845</ele>
        <time>2012-09-22T16:44:51Z</time>
      </trkpt>
      <trkpt lat="45.14351" lon="4.10778">
        <ele>-6.1E-5</ele>
        <time>2012-09-22T16:44:52Z</time>
      </trkpt>
      <trkpt lat="45.14356" lon="4.10783">
        <ele>844.7</ele>
        <time>2012-09-22T16:44:53Z</time>
      </trkpt>
      <trkpt lat="45.1436" lon="4.10787">
        <ele>844.7</ele>
        <time>2012-09-22T16:44:54Z</time>
      </trkpt>
      <trkpt lat="45.14365" lon="4.10791">
        <ele>844.8</ele>
        <time>2012-09-22T16:44:55Z</time>
      </trkpt>
      <trkpt lat="45.14369" lon="4.10795">
        <ele>844.9</ele>
        <time>2012-09-22T16:44:56Z</time>
      </trkpt>
      <trkpt lat="45.14372" lon="4.10799">
        <ele>845</ele>
        <time>2012-09-22T16:44:57Z</time>
      </trkpt>
      <trkpt lat="45.14376" lon="4.10803">
        <ele>845.2</ele>
        <time>2012-09-22T16:44:58Z</time>
      </trkpt>
      <trkpt lat="45.14384" lon="4.10809">
        <ele>-6.1E-5</ele>
        <time>2012-09-22T16:45:00Z</time>
      </trkpt>
      <trkpt lat="45.14391" lon="4.10813">
        <ele>845.5</ele>
        <time>2012-09-22T16:45:02Z</time>
      </trkpt>
      <trkpt lat="45.14398" lon="4.10815">
        <ele>845.5</ele>
        <time>2012-09-22T16:45:04Z</time>
      </trkpt>
      <trkpt lat="45.14406" lon="4.10814">
        <ele>845.4</ele>
        <time>2012-09-22T16:45:06Z</time>
      </trkpt>
      <trkpt lat="45.14413" lon="4.10812">
        <ele>-6.1E-5</ele>
        <time>2012-09-22T16:45:08Z</time>
      </trkpt>
      <trkpt lat="45.14421" lon="4.10809">
        <ele>-6.1E-5</ele>
        <time>2012-09-22T16:45:10Z</time>
      </trkpt>
      <trkpt lat="45.14428" lon="4.10807">
        <ele>845.4</ele>
        <time>2012-09-22T16:45:12Z</time>
      </trkpt>
      <trkpt lat="45.14436" lon="4.10804">
        <ele>-6.1E-5</ele>
        <time>2012-09-22T16:45:14Z</time>
      </trkpt>
      <trkpt lat="45.14445" lon="4.10802">
        <ele>845.4</ele>
        <time>2012-09-22T16:45:16Z</time>
      </trkpt>
      <trkpt lat="45.14453" lon="4.108">
        <ele>845.1</ele>
        <time>2012-09-22T16:45:18Z</time>
      </trkpt>
      <trkpt lat="45.14458" lon="4.108">
        <ele>845</ele>
        <time>2012-09-22T16:45:19Z</time>
      </trkpt>
      <trkpt lat="45.14462" lon="4.10799">
        <ele>844.9</ele>
        <time>2012-09-22T16:45:20Z</time>
      </trkpt>
      <trkpt lat="45.14467" lon="4.10798">
        <ele>844.9</ele>
        <time>2012-09-22T16:45:21Z</time>
      </trkpt>
      <trkpt lat="45.14472" lon="4.10798">
        <ele>844.9</ele>
        <time>2012-09-22T16:45:22Z</time>
      </trkpt>
      <trkpt lat="45.14476" lon="4.10798">
        <ele>845</ele>
        <time>2012-09-22T16:45:23Z</time>
      </trkpt>
      <trkpt lat="45.14481" lon="4.10798">
        <ele>-6.1E-5</ele>
        <time>2012-09-22T16:45:24Z</time>
      </trkpt>
      <trkpt lat="45.14486" lon="4.10798">
        <ele>845.4</ele>
        <time>2012-09-22T16:45:25Z</time>
      </trkpt>
      <trkpt lat="45.14491" lon="4.10799">
        <ele>845.7</ele>
        <time>2012-09-22T16:45:26Z</time>
      </trkpt>
      <trkpt lat="45.14495" lon="4.108">
        <ele>846</ele>
        <time>2012-09-22T16:45:27Z</time>
      </trkpt>
      <trkpt lat="45.145" lon="4.10801">
        <ele>846.3</ele>
        <time>2012-09-22T16:45:28Z</time>
      </trkpt>
      <trkpt lat="45.14504" lon="4.10803">
        <ele>846.6</ele>
        <time>2012-09-22T16:45:29Z</time>
      </trkpt>
      <trkpt lat="45.14513" lon="4.10807">
        <ele>847</ele>
        <time>2012-09-22T16:45:31Z</time>
      </trkpt>
      <trkpt lat="45.1452" lon="4.10811">
        <ele>847</ele>
        <time>2012-09-22T16:45:33Z</time>
      </trkpt>
      <trkpt lat="45.14528" lon="4.10816">
        <ele>-6.1E-5</ele>
        <time>2012-09-22T16:45:35Z</time>
      </trkpt>
      <trkpt lat="45.14534" lon="4.10821">
        <ele>846.8</ele>
        <time>2012-09-22T16:45:37Z</time>
      </trkpt>
      <trkpt lat="45.14541" lon="4.10827">
        <ele>846.8</ele>
        <time>2012-09-22T16:45:39Z</time>
      </trkpt>
      <trkpt lat="45.14548" lon="4.10833">
        <ele>847</ele>
        <time>2012-09-22T16:45:41Z</time>
      </trkpt>
      <trkpt lat="45.14555" lon="4.10838">
        <ele>847</ele>
        <time>2012-09-22T16:45:43Z</time>
      </trkpt>
      <trkpt lat="45.14561" lon="4.10844">
        <ele>846.9</ele>
        <time>2012-09-22T16:45:45Z</time>
      </trkpt>
      <trkpt lat="45.14567" lon="4.10851">
        <ele>-6.1E-5</ele>
        <time>2012-09-22T16:45:47Z</time>
      </trkpt>
      <trkpt lat="45.14572" lon="4.10857">
        <ele>846.9</ele>
        <time>2012-09-22T16:45:49Z</time>
      </trkpt>
      <trkpt lat="45.14578" lon="4.10863">
        <ele>847</ele>
        <time>2012-09-22T16:45:51Z</time>
      </trkpt>
      <trkpt lat="45.14583" lon="4.10869">
        <ele>847.3</ele>
        <time>2012-09-22T16:45:53Z</time>
      </trkpt>
      <trkpt lat="45.14587" lon="4.10876">
        <ele>847.5</ele>
        <time>2012-09-22T16:45:55Z</time>
      </trkpt>
      <trkpt lat="45.1459" lon="4.10884">
        <ele>847.8</ele>
        <time>2012-09-22T16:45:57Z</time>
      </trkpt>
      <trkpt lat="45.1459" lon="4.10893">
        <ele>848.1</ele>
        <time>2012-09-22T16:45:59Z</time>
      </trkpt>
      <trkpt lat="45.14587" lon="4.109">
        <ele>-6.1E-5</ele>
        <time>2012-09-22T16:46:01Z</time>
      </trkpt>
      <trkpt lat="45.14583" lon="4.10906">
        <ele>848.6</ele>
        <time>2012-09-22T16:46:03Z</time>
      </trkpt>
      <trkpt lat="45.1458" lon="4.10911">
        <ele>848.7</ele>
        <time>2012-09-22T16:46:05Z</time>
      </trkpt>
      <trkpt lat="45.14576" lon="4.10916">
        <ele>848.7</ele>
        <time>2012-09-22T16:46:07Z</time>
      </trkpt>
      <trkpt lat="45.14573" lon="4.10921">
        <ele>848.6</ele>
        <time>2012-09-22T16:46:09Z</time>
      </trkpt>
      <trkpt lat="45.14569" lon="4.10926">
        <ele>-6.1E-5</ele>
        <time>2012-09-22T16:46:11Z</time>
      </trkpt>
      <trkpt lat="45.14565" lon="4.10932">
        <ele>848.9</ele>
        <time>2012-09-22T16:46:13Z</time>
      </trkpt>
      <trkpt lat="45.14561" lon="4.10937">
        <ele>849.2</ele>
        <time>2012-09-22T16:46:15Z</time>
      </trkpt>
      <trkpt lat="45.14558" lon="4.10943">
        <ele>849.7</ele>
        <time>2012-09-22T16:46:17Z</time>
      </trkpt>
      <trkpt lat="45.14555" lon="4.10949">
        <ele>849.8</ele>
        <time>2012-09-22T16:46:19Z</time>
      </trkpt>
      <trkpt lat="45.14552" lon="4.10955">
        <ele>849.4</ele>
        <time>2012-09-22T16:46:21Z</time>
      </trkpt>
      <trkpt lat="45.14548" lon="4.10961">
        <ele>849</ele>
        <time>2012-09-22T16:46:23Z</time>
      </trkpt>
      <trkpt lat="45.14545" lon="4.10968">
        <ele>848.7</ele>
        <time>2012-09-22T16:46:25Z</time>
      </trkpt>
      <trkpt lat="45.14541" lon="4.10974">
        <ele>848.5</ele>
        <time>2012-09-22T16:46:27Z</time>
      </trkpt>
      <trkpt lat="45.14537" lon="4.10981">
        <ele>848.7</ele>
        <time>2012-09-22T16:46:29Z</time>
      </trkpt>
      <trkpt lat="45.14533" lon="4.10989">
        <ele>849</ele>
        <time>2012-09-22T16:46:31Z</time>
      </trkpt>
      <trkpt lat="45.14528" lon="4.10996">
        <ele>849.7</ele>
        <time>2012-09-22T16:46:33Z</time>
      </trkpt>
      <trkpt lat="45.14523" lon="4.11003">
        <ele>849.9</ele>
        <time>2012-09-22T16:46:35Z</time>
      </trkpt>
      <trkpt lat="45.14517" lon="4.11008">
        <ele>-6.1E-5</ele>
        <time>2012-09-22T16:46:37Z</time>
      </trkpt>
      <trkpt lat="45.1451" lon="4.11012">
        <ele>849.8</ele>
        <time>2012-09-22T16:46:39Z</time>
      </trkpt>
      <trkpt lat="45.14504" lon="4.11018">
        <ele>849.8</ele>
        <time>2012-09-22T16:46:41Z</time>
      </trkpt>
      <trkpt lat="45.145" lon="4.11026">
        <ele>849.9</ele>
        <time>2012-09-22T16:46:43Z</time>
      </trkpt>
      <trkpt lat="45.14498" lon="4.11036">
        <ele>849.9</ele>
        <time>2012-09-22T16:46:45Z</time>
      </trkpt>
      <trkpt lat="45.14497" lon="4.11046">
        <ele>849.8</ele>
        <time>2012-09-22T16:46:47Z</time>
      </trkpt>
      <trkpt lat="45.14496" lon="4.11056">
        <ele>849.7</ele>
        <time>2012-09-22T16:46:49Z</time>
      </trkpt>
      <trkpt lat="45.14494" lon="4.11067">
        <ele>849.1</ele>
        <time>2012-09-22T16:46:51Z</time>
      </trkpt>
      <trkpt lat="45.14492" lon="4.11078">
        <ele>848.4</ele>
        <time>2012-09-22T16:46:53Z</time>
      </trkpt>
      <trkpt lat="45.1449" lon="4.11089">
        <ele>847.3</ele>
        <time>2012-09-22T16:46:55Z</time>
      </trkpt>
      <trkpt lat="45.14488" lon="4.11095">
        <ele>846.4</ele>
        <time>2012-09-22T16:46:56Z</time>
      </trkpt>
      <trkpt lat="45.14486" lon="4.11101">
        <ele>-6.1E-5</ele>
        <time>2012-09-22T16:46:57Z</time>
      </trkpt>
      <trkpt lat="45.14483" lon="4.11107">
        <ele>-6.1E-5</ele>
        <time>2012-09-22T16:46:58Z</time>
      </trkpt>
      <trkpt lat="45.14481" lon="4.11113">
        <ele>-6.1E-5</ele>
        <time>2012-09-22T16:46:59Z</time>
      </trkpt>
      <trkpt lat="45.14478" lon="4.11119">
        <ele>843.5</ele>
        <time>2012-09-22T16:47:00Z</time>
      </trkpt>
      <trkpt lat="45.14475" lon="4.11125">
        <ele>843.2</ele>
        <time>2012-09-22T16:47:01Z</time>
      </trkpt>
      <trkpt lat="45.14473" lon="4.11131">
        <ele>843</ele>
        <time>2012-09-22T16:47:02Z</time>
      </trkpt>
      <trkpt lat="45.1447" lon="4.11137">
        <ele>843.4</ele>
        <time>2012-09-22T16:47:03Z</time>
      </trkpt>
      <trkpt lat="45.14466" lon="4.11143">
        <ele>-6.1E-5</ele>
        <time>2012-09-22T16:47:04Z</time>
      </trkpt>
      <trkpt lat="45.14463" lon="4.1115">
        <ele>-6.1E-5</ele>
        <time>2012-09-22T16:47:05Z</time>
      </trkpt>
      <trkpt lat="45.1446" lon="4.11157">
        <ele>845.2</ele>
        <time>2012-09-22T16:47:06Z</time>
      </trkpt>
      <trkpt lat="45.14456" lon="4.11165">
        <ele>845.7</ele>
        <time>2012-09-22T16:47:07Z</time>
      </trkpt>
      <trkpt lat="45.14452" lon="4.11173">
        <ele>846</ele>
        <time>2012-09-22T16:47:08Z</time>
      </trkpt>
      <trkpt lat="45.14449" lon="4.11181">
        <ele>846.1</ele>
        <time>2012-09-22T16:47:09Z</time>
      </trkpt>
      <trkpt lat="45.14445" lon="4.11189">
        <ele>846.1</ele>
        <time>2012-09-22T16:47:10Z</time>
      </trkpt>
      <trkpt lat="45.14442" lon="4.11198">
        <ele>-6.1E-5</ele>
        <time>2012-09-22T16:47:11Z</time>
      </trkpt>
      <trkpt lat="45.14439" lon="4.11207">
        <ele>-6.1E-5</ele>
        <time>2012-09-22T16:47:12Z</time>
      </trkpt>
      <trkpt lat="45.14436" lon="4.11216">
        <ele>844.6</ele>
        <time>2012-09-22T16:47:13Z</time>
      </trkpt>
      <trkpt lat="45.14433" lon="4.11226">
        <ele>-6.1E-5</ele>
        <time>2012-09-22T16:47:14Z</time>
      </trkpt>
      <trkpt lat="45.14431" lon="4.11236">
        <ele>843.5</ele>
        <time>2012-09-22T16:47:15Z</time>
      </trkpt>
      <trkpt lat="45.14429" lon="4.11246">
        <ele>843</ele>
        <time>2012-09-22T16:47:16Z</time>
      </trkpt>
      <trkpt lat="45.14426" lon="4.11257">
        <ele>842.3</ele>
        <time>2012-09-22T16:47:17Z</time>
      </trkpt>
      <trkpt lat="45.14423" lon="4.11269">
        <ele>841.7</ele>
        <time>2012-09-22T16:47:18Z</time>
      </trkpt>
      <trkpt lat="45.14421" lon="4.11281">
        <ele>841.1</ele>
        <time>2012-09-22T16:47:19Z</time>
      </trkpt>
      <trkpt lat="45.14419" lon="4.11293">
        <ele>840.5</ele>
        <time>2012-09-22T16:47:20Z</time>
      </trkpt>
      <trkpt lat="45.14418" lon="4.11306">
        <ele>840</ele>
        <time>2012-09-22T16:47:21Z</time>
      </trkpt>
      <trkpt lat="45.14416" lon="4.1132">
        <ele>839</ele>
        <time>2012-09-22T16:47:22Z</time>
      </trkpt>
      <trkpt lat="45.14415" lon="4.11334">
        <ele>837.9</ele>
        <time>2012-09-22T16:47:23Z</time>
      </trkpt>
      <trkpt lat="45.14414" lon="4.11348">
        <ele>-6.1E-5</ele>
        <time>2012-09-22T16:47:24Z</time>
      </trkpt>
      <trkpt lat="45.14413" lon="4.11362">
        <ele>836.7</ele>
        <time>2012-09-22T16:47:25Z</time>
      </trkpt>
      <trkpt lat="45.14412" lon="4.11376">
        <ele>835.7</ele>
        <time>2012-09-22T16:47:26Z</time>
      </trkpt>
      <trkpt lat="45.14411" lon="4.1139">
        <ele>834.8</ele>
        <time>2012-09-22T16:47:27Z</time>
      </trkpt>
      <trkpt lat="45.1441" lon="4.11404">
        <ele>834.8</ele>
        <time>2012-09-22T16:47:28Z</time>
      </trkpt>
      <trkpt lat="45.14409" lon="4.11417">
        <ele>834.7</ele>
        <time>2012-09-22T16:47:29Z</time>
      </trkpt>
      <trkpt lat="45.14408" lon="4.11431">
        <ele>834.2</ele>
        <time>2012-09-22T16:47:30Z</time>
      </trkpt>
      <trkpt lat="45.14407" lon="4.11444">
        <ele>833.7</ele>
        <time>2012-09-22T16:47:31Z</time>
      </trkpt>
      <trkpt lat="45.14406" lon="4.11458">
        <ele>833</ele>
        <time>2012-09-22T16:47:32Z</time>
      </trkpt>
      <trkpt lat="45.14405" lon="4.1147">
        <ele>832.3</ele>
        <time>2012-09-22T16:47:33Z</time>
      </trkpt>
      <trkpt lat="45.14404" lon="4.11483">
        <ele>831.7</ele>
        <time>2012-09-22T16:47:34Z</time>
      </trkpt>
      <trkpt lat="45.14403" lon="4.11496">
        <ele>831.2</ele>
        <time>2012-09-22T16:47:35Z</time>
      </trkpt>
      <trkpt lat="45.14402" lon="4.11508">
        <ele>831</ele>
        <time>2012-09-22T16:47:36Z</time>
      </trkpt>
      <trkpt lat="45.14401" lon="4.1152">
        <ele>-6.1E-5</ele>
        <time>2012-09-22T16:47:37Z</time>
      </trkpt>
      <trkpt lat="45.144" lon="4.11531">
        <ele>-6.1E-5</ele>
        <time>2012-09-22T16:47:38Z</time>
      </trkpt>
      <trkpt lat="45.14399" lon="4.11542">
        <ele>832.2</ele>
        <time>2012-09-22T16:47:39Z</time>
      </trkpt>
      <trkpt lat="45.14399" lon="4.11553">
        <ele>832.8</ele>
        <time>2012-09-22T16:47:40Z</time>
      </trkpt>
      <trkpt lat="45.14399" lon="4.11563">
        <ele>833.1</ele>
        <time>2012-09-22T16:47:41Z</time>
      </trkpt>
      <trkpt lat="45.14398" lon="4.11572">
        <ele>833.4</ele>
        <time>2012-09-22T16:47:42Z</time>
      </trkpt>
      <trkpt lat="45.14398" lon="4.11581">
        <ele>833.6</ele>
        <time>2012-09-22T16:47:43Z</time>
      </trkpt>
      <trkpt lat="45.14398" lon="4.1159">
        <ele>833.8</ele>
        <time>2012-09-22T16:47:44Z</time>
      </trkpt>
      <trkpt lat="45.14397" lon="4.11599">
        <ele>-6.1E-5</ele>
        <time>2012-09-22T16:47:45Z</time>
      </trkpt>
      <trkpt lat="45.14397" lon="4.11608">
        <ele>834.1</ele>
        <time>2012-09-22T16:47:46Z</time>
      </trkpt>
      <trkpt lat="45.14397" lon="4.11616">
        <ele>-6.1E-5</ele>
        <time>2012-09-22T16:47:47Z</time>
      </trkpt>
      <trkpt lat="45.14396" lon="4.11624">
        <ele>834.3</ele>
        <time>2012-09-22T16:47:48Z</time>
      </trkpt>
      <trkpt lat="45.14396" lon="4.11633">
        <ele>-6.1E-5</ele>
        <time>2012-09-22T16:47:49Z</time>
      </trkpt>
      <trkpt lat="45.14395" lon="4.1164">
        <ele>834.5</ele>
        <time>2012-09-22T16:47:50Z</time>
      </trkpt>
      <trkpt lat="45.14395" lon="4.11648">
        <ele>834.5</ele>
        <time>2012-09-22T16:47:51Z</time>
      </trkpt>
      <trkpt lat="45.14395" lon="4.11656">
        <ele>834.5</ele>
        <time>2012-09-22T16:47:52Z</time>
      </trkpt>
      <trkpt lat="45.14394" lon="4.11664">
        <ele>834.5</ele>
        <time>2012-09-22T16:47:53Z</time>
      </trkpt>
      <trkpt lat="45.14394" lon="4.11672">
        <ele>834.3</ele>
        <time>2012-09-22T16:47:54Z</time>
      </trkpt>
      <trkpt lat="45.14392" lon="4.11683">
        <ele>-6.1E-5</ele>
        <time>2012-09-22T16:47:56Z</time>
      </trkpt>
      <trkpt lat="45.14386" lon="4.11691">
        <ele>-6.1E-5</ele>
        <time>2012-09-22T16:47:58Z</time>
      </trkpt>
      <trkpt lat="45.14381" lon="4.11693">
        <ele>834.6</ele>
        <time>2012-09-22T16:47:59Z</time>
      </trkpt>
      <trkpt lat="45.14377" lon="4.11697">
        <ele>834.9</ele>
        <time>2012-09-22T16:48:00Z</time>
      </trkpt>
      <trkpt lat="45.14373" lon="4.11702">
        <ele>835.1</ele>
        <time>2012-09-22T16:48:01Z</time>
      </trkpt>
      <trkpt lat="45.14371" lon="4.11709">
        <ele>835.3</ele>
        <time>2012-09-22T16:48:02Z</time>
      </trkpt>
      <trkpt lat="45.14373" lon="4.11719">
        <ele>835.2</ele>
        <time>2012-09-22T16:48:03Z</time>
      </trkpt>
      <trkpt lat="45.14373" lon="4.11727">
        <ele>835.3</ele>
        <time>2012-09-22T16:48:04Z</time>
      </trkpt>
      <trkpt lat="45.14374" lon="4.11735">
        <ele>835.5</ele>
        <time>2012-09-22T16:48:05Z</time>
      </trkpt>
      <trkpt lat="45.14375" lon="4.11743">
        <ele>835.7</ele>
        <time>2012-09-22T16:48:06Z</time>
      </trkpt>
      <trkpt lat="45.14376" lon="4.11751">
        <ele>835.9</ele>
        <time>2012-09-22T16:48:07Z</time>
      </trkpt>
      <trkpt lat="45.14377" lon="4.11759">
        <ele>836.1</ele>
        <time>2012-09-22T16:48:08Z</time>
      </trkpt>
      <trkpt lat="45.14377" lon="4.11766">
        <ele>-6.1E-5</ele>
        <time>2012-09-22T16:48:09Z</time>
      </trkpt>
      <trkpt lat="45.14378" lon="4.11773">
        <ele>836.4</ele>
        <time>2012-09-22T16:48:10Z</time>
      </trkpt>
      <trkpt lat="45.14378" lon="4.1178">
        <ele>836.6</ele>
        <time>2012-09-22T16:48:11Z</time>
      </trkpt>
      <trkpt lat="45.14378" lon="4.11792">
        <ele>836.7</ele>
        <time>2012-09-22T16:48:13Z</time>
      </trkpt>
      <trkpt lat="45.14379" lon="4.11803">
        <ele>836.7</ele>
        <time>2012-09-22T16:48:15Z</time>
      </trkpt>
      <trkpt lat="45.14378" lon="4.11812">
        <ele>836.9</ele>
        <time>2012-09-22T16:48:17Z</time>
      </trkpt>
      <trkpt lat="45.14378" lon="4.1182">
        <ele>837.1</ele>
        <time>2012-09-22T16:48:19Z</time>
      </trkpt>
      <trkpt lat="45.14377" lon="4.11827">
        <ele>837.3</ele>
        <time>2012-09-22T16:48:21Z</time>
      </trkpt>
      <trkpt lat="45.14377" lon="4.11835">
        <ele>837.4</ele>
        <time>2012-09-22T16:48:23Z</time>
      </trkpt>
      <trkpt lat="45.14376" lon="4.11841">
        <ele>837.5</ele>
        <time>2012-09-22T16:48:25Z</time>
      </trkpt>
      <trkpt lat="45.14375" lon="4.11848">
        <ele>837.5</ele>
        <time>2012-09-22T16:48:27Z</time>
      </trkpt>
      <trkpt lat="45.14375" lon="4.11856">
        <ele>-6.1E-5</ele>
        <time>2012-09-22T16:48:29Z</time>
      </trkpt>
      <trkpt lat="45.14376" lon="4.11863">
        <ele>837.6</ele>
        <time>2012-09-22T16:48:31Z</time>
      </trkpt>
      <trkpt lat="45.14377" lon="4.11871">
        <ele>837.8</ele>
        <time>2012-09-22T16:48:33Z</time>
      </trkpt>
      <trkpt lat="45.14378" lon="4.11879">
        <ele>838</ele>
        <time>2012-09-22T16:48:35Z</time>
      </trkpt>
      <trkpt lat="45.14378" lon="4.11887">
        <ele>838.1</ele>
        <time>2012-09-22T16:48:37Z</time>
      </trkpt>
      <trkpt lat="45.14378" lon="4.11895">
        <ele>-6.1E-5</ele>
        <time>2012-09-22T16:48:39Z</time>
      </trkpt>
      <trkpt lat="45.14377" lon="4.11903">
        <ele>838.9</ele>
        <time>2012-09-22T16:48:41Z</time>
      </trkpt>
      <trkpt lat="45.14377" lon="4.11911">
        <ele>839.2</ele>
        <time>2012-09-22T16:48:43Z</time>
      </trkpt>
      <trkpt lat="45.14376" lon="4.11918">
        <ele>839.7</ele>
        <time>2012-09-22T16:48:45Z</time>
      </trkpt>
      <trkpt lat="45.14376" lon="4.11926">
        <ele>840.3</ele>
        <time>2012-09-22T16:48:47Z</time>
      </trkpt>
      <trkpt lat="45.14375" lon="4.11933">
        <ele>840.9</ele>
        <time>2012-09-22T16:48:49Z</time>
      </trkpt>
      <trkpt lat="45.14374" lon="4.1194">
        <ele>841.6</ele>
        <time>2012-09-22T16:48:51Z</time>
      </trkpt>
      <trkpt lat="45.14374" lon="4.11946">
        <ele>842.1</ele>
        <time>2012-09-22T16:48:53Z</time>
      </trkpt>
      <trkpt lat="45.14374" lon="4.11953">
        <ele>842.5</ele>
        <time>2012-09-22T16:48:55Z</time>
      </trkpt>
      <trkpt lat="45.14374" lon="4.1196">
        <ele>842.8</ele>
        <time>2012-09-22T16:48:57Z</time>
      </trkpt>
      <trkpt lat="45.14373" lon="4.11966">
        <ele>843.2</ele>
        <time>2012-09-22T16:48:59Z</time>
      </trkpt>
      <trkpt lat="45.14373" lon="4.11973">
        <ele>843.6</ele>
        <time>2012-09-22T16:49:01Z</time>
      </trkpt>
      <trkpt lat="45.14372" lon="4.1198">
        <ele>-6.1E-5</ele>
        <time>2012-09-22T16:49:03Z</time>
      </trkpt>
      <trkpt lat="45.14372" lon="4.11987">
        <ele>844.1</ele>
        <time>2012-09-22T16:49:05Z</time>
      </trkpt>
      <trkpt lat="45.14371" lon="4.11993">
        <ele>844.4</ele>
        <time>2012-09-22T16:49:07Z</time>
      </trkpt>
      <trkpt lat="45.1437" lon="4.12">
        <ele>844.7</ele>
        <time>2012-09-22T16:49:09Z</time>
      </trkpt>
      <trkpt lat="45.1437" lon="4.12007">
        <ele>845.2</ele>
        <time>2012-09-22T16:49:11Z</time>
      </trkpt>
      <trkpt lat="45.1437" lon="4.12014">
        <ele>845.7</ele>
        <time>2012-09-22T16:49:13Z</time>
      </trkpt>
      <trkpt lat="45.1437" lon="4.12021">
        <ele>-6.1E-5</ele>
        <time>2012-09-22T16:49:15Z</time>
      </trkpt>
      <trkpt lat="45.14369" lon="4.12028">
        <ele>846.7</ele>
        <time>2012-09-22T16:49:17Z</time>
      </trkpt>
      <trkpt lat="45.14369" lon="4.12036">
        <ele>846.8</ele>
        <time>2012-09-22T16:49:19Z</time>
      </trkpt>
      <trkpt lat="45.14369" lon="4.12043">
        <ele>846.9</ele>
        <time>2012-09-22T16:49:21Z</time>
      </trkpt>
      <trkpt lat="45.14367" lon="4.1205">
        <ele>847</ele>
        <time>2012-09-22T16:49:24Z</time>
      </trkpt>
      <trkpt lat="45.14365" lon="4.12057">
        <ele>847</ele>
        <time>2012-09-22T16:49:27Z</time>
      </trkpt>
      <trkpt lat="45.14364" lon="4.12066">
        <ele>847.4</ele>
        <time>2012-09-22T16:49:30Z</time>
      </trkpt>
      <trkpt lat="45.14363" lon="4.12077">
        <ele>847.8</ele>
        <time>2012-09-22T16:49:33Z</time>
      </trkpt>
      <trkpt lat="45.14362" lon="4.12084">
        <ele>848</ele>
        <time>2012-09-22T16:49:35Z</time>
      </trkpt>
      <trkpt lat="45.14361" lon="4.12092">
        <ele>848.3</ele>
        <time>2012-09-22T16:49:37Z</time>
      </trkpt>
      <trkpt lat="45.14361" lon="4.12101">
        <ele>848.7</ele>
        <time>2012-09-22T16:49:39Z</time>
      </trkpt>
      <trkpt lat="45.1436" lon="4.12109">
        <ele>849</ele>
        <time>2012-09-22T16:49:41Z</time>
      </trkpt>
      <trkpt lat="45.14359" lon="4.12129">
        <ele>-6.1E-5</ele>
        <time>2012-09-22T16:49:45Z</time>
      </trkpt>
      <trkpt lat="45.14359" lon="4.12139">
        <ele>849.2</ele>
        <time>2012-09-22T16:49:47Z</time>
      </trkpt>
      <trkpt lat="45.14359" lon="4.12149">
        <ele>849.6</ele>
        <time>2012-09-22T16:49:49Z</time>
      </trkpt>
      <trkpt lat="45.14359" lon="4.1216">
        <ele>850</ele>
        <time>2012-09-22T16:49:51Z</time>
      </trkpt>
      <trkpt lat="45.14358" lon="4.1217">
        <ele>850.4</ele>
        <time>2012-09-22T16:49:53Z</time>
      </trkpt>
      <trkpt lat="45.14358" lon="4.12181">
        <ele>-6.1E-5</ele>
        <time>2012-09-22T16:49:55Z</time>
      </trkpt>
      <trkpt lat="45.14358" lon="4.12191">
        <ele>-6.1E-5</ele>
        <time>2012-09-22T16:49:57Z</time>
      </trkpt>
      <trkpt lat="45.14357" lon="4.122">
        <ele>-6.1E-5</ele>
        <time>2012-09-22T16:49:59Z</time>
      </trkpt>
      <trkpt lat="45.14357" lon="4.1221">
        <ele>851.8</ele>
        <time>2012-09-22T16:50:01Z</time>
      </trkpt>
      <trkpt lat="45.14357" lon="4.12219">
        <ele>-6.1E-5</ele>
        <time>2012-09-22T16:50:03Z</time>
      </trkpt>
      <trkpt lat="45.14357" lon="4.12229">
        <ele>-6.1E-5</ele>
        <time>2012-09-22T16:50:05Z</time>
      </trkpt>
      <trkpt lat="45.14356" lon="4.12238">
        <ele>852.7</ele>
        <time>2012-09-22T16:50:07Z</time>
      </trkpt>
      <trkpt lat="45.14354" lon="4.12247">
        <ele>853.1</ele>
        <time>2012-09-22T16:50:09Z</time>
      </trkpt>
      <trkpt lat="45.14353" lon="4.12255">
        <ele>853.5</ele>
        <time>2012-09-22T16:50:11Z</time>
      </trkpt>
      <trkpt lat="45.14352" lon="4.12264">
        <ele>854</ele>
        <time>2012-09-22T16:50:13Z</time>
      </trkpt>
      <trkpt lat="45.14352" lon="4.12273">
        <ele>854.4</ele>
        <time>2012-09-22T16:50:15Z</time>
      </trkpt>
      <trkpt lat="45.14352" lon="4.12283">
        <ele>854.8</ele>
        <time>2012-09-22T16:50:17Z</time>
      </trkpt>
      <trkpt lat="45.14352" lon="4.12292">
        <ele>-6.1E-5</ele>
        <time>2012-09-22T16:50:19Z</time>
      </trkpt>
      <trkpt lat="45.14352" lon="4.12302">
        <ele>-6.1E-5</ele>
        <time>2012-09-22T16:50:21Z</time>
      </trkpt>
      <trkpt lat="45.14352" lon="4.12311">
        <ele>855.6</ele>
        <time>2012-09-22T16:50:23Z</time>
      </trkpt>
      <trkpt lat="45.14351" lon="4.1232">
        <ele>856.1</ele>
        <time>2012-09-22T16:50:25Z</time>
      </trkpt>
      <trkpt lat="45.1435" lon="4.12329">
        <ele>-6.1E-5</ele>
        <time>2012-09-22T16:50:27Z</time>
      </trkpt>
      <trkpt lat="45.14349" lon="4.12338">
        <ele>-6.1E-5</ele>
        <time>2012-09-22T16:50:29Z</time>
      </trkpt>
      <trkpt lat="45.14347" lon="4.12346">
        <ele>857.5</ele>
        <time>2012-09-22T16:50:31Z</time>
      </trkpt>
      <trkpt lat="45.14343" lon="4.12352">
        <ele>-6.1E-5</ele>
        <time>2012-09-22T16:50:33Z</time>
      </trkpt>
      <trkpt lat="45.14337" lon="4.12352">
        <ele>858.4</ele>
        <time>2012-09-22T16:50:35Z</time>
      </trkpt>
      <trkpt lat="45.14331" lon="4.12352">
        <ele>858.7</ele>
        <time>2012-09-22T16:50:37Z</time>
      </trkpt>
      <trkpt lat="45.14327" lon="4.12351">
        <ele>858.7</ele>
        <time>2012-09-22T16:50:39Z</time>
      </trkpt>
      <trkpt lat="45.1432" lon="4.1235">
        <ele>-6.1E-5</ele>
        <time>2012-09-22T16:50:42Z</time>
      </trkpt>
      <trkpt lat="45.14315" lon="4.12352">
        <ele>-6.1E-5</ele>
        <time>2012-09-22T16:50:45Z</time>
      </trkpt>
      <trkpt lat="45.14311" lon="4.12354">
        <ele>-6.1E-5</ele>
        <time>2012-09-22T16:50:49Z</time>
      </trkpt>
      <trkpt lat="45.14306" lon="4.12349">
        <ele>859</ele>
        <time>2012-09-22T16:51:36Z</time>
      </trkpt>
      <trkpt lat="45.14301" lon="4.12349">
        <ele>-6.1E-5</ele>
        <time>2012-09-22T16:51:38Z</time>
      </trkpt>
      <trkpt lat="45.14297" lon="4.12348">
        <ele>-6.1E-5</ele>
        <time>2012-09-22T16:51:40Z</time>
      </trkpt>
      <trkpt lat="45.14292" lon="4.12348">
        <ele>859.5</ele>
        <time>2012-09-22T16:51:42Z</time>
      </trkpt>
      <trkpt lat="45.14286" lon="4.12348">
        <ele>859.7</ele>
        <time>2012-09-22T16:51:44Z</time>
      </trkpt>
      <trkpt lat="45.14279" lon="4.12347">
        <ele>860</ele>
        <time>2012-09-22T16:51:46Z</time>
      </trkpt>
      <trkpt lat="45.14272" lon="4.12346">
        <ele>860</ele>
        <time>2012-09-22T16:51:48Z</time>
      </trkpt>
      <trkpt lat="45.14264" lon="4.12346">
        <ele>860</ele>
        <time>2012-09-22T16:51:50Z</time>
      </trkpt>
      <trkpt lat="45.14257" lon="4.12347">
        <ele>860</ele>
        <time>2012-09-22T16:51:52Z</time>
      </trkpt>
      <trkpt lat="45.14251" lon="4.12349">
        <ele>860</ele>
        <time>2012-09-22T16:51:54Z</time>
      </trkpt>
      <trkpt lat="45.14245" lon="4.12353">
        <ele>860.2</ele>
        <time>2012-09-22T16:51:56Z</time>
      </trkpt>
      <trkpt lat="45.14238" lon="4.12357">
        <ele>-6.1E-5</ele>
        <time>2012-09-22T16:51:58Z</time>
      </trkpt>
      <trkpt lat="45.14233" lon="4.12361">
        <ele>860.6</ele>
        <time>2012-09-22T16:52:00Z</time>
      </trkpt>
      <trkpt lat="45.14227" lon="4.12366">
        <ele>860.9</ele>
        <time>2012-09-22T16:52:02Z</time>
      </trkpt>
      <trkpt lat="45.14222" lon="4.1237">
        <ele>861</ele>
        <time>2012-09-22T16:52:04Z</time>
      </trkpt>
      <trkpt lat="45.14217" lon="4.12375">
        <ele>861</ele>
        <time>2012-09-22T16:52:06Z</time>
      </trkpt>
      <trkpt lat="45.14212" lon="4.12381">
        <ele>861</ele>
        <time>2012-09-22T16:52:08Z</time>
      </trkpt>
      <trkpt lat="45.14207" lon="4.12387">
        <ele>861</ele>
        <time>2012-09-22T16:52:10Z</time>
      </trkpt>
      <trkpt lat="45.14202" lon="4.12393">
        <ele>-6.1E-5</ele>
        <time>2012-09-22T16:52:12Z</time>
      </trkpt>
      <trkpt lat="45.14198" lon="4.12398">
        <ele>861</ele>
        <time>2012-09-22T16:52:14Z</time>
      </trkpt>
      <trkpt lat="45.14195" lon="4.12405">
        <ele>861</ele>
        <time>2012-09-22T16:52:16Z</time>
      </trkpt>
      <trkpt lat="45.14192" lon="4.1241">
        <ele>861.1</ele>
        <time>2012-09-22T16:52:18Z</time>
      </trkpt>
      <trkpt lat="45.14188" lon="4.12416">
        <ele>861.2</ele>
        <time>2012-09-22T16:52:20Z</time>
      </trkpt>
      <trkpt lat="45.14185" lon="4.12423">
        <ele>861.4</ele>
        <time>2012-09-22T16:52:23Z</time>
      </trkpt>
      <trkpt lat="45.14182" lon="4.12429">
        <ele>861.4</ele>
        <time>2012-09-22T16:52:26Z</time>
      </trkpt>
      <trkpt lat="45.1418" lon="4.12436">
        <ele>-6.1E-5</ele>
        <time>2012-09-22T16:52:30Z</time>
      </trkpt>
      <trkpt lat="45.14182" lon="4.12442">
        <ele>-6.1E-5</ele>
        <time>2012-09-22T16:52:42Z</time>
      </trkpt>
    </trkseg>
  </trk>
</gpx>